GFSWCAN_700_temp_000.txt.gz
Temp
-1 -0 0 1 1 1 1 1 2 2 2 2 2 2 2 1 1 2 2 2 2 3 3 3 3 3 3 3 3 3 3 3 3 3 3 3 3 2 2 2 2 2 2 1 0 -0 -0 1 1 1 1 1 0 0
-3 -1 -0 0 1 1 1 1 1 1 1 2 2 1 1 1 1 1 1 1 1 2 2 3 3 3 3 2 2 3 3 3 3 3 3 2 2 2 2 1 1 1 1 2 2 1 1 1 1 1 0 -0 -0 -0
-3 -1 -1 -0 0 0 1 0 0 1 1 1 1 1 1 1 0 1 1 1 1 1 1 1 2 2 2 2 2 2 2 2 2 2 2 1 1 1 1 1 1 0 1 0 1 1 1 -0 -0 -0 -0 -0 -0 -1
-3 -1 -1 -1 -0 -0 0 0 -0 0 0 0 1 1 1 1 0 0 -0 -0 -0 0 0 1 1 1 1 1 1 1 1 1 1 1 1 1 0 -0 -0 -0 -1 -0 1 0 1 0 0 -0 -1 -1 -1 -1 -1 -2
-3 -2 -2 -1 -0 -0 -0 -1 -0 -0 -0 -0 0 1 1 1 1 1 -0 -1 -1 -1 -1 -1 -1 -0 -0 -0 -0 -0 0 0 -0 -0 -0 -0 -1 -2 -2 -2 -1 1 1 0 1 0 0 0 -1 -1 -2 -2 -2 -2
-3 -2 -2 -1 -1 -1 -1 -1 -1 -1 -1 -1 -1 -0 0 1 1 0 -1 -1 -1 -2 -1 -2 -1 -1 -1 -2 -1 -1 -0 -0 -0 -1 -1 -2 -2 -2 -2 -2 1 1 1 1 1 0 -1 -1 -1 -2 -2 -2 -3 -3
-3 -3 -3 -2 -1 -1 -1 -1 -1 -1 -1 -1 -1 -1 -1 -0 0 0 -0 -0 -1 -2 -3 -3 -2 -1 -2 -2 -2 -2 -1 -1 -2 -2 -3 -3 -3 -3 -3 -1 0 -1 -1 -1 -1 -1 -2 -2 -3 -3 -4 -4 -4 -4
-3 -3 -3 -2 -2 -1 -2 -2 -2 -2 -2 -2 -2 -2 -1 -1 -1 -0 -1 -1 -1 -4 -4 -2 -4 -3 -3 -4 -3 -3 -2 -3 -3 -3 -3 -4 -4 -4 -1 1 1 0 -1 -2 -2 -3 -3 -3 -4 -4 -4 -4 -4 -4
-5 -4 -3 -3 -3 -2 -2 -2 -2 -2 -2 -2 -2 -2 -2 -2 -1 -1 -2 -2 -3 -4 -4 -4 -4 -4 -2 -4 -4 -4 -3 -4 -4 -5 -4 -5 -5 -2 0 -0 -1 -2 -2 -3 -3 -4 -4 -4 -4 -5 -4 -4 -4 -4
-7 -6 -5 -5 -3 -3 -4 -4 -3 -3 -3 -2 -3 -3 -2 -2 -3 -3 -4 -5 -5 -6 -5 -3 -3 -4 -3 -5 -5 -5 -4 -4 -5 -5 -6 -6 -2 1 -0 -1 -2 -3 -3 -4 -4 -5 -5 -5 -5 -5 -5 -5 -5 -5
-8 -7 -7 -6 -6 -4 -3 -3 -3 -3 -3 -3 -3 -3 -3 -3 -4 -5 -4 -5 -5 -4 -4 -3 -3 -3 -3 -5 -5 -5 -5 -5 -5 -5 -6 -6 -1 -0 -1 -2 -3 -3 -4 -5 -5 -5 -5 -5 -5 -5 -5 -5 -6 -6
-9 -8 -8 -7 -7 -7 -6 -5 -4 -3 -3 -3 -4 -4 -4 -5 -5 -4 -5 -4 -3 -2 -2 -2 -4 -5 -6 -6 -6 -6 -5 -4 -7 -6 -7 -4 -2 -2 -3 -4 -4 -4 -4 -4 -4 -5 -5 -5 -5 -5 -6 -6 -7 -7
-10 -9 -8 -8 -8 -7 -7 -7 -6 -7 -7 -6 -6 -6 -6 -6 -5 -4 -4 -4 -2 -2 -1 -0 -3 -6 -7 -6 -6 -5 -5 -6 -6 -7 -5 -2 -3 -3 -4 -4 -5 -5 -5 -5 -6 -6 -6 -6 -6 -6 -7 -7 -8 -8
-11 -11 -9 -8 -8 -8 -7 -8 -7 -6 -6 -7 -7 -7 -6 -6 -5 -4 -3 -2 -2 -1 -1 -1 -3 -6 -7 -7 -6 -5 -7 -7 -7 -7 -4 -4 -4 -5 -5 -6 -6 -6 -6 -6 -6 -7 -7 -7 -7 -7 -8 -8 -9 -9
-12 -12 -11 -10 -9 -8 -8 -7 -7 -7 -6 -7 -7 -7 -6 -5 -4 -4 -4 -3 -3 -2 -2 -2 -5 -5 -7 -6 -6 -6 -7 -7 -6 -4 -4 -5 -5 -6 -6 -6 -6 -6 -7 -7 -7 -7 -8 -8 -8 -8 -9 -9 -10 -10
-13 -12 -12 -11 -10 -9 -8 -8 -8 -8 -7 -7 -7 -7 -7 -6 -5 -4 -4 -4 -4 -3 -4 -5 -6 -6 -5 -5 -5 -5 -6 -4 -4 -5 -6 -6 -7 -7 -7 -6 -7 -7 -7 -8 -8 -8 -9 -9 -8 -9 -9 -10 -10 -10
-13 -13 -12 -12 -11 -10 -9 -9 -8 -8 -8 -8 -7 -7 -6 -6 -5 -4 -5 -5 -5 -5 -5 -6 -6 -5 -6 -5 -6 -5 -5 -5 -5 -6 -7 -7 -8 -7 -7 -7 -7 -8 -8 -8 -8 -8 -9 -9 -9 -9 -10 -11 -11 -11
-13 -13 -12 -12 -12 -11 -11 -9 -9 -9 -9 -8 -8 -7 -6 -6 -6 -5 -6 -6 -6 -6 -6 -6 -6 -6 -6 -6 -6 -6 -6 -6 -6 -7 -8 -8 -7 -7 -7 -7 -7 -7 -8 -8 -8 -9 -9 -9 -10 -10 -11 -11 -11 -11
-14 -13 -13 -12 -12 -12 -11 -11 -10 -10 -9 -9 -9 -9 -8 -7 -7 -7 -7 -7 -7 -7 -7 -8 -7 -7 -7 -6 -6 -6 -7 -8 -8 -8 -8 -8 -7 -7 -7 -7 -7 -7 -8 -9 -9 -9 -9 -10 -10 -11 -11 -11 -11 -11
-14 -13 -13 -13 -12 -12 -12 -11 -11 -11 -10 -10 -10 -10 -10 -9 -9 -8 -8 -8 -8 -8 -8 -8 -8 -7 -7 -7 -7 -7 -8 -8 -8 -8 -8 -7 -7 -7 -7 -7 -8 -8 -9 -9 -9 -9 -10 -10 -11 -11 -11 -11 -12 -12
-14 -14 -13 -13 -13 -12 -12 -12 -11 -11 -10 -10 -10 -10 -10 -10 -10 -10 -10 -9 -9 -9 -9 -8 -8 -8 -8 -8 -8 -8 -8 -8 -8 -8 -8 -7 -7 -7 -7 -8 -8 -9 -9 -9 -9 -10 -10 -11 -11 -11 -11 -11 -12 -13
-14 -14 -13 -13 -12 -13 -12 -12 -12 -12 -12 -11 -11 -11 -11 -11 -11 -11 -10 -10 -10 -9 -9 -8 -9 -9 -9 -9 -9 -9 -9 -8 -8 -8 -8 -8 -8 -8 -8 -9 -9 -9 -10 -10 -10 -11 -11 -11 -12 -12 -12 -12 -13 -14
-14 -14 -14 -13 -13 -13 -13 -12 -12 -12 -12 -12 -12 -12 -12 -12 -12 -12 -11 -11 -9 -9 -10 -10 -10 -10 -9 -9 -9 -9 -8 -8 -8 -8 -8 -8 -8 -9 -9 -9 -10 -10 -11 -11 -11 -12 -12 -12 -12 -12 -13 -13 -14 -14
-15 -15 -15 -14 -14 -13 -13 -13 -13 -13 -12 -12 -12 -12 -12 -12 -12 -11 -11 -10 -10 -10 -10 -10 -10 -10 -9 -9 -9 -9 -9 -9 -9 -9 -9 -9 -9 -10 -10 -10 -10 -10 -11 -12 -12 -12 -12 -12 -13 -14 -14 -15 -15 -15
-15 -15 -15 -15 -14 -14 -13 -13 -13 -13 -13 -13 -13 -13 -13 -13 -13 -12 -11 -11 -11 -11 -10 -10 -10 -10 -10 -10 -10 -10 -10 -10 -10 -10 -10 -10 -10 -11 -11 -11 -11 -11 -12 -12 -13 -13 -13 -14 -14 -15 -15 -15 -15 -15
-15 -15 -15 -14 -14 -14 -14 -14 -14 -14 -14 -14 -14 -13 -13 -13 -13 -12 -11 -11 -11 -11 -11 -11 -11 -12 -12 -12 -12 -11 -11 -11 -11 -11 -11 -11 -11 -11 -11 -12 -12 -13 -13 -13 -13 -14 -15 -15 -15 -15 -15 -15 -16 -16
-15 -15 -15 -14 -14 -14 -14 -14 -14 -14 -14 -14 -14 -14 -14 -14 -13 -12 -12 -12 -12 -12 -12 -13 -13 -12 -12 -11 -11 -11 -11 -11 -11 -11 -11 -11 -12 -12 -13 -13 -14 -14 -14 -14 -15 -15 -15 -15 -15 -15 -16 -16 -17 -17
-15 -15 -15 -14 -14 -15 -15 -15 -15 -15 -15 -15 -15 -14 -14 -14 -13 -13 -13 -13 -13 -13 -13 -13 -13 -13 -12 -12 -12 -12 -12 -12 -12 -12 -12 -13 -13 -14 -14 -14 -14 -15 -15 -15 -15 -15 -15 -15 -16 -16 -17 -17 -17 -18
-15 -15 -15 -15 -15 -15 -15 -15 -15 -15 -15 -15 -15 -14 -14 -14 -14 -14 -14 -14 -14 -14 -14 -14 -13 -13 -13 -12 -12 -12 -13 -13 -13 -13 -14 -14 -14 -14 -15 -15 -15 -15 -16 -16 -16 -16 -16 -16 -17 -17 -17 -17 -18 -18
-15 -15 -15 -15 -15 -15 -15 -15 -15 -15 -15 -15 -15 -15 -15 -15 -15 -15 -15 -15 -14 -14 -14 -14 -13 -14 -13 -13 -13 -14 -14 -14 -15 -15 -15 -15 -15 -15 -15 -16 -16 -16 -16 -16 -16 -17 -17 -17 -17 -18 -18 -18 -19 -19
-15 -15 -15 -15 -15 -15 -15 -15 -15 -15 -15 -15 -15 -15 -15 -15 -15 -14 -14 -14 -14 -14 -14 -14 -14 -14 -14 -14 -14 -15 -15 -15 -15 -16 -16 -16 -16 -16 -16 -16 -16 -17 -17 -17 -17 -17 -18 -18 -18 -18 -18 -19 -19 -19
-16 -16 -16 -15 -15 -15 -15 -15 -15 -15 -15 -15 -15 -15 -15 -15 -15 -14 -14 -15 -15 -14 -14 -14 -14 -15 -15 -15 -16 -16 -16 -16 -16 -16 -16 -16 -17 -17 -17 -17 -17 -17 -17 -17 -18 -18 -18 -19 -19 -19 -19 -19 -19 -19
-15 -15 -16 -16 -15 -15 -15 -15 -15 -15 -15 -15 -15 -15 -15 -15 -15 -15 -15 -15 -15 -15 -15 -15 -15 -15 -16 -16 -16 -17 -17 -17 -17 -17 -17 -17 -17 -18 -18 -18 -18 -18 -18 -18 -19 -19 -19 -19 -19 -19 -20 -20 -20 -20

GFSWCAN_700_temp_006.txt.gz
Temp
-8 -8 -6 -3 -3 -3 -3 -2 -0 0 1 0 0 1 1 1 1 1 2 2 2 2 2 3 2 2 2 2 2 2 1 1 1 1 2 3 3 3 3 3 4 4 4 2 2 1 1 2 2 2 2 2 2 1
-9 -8 -6 -4 -3 -3 -3 -2 -0 0 0 0 0 1 1 1 1 1 1 1 2 2 2 2 2 2 2 2 2 2 3 2 2 2 2 3 3 3 3 3 3 3 3 3 3 3 2 2 2 1 1 1 1 1
-9 -8 -8 -5 -3 -3 -3 -2 -1 -0 -0 -0 0 0 1 1 0 0 0 1 1 1 2 2 2 2 2 1 2 2 2 2 2 3 2 2 2 2 3 2 2 2 2 2 2 2 2 1 1 1 1 0 0 0
-9 -8 -8 -5 -3 -3 -3 -3 -1 -1 -1 -0 -0 0 1 1 0 0 0 0 0 1 1 1 1 1 1 1 1 1 1 1 1 1 1 2 2 1 1 2 1 1 1 1 1 1 1 1 1 0 -0 -0 -0 -0
-9 -8 -9 -5 -3 -3 -3 -2 -1 -1 -1 -1 -1 -0 0 0 0 -0 -1 -0 -1 -0 0 1 1 1 1 1 1 1 1 1 1 1 1 1 1 1 1 0 1 1 1 0 -0 0 -0 0 -0 -0 -0 0 -0 -1
-9 -8 -7 -5 -3 -3 -3 -2 -1 -1 -1 -1 -1 -1 -0 0 -0 -1 -1 -1 -1 -1 -1 -0 -0 0 0 0 0 0 0 0 0 0 0 0 0 0 -0 -0 0 1 1 -1 -1 -2 -1 -1 -1 -1 -0 -1 -1 -1
-9 -7 -7 -5 -3 -3 -2 -2 -2 -2 -2 -2 -1 -1 -1 -1 -1 -1 -1 0 -1 -1 -2 -2 -1 -1 -1 -1 -1 -1 -1 -1 -0 -0 -0 0 0 -0 -0 -0 0 0 -0 -1 -2 -1 -1 -1 -1 -1 -1 -2 -2 -3
-9 -8 -6 -6 -3 -3 -2 -3 -3 -2 -2 -2 -2 -2 -2 -1 -1 -1 -1 -1 -1 -2 -2 -2 -2 -2 -2 -3 -2 -1 -1 -2 -1 -1 -1 -1 -1 -1 -1 -1 0 0 -0 -1 -1 -2 -2 -2 -2 -2 -2 -3 -3 -4
-10 -8 -6 -5 -3 -3 -3 -4 -4 -3 -3 -3 -3 -2 -2 -2 -2 -1 -1 -1 -1 -3 -3 -3 -3 -2 -2 -3 -3 -2 -3 -3 -3 -2 -2 -2 -1 -1 -1 -0 -0 -0 -0 -1 -2 -2 -2 -2 -2 -3 -3 -4 -4 -4
-10 -8 -7 -5 -3 -4 -3 -3 -3 -3 -3 -3 -3 -3 -2 -2 -2 -2 -2 -2 -3 -4 -3 -2 -2 -2 -1 -3 -4 -3 -3 -3 -3 -3 -3 -3 -2 -2 -2 -1 -1 -1 -1 -1 -1 -2 -3 -3 -3 -4 -4 -4 -4 -4
-10 -9 -8 -6 -4 -4 -4 -3 -3 -4 -4 -3 -3 -3 -3 -3 -3 -4 -3 -3 -3 -4 -2 -1 -2 -2 -2 -3 -5 -5 -4 -4 -4 -4 -4 -4 -1 -0 -0 -1 -2 -1 -1 -2 -2 -3 -3 -3 -4 -4 -4 -4 -4 -4
-11 -10 -8 -7 -6 -5 -4 -4 -4 -3 -3 -3 -3 -3 -4 -5 -4 -4 -4 -3 -2 -2 -1 0 -2 -4 -4 -5 -6 -6 -5 -5 -6 -6 -5 -3 -1 -1 1 0 -1 -2 -3 -3 -3 -4 -4 -5 -5 -4 -4 -4 -4 -4
-11 -10 -9 -8 -7 -5 -5 -4 -6 -5 -4 -4 -5 -6 -5 -5 -5 -4 -4 -2 -1 -0 1 1 -1 -5 -6 -6 -6 -6 -5 -5 -5 -7 -7 -1 -1 -1 -1 -1 -2 -2 -3 -3 -4 -4 -5 -5 -5 -4 -4 -4 -5 -6
-12 -11 -10 -9 -7 -6 -6 -6 -6 -6 -5 -5 -5 -6 -5 -4 -2 -2 -1 -0 0 0 1 0 -2 -4 -7 -7 -5 -5 -6 -6 -8 -8 -1 -0 -0 -2 -3 -3 -3 -4 -4 -4 -4 -4 -5 -5 -4 -4 -5 -5 -6 -7
-12 -12 -10 -9 -9 -7 -7 -7 -6 -6 -6 -6 -6 -5 -4 -4 -4 -3 -1 -1 -1 -1 -0 -1 -3 -4 -6 -6 -5 -6 -6 -7 -6 -2 -1 -0 -1 -2 -3 -3 -3 -3 -4 -4 -5 -5 -5 -5 -5 -5 -6 -6 -7 -7
-13 -12 -12 -10 -9 -8 -7 -7 -7 -7 -6 -6 -6 -6 -5 -5 -5 -3 -3 -2 -2 -1 -2 -4 -5 -5 -5 -5 -5 -4 -5 -3 -2 -2 -2 -2 -2 -3 -4 -4 -4 -4 -5 -5 -5 -5 -6 -6 -6 -6 -6 -7 -7 -8
-14 -13 -13 -12 -10 -9 -8 -7 -7 -7 -7 -7 -7 -6 -5 -5 -5 -5 -4 -3 -3 -3 -4 -4 -4 -4 -5 -4 -5 -4 -4 -3 -3 -3 -3 -4 -5 -5 -5 -5 -5 -5 -5 -6 -6 -7 -7 -6 -6 -7 -7 -7 -8 -8
-13 -14 -13 -12 -11 -10 -9 -9 -8 -8 -8 -8 -7 -6 -6 -5 -5 -6 -6 -6 -6 -5 -5 -5 -5 -5 -4 -5 -4 -4 -4 -4 -5 -5 -5 -6 -6 -6 -6 -6 -6 -6 -6 -7 -7 -7 -7 -7 -7 -8 -8 -8 -9 -9
-14 -14 -14 -13 -12 -11 -11 -10 -9 -9 -9 -8 -8 -7 -7 -6 -6 -6 -6 -6 -8 -8 -7 -7 -6 -5 -5 -5 -5 -6 -6 -6 -6 -6 -7 -7 -7 -7 -7 -7 -6 -7 -7 -7 -7 -7 -7 -7 -8 -8 -9 -9 -10 -10
-14 -14 -13 -13 -13 -12 -11 -11 -10 -10 -10 -9 -8 -8 -7 -7 -6 -6 -7 -7 -7 -8 -8 -9 -8 -6 -6 -7 -7 -7 -7 -7 -7 -8 -8 -8 -7 -7 -7 -7 -7 -8 -8 -8 -8 -8 -8 -8 -9 -9 -9 -10 -10 -11
-14 -14 -14 -13 -13 -12 -12 -11 -11 -10 -10 -10 -9 -9 -8 -8 -7 -7 -7 -8 -8 -8 -9 -8 -7 -7 -8 -8 -8 -7 -7 -8 -8 -8 -8 -8 -7 -7 -8 -8 -8 -8 -8 -8 -8 -8 -8 -9 -9 -10 -10 -11 -11 -12
-14 -14 -14 -13 -13 -12 -12 -12 -11 -11 -10 -10 -10 -10 -10 -9 -9 -9 -9 -9 -9 -9 -9 -8 -8 -8 -8 -8 -8 -7 -7 -7 -8 -7 -7 -7 -7 -8 -8 -8 -8 -8 -8 -8 -8 -9 -9 -10 -10 -10 -11 -11 -12 -13
-14 -14 -14 -14 -13 -13 -13 -12 -12 -11 -11 -10 -10 -10 -10 -9 -9 -10 -9 -9 -9 -9 -10 -11 -11 -9 -9 -8 -8 -9 -8 -8 -8 -8 -8 -8 -8 -8 -8 -8 -8 -8 -9 -9 -10 -10 -10 -11 -11 -11 -12 -13 -13 -14
-15 -14 -14 -14 -14 -13 -13 -12 -12 -12 -12 -11 -11 -11 -11 -11 -10 -10 -10 -10 -11 -11 -11 -11 -11 -10 -10 -9 -9 -9 -9 -9 -9 -9 -9 -9 -9 -9 -9 -9 -9 -10 -10 -10 -10 -11 -11 -12 -12 -13 -13 -14 -14 -14
-15 -15 -14 -14 -14 -14 -13 -13 -12 -12 -12 -12 -12 -12 -12 -12 -11 -11 -11 -11 -11 -10 -10 -10 -10 -10 -10 -10 -10 -10 -10 -10 -10 -10 -10 -10 -10 -10 -10 -10 -10 -10 -11 -11 -12 -12 -12 -13 -13 -14 -14 -15 -15 -15
-15 -15 -14 -14 -14 -14 -14 -14 -13 -13 -13 -13 -13 -12 -12 -12 -12 -12 -12 -12 -12 -12 -12 -11 -11 -11 -11 -11 -11 -11 -11 -11 -11 -11 -11 -11 -11 -11 -11 -11 -11 -11 -12 -12 -13 -14 -14 -14 -15 -15 -15 -15 -15 -15
-15 -15 -14 -14 -14 -14 -14 -14 -14 -14 -14 -13 -13 -13 -13 -13 -13 -13 -13 -13 -13 -12 -11 -11 -11 -11 -12 -12 -12 -12 -12 -12 -12 -11 -11 -11 -11 -11 -11 -12 -12 -13 -13 -14 -14 -15 -15 -15 -15 -15 -15 -15 -16 -16
-15 -15 -15 -15 -14 -15 -15 -15 -15 -15 -14 -14 -14 -14 -14 -13 -13 -13 -13 -13 -13 -13 -13 -13 -13 -13 -13 -13 -13 -12 -12 -12 -12 -12 -12 -12 -12 -12 -12 -13 -14 -14 -15 -15 -15 -15 -15 -16 -16 -16 -16 -16 -16 -17
-15 -15 -15 -15 -15 -15 -15 -15 -15 -15 -15 -15 -15 -15 -15 -14 -14 -14 -14 -14 -14 -14 -14 -14 -14 -14 -13 -13 -13 -12 -12 -13 -13 -13 -13 -13 -13 -13 -14 -14 -15 -15 -15 -15 -15 -16 -16 -16 -16 -16 -17 -17 -17 -17
-15 -15 -15 -15 -15 -15 -15 -15 -15 -15 -15 -15 -15 -15 -15 -15 -15 -15 -15 -14 -14 -14 -14 -14 -14 -13 -13 -13 -13 -13 -13 -13 -13 -13 -13 -14 -14 -15 -15 -15 -16 -16 -16 -16 -16 -16 -16 -17 -17 -17 -17 -17 -18 -18
-15 -15 -15 -15 -15 -15 -15 -15 -15 -15 -15 -15 -16 -15 -15 -15 -15 -15 -15 -15 -14 -14 -14 -14 -14 -14 -14 -14 -14 -14 -14 -14 -14 -14 -15 -15 -15 -16 -16 -16 -16 -16 -16 -16 -17 -17 -17 -17 -17 -17 -18 -18 -18 -18
-16 -16 -16 -16 -16 -16 -16 -16 -16 -16 -16 -16 -16 -16 -16 -16 -15 -15 -15 -15 -15 -15 -15 -15 -15 -15 -14 -14 -14 -14 -14 -14 -15 -15 -16 -16 -16 -17 -17 -17 -17 -17 -17 -17 -17 -18 -18 -18 -18 -18 -18 -19 -19 -19
-15 -15 -16 -16 -16 -17 -17 -17 -16 -16 -16 -16 -16 -15 -15 -15 -15 -15 -14 -15 -15 -15 -15 -15 -15 -15 -15 -15 -15 -15 -15 -16 -16 -17 -17 -17 -17 -17 -17 -17 -17 -17 -18 -18 -18 -18 -18 -18 -18 -19 -19 -19 -19 -19

GFSWCAN_700_temp_009.txt.gz
Temp
-13 -12 -11 -8 -6 -5 -4 -3 -4 -3 -2 -1 -1 -0 0 -0 0 -0 -0 0 0 0 2 2 2 2 2 1 1 1 -0 -0 -0 -0 -0 1 2 2 2 3 3 3 3 3 3 2 2 4 3 3 4 3 3 2
-13 -12 -11 -9 -7 -5 -3 -4 -4 -3 -2 -1 -1 -0 -0 -0 -0 -0 -0 -0 -0 -0 1 2 2 1 2 1 2 2 1 1 -0 -0 1 2 2 2 3 3 3 3 3 4 4 4 4 4 3 2 2 2 2 1
-13 -12 -10 -9 -7 -5 -3 -4 -3 -3 -2 -1 -1 -0 -0 -0 -0 -0 -1 -0 -0 -0 0 1 2 1 1 1 1 1 2 2 1 1 2 2 2 3 3 3 3 3 3 2 2 3 3 2 2 1 1 1 1 0
-12 -11 -10 -9 -8 -6 -3 -3 -3 -3 -2 -2 -1 -1 -0 -0 -0 -1 -1 -1 -1 -1 -0 1 1 1 1 1 1 1 1 1 1 1 2 2 2 2 2 3 2 2 2 2 2 2 2 1 1 1 1 0 -0 -0
-12 -11 -10 -9 -7 -5 -4 -3 -3 -2 -2 -2 -1 -1 -0 -1 -1 -1 -1 -1 -1 -1 -0 0 1 1 1 1 1 1 1 1 1 1 1 1 1 1 1 1 1 2 2 1 1 1 0 0 -0 -0 -0 -1 -1 -1
-11 -11 -10 -9 -7 -5 -4 -3 -3 -2 -1 -2 -2 -1 -1 -1 -1 -1 -2 -1 -1 -1 -1 -1 -0 0 0 0 1 0 0 0 0 0 0 0 1 0 0 0 1 1 1 1 1 0 -1 -1 -1 -1 -2 -2 -2 -2
-11 -11 -10 -8 -7 -6 -3 -3 -3 -2 -2 -2 -2 -2 -1 -1 -1 -2 -2 -2 -2 -1 -1 -1 -1 -1 -1 -1 -1 -0 0 0 -0 -0 -0 -0 -0 -0 -0 -0 0 0 0 0 0 -0 -2 -2 -2 -2 -2 -2 -2 -2
-12 -10 -10 -8 -7 -5 -4 -3 -3 -3 -3 -3 -2 -2 -2 -2 -2 -3 -2 -2 -2 -1 -2 -2 -1 -2 -1 -1 -1 -1 -1 -2 -2 -1 -1 -1 -1 -1 -1 -0 0 0 0 0 -1 -1 -1 -1 -2 -2 -2 -2 -2 -3
-12 -10 -10 -8 -6 -5 -3 -4 -4 -3 -4 -3 -3 -3 -2 -2 -2 -3 -3 -2 -2 -2 -3 -2 -2 -2 -2 -2 -3 -3 -2 -2 -2 -2 -2 -2 -2 -1 -1 -0 -0 -0 -1 -1 -1 -2 -1 -2 -2 -2 -2 -2 -3 -3
-12 -10 -10 -9 -6 -5 -3 -3 -3 -3 -3 -4 -4 -4 -3 -3 -3 -3 -3 -4 -4 -3 -3 -3 -2 -2 -1 -3 -3 -3 -3 -3 -3 -3 -3 -3 -2 -1 -1 -1 -1 -1 -1 -1 -1 -2 -2 -2 -2 -2 -3 -3 -4 -4
-12 -11 -10 -9 -7 -5 -4 -4 -4 -3 -4 -4 -4 -3 -3 -4 -4 -4 -4 -4 -4 -4 -3 -2 -2 -2 -2 -3 -4 -4 -4 -4 -4 -4 -3 -3 0 1 0 -0 -1 -1 -2 -2 -1 -2 -2 -3 -3 -3 -4 -4 -4 -4
-12 -11 -10 -9 -7 -6 -4 -5 -4 -4 -4 -4 -4 -4 -4 -5 -5 -4 -4 -3 -2 -1 -0 -0 -2 -3 -3 -4 -5 -5 -5 -4 -4 -5 -4 -2 2 1 1 1 -2 -3 -3 -2 -2 -3 -3 -4 -4 -5 -5 -4 -4 -4
-12 -12 -10 -9 -8 -6 -5 -5 -5 -5 -5 -5 -5 -5 -5 -5 -5 -4 -3 -3 -1 0 1 1 -1 -3 -4 -4 -5 -4 -4 -5 -5 -4 -3 1 2 1 1 1 -1 -4 -4 -3 -3 -3 -4 -4 -5 -5 -5 -4 -4 -5
-13 -12 -11 -10 -9 -7 -6 -6 -6 -6 -5 -5 -5 -6 -4 -4 -3 -2 -1 -1 1 1 1 1 -1 -3 -4 -5 -4 -4 -5 -5 -5 -4 1 1 1 1 0 -0 -1 -3 -4 -4 -4 -5 -5 -5 -5 -5 -5 -5 -5 -5
-13 -13 -12 -10 -9 -8 -6 -7 -6 -6 -6 -5 -5 -5 -4 -3 -3 -2 -1 -1 0 0 1 -0 -2 -3 -4 -5 -5 -4 -5 -6 -4 -0 0 -0 -1 -1 -2 -3 -3 -4 -4 -5 -5 -5 -5 -5 -5 -5 -5 -6 -6 -6
-13 -13 -12 -11 -9 -9 -7 -7 -7 -7 -6 -6 -6 -5 -4 -3 -3 -2 -2 -1 -1 -0 -1 -2 -4 -4 -4 -4 -4 -4 -4 -2 -1 -0 -0 -1 -2 -4 -5 -5 -5 -5 -5 -5 -5 -5 -5 -5 -6 -6 -6 -6 -7 -7
-13 -13 -12 -11 -10 -9 -8 -8 -7 -7 -6 -6 -6 -5 -5 -5 -4 -2 -2 -2 -2 -2 -3 -3 -3 -3 -4 -4 -4 -3 -2 -2 -1 -1 -1 -2 -3 -5 -6 -6 -6 -6 -5 -5 -5 -5 -6 -6 -7 -7 -7 -7 -7 -7
-14 -14 -13 -12 -11 -10 -9 -9 -8 -7 -8 -7 -7 -6 -5 -5 -5 -4 -3 -4 -3 -3 -3 -3 -3 -3 -3 -4 -3 -2 -2 -3 -3 -2 -3 -4 -5 -6 -6 -6 -6 -6 -6 -6 -6 -6 -7 -7 -7 -7 -7 -7 -8 -8
-14 -14 -14 -12 -12 -11 -10 -9 -9 -9 -8 -8 -7 -7 -6 -6 -6 -6 -5 -7 -6 -5 -5 -5 -4 -4 -4 -4 -4 -3 -3 -3 -3 -4 -5 -6 -6 -6 -6 -6 -6 -6 -6 -6 -7 -7 -7 -7 -7 -7 -8 -8 -8 -9
-14 -14 -14 -13 -12 -11 -11 -10 -10 -9 -9 -8 -8 -7 -7 -7 -7 -7 -6 -6 -6 -7 -8 -7 -7 -6 -6 -5 -5 -5 -5 -6 -6 -6 -6 -7 -7 -7 -7 -7 -7 -7 -7 -7 -8 -8 -8 -8 -8 -8 -8 -9 -9 -10
-14 -14 -14 -13 -12 -12 -11 -11 -10 -10 -10 -9 -8 -8 -8 -7 -7 -7 -7 -7 -7 -7 -7 -6 -7 -7 -7 -7 -6 -7 -7 -7 -7 -8 -7 -7 -7 -7 -7 -7 -7 -7 -8 -8 -8 -8 -8 -8 -9 -9 -9 -10 -10 -11
-14 -14 -14 -13 -13 -12 -12 -11 -11 -10 -10 -10 -9 -9 -8 -8 -8 -8 -8 -8 -9 -8 -8 -8 -8 -8 -8 -7 -7 -8 -8 -8 -8 -8 -8 -8 -8 -8 -8 -8 -8 -8 -8 -8 -8 -8 -9 -9 -9 -10 -10 -11 -11 -12
-14 -14 -14 -13 -13 -13 -12 -12 -11 -11 -11 -11 -10 -10 -10 -10 -9 -9 -9 -9 -9 -9 -9 -9 -9 -9 -9 -8 -8 -8 -8 -8 -8 -8 -8 -8 -8 -8 -8 -8 -8 -8 -9 -9 -9 -9 -10 -10 -11 -11 -11 -12 -13 -13
-14 -14 -14 -14 -14 -13 -13 -12 -12 -12 -11 -11 -11 -10 -10 -10 -10 -10 -9 -9 -9 -9 -9 -10 -10 -10 -9 -9 -9 -9 -9 -9 -9 -8 -8 -8 -8 -9 -9 -9 -9 -9 -10 -10 -10 -10 -10 -11 -12 -12 -13 -13 -14 -14
-14 -14 -14 -14 -14 -14 -13 -13 -12 -12 -12 -12 -11 -11 -11 -11 -11 -10 -10 -10 -10 -10 -10 -10 -10 -10 -10 -10 -10 -10 -10 -10 -9 -9 -9 -9 -9 -10 -10 -10 -10 -10 -10 -10 -11 -11 -12 -12 -13 -13 -14 -14 -14 -15
-15 -15 -14 -14 -14 -14 -14 -14 -13 -13 -13 -12 -12 -12 -12 -12 -11 -11 -11 -11 -11 -11 -11 -11 -11 -11 -11 -11 -11 -11 -11 -10 -10 -10 -10 -10 -11 -11 -11 -11 -11 -11 -11 -11 -12 -12 -13 -13 -14 -14 -14 -15 -15 -15
-15 -15 -14 -14 -14 -14 -14 -14 -14 -14 -13 -13 -13 -13 -12 -12 -12 -12 -12 -12 -11 -12 -11 -11 -12 -12 -11 -11 -11 -11 -11 -12 -12 -12 -12 -11 -11 -11 -11 -11 -11 -12 -12 -12 -13 -14 -14 -14 -15 -15 -15 -15 -16 -16
-15 -15 -15 -15 -14 -14 -14 -14 -14 -14 -14 -13 -14 -13 -13 -14 -13 -13 -13 -13 -13 -13 -12 -12 -12 -12 -12 -12 -12 -12 -13 -13 -12 -12 -12 -12 -12 -12 -12 -12 -12 -13 -13 -14 -14 -15 -15 -15 -15 -16 -16 -16 -16 -17
-15 -15 -15 -15 -15 -15 -15 -15 -15 -15 -15 -14 -14 -14 -14 -14 -14 -13 -13 -14 -13 -13 -14 -14 -14 -14 -14 -14 -13 -13 -13 -13 -12 -12 -13 -13 -13 -13 -13 -13 -14 -14 -15 -15 -16 -16 -16 -16 -16 -16 -17 -17 -17 -17
-15 -15 -15 -15 -15 -15 -15 -15 -15 -15 -15 -15 -15 -15 -15 -15 -15 -15 -15 -15 -15 -15 -15 -15 -14 -14 -14 -14 -13 -13 -13 -13 -14 -14 -14 -13 -14 -14 -14 -14 -15 -15 -16 -16 -16 -16 -16 -17 -17 -17 -17 -17 -17 -18
-15 -15 -15 -15 -15 -15 -15 -16 -16 -16 -15 -15 -15 -15 -15 -15 -15 -15 -15 -15 -14 -14 -14 -14 -14 -14 -14 -14 -14 -14 -14 -14 -14 -14 -14 -14 -14 -15 -15 -16 -16 -16 -16 -16 -17 -17 -17 -17 -17 -18 -18 -18 -18 -18
-15 -15 -16 -16 -16 -16 -16 -16 -16 -16 -16 -16 -16 -16 -16 -16 -16 -16 -16 -15 -15 -15 -15 -14 -14 -14 -14 -14 -15 -14 -14 -14 -14 -15 -15 -15 -16 -16 -17 -17 -17 -17 -17 -17 -17 -17 -18 -18 -18 -18 -18 -18 -19 -19
-15 -16 -16 -16 -16 -16 -16 -16 -16 -16 -16 -16 -16 -16 -16 -16 -16 -15 -15 -15 -15 -15 -15 -15 -15 -15 -15 -15 -15 -15 -15 -15 -15 -15 -16 -16 -17 -17 -17 -17 -17 -18 -18 -18 -18 -18 -18 -18 -18 -18 -18 -18 -19 -19

GFSWCAN_700_temp_012.txt.gz
Temp
-13 -13 -12 -12 -11 -10 -7 -6 -5 -4 -3 -4 -3 -2 -2 -2 -1 -1 -1 -1 -0 -0 0 1 1 -0 -0 -1 -0 -1 -0 -0 -0 -0 0 0 -0 1 1 1 1 0 0 0 1 -0 2 4 4 4 5 5 4 4
-13 -12 -12 -12 -12 -11 -7 -8 -6 -3 -4 -3 -3 -2 -2 -2 -1 -1 -1 -1 -1 -0 0 1 1 1 -1 -1 -0 -0 0 -0 -0 0 0 -0 0 0 0 1 2 2 2 2 2 3 4 4 4 3 4 4 3 2
-13 -12 -12 -12 -11 -9 -7 -7 -5 -4 -3 -3 -3 -2 -2 -2 -1 -1 -2 -2 -1 -1 -0 1 1 1 1 0 -0 -0 0 1 0 -0 -0 -0 1 2 2 3 3 3 2 2 3 3 4 4 4 3 2 2 1 1
-13 -12 -12 -11 -11 -9 -7 -6 -4 -3 -3 -3 -2 -2 -2 -2 -2 -1 -2 -2 -1 -1 -1 0 1 1 1 1 0 1 1 1 1 0 1 1 1 2 2 3 3 3 3 3 3 3 3 2 2 2 1 1 1 -0
-13 -12 -12 -11 -10 -9 -7 -5 -4 -3 -3 -3 -2 -2 -2 -2 -2 -2 -2 -2 -2 -1 -1 -0 0 1 1 1 1 1 1 1 1 0 1 1 1 1 2 2 2 2 2 2 2 2 1 1 1 1 1 0 -0 -0
-13 -12 -12 -11 -10 -9 -7 -5 -4 -3 -3 -3 -2 -2 -3 -3 -2 -2 -2 -2 -2 -2 -2 -1 -0 -0 0 0 0 1 1 1 1 1 1 1 1 1 1 1 2 2 1 1 2 2 1 1 0 -0 -1 -1 -1 -1
-13 -12 -12 -11 -10 -9 -8 -6 -4 -3 -3 -3 -2 -3 -3 -3 -3 -3 -2 -2 -1 -1 -2 -2 -1 -1 -0 -0 -0 -0 0 0 0 0 0 1 1 0 0 1 1 1 1 1 1 1 1 0 -1 -1 -1 -2 -2 -2
-13 -13 -12 -10 -10 -9 -7 -5 -4 -4 -3 -3 -3 -3 -3 -3 -3 -3 -2 -2 -2 -1 -1 -1 -1 -1 -1 -1 -1 -1 -1 -1 -1 -0 -1 -0 -0 -0 -0 1 1 1 0 0 0 0 -0 -1 -2 -2 -3 -3 -2 -2
-13 -13 -12 -10 -10 -8 -6 -5 -4 -4 -3 -4 -4 -4 -4 -4 -4 -3 -4 -3 -3 -2 -2 -2 -2 -1 -1 -2 -2 -2 -2 -2 -2 -1 -2 -2 -1 -1 0 1 1 1 -0 -1 -1 -1 -2 -2 -2 -2 -2 -2 -3 -3
-13 -13 -11 -10 -9 -8 -6 -5 -4 -4 -3 -3 -4 -4 -5 -4 -4 -4 -3 -3 -2 -2 -3 -2 -2 -2 -1 -2 -2 -3 -2 -2 -2 -2 -2 -2 -1 0 -0 -0 -1 -1 -0 -1 -1 -1 -2 -3 -3 -3 -3 -3 -3 -4
-13 -13 -12 -10 -9 -8 -6 -5 -4 -4 -4 -4 -4 -5 -5 -4 -5 -5 -5 -5 -5 -4 -3 -3 -3 -2 -2 -3 -3 -4 -3 -3 -3 -3 -3 -3 1 2 2 1 -1 -2 -2 -2 -2 -2 -4 -4 -3 -3 -4 -4 -4 -4
-13 -13 -12 -10 -9 -8 -6 -5 -5 -4 -4 -4 -4 -5 -5 -6 -5 -5 -5 -4 -3 -3 -2 -2 -2 -3 -3 -4 -4 -4 -4 -3 -4 -4 -3 -2 2 2 2 1 -2 -3 -3 -3 -3 -3 -3 -4 -4 -4 -4 -4 -4 -4
-13 -13 -12 -10 -9 -8 -6 -5 -5 -5 -5 -5 -6 -6 -5 -5 -5 -4 -4 -4 -2 -2 -0 -0 -2 -3 -4 -4 -4 -4 -4 -4 -4 -4 -2 1 2 2 1 -1 -2 -4 -4 -4 -4 -4 -4 -4 -4 -4 -5 -5 -5 -5
-13 -13 -12 -11 -9 -9 -7 -6 -6 -5 -6 -5 -5 -5 -4 -4 -2 -2 -2 -1 -0 1 1 1 -2 -4 -4 -4 -4 -4 -4 -4 -4 -3 1 1 2 2 1 -1 -3 -4 -5 -5 -5 -4 -4 -5 -5 -5 -5 -5 -5 -5
-13 -13 -12 -11 -10 -9 -8 -6 -6 -6 -5 -5 -5 -5 -4 -3 -3 -2 -1 -1 -0 1 1 0 -3 -3 -4 -4 -3 -3 -4 -3 -2 1 1 1 1 0 -0 -1 -3 -5 -5 -5 -5 -5 -5 -5 -5 -5 -5 -5 -6 -6
-13 -13 -12 -11 -10 -9 -8 -6 -6 -6 -6 -5 -5 -5 -3 -3 -3 -2 -1 -1 -1 0 -1 -3 -3 -3 -3 -3 -2 -2 -3 -1 0 0 0 0 -0 -1 -2 -2 -4 -6 -6 -5 -5 -6 -6 -5 -5 -5 -6 -6 -7 -7
-13 -13 -12 -12 -10 -9 -8 -7 -6 -7 -6 -6 -6 -5 -5 -4 -3 -2 -2 -1 -1 -1 -1 -3 -2 -2 -3 -3 -3 -2 -1 0 -0 -0 -0 -1 -2 -3 -4 -4 -5 -5 -6 -6 -6 -5 -5 -5 -5 -6 -7 -7 -7 -7
-14 -13 -13 -12 -11 -10 -9 -8 -8 -7 -7 -7 -6 -5 -4 -4 -3 -2 -2 -3 -2 -3 -3 -3 -1 -2 -2 -2 -2 -1 -1 -1 -1 -1 -1 -2 -4 -5 -5 -6 -6 -6 -6 -6 -5 -5 -5 -6 -6 -7 -7 -7 -7 -7
-14 -14 -13 -12 -11 -10 -10 -9 -8 -8 -8 -7 -6 -6 -5 -5 -5 -4 -4 -4 -5 -4 -5 -5 -3 -3 -3 -3 -2 -2 -2 -2 -2 -2 -3 -5 -6 -6 -7 -6 -6 -6 -6 -6 -6 -6 -6 -7 -7 -7 -7 -8 -8 -8
-14 -13 -13 -13 -12 -11 -10 -10 -9 -9 -8 -7 -7 -6 -6 -5 -5 -5 -5 -6 -6 -6 -6 -6 -6 -5 -4 -4 -4 -4 -3 -3 -3 -3 -4 -6 -7 -7 -7 -6 -6 -6 -6 -6 -6 -6 -7 -7 -8 -8 -8 -8 -8 -9
-13 -13 -13 -13 -12 -11 -11 -11 -10 -9 -9 -8 -7 -7 -7 -6 -6 -6 -6 -6 -7 -7 -7 -6 -6 -6 -6 -6 -5 -5 -4 -4 -5 -5 -6 -7 -7 -7 -7 -6 -6 -6 -7 -7 -7 -7 -8 -8 -8 -8 -8 -9 -9 -10
-13 -13 -13 -13 -12 -12 -12 -11 -10 -10 -9 -9 -8 -8 -7 -7 -7 -7 -7 -7 -7 -7 -6 -6 -7 -7 -8 -7 -6 -6 -6 -7 -7 -7 -7 -7 -7 -7 -7 -7 -7 -7 -7 -7 -8 -8 -8 -9 -9 -9 -9 -10 -10 -11
-13 -14 -14 -13 -13 -13 -12 -12 -11 -11 -10 -10 -9 -9 -9 -8 -8 -8 -8 -8 -8 -7 -8 -8 -8 -8 -8 -8 -7 -7 -8 -8 -8 -8 -8 -8 -8 -8 -8 -8 -8 -8 -8 -9 -9 -9 -9 -9 -9 -10 -10 -11 -11 -12
-14 -14 -14 -14 -13 -13 -13 -12 -12 -11 -11 -11 -10 -10 -10 -9 -9 -9 -9 -8 -8 -8 -8 -8 -9 -9 -9 -8 -8 -8 -9 -9 -9 -9 -9 -9 -8 -8 -8 -8 -8 -9 -9 -9 -9 -9 -10 -10 -10 -11 -11 -12 -13 -13
-14 -14 -14 -14 -14 -14 -13 -13 -12 -12 -12 -11 -11 -11 -10 -10 -10 -10 -9 -9 -9 -9 -9 -9 -10 -10 -10 -10 -9 -9 -9 -9 -9 -9 -9 -9 -9 -9 -9 -10 -10 -10 -10 -10 -10 -10 -10 -11 -11 -12 -13 -13 -14 -14
-14 -14 -14 -14 -14 -14 -14 -14 -14 -13 -12 -12 -12 -12 -11 -11 -11 -11 -10 -9 -9 -9 -9 -9 -10 -11 -11 -11 -10 -10 -10 -10 -10 -10 -10 -10 -10 -10 -10 -10 -10 -10 -10 -10 -10 -11 -11 -12 -13 -13 -14 -14 -15 -15
-15 -14 -14 -14 -14 -14 -14 -14 -14 -14 -14 -13 -13 -12 -12 -12 -12 -12 -11 -11 -11 -11 -11 -11 -11 -11 -11 -11 -11 -11 -11 -11 -11 -11 -11 -11 -11 -11 -11 -11 -11 -11 -11 -11 -12 -12 -13 -13 -14 -14 -15 -15 -15 -15
-15 -15 -15 -15 -15 -15 -14 -14 -14 -14 -14 -14 -13 -13 -13 -13 -13 -12 -12 -11 -11 -11 -11 -11 -11 -11 -11 -12 -12 -12 -12 -12 -12 -12 -12 -12 -11 -11 -11 -11 -11 -11 -12 -12 -13 -13 -14 -15 -15 -15 -15 -15 -16 -16
-15 -15 -15 -15 -15 -15 -15 -15 -15 -15 -15 -14 -14 -14 -14 -13 -13 -13 -13 -13 -12 -12 -12 -13 -13 -14 -14 -14 -14 -14 -13 -13 -13 -13 -12 -12 -12 -12 -12 -12 -13 -13 -13 -14 -14 -15 -15 -15 -16 -16 -16 -16 -17 -17
-15 -15 -15 -15 -15 -15 -15 -15 -15 -15 -15 -15 -15 -14 -14 -14 -14 -14 -14 -14 -14 -14 -14 -14 -14 -14 -14 -14 -14 -14 -13 -13 -13 -13 -13 -13 -13 -13 -13 -13 -14 -14 -15 -15 -16 -16 -16 -16 -16 -17 -17 -17 -17 -18
-15 -15 -15 -15 -15 -15 -15 -15 -15 -15 -15 -15 -15 -15 -15 -15 -15 -15 -15 -15 -15 -15 -15 -15 -15 -14 -14 -14 -14 -14 -14 -14 -14 -14 -14 -14 -14 -14 -14 -15 -15 -15 -16 -16 -16 -16 -17 -17 -17 -17 -18 -18 -18 -18
-15 -15 -15 -16 -16 -16 -16 -16 -16 -16 -16 -16 -16 -16 -16 -16 -16 -16 -16 -16 -15 -15 -15 -15 -15 -15 -15 -15 -15 -15 -15 -15 -15 -14 -14 -14 -14 -15 -15 -15 -16 -16 -17 -17 -17 -17 -17 -18 -18 -18 -18 -18 -18 -18
-15 -16 -16 -16 -16 -16 -16 -16 -16 -16 -16 -16 -16 -16 -16 -16 -16 -16 -16 -16 -16 -15 -15 -15 -15 -15 -15 -15 -15 -15 -15 -15 -15 -15 -15 -15 -15 -16 -16 -17 -17 -17 -17 -18 -18 -18 -18 -18 -18 -18 -18 -18 -18 -18

GFSWCAN_700_temp_015.txt.gz
Temp
-13 -13 -13 -12 -12 -12 -11 -11 -7 -6 -4 -4 -3 -4 -3 -4 -3 -2 -2 -2 -2 -2 -1 -1 -1 -1 -1 -1 -1 -1 -1 -1 -1 -0 0 1 0 0 1 0 -0 -1 -0 -1 -1 -0 1 4 4 4 5 5 5 5
-13 -13 -13 -12 -12 -12 -11 -10 -7 -6 -4 -3 -4 -4 -3 -3 -2 -2 -2 -2 -2 -1 -1 -1 -1 -1 -1 -1 -1 -1 -1 -1 -1 -0 -0 1 1 1 1 0 0 1 1 2 2 2 4 4 4 4 4 4 4 4
-13 -13 -13 -12 -12 -12 -11 -11 -8 -6 -4 -4 -3 -4 -3 -3 -3 -2 -2 -2 -2 -1 -1 -1 -0 -0 -1 -1 -1 -1 -0 -1 -1 -1 -0 -0 -0 -0 0 1 1 1 2 2 3 3 3 4 4 4 4 3 3 3
-13 -13 -13 -12 -12 -11 -11 -10 -8 -6 -5 -4 -3 -3 -3 -3 -3 -2 -2 -2 -2 -2 -2 -1 -1 -0 -1 -1 -1 -1 -1 -1 -1 0 -0 -1 -0 0 0 1 1 2 3 3 3 3 3 3 3 3 3 3 2 2
-13 -13 -13 -12 -12 -11 -10 -9 -8 -5 -5 -4 -3 -3 -3 -3 -3 -2 -3 -2 -2 -3 -2 -1 -0 0 -0 -1 -1 -1 -0 -1 -1 -1 -1 -1 -1 1 2 2 2 2 3 3 3 3 3 3 3 3 2 2 1 0
-13 -13 -13 -12 -12 -11 -10 -9 -8 -6 -5 -3 -3 -4 -3 -3 -3 -3 -3 -2 -2 -3 -2 -2 -1 -0 0 -1 -1 -0 0 -0 -0 -0 0 1 1 1 1 2 3 2 2 2 2 2 2 2 2 1 1 0 -0 -1
-13 -13 -13 -12 -11 -10 -10 -9 -8 -6 -4 -4 -3 -3 -3 -3 -3 -4 -3 -2 -2 -3 -3 -2 -1 -1 -0 0 -0 -0 -0 -0 -0 -0 0 1 1 1 1 1 3 3 2 2 2 1 1 1 1 1 -0 -1 -1 -1
-13 -13 -13 -12 -11 -10 -9 -8 -7 -6 -4 -4 -3 -4 -4 -4 -3 -4 -3 -3 -2 -2 -2 -2 -1 -1 -1 -1 -1 -1 -1 -1 -1 -1 -0 0 0 0 0 2 2 2 2 2 1 1 1 0 0 -0 -1 -2 -2 -2
-13 -13 -13 -12 -11 -10 -9 -8 -7 -5 -4 -4 -4 -4 -4 -4 -4 -3 -3 -2 -2 -2 -2 -2 -2 -1 -1 -1 -1 -1 -1 -1 -1 -1 -1 -1 -0 0 2 2 2 2 1 1 0 -0 -0 -0 -1 -2 -2 -3 -3 -3
-13 -12 -12 -12 -11 -10 -9 -8 -6 -5 -4 -4 -4 -4 -4 -4 -4 -4 -3 -3 -2 -2 -2 -2 -2 -1 -1 -2 -2 -2 -2 -2 -2 -1 -1 -1 0 2 1 1 1 1 1 0 0 -0 -0 -2 -2 -2 -3 -3 -3 -3
-13 -12 -12 -12 -11 -10 -9 -7 -6 -5 -5 -5 -4 -4 -4 -5 -4 -5 -4 -4 -3 -3 -3 -3 -3 -2 -1 -2 -2 -3 -2 -2 -2 -2 -2 -2 0 3 2 1 -0 -1 -1 -1 -1 -1 -2 -4 -3 -3 -3 -3 -3 -3
-13 -12 -12 -12 -11 -10 -9 -7 -6 -5 -5 -5 -4 -5 -5 -5 -5 -5 -5 -4 -3 -2 -3 -3 -2 -2 -2 -3 -3 -3 -3 -3 -3 -3 -3 -1 2 3 2 2 -0 -2 -2 -2 -2 -2 -2 -3 -4 -3 -3 -3 -4 -4
-13 -12 -12 -12 -11 -10 -9 -7 -6 -5 -5 -5 -5 -5 -5 -6 -5 -5 -5 -4 -3 -3 -2 -1 -2 -3 -3 -4 -4 -3 -3 -3 -4 -3 -2 1 3 3 3 2 1 -2 -3 -3 -3 -3 -3 -3 -4 -4 -4 -4 -5 -4
-13 -13 -13 -12 -11 -10 -9 -7 -6 -6 -6 -6 -5 -5 -4 -4 -3 -4 -3 -2 -1 -1 1 -1 -1 -4 -4 -4 -4 -3 -3 -4 -4 -3 1 2 2 2 2 1 -1 -3 -4 -4 -4 -4 -4 -4 -4 -5 -5 -5 -5 -5
-13 -13 -13 -12 -11 -10 -9 -8 -6 -6 -6 -5 -5 -4 -3 -3 -2 -2 -1 -2 -1 -0 1 -1 -3 -3 -4 -4 -3 -3 -3 -3 -2 1 2 2 2 1 1 0 -2 -4 -4 -4 -5 -4 -5 -5 -5 -5 -5 -5 -5 -5
-13 -13 -13 -12 -11 -10 -9 -7 -7 -6 -6 -5 -5 -4 -3 -3 -3 -2 -2 -1 -1 -1 -1 -3 -4 -3 -4 -2 -3 -2 -3 -0 1 1 1 1 1 1 -0 -2 -4 -5 -5 -5 -5 -5 -5 -5 -5 -5 -5 -5 -5 -6
-13 -13 -13 -12 -11 -10 -9 -8 -7 -6 -6 -5 -5 -5 -4 -3 -3 -2 -1 -1 -1 -1 -1 -3 -3 -3 -3 -2 -2 -1 -0 1 1 1 1 1 0 -0 -1 -3 -5 -6 -6 -5 -5 -5 -5 -5 -5 -5 -5 -6 -6 -7
-13 -13 -13 -12 -11 -10 -9 -9 -8 -7 -7 -6 -6 -5 -4 -3 -3 -2 -1 -2 -2 -2 -2 -2 -2 -2 -2 -2 -0 0 0 1 1 0 -0 -0 -1 -2 -3 -4 -6 -6 -6 -6 -6 -6 -5 -5 -5 -5 -6 -6 -7 -7
-12 -12 -12 -12 -11 -10 -9 -9 -8 -8 -7 -6 -6 -5 -5 -3 -3 -3 -3 -4 -4 -3 -4 -4 -3 -2 -2 -1 -0 -0 -0 -1 -1 -1 -1 -2 -3 -4 -5 -6 -6 -6 -6 -6 -6 -6 -6 -6 -6 -6 -7 -7 -8 -8
-12 -12 -12 -12 -12 -11 -10 -10 -9 -8 -8 -7 -6 -6 -5 -5 -4 -4 -4 -5 -4 -5 -6 -6 -4 -3 -3 -2 -2 -2 -2 -2 -2 -2 -2 -4 -5 -6 -6 -7 -7 -6 -6 -6 -6 -6 -6 -6 -7 -7 -8 -8 -8 -8
-12 -12 -12 -12 -12 -11 -11 -10 -10 -9 -8 -7 -7 -6 -6 -5 -4 -5 -5 -6 -7 -6 -6 -6 -6 -5 -4 -4 -4 -4 -4 -5 -4 -4 -3 -4 -6 -7 -7 -7 -7 -7 -7 -7 -6 -6 -7 -7 -8 -8 -8 -8 -9 -9
-13 -13 -13 -13 -12 -12 -12 -11 -10 -10 -9 -8 -8 -8 -7 -7 -6 -6 -6 -7 -7 -7 -7 -7 -7 -7 -7 -6 -6 -6 -5 -4 -5 -6 -6 -7 -7 -7 -7 -7 -7 -7 -7 -7 -7 -7 -7 -8 -8 -9 -9 -9 -9 -9
-13 -13 -13 -13 -13 -12 -12 -12 -11 -11 -10 -10 -9 -9 -9 -8 -8 -8 -8 -8 -7 -7 -7 -7 -7 -7 -7 -7 -7 -7 -6 -7 -7 -8 -8 -8 -8 -8 -8 -8 -7 -7 -7 -7 -8 -8 -9 -9 -9 -9 -9 -9 -10 -10
-13 -13 -14 -14 -13 -13 -13 -12 -12 -11 -11 -10 -10 -9 -9 -9 -8 -8 -8 -8 -8 -8 -7 -7 -8 -8 -8 -8 -7 -7 -7 -8 -9 -9 -8 -8 -9 -9 -9 -8 -8 -8 -8 -8 -9 -9 -9 -9 -10 -10 -10 -10 -11 -11
-14 -14 -14 -14 -14 -14 -13 -13 -12 -12 -12 -11 -11 -10 -10 -10 -9 -9 -8 -8 -8 -8 -8 -8 -8 -9 -9 -9 -8 -9 -9 -9 -9 -9 -9 -10 -10 -10 -10 -9 -9 -9 -9 -10 -10 -10 -10 -10 -10 -10 -10 -11 -12 -13
-14 -14 -14 -14 -14 -14 -14 -14 -13 -13 -13 -12 -12 -11 -11 -11 -10 -10 -9 -8 -9 -9 -8 -8 -9 -10 -10 -10 -10 -10 -10 -10 -10 -10 -10 -10 -10 -10 -10 -10 -10 -10 -10 -10 -10 -10 -10 -10 -11 -11 -12 -13 -13 -14
-14 -14 -14 -14 -14 -14 -14 -14 -14 -13 -13 -13 -13 -12 -12 -11 -11 -10 -10 -10 -9 -10 -10 -10 -10 -10 -11 -11 -11 -11 -11 -11 -11 -11 -10 -10 -11 -11 -11 -11 -11 -11 -10 -10 -10 -10 -11 -11 -12 -13 -13 -14 -14 -15
-14 -14 -15 -15 -15 -15 -14 -15 -14 -14 -14 -14 -14 -13 -13 -12 -12 -11 -10 -11 -11 -11 -11 -11 -11 -11 -11 -11 -11 -11 -11 -11 -11 -11 -12 -12 -11 -11 -11 -11 -11 -11 -11 -11 -11 -11 -12 -13 -13 -14 -14 -15 -15 -15
-14 -14 -14 -15 -15 -15 -15 -15 -15 -15 -15 -14 -14 -14 -14 -13 -13 -12 -12 -12 -12 -12 -12 -12 -11 -11 -11 -11 -11 -12 -13 -13 -13 -13 -12 -12 -12 -12 -11 -11 -11 -11 -12 -12 -12 -13 -13 -14 -14 -15 -15 -15 -16 -16
-15 -15 -15 -15 -15 -15 -15 -15 -15 -15 -15 -15 -14 -14 -14 -14 -14 -14 -14 -13 -13 -13 -13 -13 -13 -13 -13 -13 -14 -14 -14 -14 -13 -13 -13 -12 -12 -12 -12 -12 -12 -13 -13 -13 -14 -14 -15 -15 -15 -16 -16 -16 -16 -17
-15 -15 -15 -15 -15 -15 -15 -15 -15 -15 -15 -15 -15 -15 -15 -14 -15 -15 -15 -14 -14 -14 -14 -14 -14 -14 -14 -14 -14 -14 -14 -14 -14 -13 -13 -13 -13 -13 -13 -13 -14 -14 -14 -14 -15 -15 -16 -16 -16 -16 -16 -17 -17 -18
-15 -15 -15 -15 -15 -15 -16 -16 -16 -16 -16 -16 -16 -15 -15 -15 -15 -15 -15 -15 -15 -15 -15 -15 -15 -15 -15 -15 -15 -14 -14 -14 -14 -14 -14 -14 -14 -14 -14 -14 -15 -15 -15 -16 -16 -16 -16 -17 -17 -17 -17 -18 -18 -18
-15 -15 -15 -16 -16 -16 -16 -16 -16 -16 -16 -16 -16 -16 -16 -16 -16 -15 -15 -15 -16 -16 -16 -16 -15 -15 -15 -15 -15 -15 -15 -15 -15 -15 -15 -15 -15 -15 -15 -16 -16 -16 -16 -17 -17 -17 -17 -17 -17 -18 -18 -18 -18 -18

GFSWCAN_700_temp_018.txt.gz
Temp
-12 -12 -13 -13 -13 -12 -12 -11 -11 -10 -7 -6 -5 -4 -3 -4 -4 -4 -3 -3 -3 -2 -2 -2 -2 -2 -3 -2 -1 -1 -1 -1 -1 -1 -1 -0 0 0 0 -0 -1 -1 -1 -1 -1 -0 0 3 3 4 4 4 5 5
-13 -13 -13 -13 -13 -13 -12 -11 -11 -10 -7 -6 -5 -4 -4 -4 -3 -4 -3 -3 -3 -2 -2 -2 -2 -1 -2 -2 -1 -1 -1 -1 -1 -1 -1 0 1 0 1 -0 -0 -0 1 1 1 2 3 3 4 4 4 4 4 4
-13 -13 -13 -13 -13 -12 -11 -11 -11 -9 -7 -5 -5 -4 -4 -4 -3 -4 -3 -3 -3 -2 -2 -2 -1 -1 -1 -1 -1 -1 -1 -1 -1 -1 -0 1 1 1 1 1 1 0 1 1 1 2 3 3 3 4 4 4 4 3
-13 -13 -13 -13 -13 -12 -12 -11 -10 -9 -7 -6 -5 -4 -4 -4 -3 -3 -2 -3 -3 -3 -2 -1 -1 -1 -1 -1 -2 -2 -1 -1 -1 -1 -1 -0 -0 1 1 1 1 1 1 1 2 2 3 4 4 4 3 3 3 3
-13 -13 -13 -13 -13 -12 -12 -11 -10 -9 -7 -6 -4 -4 -4 -4 -3 -3 -3 -3 -3 -3 -2 -2 -1 -1 -1 -1 -2 -2 -1 -1 -1 -1 -1 -1 -1 -0 0 0 0 2 2 2 2 3 3 3 3 3 3 2 2 1
-13 -13 -13 -13 -13 -12 -11 -10 -10 -8 -6 -6 -4 -4 -4 -4 -3 -4 -4 -3 -3 -3 -3 -2 -2 -1 -1 -1 -1 -1 -2 -1 -1 -1 -1 -1 -1 -0 1 1 2 2 2 2 3 3 3 3 3 2 2 2 1 0
-13 -13 -13 -13 -13 -12 -11 -10 -9 -8 -6 -5 -4 -4 -4 -4 -4 -4 -3 -3 -3 -3 -3 -3 -2 -1 -1 -1 -1 -1 -1 -1 -1 -1 -1 -1 -0 0 1 2 2 2 2 2 2 2 2 2 2 2 2 1 0 -1
-13 -13 -13 -13 -13 -12 -11 -10 -9 -8 -6 -5 -4 -4 -4 -5 -4 -4 -3 -3 -2 -3 -3 -3 -2 -2 -1 -1 -1 -1 -1 -1 -1 -1 -1 -1 -0 0 1 2 2 2 2 2 2 2 1 1 1 1 0 -1 -1 -2
-13 -13 -12 -12 -12 -12 -11 -10 -9 -7 -6 -5 -4 -4 -4 -4 -4 -4 -4 -3 -3 -3 -2 -3 -2 -1 -1 -1 -1 -1 -1 -2 -1 -1 -1 -1 -1 0 2 2 2 2 2 2 1 1 1 0 -0 -0 -1 -1 -2 -2
-12 -12 -12 -12 -12 -12 -11 -10 -9 -7 -5 -5 -4 -5 -4 -4 -4 -4 -4 -4 -3 -3 -3 -2 -2 -2 -1 -1 -2 -2 -2 -2 -2 -1 -1 -1 0 1 1 1 1 1 2 1 1 0 -0 -1 -1 -1 -2 -2 -3 -3
-12 -12 -12 -12 -12 -12 -11 -10 -8 -7 -6 -5 -5 -5 -5 -5 -4 -4 -3 -4 -3 -3 -3 -3 -2 -2 -2 -2 -2 -2 -2 -2 -2 -1 -2 -2 1 3 2 2 1 0 -0 0 0 -0 -0 -1 -1 -2 -2 -3 -3 -3
-12 -12 -13 -12 -12 -12 -11 -9 -8 -7 -6 -5 -5 -4 -5 -4 -4 -4 -4 -4 -4 -3 -3 -3 -2 -2 -2 -2 -3 -2 -2 -2 -2 -2 -2 -1 2 2 2 2 2 0 -1 -1 -1 -1 -1 -1 -2 -3 -3 -3 -3 -4
-12 -12 -12 -12 -12 -11 -10 -9 -8 -6 -6 -5 -5 -5 -5 -4 -4 -4 -3 -3 -3 -3 -2 -2 -1 -3 -3 -3 -3 -3 -2 -3 -3 -2 -1 1 2 3 3 2 1 0 -2 -2 -2 -2 -2 -2 -3 -4 -4 -4 -4 -4
-12 -12 -12 -12 -12 -11 -10 -9 -8 -7 -6 -5 -5 -5 -4 -4 -3 -3 -2 -2 -2 -1 0 -1 -1 -3 -3 -3 -3 -3 -3 -3 -3 -3 0 2 2 2 2 2 1 -0 -3 -3 -3 -3 -3 -3 -4 -4 -4 -4 -4 -4
-12 -12 -13 -13 -12 -10 -9 -8 -8 -7 -6 -5 -5 -5 -4 -3 -3 -3 -2 -2 -1 -1 -1 -1 -3 -3 -3 -4 -4 -3 -3 -3 -1 1 2 2 2 2 2 2 1 -3 -3 -4 -4 -4 -4 -4 -4 -4 -4 -4 -4 -4
-12 -12 -12 -12 -11 -10 -9 -8 -8 -7 -6 -5 -5 -5 -4 -4 -3 -3 -2 -1 -2 -2 -1 -2 -4 -4 -4 -3 -2 -2 -2 -0 2 2 2 1 2 2 1 0 -1 -4 -4 -4 -4 -5 -4 -5 -5 -5 -5 -4 -4 -5
-12 -12 -12 -11 -11 -10 -9 -8 -8 -7 -7 -6 -5 -5 -4 -4 -3 -2 -2 -2 -1 -2 -1 -3 -3 -3 -3 -3 -2 -1 -0 1 1 2 2 1 1 1 0 -1 -3 -5 -5 -5 -5 -5 -5 -5 -5 -5 -5 -5 -5 -5
-12 -12 -12 -11 -11 -10 -10 -9 -9 -8 -7 -6 -6 -5 -4 -4 -3 -2 -2 -2 -1 -2 -2 -2 -1 -2 -2 -1 -1 0 0 1 1 1 1 1 0 -0 -2 -3 -4 -5 -6 -6 -5 -5 -5 -5 -5 -5 -5 -5 -6 -6
-12 -12 -12 -11 -11 -10 -10 -9 -9 -8 -7 -7 -6 -5 -4 -4 -4 -3 -3 -3 -2 -2 -3 -3 -3 -2 -2 -1 -0 1 0 0 0 0 0 -0 -1 -1 -3 -5 -6 -7 -6 -6 -6 -6 -6 -6 -6 -6 -6 -6 -6 -7
-12 -13 -12 -12 -11 -11 -10 -10 -9 -8 -8 -7 -6 -5 -5 -4 -4 -4 -4 -4 -3 -4 -5 -4 -4 -4 -3 -2 -1 -0 -0 -0 -0 -0 -1 -1 -2 -3 -5 -6 -7 -6 -6 -6 -6 -6 -6 -6 -6 -6 -6 -7 -7 -8
-13 -12 -12 -12 -12 -11 -11 -11 -10 -10 -9 -7 -7 -6 -6 -5 -5 -5 -5 -5 -5 -5 -5 -4 -4 -4 -4 -3 -2 -1 -2 -2 -1 -2 -2 -2 -3 -5 -6 -7 -7 -7 -7 -7 -6 -6 -6 -6 -7 -7 -7 -8 -8 -8
-13 -13 -13 -13 -12 -12 -12 -12 -11 -11 -10 -9 -8 -7 -6 -6 -6 -6 -6 -7 -7 -6 -6 -6 -6 -6 -6 -5 -4 -3 -3 -3 -4 -4 -5 -4 -4 -6 -7 -7 -7 -7 -7 -7 -7 -7 -7 -7 -7 -8 -8 -8 -9 -9
-13 -13 -13 -13 -13 -13 -12 -12 -11 -11 -11 -11 -10 -9 -8 -7 -7 -7 -7 -7 -7 -7 -7 -7 -7 -6 -6 -6 -6 -6 -6 -6 -6 -6 -6 -6 -7 -7 -7 -7 -7 -7 -7 -7 -7 -7 -7 -8 -8 -9 -9 -9 -9 -9
-13 -13 -13 -14 -14 -13 -13 -13 -12 -12 -11 -11 -10 -10 -10 -9 -9 -9 -8 -8 -7 -7 -7 -7 -7 -7 -6 -6 -6 -6 -7 -8 -8 -8 -8 -8 -8 -8 -8 -8 -8 -8 -8 -8 -8 -8 -8 -9 -9 -9 -9 -9 -10 -10
-13 -14 -14 -14 -14 -14 -13 -13 -13 -12 -12 -12 -11 -11 -10 -10 -9 -9 -9 -8 -8 -8 -8 -7 -7 -7 -7 -7 -7 -8 -8 -8 -8 -8 -9 -9 -9 -9 -9 -9 -8 -9 -9 -9 -9 -9 -9 -9 -9 -10 -10 -10 -10 -11
-14 -14 -14 -14 -14 -14 -14 -14 -14 -13 -13 -13 -12 -12 -11 -11 -10 -10 -9 -8 -8 -8 -8 -8 -8 -8 -9 -9 -8 -8 -8 -9 -10 -10 -9 -10 -9 -9 -9 -9 -9 -9 -9 -10 -10 -10 -10 -10 -10 -10 -10 -11 -12 -13
-14 -14 -14 -14 -14 -14 -14 -14 -14 -14 -14 -13 -13 -12 -12 -11 -11 -11 -10 -9 -9 -9 -9 -9 -9 -9 -9 -9 -9 -9 -9 -10 -10 -10 -10 -10 -10 -10 -10 -10 -10 -10 -10 -10 -10 -10 -10 -10 -11 -11 -12 -13 -13 -14
-14 -14 -14 -14 -15 -15 -15 -14 -14 -14 -14 -14 -14 -13 -13 -12 -12 -12 -11 -11 -10 -10 -10 -10 -10 -10 -10 -10 -10 -10 -10 -10 -10 -10 -10 -10 -10 -10 -10 -11 -11 -10 -10 -10 -10 -11 -11 -11 -12 -13 -13 -14 -14 -15
-14 -14 -14 -14 -15 -15 -15 -15 -15 -15 -15 -14 -14 -14 -14 -13 -12 -12 -11 -12 -12 -11 -11 -11 -11 -11 -11 -11 -11 -11 -11 -11 -11 -11 -11 -11 -11 -12 -11 -11 -11 -11 -11 -11 -11 -12 -12 -13 -13 -14 -14 -15 -15 -15
-14 -14 -14 -15 -15 -15 -15 -15 -15 -15 -15 -15 -14 -14 -14 -14 -14 -13 -13 -13 -13 -13 -12 -12 -12 -12 -12 -12 -12 -11 -11 -11 -11 -12 -13 -13 -12 -12 -12 -12 -12 -12 -12 -12 -12 -13 -13 -14 -14 -15 -15 -16 -16 -16
-14 -14 -15 -15 -15 -15 -15 -15 -15 -15 -15 -15 -15 -15 -14 -14 -14 -14 -14 -14 -14 -14 -14 -14 -14 -13 -13 -13 -13 -13 -13 -14 -14 -14 -13 -13 -13 -12 -12 -12 -13 -13 -13 -13 -13 -14 -15 -15 -15 -16 -16 -16 -16 -17
-14 -14 -15 -15 -15 -15 -15 -15 -16 -16 -16 -15 -16 -16 -15 -15 -15 -15 -15 -15 -15 -15 -15 -15 -14 -14 -14 -14 -14 -14 -14 -14 -14 -14 -13 -13 -13 -13 -13 -13 -13 -14 -14 -14 -15 -15 -15 -16 -16 -16 -16 -17 -17 -17
-15 -15 -15 -15 -15 -16 -16 -16 -16 -16 -16 -16 -16 -16 -16 -16 -16 -16 -15 -15 -15 -15 -15 -15 -15 -15 -15 -15 -15 -15 -15 -15 -14 -14 -14 -14 -14 -14 -14 -14 -14 -15 -15 -15 -16 -16 -16 -16 -17 -17 -17 -17 -18 -18

GFSWCAN_700_temp_021.txt.gz
Temp
-10 -12 -12 -12 -12 -12 -12 -12 -11 -11 -9 -8 -6 -5 -4 -4 -3 -3 -4 -3 -3 -3 -3 -3 -3 -3 -3 -3 -3 -2 -2 -1 -1 -1 -1 -1 -1 -0 -0 0 -0 -0 -1 -1 -1 -0 0 4 4 4 4 4 5 5
-10 -12 -13 -12 -12 -12 -12 -12 -11 -11 -9 -8 -6 -5 -4 -4 -4 -4 -4 -4 -4 -3 -3 -2 -3 -2 -3 -2 -2 -2 -2 -1 -1 -1 -1 -0 -1 -0 0 -1 -0 -1 0 0 1 2 3 3 3 3 4 4 4 4
-11 -13 -13 -12 -13 -12 -12 -12 -11 -11 -10 -8 -6 -6 -4 -4 -4 -4 -4 -4 -4 -3 -3 -3 -2 -2 -2 -3 -2 -2 -2 -1 -1 -1 -1 -1 -0 0 0 1 1 0 -0 0 1 2 3 3 3 4 4 4 4 4
-12 -13 -13 -13 -13 -13 -12 -12 -11 -11 -9 -8 -6 -5 -4 -4 -4 -4 -4 -4 -4 -3 -3 -2 -2 -2 -2 -2 -2 -2 -2 -1 -1 -1 -1 -1 -0 1 1 1 1 2 1 1 1 2 3 3 3 3 3 3 3 3
-13 -12 -12 -13 -13 -13 -12 -12 -11 -10 -9 -7 -6 -5 -4 -4 -4 -4 -4 -4 -4 -3 -3 -3 -2 -1 -1 -1 -2 -2 -2 -2 -1 -1 -1 -1 -1 -0 0 0 0 1 2 2 3 2 2 3 3 3 3 3 3 2
-13 -13 -13 -13 -13 -13 -12 -12 -11 -10 -9 -7 -6 -5 -4 -4 -4 -4 -4 -3 -4 -3 -3 -3 -3 -2 -1 -1 -2 -2 -2 -2 -1 -2 -1 -2 -1 -1 -1 0 2 1 2 1 2 2 2 2 3 3 2 2 2 1
-12 -12 -12 -13 -13 -13 -12 -12 -11 -10 -9 -7 -6 -5 -4 -4 -4 -4 -4 -3 -4 -3 -3 -3 -2 -1 -1 -1 -1 -2 -2 -1 -2 -2 -1 -1 -1 -1 -0 1 2 2 2 2 2 2 2 2 2 2 2 1 1 0
-12 -12 -12 -12 -13 -12 -12 -12 -11 -10 -9 -7 -5 -5 -4 -4 -5 -4 -5 -3 -3 -3 -3 -3 -2 -2 -1 -1 -1 -1 -2 -2 -2 -2 -1 -1 -1 -1 1 2 2 2 2 2 2 2 1 1 1 1 1 0 -0 -1
-12 -12 -12 -12 -12 -12 -12 -11 -10 -9 -8 -6 -5 -5 -5 -4 -4 -5 -4 -4 -4 -3 -3 -3 -3 -1 -2 -1 -2 -2 -2 -2 -1 -1 -1 -1 -1 -0 2 2 2 2 2 1 1 1 1 1 1 0 -0 -0 -1 -2
-12 -12 -12 -12 -12 -12 -12 -11 -10 -9 -7 -6 -5 -4 -5 -4 -5 -4 -4 -4 -4 -3 -4 -3 -2 -2 -1 -2 -2 -2 -2 -2 -2 -2 -2 -1 1 1 1 1 2 1 1 2 1 1 0 -0 -0 -1 -1 -2 -2 -3
-12 -12 -12 -12 -12 -12 -12 -10 -9 -9 -8 -6 -6 -5 -4 -4 -4 -4 -4 -4 -4 -3 -3 -3 -3 -3 -3 -3 -3 -3 -2 -2 -2 -1 -2 -1 1 3 2 2 1 1 -0 0 1 0 -1 -1 -1 -1 -1 -2 -3 -3
-11 -11 -12 -12 -12 -12 -11 -10 -9 -9 -7 -7 -6 -5 -4 -4 -5 -4 -4 -4 -3 -3 -3 -2 -2 -3 -3 -3 -3 -3 -2 -2 -2 -3 -2 -0 3 2 2 1 1 1 -1 -1 -0 -0 -1 -1 -1 -2 -3 -4 -4 -4
-11 -11 -11 -12 -12 -12 -10 -9 -9 -8 -7 -6 -5 -4 -5 -5 -4 -4 -4 -4 -3 -3 -2 -1 -1 -3 -3 -3 -2 -3 -2 -2 -3 -2 -1 1 2 2 3 3 2 1 -0 -2 -1 -1 -1 -2 -2 -3 -4 -4 -4 -4
-11 -11 -11 -12 -12 -11 -10 -9 -8 -8 -7 -6 -5 -5 -4 -4 -3 -3 -2 -2 -2 -1 -0 -1 -2 -3 -3 -3 -3 -3 -3 -3 -2 -2 1 2 2 2 2 2 2 1 -1 -2 -2 -2 -3 -2 -3 -4 -5 -5 -4 -4
-11 -11 -11 -11 -11 -10 -10 -9 -8 -8 -7 -6 -6 -5 -4 -4 -4 -3 -2 -2 -2 -1 -0 -1 -3 -3 -3 -3 -3 -3 -3 -2 -1 1 2 2 2 2 2 2 1 -1 -3 -3 -3 -3 -3 -4 -4 -5 -5 -5 -4 -4
-11 -11 -11 -11 -11 -10 -10 -9 -8 -8 -7 -7 -6 -5 -5 -5 -4 -3 -2 -2 -2 -1 -1 -3 -3 -3 -3 -3 -3 -2 -2 -0 1 2 2 2 2 2 1 1 -0 -3 -4 -4 -4 -4 -4 -5 -5 -5 -5 -4 -4 -4
-11 -11 -11 -11 -11 -10 -9 -9 -8 -8 -8 -7 -6 -5 -5 -5 -3 -3 -2 -1 -2 -2 -2 -3 -3 -2 -2 -3 -2 -1 -0 1 1 1 1 2 1 1 1 -0 -2 -4 -4 -4 -5 -5 -5 -5 -5 -5 -5 -5 -5 -5
-10 -11 -11 -11 -11 -10 -10 -9 -9 -8 -8 -7 -7 -6 -4 -4 -3 -2 -2 -2 -2 -2 -3 -3 -2 -2 -1 -1 -1 1 1 1 0 1 1 1 1 1 0 -1 -3 -5 -5 -5 -5 -5 -6 -5 -5 -5 -5 -5 -5 -5
-10 -11 -11 -11 -10 -10 -10 -10 -9 -9 -8 -7 -6 -6 -5 -4 -3 -3 -3 -3 -2 -2 -3 -3 -3 -2 -2 -1 -0 -0 0 1 -0 0 1 1 0 0 -1 -3 -5 -5 -6 -6 -6 -6 -6 -5 -5 -5 -5 -5 -6 -6
-11 -11 -11 -11 -11 -11 -10 -10 -10 -9 -9 -8 -7 -6 -5 -5 -4 -4 -4 -3 -3 -4 -4 -4 -3 -2 -2 -1 -1 -1 -0 0 -0 -0 -0 -0 -0 -1 -3 -5 -6 -6 -6 -6 -6 -6 -6 -6 -6 -6 -6 -6 -6 -6
-11 -11 -11 -11 -11 -11 -11 -11 -11 -10 -10 -9 -8 -6 -6 -6 -5 -5 -5 -5 -5 -5 -4 -3 -3 -3 -3 -3 -2 -2 -1 -1 -1 -1 -1 -1 -1 -2 -5 -6 -7 -7 -6 -7 -6 -6 -6 -6 -6 -6 -6 -6 -7 -7
-11 -11 -11 -12 -12 -12 -12 -12 -12 -11 -11 -10 -10 -9 -8 -7 -6 -5 -5 -5 -5 -5 -5 -5 -5 -4 -4 -4 -4 -4 -3 -2 -2 -2 -3 -3 -2 -3 -6 -7 -7 -7 -7 -7 -7 -7 -7 -7 -7 -7 -7 -7 -8 -8
-12 -12 -12 -12 -12 -13 -13 -12 -12 -12 -11 -11 -11 -10 -9 -9 -7 -6 -7 -7 -6 -6 -6 -6 -6 -5 -5 -5 -5 -5 -5 -5 -4 -4 -5 -5 -5 -6 -8 -7 -7 -7 -7 -7 -7 -7 -7 -7 -7 -7 -8 -8 -8 -9
-12 -12 -13 -13 -13 -13 -13 -13 -12 -12 -12 -11 -11 -10 -10 -9 -9 -8 -7 -6 -5 -6 -7 -7 -7 -7 -6 -6 -6 -6 -6 -5 -6 -6 -7 -7 -7 -7 -8 -8 -8 -8 -8 -8 -8 -8 -8 -8 -8 -8 -8 -9 -9 -9
-12 -13 -13 -13 -14 -14 -14 -13 -13 -13 -12 -12 -12 -11 -11 -11 -10 -9 -8 -7 -7 -7 -8 -8 -7 -7 -7 -7 -7 -7 -7 -6 -6 -8 -7 -7 -8 -8 -8 -8 -9 -8 -8 -9 -9 -9 -9 -9 -9 -9 -9 -9 -9 -10
-13 -13 -13 -14 -14 -14 -14 -14 -14 -14 -13 -13 -13 -12 -12 -11 -11 -10 -9 -9 -9 -8 -8 -8 -7 -7 -7 -7 -7 -7 -7 -7 -9 -10 -10 -10 -10 -10 -10 -10 -10 -10 -10 -10 -9 -9 -9 -9 -9 -9 -10 -10 -10 -11
-14 -14 -14 -14 -14 -14 -15 -14 -14 -14 -14 -13 -13 -13 -12 -12 -12 -11 -11 -10 -9 -8 -8 -8 -8 -8 -8 -8 -8 -8 -8 -9 -10 -10 -10 -10 -10 -10 -11 -11 -10 -10 -10 -9 -10 -10 -10 -10 -10 -10 -10 -10 -11 -12
-14 -14 -14 -14 -14 -14 -15 -15 -15 -14 -14 -14 -14 -13 -13 -13 -12 -12 -11 -11 -11 -10 -10 -9 -9 -9 -9 -9 -9 -9 -9 -10 -10 -10 -10 -10 -11 -11 -10 -10 -10 -10 -10 -10 -10 -10 -10 -10 -10 -11 -11 -12 -12 -13
-14 -14 -14 -14 -14 -15 -15 -15 -15 -15 -15 -15 -14 -14 -13 -13 -12 -12 -12 -12 -12 -12 -12 -11 -11 -10 -10 -10 -10 -10 -10 -10 -10 -10 -10 -10 -10 -10 -11 -10 -10 -11 -11 -11 -11 -11 -11 -11 -11 -12 -12 -13 -13 -14
-14 -14 -14 -14 -15 -15 -15 -15 -15 -15 -15 -15 -15 -14 -14 -14 -13 -13 -13 -13 -13 -13 -13 -12 -12 -12 -12 -12 -11 -11 -11 -11 -11 -11 -11 -11 -11 -11 -11 -11 -11 -11 -11 -11 -11 -11 -11 -12 -12 -13 -13 -14 -14 -14
-14 -14 -14 -15 -15 -15 -15 -15 -15 -15 -15 -15 -15 -15 -15 -14 -14 -14 -14 -14 -14 -13 -13 -13 -13 -13 -13 -12 -12 -12 -12 -12 -12 -11 -11 -12 -12 -13 -13 -12 -12 -12 -12 -12 -12 -12 -12 -13 -13 -14 -14 -15 -15 -16
-14 -15 -15 -15 -15 -15 -15 -15 -16 -16 -16 -16 -16 -15 -15 -15 -15 -15 -15 -15 -15 -15 -14 -14 -14 -14 -14 -14 -13 -13 -13 -12 -12 -13 -13 -14 -14 -14 -13 -13 -12 -12 -12 -13 -13 -13 -13 -14 -14 -15 -15 -15 -16 -16
-15 -15 -15 -15 -15 -15 -15 -16 -16 -16 -16 -16 -16 -16 -16 -16 -16 -16 -15 -15 -15 -15 -15 -15 -15 -15 -15 -14 -14 -14 -14 -14 -14 -15 -15 -14 -14 -14 -13 -13 -13 -13 -14 -14 -14 -14 -15 -15 -15 -15 -16 -16 -16 -17

GFSWCAN_700_temp_024.txt.gz
Temp
-8 -9 -11 -12 -12 -12 -12 -12 -12 -11 -10 -9 -7 -6 -6 -5 -4 -4 -4 -4 -4 -4 -3 -3 -3 -3 -3 -4 -3 -3 -2 -2 -1 -2 -2 -1 -1 -1 -1 -1 -1 -1 -1 -1 -1 -0 -0 3 3 3 4 4 4 5
-9 -10 -13 -13 -12 -12 -12 -12 -12 -11 -10 -9 -7 -6 -6 -5 -4 -4 -4 -3 -4 -3 -4 -3 -3 -3 -3 -3 -3 -3 -2 -2 -2 -2 -2 -1 -1 -1 -0 -0 -0 -0 -0 1 1 2 2 3 3 3 4 4 4 5
-9 -12 -12 -13 -12 -12 -12 -12 -12 -11 -10 -10 -8 -6 -5 -5 -5 -4 -4 -4 -4 -4 -4 -3 -3 -3 -3 -3 -3 -2 -2 -2 -2 -1 -2 -1 -0 0 -0 0 1 1 0 0 1 2 2 2 3 3 3 4 4 4
-9 -12 -12 -12 -12 -12 -12 -12 -12 -11 -10 -10 -7 -6 -5 -4 -4 -4 -4 -4 -4 -4 -4 -3 -3 -2 -2 -2 -2 -2 -3 -2 -2 -2 -1 -1 -1 -1 -0 1 1 1 1 1 1 2 3 3 3 3 3 3 3 3
-9 -12 -12 -12 -12 -12 -12 -12 -12 -12 -11 -10 -8 -6 -5 -4 -4 -4 -4 -4 -4 -3 -3 -3 -3 -2 -2 -2 -3 -2 -2 -2 -1 -2 -1 -1 -1 -1 -1 -0 1 1 2 2 2 2 2 2 2 2 2 2 2 2
-9 -12 -12 -12 -12 -12 -12 -12 -12 -11 -10 -9 -8 -6 -5 -4 -4 -4 -4 -5 -4 -3 -3 -3 -3 -2 -2 -2 -2 -2 -2 -2 -2 -1 -1 -2 -1 -1 -1 -0 1 1 1 1 1 1 2 2 2 2 2 2 2 1
-10 -11 -12 -12 -12 -12 -12 -12 -12 -11 -10 -9 -7 -6 -5 -5 -4 -4 -4 -4 -4 -4 -3 -3 -2 -2 -2 -2 -2 -2 -2 -2 -2 -2 -1 -1 -1 -1 -1 0 1 2 1 1 1 1 1 2 2 2 2 2 1 0
-10 -11 -12 -12 -12 -12 -12 -12 -11 -10 -10 -9 -7 -6 -5 -5 -4 -4 -4 -4 -4 -4 -4 -3 -3 -3 -3 -2 -3 -2 -2 -2 -2 -2 -2 -2 -1 -1 -0 2 2 1 2 1 1 1 1 1 1 2 1 1 0 -0
-10 -11 -11 -12 -12 -12 -12 -11 -10 -10 -9 -8 -7 -5 -5 -4 -4 -4 -3 -4 -4 -4 -4 -3 -2 -1 -2 -3 -3 -2 -2 -2 -2 -2 -1 -1 -1 0 2 2 2 2 2 1 1 1 1 1 1 1 0 0 -1 -1
-10 -10 -11 -11 -12 -12 -11 -11 -10 -9 -8 -7 -6 -6 -6 -5 -4 -4 -4 -4 -3 -4 -4 -3 -2 -2 -2 -3 -3 -3 -2 -2 -2 -1 -1 -1 1 1 2 2 2 2 2 1 1 1 1 1 0 0 -0 -1 -2 -3
-10 -10 -11 -11 -12 -12 -12 -11 -9 -9 -9 -7 -7 -5 -5 -4 -4 -4 -4 -4 -4 -4 -4 -3 -3 -3 -3 -3 -3 -3 -3 -2 -2 -1 -1 -1 2 3 2 2 2 1 1 1 1 1 0 -0 -1 -1 -1 -2 -3 -3
-9 -10 -11 -11 -11 -12 -11 -10 -9 -9 -9 -7 -6 -5 -4 -5 -4 -4 -4 -4 -4 -3 -3 -2 -2 -3 -3 -3 -4 -3 -2 -2 -2 -2 -2 0 3 3 2 2 2 1 1 -0 -1 -0 0 -0 -1 -2 -2 -2 -3 -4
-9 -10 -11 -11 -11 -11 -10 -9 -9 -8 -8 -7 -6 -6 -5 -4 -5 -4 -5 -5 -4 -4 -2 -0 -2 -3 -3 -3 -3 -3 -2 -2 -2 -2 -1 2 2 2 2 2 2 1 0 -1 -1 -1 -1 -1 -2 -2 -3 -4 -4 -4
-8 -9 -10 -11 -11 -10 -10 -9 -8 -8 -7 -7 -7 -6 -5 -5 -4 -4 -3 -2 -1 -1 -0 -1 -1 -4 -3 -3 -3 -3 -3 -2 -2 -2 1 2 2 2 2 2 2 1 -0 -1 -2 -2 -2 -2 -2 -3 -4 -4 -5 -5
-8 -9 -9 -10 -10 -10 -10 -9 -8 -8 -8 -7 -7 -6 -5 -5 -5 -4 -3 -3 -2 -2 -0 -2 -3 -3 -4 -3 -3 -2 -2 -2 -1 1 2 2 2 2 2 2 2 1 -1 -2 -2 -2 -3 -3 -3 -4 -5 -5 -5 -4
-8 -8 -8 -9 -10 -10 -9 -9 -8 -8 -7 -7 -7 -6 -6 -5 -4 -4 -3 -2 -2 -2 -1 -3 -4 -4 -3 -3 -3 -2 -2 -0 2 2 2 2 2 2 2 1 1 -0 -2 -3 -3 -3 -3 -4 -4 -5 -5 -5 -5 -5
-8 -8 -8 -8 -9 -9 -9 -9 -9 -8 -8 -7 -6 -6 -6 -5 -4 -3 -3 -2 -2 -2 -2 -3 -4 -3 -3 -3 -3 -2 -0 1 1 1 1 1 1 1 1 1 -0 -2 -4 -4 -4 -4 -4 -5 -6 -5 -5 -5 -5 -5
-8 -8 -8 -8 -9 -9 -9 -9 -9 -9 -8 -8 -7 -6 -6 -5 -4 -3 -3 -3 -3 -2 -2 -3 -3 -2 -2 -1 -1 0 1 1 1 0 0 1 1 1 1 -0 -1 -4 -4 -4 -5 -5 -5 -6 -6 -5 -5 -5 -5 -5
-8 -9 -9 -9 -9 -10 -10 -10 -9 -9 -8 -8 -7 -7 -6 -5 -4 -4 -3 -3 -3 -3 -4 -3 -3 -2 -2 -2 -1 -1 -0 -0 0 0 0 0 0 0 0 -1 -3 -5 -5 -5 -6 -6 -6 -6 -6 -6 -5 -5 -5 -5
-9 -9 -10 -9 -9 -10 -10 -10 -10 -10 -9 -9 -8 -7 -6 -5 -5 -5 -5 -5 -4 -5 -5 -4 -4 -3 -3 -2 -2 -1 -1 -1 -1 -0 -0 -0 0 -0 -2 -3 -5 -6 -6 -6 -6 -6 -6 -6 -6 -6 -6 -6 -6 -6
-9 -9 -10 -9 -9 -10 -11 -11 -11 -11 -10 -10 -10 -9 -7 -6 -6 -5 -5 -5 -6 -6 -5 -4 -4 -4 -3 -3 -2 -2 -2 -2 -2 -1 -1 -0 -0 -1 -3 -5 -6 -6 -7 -6 -7 -6 -6 -6 -6 -6 -6 -6 -6 -6
-9 -10 -10 -10 -10 -11 -12 -12 -12 -12 -11 -10 -10 -10 -9 -8 -7 -7 -6 -6 -7 -6 -5 -4 -4 -4 -4 -4 -3 -3 -3 -3 -2 -2 -2 -3 -2 -2 -4 -6 -6 -7 -7 -7 -7 -7 -6 -6 -7 -7 -6 -6 -7 -7
-11 -11 -10 -11 -11 -12 -12 -13 -12 -12 -12 -11 -11 -11 -10 -10 -10 -9 -9 -8 -7 -5 -5 -4 -4 -5 -5 -5 -4 -4 -4 -4 -4 -4 -3 -4 -5 -5 -7 -6 -7 -7 -7 -8 -8 -7 -7 -7 -7 -7 -7 -7 -7 -8
-12 -11 -12 -12 -12 -12 -13 -13 -13 -13 -12 -12 -12 -11 -11 -10 -10 -10 -9 -8 -8 -7 -6 -6 -6 -6 -5 -5 -5 -5 -5 -5 -5 -5 -5 -6 -6 -7 -7 -7 -8 -8 -9 -8 -8 -8 -8 -8 -8 -8 -8 -8 -8 -8
-12 -12 -12 -13 -13 -13 -14 -14 -14 -13 -13 -13 -12 -12 -12 -11 -11 -10 -10 -9 -8 -7 -7 -7 -7 -6 -6 -6 -6 -6 -6 -6 -6 -6 -6 -7 -7 -7 -7 -8 -8 -10 -9 -8 -8 -9 -9 -8 -9 -8 -8 -9 -9 -9
-13 -13 -13 -13 -13 -14 -14 -14 -14 -14 -14 -13 -13 -13 -13 -12 -11 -11 -10 -9 -9 -8 -8 -7 -7 -7 -7 -7 -7 -7 -7 -7 -7 -7 -7 -7 -7 -7 -8 -9 -10 -9 -9 -9 -10 -10 -9 -9 -9 -9 -9 -9 -10 -10
-14 -13 -13 -13 -14 -14 -14 -14 -14 -14 -14 -14 -14 -13 -13 -12 -12 -11 -11 -10 -10 -9 -9 -8 -8 -8 -8 -8 -7 -7 -7 -7 -7 -7 -7 -8 -9 -11 -11 -11 -11 -10 -10 -10 -10 -10 -9 -10 -10 -10 -10 -10 -10 -10
-14 -14 -14 -14 -14 -14 -15 -15 -15 -15 -15 -15 -14 -14 -13 -13 -13 -12 -12 -11 -10 -10 -10 -9 -9 -8 -8 -8 -8 -8 -8 -9 -9 -9 -9 -10 -12 -12 -11 -11 -11 -10 -10 -10 -10 -10 -10 -10 -10 -10 -10 -10 -11 -11
-13 -14 -14 -14 -14 -15 -15 -15 -15 -15 -15 -15 -15 -14 -14 -14 -13 -13 -12 -12 -12 -12 -11 -11 -11 -10 -10 -9 -9 -10 -10 -10 -10 -10 -10 -10 -10 -11 -11 -11 -10 -10 -11 -11 -10 -10 -10 -10 -11 -11 -11 -11 -11 -12
-14 -14 -14 -14 -14 -15 -15 -15 -15 -15 -15 -15 -15 -15 -15 -14 -14 -14 -13 -12 -12 -13 -13 -12 -12 -12 -12 -11 -11 -11 -11 -11 -11 -11 -10 -10 -10 -11 -11 -11 -11 -11 -11 -11 -11 -11 -11 -11 -11 -11 -11 -12 -12 -12
-14 -14 -14 -15 -15 -15 -15 -15 -15 -15 -15 -15 -15 -15 -15 -15 -14 -14 -14 -14 -14 -14 -13 -13 -13 -13 -13 -13 -12 -12 -12 -11 -11 -11 -12 -11 -11 -11 -11 -12 -12 -12 -12 -12 -11 -11 -12 -12 -12 -12 -12 -13 -13 -13
-15 -15 -15 -15 -15 -15 -15 -15 -15 -15 -15 -16 -15 -15 -15 -15 -15 -15 -15 -15 -14 -14 -14 -14 -14 -13 -13 -13 -13 -13 -13 -12 -12 -12 -12 -12 -12 -12 -13 -13 -13 -13 -12 -12 -12 -12 -12 -13 -13 -13 -13 -14 -14 -14
-16 -16 -15 -15 -15 -15 -15 -15 -15 -16 -16 -16 -16 -16 -16 -16 -15 -16 -15 -15 -15 -15 -15 -15 -15 -14 -14 -14 -14 -14 -13 -13 -13 -12 -13 -13 -14 -15 -14 -14 -14 -13 -13 -13 -13 -13 -13 -13 -14 -14 -14 -14 -15 -15

GFSWCAN_700_temp_027.txt.gz
Temp
-6 -8 -10 -12 -12 -12 -12 -12 -12 -12 -12 -10 -8 -7 -6 -5 -5 -4 -4 -4 -4 -4 -4 -3 -3 -3 -3 -4 -3 -3 -3 -3 -3 -2 -2 -2 -2 -2 -1 -2 -1 -0 -1 -1 -1 -1 0 2 3 3 3 3 4 4
-7 -7 -10 -12 -12 -12 -12 -12 -12 -12 -12 -11 -9 -7 -6 -6 -5 -4 -4 -4 -4 -4 -4 -4 -4 -3 -3 -3 -3 -3 -3 -2 -2 -2 -2 -2 -1 -1 -0 -1 -1 -1 -0 0 0 1 2 2 2 3 3 4 4 4
-7 -8 -10 -12 -12 -12 -12 -12 -12 -12 -12 -11 -9 -7 -6 -6 -5 -4 -4 -4 -4 -3 -4 -3 -4 -3 -3 -3 -3 -3 -3 -2 -3 -2 -2 -2 -2 -1 -0 -0 0 0 -0 -0 0 2 2 2 2 3 3 3 4 4
-7 -8 -10 -12 -12 -12 -12 -12 -12 -12 -12 -10 -9 -7 -6 -6 -6 -4 -4 -4 -4 -4 -4 -3 -3 -3 -3 -3 -3 -3 -3 -2 -2 -2 -2 -2 -2 -1 -0 0 0 0 1 1 1 2 2 2 2 2 3 3 3 4
-7 -9 -10 -11 -12 -12 -12 -12 -12 -12 -12 -10 -8 -7 -6 -6 -5 -3 -4 -4 -4 -4 -3 -3 -3 -3 -3 -2 -2 -2 -3 -3 -2 -2 -2 -1 -2 -1 -1 0 1 1 2 2 1 2 2 2 2 2 2 3 3 3
-8 -9 -10 -11 -12 -12 -12 -12 -12 -12 -11 -10 -8 -7 -6 -6 -5 -4 -4 -4 -4 -4 -4 -4 -3 -3 -2 -2 -3 -3 -3 -2 -2 -2 -2 -1 -2 -1 -1 -0 2 1 1 1 1 1 1 1 1 2 2 2 2 2
-8 -9 -10 -11 -11 -12 -12 -12 -12 -12 -11 -10 -8 -7 -6 -5 -6 -5 -4 -3 -4 -4 -4 -3 -3 -3 -2 -2 -3 -3 -3 -3 -2 -2 -2 -1 -2 -2 -2 -1 1 1 1 1 1 1 1 2 2 2 2 1 1 1
-8 -9 -10 -11 -11 -11 -12 -11 -11 -11 -10 -9 -8 -7 -5 -5 -5 -4 -4 -3 -4 -4 -4 -3 -3 -3 -2 -2 -3 -3 -3 -2 -2 -2 -2 -1 -2 -1 -1 0 0 1 1 1 1 1 1 0 0 1 2 1 1 0
-8 -8 -10 -11 -11 -11 -12 -11 -11 -10 -10 -8 -7 -7 -7 -6 -4 -3 -4 -4 -4 -4 -4 -4 -3 -2 -2 -3 -3 -3 -3 -2 -2 -2 -2 -2 -2 -1 1 1 1 1 1 1 1 1 1 1 1 1 1 1 -0 -1
-7 -8 -9 -10 -11 -11 -11 -11 -10 -10 -9 -8 -7 -6 -6 -6 -5 -4 -4 -4 -4 -4 -4 -4 -3 -3 -3 -4 -4 -4 -3 -3 -2 -1 -1 -1 0 1 1 1 2 2 2 1 1 1 1 1 1 1 0 -0 -1 -2
-7 -8 -8 -9 -10 -11 -11 -10 -9 -9 -9 -8 -7 -6 -5 -5 -5 -5 -4 -5 -4 -4 -4 -4 -3 -3 -3 -4 -4 -3 -3 -2 -2 -1 -1 -0 2 3 3 2 2 2 2 1 1 1 1 0 -0 -0 -0 -1 -2 -3
-7 -7 -8 -9 -9 -10 -10 -9 -9 -9 -9 -9 -8 -6 -5 -5 -5 -4 -5 -5 -4 -3 -3 -2 -2 -3 -3 -3 -4 -3 -3 -2 -1 -2 -1 0 3 3 3 3 3 2 1 0 1 1 0 0 -0 -1 -1 -2 -3 -3
-7 -7 -8 -8 -8 -9 -9 -9 -8 -8 -8 -8 -7 -6 -5 -5 -4 -4 -5 -5 -4 -3 -1 -1 -1 -3 -3 -3 -4 -3 -3 -2 -2 -2 -0 2 2 2 2 2 2 2 1 0 -0 -1 -1 -1 -1 -2 -2 -3 -4 -4
-7 -7 -8 -8 -8 -8 -9 -8 -8 -8 -8 -7 -7 -6 -6 -5 -5 -5 -5 -5 -2 -2 -1 -1 -1 -3 -4 -4 -3 -3 -2 -2 -2 -1 1 2 1 2 2 2 2 2 1 0 -1 -1 -1 -1 -1 -2 -4 -4 -4 -4
-7 -7 -8 -8 -8 -8 -8 -8 -8 -8 -8 -8 -7 -6 -6 -6 -6 -5 -5 -3 -3 -2 -2 -1 -3 -4 -4 -3 -3 -3 -2 -2 -1 1 2 2 1 2 2 2 2 2 1 -0 -1 -2 -2 -2 -2 -3 -4 -4 -5 -5
-7 -7 -7 -8 -8 -8 -8 -8 -8 -8 -8 -8 -7 -7 -6 -6 -5 -5 -4 -2 -3 -3 -3 -4 -4 -4 -4 -3 -3 -2 -2 0 1 2 2 2 2 1 2 2 2 1 -0 -2 -2 -2 -3 -3 -4 -4 -4 -5 -5 -5
-7 -7 -7 -8 -8 -8 -8 -8 -8 -8 -8 -8 -7 -7 -6 -6 -5 -5 -4 -3 -3 -3 -4 -4 -4 -4 -3 -3 -3 -2 -1 1 1 1 1 1 1 1 1 1 1 -0 -1 -2 -3 -3 -3 -4 -4 -4 -5 -5 -5 -5
-7 -7 -8 -8 -8 -8 -7 -8 -9 -9 -9 -8 -8 -7 -7 -6 -6 -5 -5 -4 -4 -4 -5 -4 -4 -3 -2 -2 -1 0 0 0 0 0 0 0 1 1 1 1 -0 -2 -3 -4 -4 -4 -4 -4 -5 -5 -6 -5 -5 -5
-7 -7 -8 -8 -8 -8 -8 -8 -9 -10 -9 -9 -8 -8 -8 -6 -6 -5 -5 -5 -4 -5 -4 -4 -4 -3 -3 -2 -1 -1 -1 -1 -0 -0 -0 0 0 0 0 -0 -2 -3 -4 -4 -4 -4 -5 -5 -6 -6 -5 -5 -5 -5
-8 -8 -8 -9 -9 -9 -9 -9 -10 -10 -10 -9 -9 -9 -8 -7 -6 -6 -5 -5 -6 -6 -5 -4 -4 -4 -3 -3 -2 -1 -2 -1 -1 -1 -0 -0 -0 -0 -0 -2 -2 -4 -5 -5 -5 -6 -6 -6 -6 -6 -6 -6 -6 -6
-8 -9 -9 -9 -9 -9 -9 -10 -11 -11 -11 -11 -10 -10 -9 -8 -7 -7 -6 -6 -6 -6 -5 -5 -5 -5 -4 -4 -3 -2 -2 -2 -2 -1 -1 -1 -1 -1 -1 -3 -4 -5 -5 -6 -6 -6 -7 -6 -6 -6 -6 -6 -6 -6
-9 -9 -9 -9 -9 -10 -10 -11 -11 -12 -12 -11 -11 -11 -10 -9 -9 -8 -8 -8 -7 -6 -6 -6 -5 -5 -5 -5 -5 -4 -3 -3 -3 -2 -2 -2 -1 -2 -2 -4 -4 -6 -6 -6 -6 -7 -7 -7 -7 -7 -6 -6 -6 -6
-10 -10 -10 -10 -10 -10 -11 -11 -12 -12 -13 -12 -12 -12 -11 -10 -10 -10 -9 -9 -8 -7 -6 -6 -6 -6 -5 -5 -5 -5 -4 -4 -4 -3 -3 -3 -3 -4 -4 -5 -6 -6 -7 -7 -8 -8 -7 -7 -7 -7 -7 -7 -7 -7
-11 -11 -11 -11 -11 -11 -12 -12 -12 -13 -13 -13 -13 -12 -12 -11 -11 -11 -10 -9 -9 -8 -8 -7 -6 -6 -6 -6 -6 -6 -6 -5 -5 -4 -4 -5 -4 -4 -5 -6 -6 -7 -8 -8 -8 -8 -7 -7 -7 -7 -8 -8 -7 -8
-11 -11 -11 -11 -12 -12 -12 -12 -13 -14 -14 -14 -13 -13 -13 -12 -12 -11 -11 -10 -10 -9 -8 -8 -7 -7 -6 -6 -6 -6 -6 -6 -5 -5 -5 -5 -5 -6 -6 -6 -7 -7 -8 -9 -10 -9 -8 -8 -8 -9 -8 -8 -8 -8
-12 -12 -12 -12 -12 -12 -13 -13 -14 -14 -14 -14 -14 -14 -14 -13 -13 -12 -11 -11 -10 -10 -9 -9 -8 -7 -7 -7 -7 -7 -6 -6 -6 -6 -6 -7 -6 -7 -6 -6 -7 -8 -9 -10 -10 -9 -9 -10 -9 -9 -9 -9 -9 -9
-13 -12 -12 -12 -13 -13 -14 -14 -14 -14 -14 -14 -14 -14 -14 -13 -13 -12 -12 -12 -11 -10 -10 -9 -9 -9 -8 -7 -7 -7 -7 -7 -7 -7 -7 -7 -7 -7 -7 -7 -8 -9 -10 -11 -11 -10 -10 -10 -10 -10 -10 -10 -10 -10
-13 -13 -12 -13 -14 -14 -14 -14 -14 -14 -15 -15 -15 -15 -15 -14 -14 -14 -13 -12 -12 -11 -10 -10 -9 -9 -9 -8 -8 -8 -7 -7 -8 -7 -7 -7 -8 -8 -9 -9 -10 -11 -11 -10 -10 -10 -10 -10 -10 -10 -10 -10 -10 -10
-12 -13 -13 -14 -14 -14 -15 -15 -14 -14 -15 -15 -15 -15 -15 -15 -14 -14 -13 -13 -12 -12 -12 -11 -10 -10 -9 -9 -9 -9 -8 -8 -8 -8 -8 -8 -9 -10 -10 -11 -11 -11 -11 -10 -10 -10 -10 -11 -11 -11 -10 -11 -11 -11
-13 -13 -14 -14 -14 -14 -14 -15 -15 -15 -15 -15 -15 -15 -15 -15 -15 -14 -14 -13 -13 -13 -13 -13 -12 -12 -11 -11 -10 -10 -9 -10 -9 -10 -10 -10 -10 -11 -11 -11 -11 -11 -10 -10 -11 -11 -11 -12 -12 -11 -11 -11 -11 -11
-14 -14 -14 -14 -14 -14 -15 -15 -15 -15 -15 -15 -15 -15 -15 -15 -15 -14 -14 -14 -14 -14 -13 -13 -13 -13 -12 -12 -11 -11 -11 -12 -12 -11 -11 -10 -11 -11 -11 -11 -11 -11 -11 -12 -13 -13 -13 -12 -12 -12 -12 -12 -12 -12
-15 -15 -15 -15 -15 -15 -15 -15 -15 -15 -15 -15 -15 -16 -15 -15 -15 -15 -15 -14 -14 -14 -14 -14 -14 -14 -13 -13 -13 -13 -12 -12 -12 -12 -12 -12 -12 -12 -12 -11 -11 -11 -12 -13 -14 -14 -13 -12 -12 -12 -12 -12 -12 -12
-15 -15 -15 -16 -15 -15 -15 -15 -15 -15 -15 -15 -15 -16 -16 -16 -16 -16 -15 -15 -15 -15 -15 -15 -14 -14 -14 -14 -14 -13 -13 -13 -13 -13 -13 -12 -12 -12 -12 -12 -13 -14 -14 -14 -13 -13 -13 -13 -13 -13 -13 -13 -13 -13

GFSWCAN_700_temp_030.txt.gz
Temp
-5 -5 -6 -7 -9 -11 -12 -12 -12 -12 -12 -11 -10 -8 -7 -6 -6 -5 -4 -5 -4 -4 -4 -3 -3 -3 -3 -3 -3 -3 -4 -3 -3 -4 -3 -2 -2 -2 -2 -2 -1 -1 -1 -1 -2 -2 -1 1 2 2 2 2 3 4
-5 -6 -6 -7 -9 -11 -12 -12 -12 -11 -12 -11 -9 -8 -8 -7 -7 -4 -4 -3 -4 -4 -4 -4 -4 -3 -3 -3 -3 -3 -3 -3 -3 -3 -3 -2 -2 -2 -1 -0 -0 -1 -0 -1 -1 0 1 1 2 2 3 3 4 4
-5 -6 -6 -7 -9 -10 -12 -12 -12 -12 -12 -11 -9 -8 -7 -7 -6 -5 -5 -3 -4 -4 -3 -3 -3 -3 -3 -3 -4 -3 -3 -3 -3 -2 -3 -2 -2 -2 -1 -0 -0 0 0 -0 -0 1 2 2 2 2 3 3 4 4
-5 -6 -7 -8 -9 -10 -11 -12 -12 -12 -12 -11 -9 -8 -7 -7 -7 -5 -4 -3 -4 -4 -3 -3 -4 -3 -3 -3 -3 -3 -3 -3 -3 -2 -3 -2 -2 -2 -1 -1 -0 0 0 1 1 1 1 2 2 2 3 3 3 4
-6 -6 -7 -8 -9 -10 -11 -12 -12 -12 -12 -11 -10 -8 -7 -7 -7 -5 -5 -4 -4 -4 -4 -3 -3 -3 -3 -3 -3 -3 -3 -3 -3 -2 -3 -2 -2 -2 -2 -1 0 1 1 1 1 1 2 2 2 2 2 3 3 3
-6 -6 -7 -8 -9 -10 -11 -11 -11 -11 -11 -11 -9 -8 -7 -7 -6 -5 -5 -4 -4 -4 -4 -4 -3 -3 -3 -3 -3 -3 -3 -3 -3 -2 -2 -2 -2 -2 -2 -2 1 1 1 1 1 1 1 1 1 2 2 2 2 2
-6 -6 -7 -8 -9 -10 -11 -11 -11 -11 -11 -10 -9 -7 -7 -6 -6 -5 -5 -4 -4 -4 -4 -3 -3 -3 -3 -3 -3 -3 -3 -3 -3 -2 -2 -2 -2 -2 -2 -1 1 1 1 1 1 1 1 1 2 1 2 2 2 2
-6 -6 -7 -8 -9 -10 -11 -11 -10 -10 -10 -9 -8 -7 -6 -6 -6 -5 -4 -4 -4 -4 -4 -4 -4 -3 -3 -3 -3 -3 -3 -3 -3 -2 -2 -2 -2 -2 -2 1 1 1 1 1 1 -0 1 1 1 1 1 1 1 1
-6 -6 -7 -7 -8 -9 -10 -10 -10 -10 -10 -9 -8 -7 -6 -6 -6 -5 -5 -5 -5 -4 -4 -4 -3 -3 -2 -4 -3 -3 -3 -3 -3 -2 -2 -2 -2 -1 1 1 1 1 1 1 1 -0 0 1 1 0 1 1 -0 -0
-6 -6 -7 -7 -8 -9 -9 -9 -9 -9 -9 -8 -8 -7 -6 -6 -5 -5 -4 -5 -5 -5 -4 -4 -3 -3 -3 -3 -3 -3 -3 -2 -3 -2 -2 -2 -0 1 1 0 1 1 1 1 0 0 1 1 1 1 1 -0 -1 -1
-6 -6 -7 -7 -7 -8 -9 -9 -8 -8 -9 -10 -8 -7 -6 -6 -5 -5 -4 -4 -5 -4 -4 -4 -3 -3 -3 -3 -4 -4 -3 -3 -2 -2 -2 -1 1 2 1 1 1 1 1 1 1 2 1 1 0 1 0 -0 -1 -2
-6 -6 -6 -7 -7 -8 -8 -8 -8 -8 -8 -8 -8 -7 -6 -5 -5 -5 -5 -4 -5 -4 -4 -2 -3 -3 -3 -3 -3 -3 -3 -2 -2 -2 -2 0 2 2 3 3 2 2 2 1 1 1 1 1 0 -1 -1 -1 -2 -3
-6 -6 -7 -7 -7 -7 -8 -8 -8 -8 -8 -8 -7 -6 -6 -5 -5 -4 -5 -5 -5 -3 -2 -1 -2 -3 -4 -4 -4 -3 -3 -2 -2 -2 -0 2 2 2 2 2 2 2 1 0 0 0 0 0 -0 -1 -2 -2 -3 -4
-6 -6 -7 -7 -7 -7 -7 -7 -7 -7 -7 -7 -7 -7 -6 -5 -6 -5 -6 -5 -3 -2 -1 -2 -2 -2 -4 -4 -3 -3 -3 -2 -2 -1 1 2 2 2 2 2 2 2 2 0 -1 -1 -1 -1 -1 -2 -3 -3 -4 -4
-6 -6 -6 -7 -7 -7 -7 -7 -7 -7 -7 -7 -7 -6 -6 -6 -6 -6 -5 -5 -4 -3 -2 -3 -3 -4 -4 -4 -3 -3 -2 -2 -1 1 1 1 2 2 2 2 1 1 1 0 -1 -2 -2 -1 -2 -2 -3 -4 -5 -4
-6 -6 -6 -7 -7 -7 -7 -7 -7 -7 -7 -7 -7 -7 -7 -6 -6 -6 -5 -4 -4 -5 -5 -5 -4 -4 -4 -4 -3 -2 -2 -0 1 1 1 1 1 2 2 2 2 1 1 0 -2 -2 -2 -2 -3 -3 -3 -4 -5 -5
-6 -6 -7 -7 -7 -7 -7 -6 -6 -7 -8 -8 -7 -7 -7 -7 -6 -6 -5 -5 -5 -5 -5 -4 -5 -4 -4 -4 -3 -2 -1 1 0 1 1 1 1 1 1 1 2 1 1 -1 -2 -3 -3 -3 -4 -4 -4 -4 -5 -5
-7 -7 -7 -7 -7 -7 -7 -7 -7 -8 -8 -8 -8 -8 -8 -7 -7 -6 -6 -5 -6 -6 -5 -5 -4 -4 -3 -3 -2 -0 -0 -0 -0 -0 -0 0 0 0 1 1 1 0 -1 -2 -3 -3 -3 -4 -4 -4 -5 -5 -5 -5
-7 -7 -7 -7 -8 -8 -8 -7 -8 -8 -8 -9 -9 -9 -8 -8 -8 -7 -6 -6 -6 -6 -5 -5 -5 -4 -4 -3 -2 -2 -1 -1 -1 -1 -1 -0 -0 -0 0 0 -0 -1 -2 -3 -3 -3 -4 -4 -5 -5 -5 -6 -6 -5
-7 -8 -8 -8 -8 -9 -9 -8 -8 -8 -9 -9 -9 -10 -9 -9 -8 -7 -6 -6 -7 -6 -6 -5 -5 -5 -4 -4 -3 -2 -2 -2 -2 -2 -1 -1 -0 -0 -0 -1 -1 -2 -3 -4 -4 -4 -4 -5 -5 -6 -6 -6 -6 -6
-8 -8 -8 -8 -9 -9 -9 -9 -9 -9 -9 -10 -10 -10 -10 -10 -9 -8 -8 -7 -7 -7 -7 -6 -5 -5 -5 -4 -4 -3 -3 -3 -2 -2 -2 -1 -1 -1 -1 -1 -2 -3 -4 -4 -4 -5 -5 -6 -6 -6 -6 -6 -6 -6
-8 -9 -9 -9 -9 -9 -9 -9 -9 -10 -10 -10 -10 -11 -11 -11 -10 -9 -9 -9 -9 -8 -7 -7 -6 -6 -5 -5 -5 -5 -4 -4 -3 -3 -3 -2 -2 -2 -2 -2 -3 -4 -4 -5 -5 -5 -5 -6 -6 -6 -6 -6 -6 -6
-9 -9 -9 -9 -10 -10 -10 -10 -10 -11 -11 -11 -11 -12 -12 -12 -12 -11 -11 -10 -9 -9 -8 -8 -7 -7 -6 -5 -5 -5 -5 -5 -5 -4 -4 -3 -3 -3 -2 -4 -4 -5 -5 -6 -6 -6 -7 -7 -7 -7 -7 -7 -7 -7
-9 -10 -11 -10 -10 -10 -10 -10 -11 -11 -12 -12 -13 -13 -13 -12 -12 -12 -12 -11 -10 -10 -9 -9 -8 -8 -7 -6 -6 -5 -5 -5 -5 -5 -4 -4 -4 -4 -4 -5 -5 -5 -6 -6 -6 -7 -8 -8 -7 -7 -7 -7 -7 -7
-10 -10 -11 -11 -11 -11 -11 -11 -12 -12 -13 -13 -13 -13 -13 -14 -14 -13 -13 -12 -11 -11 -10 -10 -9 -9 -8 -8 -7 -7 -6 -6 -6 -6 -5 -5 -5 -5 -4 -5 -5 -5 -6 -6 -7 -8 -9 -9 -8 -8 -8 -9 -9 -8
-11 -11 -11 -11 -11 -11 -12 -12 -13 -13 -13 -13 -14 -14 -14 -14 -14 -13 -13 -13 -12 -12 -11 -11 -10 -9 -9 -8 -8 -7 -7 -7 -6 -6 -6 -5 -5 -5 -6 -6 -5 -6 -6 -8 -8 -10 -10 -10 -10 -10 -10 -9 -9 -9
-12 -12 -11 -11 -12 -12 -13 -13 -13 -14 -14 -14 -14 -15 -14 -14 -14 -14 -14 -13 -13 -12 -12 -11 -10 -10 -10 -9 -8 -8 -7 -7 -7 -6 -6 -6 -6 -6 -6 -6 -6 -7 -7 -8 -9 -11 -11 -11 -10 -10 -9 -10 -10 -10
-12 -12 -11 -12 -12 -13 -13 -14 -14 -14 -14 -14 -15 -15 -15 -15 -15 -14 -14 -14 -13 -12 -12 -11 -11 -10 -10 -9 -9 -9 -8 -7 -7 -7 -7 -7 -7 -7 -7 -8 -8 -8 -9 -9 -10 -12 -11 -10 -10 -10 -10 -10 -10 -10
-11 -11 -12 -12 -13 -14 -14 -14 -14 -14 -14 -14 -15 -15 -15 -15 -15 -15 -14 -14 -13 -12 -12 -12 -11 -11 -10 -10 -10 -9 -9 -8 -8 -8 -7 -7 -7 -8 -8 -9 -9 -10 -10 -10 -11 -11 -10 -10 -10 -10 -10 -10 -10 -10
-12 -12 -13 -13 -13 -14 -14 -14 -14 -14 -14 -15 -15 -15 -15 -15 -15 -15 -15 -14 -13 -13 -12 -12 -12 -12 -12 -11 -11 -10 -9 -9 -8 -8 -8 -8 -8 -8 -9 -10 -10 -10 -10 -10 -10 -10 -10 -10 -10 -11 -11 -11 -11 -11
-12 -13 -14 -14 -14 -14 -14 -14 -14 -14 -14 -15 -15 -15 -15 -15 -15 -15 -15 -14 -14 -14 -13 -13 -13 -13 -13 -12 -11 -10 -10 -10 -9 -9 -9 -10 -10 -10 -11 -11 -11 -10 -11 -11 -10 -10 -11 -11 -11 -12 -12 -11 -11 -11
-14 -14 -14 -14 -15 -14 -14 -15 -15 -14 -14 -15 -15 -15 -15 -16 -16 -16 -15 -15 -14 -14 -14 -14 -14 -14 -14 -13 -12 -12 -12 -12 -11 -11 -11 -12 -11 -11 -11 -11 -11 -11 -11 -11 -11 -11 -12 -13 -13 -13 -12 -12 -11 -11
-14 -15 -15 -15 -15 -15 -15 -15 -15 -15 -14 -15 -15 -15 -15 -16 -16 -16 -15 -15 -15 -15 -15 -15 -14 -14 -14 -14 -14 -13 -13 -13 -13 -13 -13 -12 -12 -12 -12 -12 -11 -11 -11 -11 -11 -12 -13 -13 -13 -13 -12 -12 -12 -12

GFSWCAN_700_temp_033.txt.gz
Temp
-4 -4 -5 -6 -6 -7 -8 -10 -11 -11 -11 -11 -10 -8 -7 -7 -5 -5 -4 -4 -4 -4 -4 -4 -4 -3 -4 -3 -3 -3 -3 -4 -4 -4 -4 -3 -2 -2 -2 -2 -1 -2 -2 -2 -2 -2 -2 1 1 1 1 2 2 2
-4 -5 -5 -6 -7 -7 -8 -10 -11 -11 -11 -11 -10 -8 -8 -8 -7 -5 -5 -5 -5 -4 -4 -4 -3 -3 -3 -4 -3 -3 -3 -3 -4 -3 -3 -2 -2 -2 -1 -1 -1 -1 -1 -1 -1 1 1 1 1 2 2 3 3 3
-5 -5 -6 -6 -7 -8 -8 -9 -10 -11 -11 -11 -10 -8 -8 -8 -6 -5 -5 -5 -4 -4 -4 -4 -4 -3 -3 -4 -4 -3 -3 -3 -3 -3 -3 -3 -3 -2 -2 -1 -1 -0 -0 -1 -0 1 1 2 1 2 3 3 3 3
-5 -5 -6 -6 -8 -8 -8 -9 -10 -10 -11 -11 -10 -9 -8 -8 -7 -4 -5 -5 -4 -4 -4 -3 -3 -3 -3 -3 -3 -3 -3 -4 -3 -3 -3 -3 -2 -2 -2 -2 -1 -1 -0 0 1 1 1 2 2 2 3 3 3 3
-5 -5 -6 -6 -8 -8 -9 -9 -10 -10 -10 -10 -10 -9 -7 -7 -7 -6 -5 -5 -5 -5 -4 -4 -4 -3 -3 -3 -3 -3 -4 -4 -4 -3 -3 -3 -3 -2 -2 -2 -1 0 0 1 1 1 1 2 2 2 2 3 2 2
-5 -5 -6 -6 -8 -8 -9 -9 -10 -10 -10 -10 -9 -8 -7 -7 -7 -5 -4 -5 -4 -4 -5 -4 -3 -3 -3 -3 -3 -3 -3 -3 -3 -3 -3 -3 -2 -2 -2 -2 1 1 1 1 1 1 1 1 1 1 2 1 2 1
-5 -6 -6 -6 -7 -8 -8 -9 -9 -10 -10 -10 -9 -8 -7 -7 -7 -5 -5 -4 -4 -4 -5 -4 -4 -3 -4 -3 -3 -3 -3 -3 -3 -3 -3 -2 -2 -2 -2 -1 1 -0 0 0 1 1 1 1 1 1 1 1 -0 1
-5 -6 -6 -6 -7 -7 -8 -9 -9 -9 -10 -9 -9 -8 -6 -6 -7 -6 -5 -4 -4 -4 -4 -4 -3 -3 -3 -4 -3 -3 -3 -3 -3 -3 -2 -2 -2 -2 -2 1 0 1 1 0 0 0 0 0 1 0 -0 -1 0 0
-5 -6 -6 -6 -7 -7 -8 -8 -9 -9 -9 -9 -8 -7 -6 -6 -6 -5 -5 -4 -4 -5 -4 -4 -4 -3 -3 -4 -4 -3 -3 -3 -3 -3 -2 -2 -2 -2 0 -0 -0 0 0 0 0 -0 -0 -1 -1 -1 -1 -1 -1 -1
-6 -6 -6 -7 -7 -7 -7 -8 -8 -8 -8 -8 -8 -7 -6 -6 -5 -5 -4 -5 -5 -5 -5 -4 -4 -4 -3 -4 -4 -4 -3 -3 -3 -3 -2 -2 0 1 0 -0 0 0 0 1 1 -0 -1 0 0 0 0 -1 -1 -1
-6 -6 -6 -7 -6 -7 -7 -7 -8 -8 -8 -8 -7 -7 -6 -6 -5 -5 -4 -4 -4 -4 -4 -4 -3 -3 -3 -4 -4 -4 -3 -3 -3 -2 -2 -1 1 1 1 1 0 0 1 1 0 0 -0 0 1 1 0 -1 -1 -2
-6 -6 -6 -7 -6 -6 -6 -7 -7 -8 -8 -7 -8 -6 -6 -6 -5 -5 -5 -5 -4 -5 -3 -2 -2 -3 -4 -4 -4 -4 -3 -3 -2 -2 -2 -0 1 1 2 2 1 1 1 1 1 1 1 1 0 -0 -0 -1 -2 -3
-6 -6 -6 -7 -7 -6 -6 -6 -7 -7 -7 -7 -6 -7 -6 -5 -5 -5 -5 -5 -4 -3 -3 -3 -2 -4 -4 -4 -4 -4 -3 -3 -2 -2 -0 1 1 2 2 2 2 1 1 1 1 1 1 0 0 -1 -1 -2 -2 -3
-7 -6 -7 -7 -7 -6 -6 -6 -6 -7 -7 -6 -6 -6 -5 -5 -6 -6 -5 -5 -4 -3 -3 -3 -4 -4 -4 -4 -3 -3 -4 -2 -2 -1 1 1 2 2 2 2 2 2 2 1 0 0 -0 -0 -0 -1 -2 -2 -3 -3
-7 -7 -7 -7 -7 -6 -6 -6 -5 -6 -7 -6 -6 -6 -6 -6 -6 -6 -6 -5 -5 -4 -4 -4 -4 -4 -4 -5 -4 -3 -3 -2 -1 1 1 1 2 2 2 2 1 1 1 1 -0 -1 -1 -1 -1 -2 -3 -3 -3 -4
-7 -7 -7 -7 -7 -6 -6 -6 -5 -5 -6 -7 -7 -7 -6 -6 -6 -6 -6 -5 -5 -5 -5 -5 -5 -5 -5 -4 -3 -2 -3 -1 0 1 1 1 1 1 1 2 1 1 1 1 -0 -1 -2 -2 -2 -2 -3 -3 -4 -4
-7 -7 -7 -7 -7 -6 -6 -6 -6 -5 -6 -7 -7 -6 -7 -7 -7 -7 -6 -6 -6 -6 -6 -5 -5 -5 -4 -4 -4 -3 -1 0 0 -0 0 0 0 1 1 1 1 1 1 0 -1 -2 -2 -3 -3 -3 -3 -3 -4 -5
-7 -7 -7 -7 -7 -7 -6 -6 -6 -6 -6 -7 -8 -8 -7 -7 -7 -7 -7 -7 -6 -6 -6 -5 -5 -4 -4 -3 -3 -1 -1 -1 -1 -1 -1 -1 -0 0 0 0 1 1 0 -1 -2 -3 -3 -3 -3 -3 -4 -5 -5 -5
-8 -8 -8 -8 -7 -7 -7 -6 -7 -7 -7 -7 -7 -8 -8 -8 -8 -8 -7 -7 -7 -7 -6 -6 -5 -5 -5 -4 -3 -3 -2 -1 -1 -1 -1 -1 -1 -1 -0 -0 0 0 -1 -2 -3 -4 -4 -3 -4 -4 -4 -5 -5 -5
-8 -8 -8 -8 -8 -8 -8 -7 -8 -7 -7 -7 -8 -8 -8 -8 -9 -9 -8 -8 -8 -8 -7 -7 -6 -5 -5 -5 -4 -4 -3 -3 -2 -2 -2 -2 -2 -1 -1 -1 -0 -1 -2 -2 -3 -4 -4 -4 -5 -5 -5 -6 -6 -5
-8 -8 -8 -8 -8 -8 -8 -8 -8 -8 -8 -8 -8 -9 -9 -9 -9 -9 -9 -9 -8 -9 -9 -7 -6 -6 -6 -5 -5 -4 -4 -4 -3 -3 -2 -2 -2 -1 -1 -1 -1 -1 -2 -3 -4 -4 -4 -5 -5 -5 -5 -6 -6 -6
-9 -8 -8 -9 -9 -8 -8 -8 -9 -8 -9 -9 -9 -10 -10 -9 -10 -10 -10 -10 -10 -9 -9 -9 -8 -7 -7 -7 -6 -5 -5 -4 -4 -3 -3 -3 -2 -2 -2 -2 -2 -2 -3 -4 -4 -4 -5 -5 -5 -6 -7 -6 -6 -6
-9 -9 -9 -9 -9 -9 -9 -9 -9 -9 -10 -10 -10 -10 -10 -11 -11 -12 -12 -11 -11 -10 -10 -10 -10 -9 -8 -7 -7 -6 -5 -5 -5 -4 -5 -4 -3 -3 -2 -2 -2 -3 -4 -4 -5 -5 -5 -5 -6 -8 -7 -6 -7 -6
-9 -9 -9 -10 -10 -9 -9 -9 -10 -10 -10 -11 -11 -12 -12 -12 -12 -13 -12 -12 -12 -12 -11 -11 -10 -10 -10 -9 -8 -7 -6 -5 -5 -5 -5 -5 -5 -4 -3 -3 -3 -4 -5 -5 -5 -5 -5 -6 -8 -8 -7 -7 -7 -7
-10 -9 -9 -10 -10 -10 -10 -10 -10 -10 -11 -12 -12 -12 -12 -13 -13 -13 -13 -13 -13 -13 -13 -12 -11 -11 -10 -10 -9 -8 -7 -7 -6 -5 -5 -5 -6 -5 -4 -4 -4 -5 -5 -5 -5 -6 -6 -7 -10 -10 -9 -8 -8 -8
-10 -10 -10 -10 -10 -10 -10 -11 -11 -11 -12 -13 -13 -13 -13 -14 -14 -13 -13 -13 -14 -14 -13 -13 -12 -12 -11 -10 -10 -9 -8 -8 -7 -7 -6 -6 -6 -6 -6 -5 -5 -5 -5 -5 -6 -6 -7 -8 -10 -10 -10 -9 -10 -10
-11 -10 -9 -10 -10 -10 -11 -11 -12 -13 -13 -14 -13 -14 -14 -14 -14 -14 -14 -14 -14 -13 -13 -13 -12 -12 -11 -11 -10 -10 -9 -8 -7 -7 -7 -6 -6 -6 -6 -6 -5 -6 -6 -6 -6 -8 -8 -9 -10 -11 -11 -10 -10 -9
-11 -10 -10 -11 -11 -11 -12 -12 -13 -13 -14 -14 -14 -14 -14 -14 -14 -14 -14 -14 -14 -14 -14 -13 -12 -12 -11 -11 -11 -10 -10 -9 -8 -8 -7 -7 -7 -6 -6 -6 -6 -7 -7 -7 -8 -9 -9 -10 -11 -11 -11 -10 -10 -10
-10 -10 -11 -11 -11 -12 -12 -12 -13 -13 -14 -14 -14 -14 -15 -14 -15 -15 -15 -15 -15 -14 -14 -14 -13 -12 -11 -12 -11 -11 -10 -10 -10 -9 -8 -8 -7 -7 -7 -7 -7 -7 -8 -8 -9 -10 -11 -12 -11 -11 -10 -10 -10 -10
-10 -11 -11 -11 -12 -12 -13 -13 -13 -14 -14 -14 -14 -14 -15 -15 -15 -15 -15 -15 -15 -14 -14 -14 -13 -13 -12 -12 -12 -12 -11 -11 -10 -10 -9 -8 -8 -8 -8 -8 -8 -9 -9 -10 -10 -10 -10 -10 -10 -10 -10 -10 -10 -10
-11 -11 -12 -12 -13 -13 -13 -14 -14 -14 -14 -14 -15 -15 -14 -14 -14 -15 -15 -15 -15 -14 -14 -14 -14 -13 -13 -13 -13 -12 -12 -12 -11 -10 -10 -9 -9 -9 -9 -9 -9 -10 -11 -11 -10 -10 -10 -10 -10 -10 -11 -11 -11 -11
-12 -12 -12 -13 -13 -14 -14 -14 -14 -14 -14 -14 -14 -14 -14 -14 -14 -14 -15 -15 -15 -15 -15 -15 -14 -14 -14 -13 -13 -13 -13 -12 -12 -11 -10 -10 -9 -10 -11 -11 -11 -11 -11 -11 -11 -11 -11 -11 -10 -11 -12 -12 -12 -11
-12 -13 -13 -14 -14 -15 -15 -15 -15 -15 -15 -15 -14 -14 -14 -14 -14 -14 -15 -15 -15 -15 -15 -15 -15 -15 -14 -14 -14 -14 -13 -13 -12 -12 -11 -11 -12 -12 -12 -12 -11 -11 -11 -12 -12 -12 -11 -11 -13 -13 -12 -12 -12 -11

GFSWCAN_700_temp_036.txt.gz
Temp
-4 -4 -4 -5 -5 -5 -5 -6 -6 -8 -8 -9 -9 -7 -6 -6 -5 -5 -4 -5 -4 -4 -4 -4 -4 -4 -3 -3 -3 -4 -4 -4 -4 -4 -4 -3 -3 -2 -2 -2 -2 -2 -2 -2 -2 -2 -1 1 1 1 1 0 1 -0
-4 -4 -4 -5 -5 -5 -5 -6 -7 -8 -9 -9 -8 -8 -6 -6 -5 -5 -5 -5 -4 -4 -4 -4 -3 -3 -3 -4 -3 -3 -4 -3 -4 -4 -4 -4 -3 -2 -2 -1 -1 -2 -1 -1 -1 0 1 1 1 1 2 2 2 1
-4 -4 -5 -5 -5 -5 -5 -6 -7 -8 -9 -9 -9 -8 -7 -6 -5 -5 -5 -4 -4 -4 -4 -4 -3 -3 -4 -3 -4 -4 -3 -4 -4 -4 -3 -3 -3 -2 -2 -1 -1 -1 -1 -1 -1 1 0 1 1 2 2 2 2 2
-4 -4 -5 -5 -5 -6 -6 -7 -8 -9 -9 -9 -10 -9 -8 -7 -6 -5 -5 -5 -5 -4 -4 -4 -3 -4 -4 -3 -3 -3 -3 -3 -4 -4 -3 -3 -3 -2 -2 -2 -1 -1 -1 -0 0 1 1 1 2 2 2 3 3 2
-4 -4 -5 -5 -5 -6 -6 -7 -8 -9 -9 -10 -9 -9 -8 -7 -7 -6 -5 -5 -5 -5 -4 -4 -4 -4 -4 -4 -3 -3 -4 -4 -4 -4 -4 -3 -3 -2 -3 -2 -1 0 -0 -1 -1 0 1 1 2 2 2 2 2 2
-5 -5 -5 -5 -5 -6 -6 -7 -9 -9 -9 -10 -9 -8 -7 -6 -7 -7 -6 -6 -4 -5 -5 -4 -4 -4 -3 -3 -3 -3 -3 -4 -4 -4 -3 -3 -3 -3 -2 -2 1 -0 0 0 0 0 0 1 1 1 1 1 1 1
-5 -5 -5 -5 -5 -6 -6 -7 -8 -9 -9 -10 -9 -8 -7 -6 -7 -6 -6 -5 -5 -5 -4 -4 -4 -4 -4 -4 -4 -3 -3 -3 -4 -3 -3 -3 -3 -3 -3 -1 1 0 -0 -0 0 0 0 0 1 0 1 1 1 1
-5 -5 -5 -5 -5 -5 -6 -7 -8 -9 -9 -9 -9 -8 -7 -6 -6 -5 -5 -5 -5 -5 -5 -4 -4 -4 -3 -4 -4 -4 -4 -3 -3 -3 -3 -3 -3 -2 -2 1 1 0 0 0 0 0 0 0 0 -0 -0 -0 -0 -0
-5 -5 -5 -5 -6 -5 -6 -7 -8 -8 -8 -9 -8 -7 -6 -6 -6 -5 -5 -5 -4 -4 -5 -4 -4 -3 -3 -4 -4 -4 -4 -3 -3 -3 -3 -2 -2 -2 0 0 0 -0 0 1 0 -0 -0 -0 -1 -1 -1 -1 -1 -2
-5 -5 -5 -5 -5 -5 -6 -7 -7 -8 -8 -8 -8 -7 -6 -5 -5 -6 -5 -5 -5 -4 -5 -4 -3 -4 -3 -4 -4 -4 -4 -4 -3 -3 -3 -3 -1 1 0 -0 -0 0 0 0 0 0 -0 -1 -0 -1 -1 -1 -1 -1
-5 -5 -5 -6 -6 -5 -5 -6 -7 -7 -7 -8 -7 -6 -6 -6 -5 -5 -5 -5 -5 -5 -4 -3 -3 -4 -4 -4 -4 -4 -4 -3 -4 -3 -3 -2 1 1 1 1 0 -0 -0 0 0 -1 -1 -1 -1 -0 -1 -1 -1 -2
-6 -5 -5 -5 -6 -5 -5 -6 -6 -7 -6 -7 -7 -6 -6 -6 -5 -5 -5 -5 -4 -4 -4 -3 -4 -4 -4 -4 -4 -4 -4 -3 -3 -3 -2 -1 1 1 1 1 1 1 1 1 1 1 -0 -0 -0 -1 -1 -1 -1 -2
-6 -5 -5 -6 -6 -5 -5 -6 -6 -6 -6 -7 -8 -6 -6 -6 -6 -5 -5 -5 -4 -4 -4 -4 -4 -5 -5 -4 -4 -4 -3 -4 -3 -2 -1 1 1 1 1 2 1 1 1 1 1 0 0 0 0 -0 -1 -2 -2 -3
-6 -6 -6 -6 -6 -5 -5 -5 -5 -6 -6 -6 -7 -6 -5 -5 -5 -5 -5 -4 -5 -4 -4 -4 -4 -5 -5 -5 -4 -3 -4 -3 -2 -1 0 1 1 1 1 1 2 2 1 1 1 1 0 0 0 -0 -1 -2 -2 -3
-7 -6 -6 -6 -6 -6 -6 -6 -5 -5 -6 -6 -6 -6 -6 -6 -6 -5 -5 -5 -4 -4 -4 -5 -5 -5 -5 -5 -5 -3 -3 -2 -1 0 0 0 1 1 1 1 1 1 1 0 -0 -0 -0 -0 -0 -1 -1 -3 -3 -3
-7 -7 -6 -6 -6 -6 -6 -6 -5 -5 -6 -6 -6 -6 -6 -6 -6 -6 -5 -5 -5 -5 -6 -6 -5 -5 -5 -4 -4 -3 -2 0 0 0 0 0 0 0 1 1 1 1 1 0 -0 -1 -1 -1 -1 -1 -2 -3 -3 -4
-7 -7 -6 -6 -7 -6 -6 -6 -5 -5 -5 -6 -6 -6 -6 -6 -7 -7 -6 -6 -5 -5 -6 -6 -5 -5 -5 -5 -4 -3 -1 -1 -1 -1 -1 -0 -0 -0 -0 0 1 1 1 1 -0 -1 -2 -2 -2 -3 -3 -3 -4 -4
-8 -7 -7 -7 -7 -7 -6 -6 -6 -6 -6 -6 -6 -7 -7 -7 -7 -7 -7 -7 -7 -6 -6 -6 -5 -5 -5 -4 -4 -3 -2 -2 -2 -2 -2 -2 -1 -1 -0 0 0 0 0 0 -0 -2 -3 -3 -3 -3 -4 -4 -4 -4
-8 -7 -7 -7 -7 -7 -7 -6 -6 -6 -6 -6 -6 -7 -7 -7 -7 -7 -7 -7 -7 -7 -7 -7 -6 -6 -5 -5 -5 -4 -3 -3 -2 -2 -2 -2 -1 -1 -1 -1 -0 0 0 -0 -1 -2 -3 -3 -3 -3 -4 -4 -5 -5
-9 -8 -8 -8 -8 -8 -8 -7 -7 -7 -7 -7 -7 -7 -8 -8 -8 -8 -8 -8 -8 -8 -8 -9 -7 -6 -6 -6 -5 -5 -4 -4 -3 -3 -3 -2 -2 -2 -1 -1 -1 -1 -0 -1 -2 -3 -4 -3 -4 -4 -4 -4 -5 -5
-10 -9 -8 -8 -8 -8 -8 -8 -7 -7 -7 -8 -7 -8 -8 -8 -8 -8 -8 -8 -9 -9 -9 -8 -8 -8 -7 -7 -7 -6 -6 -5 -4 -4 -4 -4 -3 -2 -2 -2 -1 -1 -1 -1 -3 -4 -4 -4 -4 -4 -4 -5 -5 -6
-9 -9 -8 -9 -9 -9 -8 -8 -8 -8 -8 -8 -8 -8 -9 -9 -9 -9 -9 -9 -9 -9 -9 -10 -9 -9 -9 -9 -9 -8 -7 -6 -6 -5 -5 -4 -4 -3 -3 -2 -2 -2 -2 -2 -4 -4 -4 -4 -4 -5 -5 -6 -7 -6
-9 -9 -9 -9 -9 -9 -8 -8 -9 -9 -9 -9 -9 -9 -10 -10 -10 -10 -10 -9 -9 -10 -11 -11 -11 -11 -10 -10 -9 -9 -8 -7 -6 -6 -6 -5 -4 -3 -3 -3 -3 -2 -3 -3 -4 -4 -5 -5 -5 -5 -6 -7 -8 -7
-9 -9 -10 -10 -9 -9 -8 -8 -9 -9 -9 -10 -10 -10 -11 -11 -11 -11 -10 -10 -11 -11 -12 -12 -12 -12 -11 -11 -10 -10 -9 -8 -7 -7 -7 -6 -5 -4 -4 -4 -3 -3 -3 -4 -4 -4 -5 -5 -5 -6 -6 -8 -8 -7
-10 -10 -10 -10 -9 -9 -9 -9 -9 -9 -9 -10 -11 -11 -11 -12 -12 -12 -11 -10 -11 -12 -13 -13 -13 -13 -12 -12 -11 -11 -10 -9 -8 -7 -7 -6 -6 -5 -5 -5 -4 -4 -3 -5 -5 -5 -5 -5 -6 -6 -7 -9 -8 -8
-10 -10 -10 -10 -9 -9 -9 -9 -9 -10 -10 -11 -12 -12 -12 -13 -13 -12 -11 -12 -13 -13 -13 -13 -13 -13 -13 -12 -12 -11 -11 -10 -9 -9 -8 -7 -7 -6 -5 -5 -5 -5 -4 -4 -5 -5 -5 -6 -6 -8 -10 -9 -9 -9
-10 -10 -10 -9 -9 -9 -9 -10 -10 -11 -12 -12 -12 -13 -13 -13 -12 -12 -12 -13 -13 -13 -14 -14 -14 -14 -13 -13 -12 -12 -11 -11 -10 -10 -9 -8 -8 -7 -6 -6 -6 -6 -6 -6 -6 -5 -6 -6 -7 -9 -10 -10 -10 -10
-11 -10 -10 -10 -10 -10 -11 -11 -12 -12 -12 -12 -13 -13 -13 -13 -12 -13 -13 -13 -13 -14 -14 -14 -14 -14 -14 -13 -12 -12 -11 -11 -10 -10 -10 -9 -8 -8 -7 -6 -6 -6 -6 -6 -6 -7 -7 -7 -9 -9 -10 -10 -11 -11
-10 -10 -11 -11 -10 -11 -11 -11 -12 -12 -12 -13 -13 -14 -14 -13 -13 -14 -14 -14 -14 -14 -14 -14 -15 -14 -14 -13 -13 -12 -11 -11 -11 -11 -10 -9 -9 -8 -8 -7 -7 -6 -6 -6 -7 -8 -8 -9 -9 -10 -11 -12 -11 -10
-11 -11 -10 -10 -10 -11 -11 -12 -12 -12 -13 -13 -13 -13 -13 -13 -14 -14 -14 -14 -14 -14 -15 -15 -14 -14 -14 -13 -13 -13 -12 -11 -11 -11 -10 -10 -10 -9 -9 -8 -8 -7 -7 -7 -8 -9 -9 -9 -10 -11 -12 -11 -10 -10
-10 -10 -10 -11 -11 -12 -12 -13 -13 -13 -13 -14 -14 -14 -14 -14 -13 -14 -14 -14 -14 -14 -15 -15 -14 -14 -14 -14 -13 -13 -13 -12 -11 -11 -11 -11 -11 -10 -10 -9 -9 -9 -9 -8 -10 -10 -10 -10 -11 -11 -11 -11 -10 -10
-10 -11 -11 -12 -12 -13 -13 -13 -14 -14 -14 -14 -14 -14 -14 -14 -13 -13 -13 -14 -14 -15 -15 -14 -15 -15 -14 -14 -14 -13 -13 -12 -12 -12 -12 -11 -11 -11 -10 -9 -9 -9 -9 -11 -11 -11 -11 -10 -10 -11 -11 -11 -10 -11
-11 -12 -12 -13 -13 -13 -14 -14 -14 -14 -13 -14 -14 -14 -14 -14 -14 -13 -13 -14 -15 -15 -14 -14 -15 -15 -15 -14 -14 -14 -14 -13 -13 -13 -12 -12 -11 -11 -11 -10 -10 -11 -12 -11 -11 -11 -11 -11 -11 -12 -11 -11 -12 -12

GFSWCAN_700_temp_039.txt.gz
Temp
-5 -5 -4 -4 -4 -4 -5 -5 -5 -5 -6 -6 -6 -5 -3 -4 -4 -5 -5 -4 -5 -4 -4 -5 -4 -4 -3 -4 -3 -3 -3 -3 -4 -4 -4 -3 -2 -1 -2 -1 -2 -2 -2 -3 -3 -3 -1 1 1 0 0 1 1 -0
-5 -5 -4 -4 -5 -4 -5 -5 -6 -6 -7 -7 -7 -6 -4 -4 -4 -4 -5 -5 -5 -5 -4 -4 -4 -4 -4 -4 -4 -4 -4 -4 -4 -4 -4 -3 -3 -3 -1 -0 -1 -1 -1 -1 -1 -1 -0 0 1 1 2 2 2 1
-5 -5 -5 -5 -5 -5 -5 -6 -6 -7 -8 -8 -8 -7 -6 -5 -4 -4 -5 -5 -4 -5 -4 -4 -4 -3 -3 -4 -4 -4 -4 -4 -4 -4 -4 -4 -3 -3 -1 -1 -1 -1 -1 -1 -1 -0 -0 1 1 2 2 3 2 2
-6 -5 -5 -5 -5 -5 -6 -6 -7 -7 -8 -9 -9 -8 -7 -6 -5 -5 -5 -5 -5 -5 -4 -4 -4 -3 -4 -4 -4 -3 -4 -4 -4 -4 -4 -3 -3 -2 -2 -2 -1 -1 -1 -1 -0 0 0 1 1 2 2 2 2 2
-6 -5 -5 -5 -5 -5 -6 -7 -7 -8 -8 -9 -9 -9 -8 -6 -5 -5 -5 -4 -5 -4 -4 -4 -4 -4 -4 -4 -3 -4 -4 -4 -4 -4 -4 -4 -3 -3 -2 -2 -1 -0 1 -1 -0 -0 0 0 1 1 1 1 1 2
-6 -6 -5 -5 -5 -5 -6 -7 -7 -8 -9 -9 -9 -9 -8 -7 -6 -5 -5 -6 -5 -4 -4 -4 -4 -4 -4 -4 -4 -4 -3 -4 -4 -4 -4 -4 -3 -3 -3 -2 -0 0 -0 -0 -1 1 0 0 0 1 1 1 1 1
-7 -6 -5 -5 -5 -5 -6 -7 -8 -8 -9 -9 -9 -8 -7 -7 -6 -6 -5 -5 -5 -6 -5 -4 -4 -4 -4 -4 -4 -4 -3 -4 -4 -4 -4 -3 -3 -3 -3 -1 0 -0 -0 -0 -0 -0 0 0 0 0 0 1 1 1
-7 -6 -6 -5 -5 -6 -6 -6 -7 -8 -9 -9 -8 -8 -7 -6 -6 -6 -5 -5 -5 -5 -5 -4 -4 -4 -4 -4 -4 -4 -4 -4 -4 -4 -4 -4 -3 -3 -2 1 -0 0 0 0 -0 0 0 0 0 -0 -0 -1 -0 -0
-7 -6 -6 -5 -5 -6 -6 -6 -7 -8 -8 -8 -7 -7 -7 -6 -6 -5 -5 -5 -5 -5 -5 -4 -4 -4 -4 -4 -4 -4 -4 -4 -3 -4 -4 -3 -3 -3 0 -1 -0 -0 -0 0 0 1 1 0 -0 -0 -1 -1 -1 -1
-7 -6 -6 -6 -5 -5 -6 -6 -6 -7 -7 -7 -7 -6 -6 -6 -6 -5 -5 -5 -5 -5 -5 -4 -4 -4 -4 -4 -4 -4 -4 -3 -3 -3 -3 -3 -1 0 0 -0 -0 -0 -0 -0 0 0 0 0 -1 -1 -1 -2 -2 -2
-8 -7 -6 -6 -6 -5 -5 -6 -6 -6 -6 -6 -6 -5 -5 -5 -6 -5 -5 -5 -5 -5 -5 -4 -4 -4 -4 -4 -4 -4 -4 -4 -4 -3 -3 -2 0 0 0 1 1 0 -0 -0 -0 -0 -0 -1 -1 -1 -1 -1 -1 -2
-8 -7 -6 -6 -6 -5 -5 -5 -5 -6 -6 -5 -5 -6 -6 -6 -5 -5 -5 -5 -5 -5 -5 -5 -5 -4 -4 -4 -4 -4 -4 -4 -4 -3 -3 -1 0 0 0 1 1 1 -1 -0 0 -0 -1 -0 -1 -1 -1 -2 -1 -2
-8 -8 -7 -6 -6 -5 -5 -5 -5 -5 -6 -5 -6 -6 -5 -5 -5 -6 -5 -5 -5 -6 -5 -5 -5 -5 -5 -5 -5 -4 -4 -4 -3 -3 -1 -0 -0 0 1 1 1 1 1 1 1 0 0 0 -0 -0 -0 -1 -2 -2
-9 -8 -7 -7 -6 -6 -5 -5 -5 -5 -6 -5 -5 -5 -4 -4 -5 -5 -5 -4 -5 -5 -5 -5 -5 -5 -5 -5 -5 -4 -4 -3 -3 -2 -1 -1 -0 0 1 1 1 1 1 1 1 1 0 0 0 0 0 -1 -2 -2
-9 -8 -8 -7 -6 -6 -5 -5 -5 -5 -6 -6 -5 -5 -5 -5 -5 -5 -4 -4 -4 -5 -5 -6 -5 -5 -5 -5 -5 -4 -4 -2 -1 -1 -1 -1 -0 0 1 1 1 1 1 1 1 1 0 0 -0 -0 -1 -1 -2 -3
-9 -9 -8 -7 -7 -6 -6 -5 -5 -5 -5 -5 -5 -5 -5 -5 -5 -5 -5 -5 -4 -5 -5 -6 -5 -5 -5 -5 -5 -3 -3 -1 -1 -1 -1 -1 -0 -0 0 0 1 1 1 0 0 -0 -0 -1 -1 -1 -1 -2 -3 -3
-9 -9 -8 -8 -7 -6 -6 -6 -5 -5 -5 -5 -5 -5 -5 -6 -6 -6 -6 -5 -5 -6 -6 -7 -5 -5 -5 -5 -4 -3 -2 -1 -2 -1 -1 -1 -1 -1 -1 -0 0 0 1 1 0 -0 -1 -1 -1 -2 -2 -2 -3 -4
-10 -9 -8 -8 -7 -7 -6 -6 -6 -5 -5 -5 -5 -5 -6 -6 -7 -7 -7 -6 -6 -6 -6 -7 -6 -5 -5 -5 -4 -3 -3 -3 -3 -2 -2 -2 -2 -2 -1 -1 -0 0 0 0 0 -0 -1 -2 -2 -2 -2 -3 -4 -4
-10 -9 -9 -8 -8 -7 -8 -7 -6 -6 -5 -6 -6 -6 -6 -6 -7 -7 -7 -7 -7 -7 -7 -7 -7 -7 -6 -6 -5 -5 -4 -3 -3 -3 -3 -3 -2 -2 -2 -1 -1 -1 -0 0 0 -0 -1 -2 -3 -3 -3 -3 -4 -4
-10 -10 -11 -9 -8 -8 -8 -7 -7 -7 -6 -6 -6 -6 -6 -6 -7 -7 -7 -7 -8 -8 -8 -8 -7 -7 -7 -7 -6 -6 -5 -5 -5 -4 -4 -4 -3 -3 -2 -2 -2 -1 -1 -1 -1 -1 -2 -4 -4 -3 -3 -4 -4 -4
-10 -10 -11 -10 -9 -9 -9 -8 -7 -7 -7 -7 -6 -7 -7 -7 -7 -7 -8 -8 -8 -8 -7 -7 -7 -8 -8 -8 -8 -7 -7 -7 -7 -6 -5 -5 -5 -4 -4 -3 -3 -2 -2 -1 -1 -2 -4 -4 -4 -4 -4 -4 -4 -5
-10 -10 -11 -10 -10 -10 -10 -8 -8 -7 -7 -7 -8 -8 -7 -7 -7 -8 -8 -8 -8 -8 -8 -9 -9 -9 -9 -9 -9 -9 -9 -8 -8 -6 -6 -6 -5 -5 -4 -4 -3 -3 -3 -2 -2 -3 -4 -4 -4 -4 -4 -4 -5 -5
-10 -10 -10 -10 -10 -10 -9 -8 -8 -8 -9 -8 -8 -8 -8 -8 -8 -8 -8 -8 -8 -9 -9 -9 -10 -10 -10 -10 -10 -10 -10 -10 -9 -9 -8 -7 -6 -6 -5 -5 -4 -4 -3 -3 -3 -4 -4 -5 -5 -4 -5 -5 -5 -5
-11 -11 -11 -10 -10 -10 -9 -9 -8 -8 -8 -9 -8 -8 -9 -9 -9 -9 -8 -8 -9 -10 -10 -10 -10 -11 -11 -12 -12 -12 -11 -11 -10 -10 -9 -8 -7 -7 -6 -6 -5 -4 -4 -3 -3 -5 -5 -4 -4 -4 -5 -5 -5 -6
-12 -11 -11 -10 -10 -10 -10 -9 -8 -9 -9 -9 -9 -9 -10 -10 -10 -10 -9 -8 -10 -10 -11 -11 -11 -11 -11 -11 -12 -12 -12 -12 -12 -11 -10 -9 -9 -8 -7 -7 -7 -6 -5 -4 -4 -5 -4 -4 -4 -5 -5 -5 -7 -9
-12 -11 -10 -10 -10 -10 -10 -9 -8 -9 -9 -10 -10 -10 -10 -11 -11 -10 -10 -10 -11 -11 -12 -12 -12 -12 -12 -12 -11 -12 -12 -12 -12 -12 -11 -10 -10 -9 -9 -8 -7 -6 -7 -5 -4 -4 -5 -5 -5 -5 -5 -7 -7 -9
-12 -11 -10 -10 -10 -10 -9 -9 -9 -9 -10 -10 -10 -11 -11 -12 -11 -10 -11 -11 -12 -12 -12 -12 -12 -12 -12 -13 -13 -13 -13 -13 -13 -12 -11 -11 -10 -10 -9 -8 -7 -7 -7 -6 -6 -6 -5 -5 -5 -5 -7 -7 -8 -9
-11 -10 -9 -10 -10 -10 -10 -10 -10 -11 -11 -11 -11 -11 -11 -11 -11 -11 -12 -12 -12 -12 -12 -12 -12 -12 -13 -13 -14 -14 -14 -13 -13 -12 -11 -11 -11 -10 -10 -9 -8 -8 -8 -7 -6 -6 -6 -5 -6 -7 -8 -8 -9 -10
-10 -10 -10 -10 -10 -11 -11 -11 -11 -10 -10 -11 -11 -12 -12 -11 -12 -13 -13 -13 -13 -13 -13 -13 -13 -13 -14 -14 -14 -13 -13 -13 -13 -12 -12 -11 -11 -11 -10 -10 -9 -9 -9 -8 -7 -6 -6 -7 -8 -9 -9 -9 -10 -11
-11 -11 -11 -10 -10 -10 -11 -11 -10 -10 -11 -12 -12 -12 -12 -12 -13 -13 -13 -13 -13 -13 -13 -13 -13 -14 -14 -13 -13 -14 -14 -13 -12 -12 -12 -11 -11 -11 -11 -11 -10 -9 -9 -9 -8 -8 -7 -8 -9 -10 -9 -10 -10 -11
-10 -11 -11 -11 -10 -10 -11 -11 -11 -11 -12 -12 -12 -12 -12 -12 -12 -13 -13 -13 -13 -13 -13 -13 -14 -14 -13 -14 -13 -13 -14 -14 -13 -13 -12 -12 -12 -11 -11 -11 -10 -10 -9 -9 -9 -8 -7 -8 -10 -10 -10 -10 -10 -10
-11 -10 -10 -10 -10 -11 -11 -12 -12 -12 -12 -13 -13 -13 -13 -13 -13 -12 -13 -13 -13 -13 -13 -14 -14 -14 -14 -14 -14 -14 -14 -14 -14 -13 -13 -12 -12 -12 -12 -11 -11 -10 -10 -9 -9 -9 -9 -10 -10 -11 -11 -11 -11 -11
-10 -10 -11 -11 -11 -11 -11 -12 -12 -13 -12 -12 -12 -13 -13 -13 -13 -13 -13 -13 -13 -13 -14 -14 -14 -14 -14 -14 -14 -14 -14 -14 -14 -13 -13 -13 -13 -12 -12 -12 -11 -11 -10 -10 -10 -10 -11 -11 -11 -11 -11 -11 -12 -12

GFSWCAN_700_temp_042.txt.gz
Temp
-6 -5 -5 -5 -5 -5 -5 -5 -5 -5 -5 -5 -7 -6 -5 -5 -5 -5 -5 -6 -4 -4 -4 -5 -4 -4 -4 -4 -4 -3 -3 -3 -3 -4 -4 -3 -3 -2 -2 -2 -1 -3 -3 -3 -4 -4 -3 -0 -0 -0 1 0 0 -0
-6 -6 -5 -5 -5 -5 -5 -5 -5 -6 -6 -6 -7 -7 -6 -6 -5 -5 -5 -5 -5 -4 -4 -5 -5 -4 -4 -4 -4 -4 -4 -4 -3 -4 -4 -4 -3 -2 -1 -2 -1 -1 -1 -1 -1 0 0 -1 -0 1 1 1 2 1
-7 -6 -6 -5 -5 -5 -5 -5 -5 -6 -7 -7 -8 -9 -8 -7 -6 -5 -6 -5 -5 -5 -5 -4 -4 -4 -3 -4 -4 -4 -4 -4 -4 -4 -4 -4 -3 -3 -2 -1 -1 -1 -1 -1 -1 -0 -1 -0 0 1 2 2 2 1
-8 -6 -6 -5 -5 -5 -5 -6 -6 -7 -7 -8 -8 -9 -9 -8 -6 -5 -5 -6 -5 -5 -5 -4 -4 -4 -3 -3 -3 -3 -3 -4 -4 -4 -4 -4 -4 -3 -2 -2 -1 -1 -1 -1 -0 0 -0 0 0 1 1 1 2 2
-8 -7 -6 -5 -5 -6 -5 -6 -6 -7 -8 -9 -9 -10 -9 -8 -7 -6 -5 -6 -5 -4 -4 -4 -4 -4 -4 -4 -4 -4 -3 -3 -4 -4 -5 -4 -4 -3 -2 -2 -1 -1 -0 -1 -1 -1 -0 0 0 1 1 1 1 1
-8 -7 -6 -6 -6 -5 -5 -6 -7 -7 -8 -9 -9 -9 -9 -9 -7 -6 -6 -6 -5 -5 -4 -4 -4 -4 -4 -4 -3 -3 -4 -4 -4 -4 -4 -4 -3 -3 -3 -3 -1 -0 -1 -1 -0 -0 0 0 0 0 0 1 1 1
-8 -7 -7 -6 -6 -5 -6 -6 -7 -8 -9 -9 -9 -9 -9 -8 -7 -7 -6 -5 -5 -5 -5 -4 -4 -4 -4 -4 -4 -4 -4 -4 -4 -5 -5 -4 -4 -3 -3 -3 -1 -1 -0 -1 -1 -0 -0 -0 0 0 0 0 0 0
-8 -7 -7 -6 -6 -5 -6 -6 -7 -8 -8 -8 -8 -8 -8 -8 -8 -7 -6 -5 -5 -5 -5 -5 -4 -4 -4 -4 -4 -4 -4 -4 -4 -4 -4 -4 -4 -3 -3 -1 -1 -1 -0 -0 -0 -1 -0 0 -0 0 -0 -0 -0 -0
-9 -8 -7 -6 -6 -6 -6 -7 -7 -8 -7 -8 -8 -7 -8 -7 -6 -6 -5 -5 -5 -5 -4 -5 -4 -4 -4 -4 -4 -4 -4 -4 -4 -4 -4 -4 -3 -3 -1 -2 -1 -1 -1 -1 -1 -0 0 0 0 -0 -0 -1 -1 -1
-9 -8 -7 -6 -6 -6 -6 -6 -6 -7 -7 -7 -7 -7 -7 -6 -5 -6 -6 -6 -5 -5 -5 -5 -5 -5 -4 -4 -4 -4 -4 -4 -4 -4 -3 -4 -3 -2 -2 -1 -1 -1 -1 -1 -1 -0 -0 -0 -1 -1 -1 -1 -2 -2
-9 -9 -8 -6 -6 -6 -6 -6 -6 -6 -6 -6 -6 -6 -6 -6 -6 -6 -5 -5 -5 -5 -5 -5 -5 -5 -5 -4 -4 -4 -4 -4 -4 -4 -4 -3 -2 -2 -2 -1 -1 -0 -0 -1 -1 -1 -1 -1 -1 -1 -2 -2 -2 -2
-9 -9 -8 -7 -6 -6 -6 -6 -6 -6 -6 -6 -6 -6 -6 -6 -6 -5 -6 -5 -6 -5 -5 -5 -5 -5 -5 -5 -4 -4 -4 -4 -4 -4 -4 -2 -2 -2 -1 -1 0 0 -0 -1 -2 -2 -2 -1 -1 -1 -1 -2 -2 -2
-9 -9 -8 -7 -6 -6 -6 -6 -6 -6 -6 -6 -6 -7 -6 -5 -6 -6 -6 -6 -6 -6 -6 -6 -5 -5 -5 -5 -5 -5 -4 -4 -4 -4 -2 -3 -2 -1 -1 -1 -0 -1 -2 -2 -2 -2 -1 -2 -2 -1 -1 -1 -2 -2
-9 -9 -9 -7 -7 -7 -6 -7 -6 -6 -6 -7 -6 -6 -5 -5 -5 -5 -5 -5 -6 -5 -5 -5 -5 -6 -6 -5 -5 -5 -5 -4 -3 -3 -2 -2 -1 -1 -0 -0 -0 0 -0 -1 -0 -1 -1 -1 -0 -0 -0 -1 -1 -2
-9 -9 -9 -8 -7 -7 -7 -7 -6 -6 -6 -6 -6 -5 -5 -5 -5 -4 -5 -4 -4 -4 -4 -5 -5 -5 -5 -5 -5 -5 -4 -4 -3 -2 -2 -2 -1 -1 -1 -0 -0 0 0 0 0 0 0 -0 -0 -0 -0 -1 -1 -2
-9 -9 -9 -8 -7 -7 -7 -7 -7 -6 -6 -6 -6 -5 -5 -5 -4 -4 -4 -4 -4 -5 -5 -5 -5 -5 -5 -4 -4 -3 -3 -2 -3 -2 -2 -2 -2 -2 -1 -1 -0 -0 0 0 -0 -0 -0 -1 -1 -1 -1 -1 -1 -2
-9 -9 -9 -9 -8 -7 -7 -7 -7 -6 -6 -6 -5 -5 -5 -5 -5 -5 -5 -5 -5 -5 -6 -7 -6 -5 -5 -5 -5 -4 -2 -2 -2 -3 -2 -2 -2 -2 -2 -1 -1 -1 -0 -0 0 0 -0 -1 -2 -1 -1 -2 -2 -3
-10 -9 -9 -9 -8 -8 -7 -7 -7 -6 -6 -5 -5 -5 -6 -6 -6 -6 -6 -6 -6 -6 -7 -7 -7 -6 -5 -5 -5 -3 -3 -3 -3 -3 -3 -3 -3 -3 -2 -2 -2 -1 -1 -0 -0 -0 -0 -1 -2 -2 -2 -3 -3 -3
-10 -10 -10 -9 -10 -9 -8 -8 -7 -7 -6 -5 -5 -6 -6 -6 -6 -6 -7 -7 -7 -7 -7 -7 -7 -7 -6 -6 -5 -5 -5 -4 -4 -4 -4 -4 -4 -3 -3 -3 -2 -2 -2 -2 -1 -1 -1 -1 -2 -3 -3 -3 -3 -4
-10 -10 -10 -10 -11 -10 -10 -9 -8 -7 -7 -6 -6 -6 -6 -6 -7 -7 -7 -7 -7 -7 -7 -7 -6 -6 -7 -7 -7 -6 -6 -6 -6 -5 -5 -5 -5 -4 -4 -4 -3 -3 -2 -2 -2 -2 -2 -2 -3 -4 -3 -4 -4 -4
-11 -11 -10 -10 -11 -11 -10 -9 -8 -8 -7 -7 -6 -6 -7 -7 -7 -7 -7 -7 -7 -7 -6 -6 -7 -7 -7 -7 -7 -8 -7 -7 -7 -7 -6 -5 -5 -5 -5 -5 -4 -4 -3 -3 -3 -3 -2 -2 -3 -4 -5 -4 -4 -4
-11 -11 -11 -10 -11 -12 -10 -9 -9 -9 -8 -7 -7 -7 -7 -7 -7 -7 -7 -7 -6 -6 -7 -7 -7 -7 -7 -8 -8 -8 -8 -8 -8 -8 -8 -7 -6 -5 -5 -5 -5 -5 -4 -4 -4 -3 -3 -3 -3 -4 -4 -4 -4 -4
-11 -11 -11 -11 -11 -11 -10 -9 -10 -9 -10 -9 -8 -8 -8 -8 -7 -7 -8 -7 -7 -7 -7 -7 -8 -8 -8 -8 -9 -9 -9 -9 -9 -9 -9 -9 -8 -8 -7 -6 -6 -5 -5 -5 -4 -4 -4 -4 -3 -4 -5 -4 -4 -5
-11 -11 -11 -12 -11 -11 -10 -9 -9 -9 -9 -9 -9 -9 -8 -8 -8 -8 -7 -7 -7 -8 -8 -9 -9 -9 -9 -10 -10 -10 -10 -10 -9 -9 -9 -9 -10 -9 -9 -8 -8 -7 -6 -5 -5 -5 -5 -5 -4 -4 -5 -5 -5 -5
-12 -12 -12 -12 -11 -11 -10 -9 -9 -9 -9 -9 -9 -9 -9 -9 -9 -8 -7 -6 -7 -8 -9 -9 -10 -10 -10 -10 -11 -11 -10 -10 -10 -9 -9 -10 -10 -10 -10 -10 -9 -9 -8 -7 -6 -6 -6 -5 -5 -5 -5 -5 -5 -6
-12 -12 -11 -11 -11 -10 -10 -10 -10 -9 -9 -10 -9 -9 -9 -9 -10 -9 -8 -8 -9 -9 -10 -11 -11 -11 -11 -11 -11 -11 -11 -11 -10 -10 -10 -10 -11 -11 -11 -11 -10 -10 -9 -8 -8 -7 -7 -7 -7 -6 -5 -5 -5 -7
-12 -12 -11 -11 -10 -10 -10 -10 -10 -10 -9 -9 -9 -10 -10 -10 -9 -9 -9 -9 -10 -11 -11 -12 -12 -12 -12 -12 -11 -12 -12 -12 -12 -12 -12 -12 -12 -12 -12 -11 -11 -10 -10 -9 -9 -8 -8 -7 -7 -6 -5 -6 -7 -8
-12 -11 -10 -11 -11 -11 -11 -11 -11 -10 -10 -10 -10 -10 -10 -10 -9 -10 -11 -12 -12 -12 -12 -12 -12 -12 -12 -12 -12 -12 -12 -13 -13 -13 -13 -13 -13 -13 -12 -12 -11 -11 -10 -10 -9 -8 -8 -7 -7 -7 -6 -7 -8 -8
-12 -11 -11 -10 -10 -11 -10 -10 -10 -10 -10 -10 -10 -10 -10 -10 -11 -11 -12 -12 -12 -12 -12 -12 -12 -12 -12 -12 -12 -13 -13 -13 -13 -13 -13 -13 -13 -13 -13 -12 -11 -11 -10 -10 -10 -9 -8 -8 -7 -8 -7 -8 -9 -9
-11 -11 -11 -11 -11 -10 -10 -10 -10 -10 -11 -11 -11 -11 -11 -11 -11 -11 -11 -12 -12 -12 -12 -13 -12 -12 -11 -12 -12 -12 -13 -13 -13 -13 -12 -12 -13 -13 -12 -12 -11 -11 -11 -11 -10 -10 -9 -9 -8 -8 -8 -9 -10 -10
-11 -12 -11 -11 -11 -10 -11 -11 -11 -11 -11 -11 -11 -11 -11 -11 -11 -11 -12 -12 -13 -13 -13 -13 -12 -12 -12 -12 -12 -12 -12 -13 -13 -13 -13 -12 -13 -13 -12 -12 -12 -12 -11 -11 -11 -11 -10 -9 -9 -9 -9 -10 -11 -11
-12 -11 -11 -11 -11 -11 -11 -11 -11 -11 -11 -11 -11 -11 -11 -11 -11 -11 -11 -12 -13 -13 -13 -12 -12 -12 -13 -13 -13 -13 -12 -13 -13 -13 -13 -13 -13 -12 -12 -12 -12 -12 -12 -12 -11 -10 -10 -10 -10 -10 -10 -11 -11 -10
-12 -12 -12 -12 -11 -11 -11 -11 -11 -11 -11 -11 -11 -11 -11 -11 -11 -11 -11 -12 -12 -12 -12 -12 -12 -13 -13 -13 -13 -13 -13 -13 -13 -13 -13 -13 -13 -13 -12 -13 -12 -13 -12 -12 -12 -11 -11 -11 -11 -11 -12 -12 -11 -11

GFSWCAN_700_temp_045.txt.gz
Temp
-7 -7 -8 -7 -6 -6 -5 -5 -5 -5 -5 -5 -5 -6 -6 -6 -6 -5 -7 -6 -5 -5 -5 -5 -5 -5 -4 -5 -4 -4 -4 -4 -4 -4 -4 -4 -3 -2 -2 -2 -2 -3 -3 -4 -4 -4 -3 -1 -0 -1 0 1 0 0
-8 -8 -8 -8 -7 -6 -5 -5 -6 -6 -6 -6 -6 -7 -7 -7 -6 -6 -6 -6 -5 -5 -5 -5 -5 -4 -5 -4 -4 -4 -4 -4 -4 -4 -4 -3 -3 -3 -2 -2 -2 -2 -1 -2 -2 -0 -1 -0 -0 0 1 1 1 1
-8 -8 -8 -8 -7 -6 -6 -6 -6 -6 -7 -7 -7 -8 -9 -8 -7 -7 -6 -5 -5 -5 -5 -5 -5 -4 -5 -4 -4 -4 -4 -4 -4 -4 -4 -4 -3 -3 -3 -2 -2 -2 -2 -2 -1 -0 -1 -0 -0 0 1 1 1 1
-8 -7 -8 -8 -7 -6 -6 -6 -6 -7 -7 -8 -8 -9 -9 -9 -8 -7 -7 -6 -5 -5 -4 -4 -4 -4 -4 -4 -4 -4 -4 -4 -4 -4 -4 -4 -3 -4 -3 -3 -2 -2 -2 -2 -1 -0 -0 -0 -0 0 1 1 1 1
-9 -8 -8 -8 -7 -6 -6 -6 -7 -7 -7 -8 -9 -9 -10 -10 -9 -7 -6 -6 -5 -5 -5 -4 -4 -4 -4 -4 -4 -4 -4 -4 -4 -4 -4 -5 -4 -4 -3 -3 -2 -1 -1 -1 -1 -1 -1 -0 -0 0 0 1 1 0
-8 -8 -8 -8 -7 -7 -6 -6 -7 -7 -8 -9 -9 -9 -9 -9 -8 -7 -6 -6 -5 -5 -5 -5 -4 -4 -4 -4 -4 -4 -4 -3 -4 -4 -4 -4 -5 -4 -4 -3 -1 -2 -2 -2 -1 -1 -1 -1 -0 0 0 1 1 1
-8 -8 -8 -9 -7 -7 -6 -7 -7 -7 -8 -8 -9 -9 -9 -9 -8 -7 -6 -5 -5 -5 -5 -4 -4 -4 -5 -4 -4 -4 -4 -4 -4 -4 -5 -5 -5 -4 -4 -3 -1 -2 -2 -2 -2 -1 -1 -0 -1 -0 0 0 0 0
-9 -8 -9 -9 -7 -7 -7 -7 -7 -6 -7 -8 -8 -8 -8 -8 -8 -6 -5 -5 -5 -5 -5 -5 -5 -4 -4 -4 -4 -4 -4 -4 -4 -4 -5 -4 -4 -4 -3 -3 -3 -2 -2 -2 -1 -1 -1 -1 -1 -1 -0 -0 -0 -0
-9 -8 -8 -9 -8 -7 -7 -7 -6 -6 -7 -7 -8 -8 -8 -8 -7 -6 -5 -5 -5 -6 -5 -5 -5 -5 -4 -4 -4 -4 -4 -4 -4 -4 -4 -4 -3 -4 -4 -3 -3 -2 -2 -2 -2 -1 -1 -1 -0 -0 -0 -1 -1 -1
-9 -8 -8 -9 -8 -7 -7 -7 -6 -6 -6 -7 -8 -7 -7 -6 -6 -6 -6 -5 -6 -6 -6 -5 -5 -5 -5 -4 -4 -5 -4 -4 -4 -4 -4 -4 -4 -4 -4 -3 -2 -2 -2 -2 -2 -2 -1 -1 -1 -1 -1 -1 -1 -1
-9 -9 -8 -9 -8 -7 -7 -7 -6 -6 -6 -7 -7 -7 -6 -6 -6 -6 -6 -6 -6 -6 -5 -5 -5 -5 -5 -5 -5 -4 -4 -4 -4 -4 -4 -4 -3 -3 -3 -2 -2 -1 -0 -1 -1 -2 -2 -2 -1 -2 -2 -2 -2 -2
-9 -9 -9 -8 -8 -7 -7 -7 -6 -6 -6 -6 -6 -6 -6 -6 -6 -6 -6 -6 -6 -5 -5 -6 -5 -5 -5 -5 -5 -5 -5 -5 -4 -4 -4 -4 -4 -3 -2 -2 -2 -1 -1 -1 -1 -2 -2 -2 -2 -2 -2 -2 -2 -2
-9 -9 -9 -8 -8 -8 -7 -7 -7 -6 -6 -6 -6 -6 -6 -6 -6 -6 -6 -6 -5 -6 -6 -6 -6 -6 -5 -5 -5 -5 -5 -5 -5 -4 -4 -4 -3 -3 -2 -2 -1 -2 -2 -2 -2 -2 -2 -2 -2 -2 -2 -2 -2 -2
-10 -10 -9 -9 -8 -8 -7 -7 -7 -7 -7 -8 -7 -7 -6 -5 -5 -5 -5 -5 -5 -5 -6 -6 -6 -6 -6 -6 -5 -5 -5 -5 -4 -4 -4 -4 -3 -2 -2 -1 -1 -2 -2 -2 -2 -2 -2 -2 -2 -2 -2 -2 -2 -2
-10 -10 -10 -9 -8 -8 -8 -7 -7 -7 -7 -7 -7 -6 -6 -5 -4 -4 -4 -5 -6 -6 -6 -6 -6 -5 -5 -5 -5 -5 -5 -5 -4 -4 -4 -3 -3 -3 -2 -2 -1 -1 -1 -1 -1 -1 -1 -1 -1 -1 -1 -1 -1 -2
-10 -10 -10 -9 -9 -8 -8 -7 -7 -7 -7 -7 -6 -6 -5 -5 -4 -4 -4 -4 -5 -5 -6 -6 -6 -5 -5 -5 -5 -4 -4 -2 -3 -3 -3 -3 -3 -2 -2 -2 -1 -1 -1 -1 -1 -1 -1 -1 -1 -1 -1 -1 -1 -2
-10 -10 -10 -9 -9 -9 -8 -7 -7 -7 -7 -6 -6 -5 -5 -5 -5 -5 -5 -5 -5 -6 -6 -7 -6 -6 -6 -6 -5 -4 -2 -2 -3 -3 -3 -3 -3 -3 -2 -2 -2 -1 -1 -1 -1 -1 -1 -1 -1 -1 -1 -2 -2 -2
-10 -10 -10 -9 -9 -10 -9 -8 -7 -7 -7 -6 -6 -5 -5 -5 -6 -6 -6 -6 -6 -7 -7 -7 -7 -7 -7 -6 -5 -3 -3 -4 -4 -5 -4 -4 -4 -4 -4 -3 -3 -3 -2 -2 -2 -1 -1 -1 -1 -2 -2 -2 -2 -3
-10 -10 -10 -10 -9 -9 -10 -9 -9 -8 -7 -6 -6 -6 -6 -6 -6 -6 -6 -7 -7 -7 -7 -7 -7 -7 -6 -5 -5 -5 -5 -5 -5 -5 -5 -5 -5 -5 -4 -4 -4 -3 -3 -3 -3 -2 -2 -2 -1 -2 -2 -3 -3 -3
-10 -10 -10 -10 -10 -10 -10 -10 -9 -9 -7 -7 -6 -6 -6 -6 -6 -6 -6 -6 -7 -8 -8 -7 -6 -7 -7 -7 -7 -7 -6 -6 -6 -6 -6 -6 -6 -6 -6 -5 -5 -4 -4 -4 -3 -3 -3 -2 -2 -2 -2 -4 -4 -4
-9 -10 -10 -10 -10 -10 -11 -10 -10 -9 -9 -8 -7 -7 -7 -7 -7 -7 -7 -7 -7 -6 -6 -6 -6 -7 -7 -7 -7 -7 -7 -6 -6 -6 -6 -6 -6 -6 -6 -6 -6 -5 -5 -5 -5 -4 -4 -4 -3 -3 -3 -4 -4 -4
-10 -10 -10 -11 -11 -11 -10 -10 -10 -9 -9 -9 -8 -8 -7 -7 -7 -7 -7 -7 -6 -6 -6 -6 -6 -6 -6 -7 -7 -8 -8 -8 -8 -8 -8 -7 -7 -7 -7 -6 -6 -6 -6 -6 -5 -5 -5 -4 -4 -4 -3 -4 -5 -5
-10 -10 -11 -11 -11 -11 -11 -10 -10 -10 -10 -9 -8 -9 -8 -8 -7 -8 -8 -6 -6 -6 -6 -7 -7 -7 -7 -7 -8 -8 -8 -8 -9 -9 -8 -8 -9 -8 -8 -8 -7 -7 -7 -7 -6 -5 -5 -5 -5 -5 -4 -4 -5 -5
-11 -11 -12 -12 -11 -11 -11 -10 -10 -10 -10 -10 -9 -9 -9 -8 -8 -8 -7 -6 -6 -7 -7 -7 -7 -7 -8 -8 -8 -9 -9 -9 -9 -10 -9 -9 -9 -9 -9 -9 -8 -8 -8 -8 -8 -8 -6 -6 -6 -6 -5 -5 -5 -6
-12 -12 -12 -12 -12 -11 -11 -10 -9 -10 -9 -9 -9 -9 -9 -9 -9 -8 -7 -6 -7 -7 -7 -7 -8 -8 -9 -9 -10 -10 -10 -10 -10 -10 -10 -10 -9 -9 -9 -9 -9 -9 -9 -9 -9 -9 -9 -8 -7 -6 -6 -5 -6 -6
-12 -12 -12 -12 -11 -11 -11 -10 -10 -10 -10 -10 -10 -10 -9 -9 -9 -8 -7 -7 -8 -8 -8 -8 -9 -10 -10 -10 -10 -11 -11 -11 -11 -10 -10 -10 -10 -10 -10 -9 -9 -10 -11 -10 -10 -10 -10 -9 -9 -8 -7 -6 -7 -6
-12 -11 -11 -11 -11 -10 -10 -10 -10 -10 -10 -10 -10 -10 -10 -10 -9 -8 -8 -8 -9 -9 -9 -10 -10 -10 -10 -11 -11 -11 -11 -11 -11 -10 -10 -11 -11 -12 -11 -11 -10 -11 -11 -11 -11 -11 -10 -10 -10 -9 -8 -7 -7 -6
-11 -11 -11 -11 -10 -11 -11 -11 -11 -11 -11 -11 -10 -10 -11 -9 -8 -8 -8 -9 -9 -9 -10 -10 -11 -11 -11 -12 -12 -12 -11 -11 -11 -11 -11 -12 -12 -12 -12 -12 -12 -12 -12 -12 -12 -11 -11 -10 -10 -9 -8 -8 -7 -7
-11 -11 -11 -11 -11 -11 -11 -11 -11 -11 -10 -10 -10 -10 -10 -10 -10 -10 -10 -10 -10 -10 -11 -11 -11 -11 -12 -12 -12 -12 -12 -12 -12 -12 -12 -11 -11 -12 -13 -13 -12 -13 -13 -13 -12 -11 -11 -11 -10 -10 -9 -8 -8 -8
-11 -12 -11 -11 -11 -11 -11 -11 -10 -10 -10 -11 -11 -10 -10 -10 -10 -10 -11 -11 -11 -11 -11 -11 -12 -12 -12 -12 -12 -12 -12 -12 -12 -12 -12 -12 -12 -12 -13 -13 -12 -12 -12 -12 -12 -12 -11 -11 -11 -10 -9 -8 -9 -8
-12 -12 -11 -11 -12 -11 -11 -11 -11 -11 -11 -11 -11 -10 -10 -10 -10 -10 -11 -11 -11 -11 -11 -12 -12 -12 -12 -12 -11 -11 -12 -12 -12 -12 -12 -12 -12 -12 -13 -13 -13 -12 -12 -12 -12 -12 -12 -11 -11 -10 -10 -10 -9 -10
-12 -11 -12 -12 -12 -12 -11 -11 -11 -11 -11 -10 -10 -10 -10 -10 -10 -9 -10 -10 -11 -11 -11 -12 -12 -12 -12 -12 -12 -12 -12 -12 -12 -12 -13 -13 -13 -13 -13 -13 -13 -13 -12 -12 -12 -12 -12 -12 -12 -11 -11 -10 -10 -11
-12 -12 -12 -12 -12 -12 -11 -12 -11 -11 -10 -10 -10 -10 -10 -10 -10 -10 -10 -10 -11 -11 -12 -12 -12 -12 -12 -12 -13 -13 -13 -13 -13 -13 -13 -13 -13 -13 -13 -13 -13 -13 -13 -13 -13 -13 -13 -13 -12 -12 -12 -11 -12 -12

GFSWCAN_700_temp_048.txt.gz
Temp
-6 -7 -7 -8 -8 -8 -8 -7 -6 -6 -6 -6 -5 -5 -5 -6 -5 -5 -6 -6 -6 -5 -5 -6 -6 -5 -5 -5 -5 -5 -4 -4 -4 -4 -4 -4 -3 -3 -3 -3 -3 -4 -5 -5 -4 -4 -3 -1 -1 -1 -0 0 1 1
-6 -7 -7 -8 -8 -7 -7 -7 -7 -6 -6 -6 -6 -6 -6 -7 -7 -7 -7 -6 -6 -5 -5 -6 -5 -5 -5 -5 -5 -5 -5 -4 -4 -4 -4 -4 -3 -3 -3 -2 -3 -3 -2 -2 -2 -1 -1 -1 -1 -1 -0 1 1 1
-7 -8 -8 -8 -8 -7 -7 -7 -7 -7 -7 -7 -7 -8 -8 -9 -9 -8 -7 -7 -6 -5 -5 -5 -5 -4 -5 -5 -5 -4 -4 -4 -5 -4 -4 -4 -4 -4 -3 -3 -3 -2 -3 -2 -2 -1 -1 -1 -1 -1 -1 0 1 1
-7 -8 -8 -8 -8 -8 -8 -7 -7 -7 -7 -7 -8 -9 -10 -10 -10 -9 -7 -6 -6 -5 -4 -4 -4 -4 -5 -5 -4 -4 -5 -4 -4 -4 -4 -4 -4 -4 -4 -3 -3 -3 -2 -2 -1 -1 -1 -1 -1 -1 -1 -0 0 0
-8 -8 -8 -8 -8 -8 -8 -7 -7 -7 -7 -8 -9 -9 -9 -10 -10 -9 -7 -6 -5 -5 -5 -5 -5 -4 -5 -5 -4 -4 -4 -5 -4 -4 -4 -4 -5 -5 -4 -4 -3 -2 -2 -2 -2 -2 -2 -1 -1 -1 -0 -0 0 0
-8 -7 -8 -8 -8 -8 -8 -7 -7 -7 -8 -8 -9 -9 -9 -9 -9 -8 -7 -6 -5 -5 -5 -5 -5 -4 -4 -5 -4 -4 -4 -5 -5 -4 -4 -4 -5 -4 -4 -4 -2 -2 -2 -2 -2 -2 -1 -1 -1 -1 -0 0 0 0
-8 -7 -9 -9 -8 -8 -8 -7 -7 -7 -8 -8 -8 -8 -9 -8 -7 -7 -7 -6 -5 -5 -5 -5 -5 -4 -5 -5 -5 -5 -4 -4 -4 -5 -5 -4 -4 -4 -4 -4 -3 -3 -3 -3 -2 -2 -1 -1 -1 -1 -1 -0 -0 0
-8 -8 -9 -9 -8 -8 -7 -7 -7 -7 -8 -8 -8 -8 -8 -8 -7 -7 -6 -5 -5 -5 -5 -5 -5 -5 -5 -4 -4 -4 -4 -4 -4 -4 -4 -5 -5 -5 -4 -4 -4 -4 -3 -2 -2 -2 -2 -1 -1 -1 -1 -1 -0 -1
-9 -9 -9 -9 -8 -8 -8 -7 -7 -7 -7 -8 -8 -8 -8 -7 -7 -6 -6 -6 -6 -6 -5 -6 -6 -5 -5 -4 -4 -4 -4 -4 -4 -4 -4 -4 -4 -4 -4 -4 -4 -3 -3 -3 -2 -2 -2 -2 -1 -1 -1 -1 -1 -1
-9 -9 -9 -9 -8 -8 -8 -7 -7 -7 -7 -7 -8 -8 -7 -7 -7 -7 -7 -7 -6 -6 -6 -5 -6 -5 -5 -5 -5 -5 -5 -4 -4 -4 -4 -4 -4 -4 -4 -4 -3 -3 -2 -2 -3 -2 -2 -2 -2 -1 -1 -1 -1 -2
-9 -9 -9 -9 -8 -8 -8 -7 -7 -7 -7 -7 -7 -7 -7 -7 -7 -6 -6 -7 -7 -7 -6 -6 -6 -5 -5 -5 -5 -5 -5 -4 -4 -4 -4 -4 -4 -4 -4 -3 -3 -2 -1 -1 -1 -2 -2 -2 -2 -2 -2 -2 -2 -2
-9 -9 -9 -9 -8 -8 -8 -7 -7 -7 -7 -7 -6 -7 -7 -6 -6 -7 -6 -6 -6 -6 -6 -6 -5 -6 -6 -6 -5 -5 -5 -5 -4 -4 -4 -4 -4 -3 -3 -3 -2 -2 -2 -1 -1 -1 -1 -2 -2 -2 -2 -2 -2 -2
-9 -9 -10 -9 -9 -9 -8 -7 -7 -7 -7 -6 -7 -6 -6 -7 -6 -7 -6 -6 -6 -5 -6 -6 -6 -6 -6 -6 -6 -5 -5 -5 -5 -4 -4 -4 -3 -3 -3 -2 -2 -2 -2 -2 -2 -2 -2 -2 -3 -3 -2 -2 -2 -3
-10 -10 -10 -10 -9 -9 -8 -8 -8 -8 -7 -7 -7 -6 -6 -6 -7 -7 -6 -6 -5 -5 -6 -6 -6 -6 -6 -6 -6 -6 -5 -6 -5 -5 -3 -3 -3 -3 -2 -2 -2 -2 -2 -3 -3 -2 -3 -2 -2 -2 -2 -2 -3 -3
-10 -10 -10 -10 -10 -9 -8 -8 -8 -8 -8 -7 -7 -6 -6 -5 -5 -5 -6 -6 -6 -6 -6 -6 -6 -6 -6 -6 -5 -6 -6 -6 -6 -4 -3 -3 -3 -3 -2 -2 -2 -1 -1 -2 -2 -3 -2 -2 -2 -2 -2 -2 -2 -2
-10 -10 -10 -10 -10 -9 -9 -8 -8 -8 -8 -8 -7 -6 -5 -5 -5 -5 -5 -5 -6 -7 -7 -6 -6 -6 -6 -5 -6 -6 -6 -4 -3 -2 -3 -3 -3 -3 -3 -2 -2 -1 -1 -1 -1 -1 -2 -2 -2 -2 -2 -2 -2 -2
-10 -10 -10 -10 -10 -9 -10 -9 -8 -8 -8 -7 -6 -5 -5 -5 -5 -5 -5 -5 -6 -7 -7 -7 -6 -7 -6 -6 -6 -5 -4 -2 -2 -3 -4 -4 -4 -4 -3 -3 -3 -3 -2 -2 -2 -1 -1 -1 -1 -2 -2 -2 -2 -2
-10 -10 -10 -10 -10 -9 -9 -10 -10 -9 -8 -7 -6 -6 -6 -5 -5 -5 -5 -5 -6 -7 -8 -7 -7 -7 -7 -7 -6 -4 -4 -4 -4 -4 -4 -4 -4 -4 -4 -4 -4 -4 -3 -3 -3 -3 -2 -2 -2 -1 -1 -2 -2 -2
-10 -10 -10 -10 -10 -9 -10 -10 -11 -10 -9 -8 -7 -6 -6 -6 -6 -5 -6 -6 -7 -7 -8 -7 -7 -7 -6 -6 -6 -6 -6 -5 -5 -5 -6 -6 -5 -5 -5 -5 -5 -5 -4 -4 -4 -3 -3 -3 -3 -2 -2 -2 -2 -3
-10 -10 -10 -10 -10 -10 -10 -10 -10 -10 -9 -9 -9 -7 -7 -6 -6 -6 -6 -6 -7 -8 -8 -8 -6 -6 -6 -6 -6 -7 -7 -7 -7 -7 -7 -7 -6 -6 -6 -5 -5 -5 -5 -5 -5 -4 -4 -4 -4 -4 -3 -3 -3 -4
-10 -10 -10 -10 -10 -11 -10 -10 -10 -10 -9 -9 -8 -8 -7 -7 -6 -7 -7 -7 -7 -6 -5 -5 -6 -6 -7 -6 -6 -6 -6 -6 -6 -6 -6 -6 -6 -6 -6 -6 -6 -6 -5 -5 -5 -5 -5 -5 -4 -4 -4 -4 -4 -5
-10 -10 -10 -10 -11 -11 -10 -10 -10 -10 -10 -9 -9 -9 -9 -8 -7 -7 -7 -7 -6 -6 -6 -6 -7 -7 -6 -6 -6 -6 -6 -7 -7 -7 -7 -7 -7 -7 -7 -7 -7 -7 -6 -6 -6 -6 -6 -6 -6 -5 -5 -4 -4 -4
-11 -10 -11 -11 -11 -11 -10 -10 -11 -10 -10 -10 -9 -9 -9 -8 -8 -8 -8 -7 -6 -6 -7 -6 -7 -7 -7 -7 -7 -7 -7 -8 -8 -8 -8 -8 -8 -8 -8 -9 -8 -8 -8 -8 -7 -7 -7 -7 -7 -6 -6 -6 -5 -4
-11 -11 -11 -11 -11 -10 -10 -10 -10 -10 -10 -10 -10 -10 -9 -9 -9 -9 -8 -6 -6 -6 -6 -6 -6 -6 -7 -7 -7 -7 -8 -8 -8 -9 -8 -9 -9 -9 -9 -9 -9 -9 -8 -8 -8 -8 -8 -8 -8 -8 -7 -6 -6 -6
-11 -11 -11 -11 -11 -10 -10 -10 -10 -10 -9 -9 -10 -10 -10 -9 -9 -9 -8 -6 -6 -6 -6 -6 -6 -7 -7 -7 -8 -8 -8 -8 -9 -9 -9 -9 -9 -9 -9 -9 -9 -9 -9 -8 -8 -8 -8 -8 -9 -9 -8 -8 -8 -7
-12 -12 -11 -10 -10 -10 -10 -9 -10 -10 -10 -10 -11 -10 -10 -10 -10 -9 -7 -7 -7 -7 -7 -7 -7 -7 -8 -8 -8 -9 -9 -9 -9 -9 -10 -10 -10 -9 -9 -9 -9 -10 -10 -10 -10 -9 -9 -9 -10 -10 -10 -10 -10 -8
-12 -11 -10 -10 -10 -10 -10 -10 -10 -11 -11 -11 -10 -11 -11 -11 -9 -8 -8 -7 -8 -8 -8 -8 -8 -9 -9 -9 -9 -9 -9 -10 -10 -10 -10 -10 -10 -10 -10 -10 -10 -11 -11 -11 -11 -12 -11 -11 -11 -11 -11 -10 -10 -9
-12 -11 -10 -10 -10 -10 -10 -10 -10 -11 -11 -11 -11 -11 -11 -10 -9 -8 -8 -8 -9 -9 -9 -9 -9 -9 -9 -10 -10 -10 -10 -10 -10 -11 -10 -10 -11 -11 -11 -11 -11 -11 -11 -11 -12 -12 -12 -12 -12 -12 -11 -11 -11 -10
-12 -11 -11 -11 -11 -11 -11 -11 -10 -10 -10 -11 -11 -10 -11 -10 -10 -10 -10 -10 -10 -10 -9 -10 -10 -10 -10 -10 -10 -10 -10 -11 -11 -11 -10 -10 -11 -12 -12 -12 -12 -12 -12 -11 -12 -12 -13 -13 -13 -13 -12 -11 -11 -10
-12 -11 -11 -11 -11 -11 -11 -11 -11 -10 -11 -10 -10 -10 -10 -10 -10 -10 -10 -10 -10 -10 -10 -10 -10 -10 -10 -10 -11 -11 -11 -11 -11 -11 -11 -11 -11 -12 -12 -12 -12 -12 -12 -12 -12 -13 -13 -13 -13 -13 -12 -11 -11 -11
-12 -12 -12 -12 -11 -11 -11 -11 -12 -12 -11 -11 -11 -11 -10 -10 -9 -10 -10 -10 -10 -10 -10 -10 -10 -10 -11 -11 -11 -11 -11 -12 -12 -12 -12 -12 -12 -12 -12 -12 -12 -13 -13 -13 -13 -13 -13 -13 -13 -12 -12 -12 -12 -11
-12 -12 -12 -12 -11 -11 -12 -12 -12 -12 -11 -11 -11 -11 -10 -10 -9 -9 -9 -9 -10 -10 -10 -10 -10 -10 -11 -11 -12 -12 -11 -12 -12 -12 -12 -12 -12 -12 -12 -12 -12 -13 -13 -13 -13 -13 -13 -13 -13 -13 -13 -12 -12 -11
-13 -12 -12 -12 -12 -12 -12 -12 -12 -12 -11 -11 -10 -10 -10 -9 -9 -8 -9 -9 -9 -9 -9 -10 -10 -11 -12 -12 -12 -12 -12 -12 -12 -12 -12 -12 -12 -12 -13 -13 -13 -13 -13 -13 -13 -13 -13 -13 -13 -13 -13 -12 -12 -12

GFSWCAN_700_temp_054.txt.gz
Temp
-3 -4 -4 -4 -5 -5 -5 -6 -6 -7 -8 -8 -8 -8 -8 -7 -6 -6 -6 -5 -5 -4 -4 -4 -5 -4 -4 -4 -4 -4 -4 -4 -5 -5 -5 -4 -4 -4 -3 -4 -3 -4 -4 -5 -5 -5 -4 -2 -2 -2 -2 -2 -1 -1
-4 -4 -4 -4 -5 -5 -6 -7 -7 -7 -8 -8 -8 -8 -7 -6 -7 -6 -6 -6 -7 -6 -5 -6 -5 -5 -5 -5 -5 -5 -5 -5 -5 -5 -5 -5 -4 -4 -4 -3 -4 -4 -3 -3 -4 -2 -3 -2 -2 -2 -2 -1 -1 -1
-4 -4 -4 -4 -4 -5 -6 -7 -7 -8 -8 -8 -9 -8 -8 -7 -7 -7 -7 -8 -9 -8 -7 -7 -6 -6 -5 -5 -5 -5 -5 -5 -5 -5 -4 -5 -4 -4 -4 -4 -3 -3 -3 -3 -3 -2 -2 -2 -2 -2 -2 -1 -1 -1
-4 -4 -4 -4 -5 -5 -6 -7 -8 -8 -8 -8 -9 -9 -8 -8 -9 -11 -10 -10 -10 -9 -8 -6 -6 -6 -5 -6 -5 -6 -5 -5 -5 -5 -5 -5 -5 -4 -4 -4 -4 -4 -3 -3 -3 -3 -3 -2 -2 -2 -2 -2 -1 -1
-4 -4 -4 -5 -5 -6 -7 -7 -8 -9 -9 -8 -8 -8 -8 -9 -10 -12 -12 -10 -10 -9 -8 -7 -6 -5 -5 -5 -5 -5 -5 -5 -5 -5 -5 -5 -6 -5 -4 -4 -4 -4 -3 -3 -3 -3 -3 -2 -2 -2 -1 -1 -1 -1
-5 -4 -5 -5 -5 -7 -7 -8 -8 -9 -8 -8 -8 -8 -9 -9 -11 -12 -11 -10 -9 -9 -8 -6 -5 -5 -5 -5 -5 -5 -5 -5 -5 -5 -5 -5 -5 -5 -4 -5 -3 -5 -4 -4 -3 -3 -2 -2 -2 -2 -1 -1 -1 -1
-5 -5 -5 -5 -6 -7 -7 -8 -8 -8 -8 -8 -8 -8 -8 -9 -10 -10 -9 -8 -7 -7 -8 -6 -5 -5 -4 -5 -5 -5 -5 -5 -5 -5 -5 -5 -5 -5 -4 -4 -4 -4 -4 -4 -4 -3 -3 -3 -2 -2 -2 -1 -1 -1
-5 -5 -5 -6 -7 -8 -8 -8 -8 -8 -8 -8 -8 -8 -8 -8 -8 -8 -7 -7 -7 -7 -6 -6 -5 -5 -5 -5 -5 -5 -5 -5 -5 -5 -5 -4 -5 -5 -4 -3 -3 -4 -4 -4 -4 -4 -4 -3 -3 -2 -2 -1 -1 -1
-5 -5 -6 -6 -7 -7 -9 -8 -8 -8 -8 -8 -8 -8 -8 -8 -8 -7 -7 -7 -7 -6 -6 -6 -6 -5 -5 -5 -5 -5 -5 -4 -5 -5 -5 -5 -5 -5 -3 -3 -4 -4 -4 -4 -4 -4 -4 -4 -3 -2 -2 -1 -1 -1
-6 -6 -6 -7 -8 -8 -8 -8 -8 -8 -8 -9 -9 -9 -9 -7 -7 -7 -7 -7 -7 -7 -6 -6 -6 -5 -5 -5 -5 -5 -5 -4 -4 -5 -5 -5 -5 -5 -4 -4 -5 -5 -4 -4 -3 -4 -4 -4 -4 -3 -2 -2 -2 -1
-6 -6 -7 -8 -8 -8 -8 -9 -9 -8 -8 -9 -9 -9 -8 -8 -8 -7 -7 -7 -7 -6 -6 -5 -6 -6 -5 -5 -5 -5 -5 -5 -5 -5 -5 -5 -4 -4 -4 -4 -4 -4 -4 -3 -3 -3 -3 -3 -3 -3 -3 -3 -3 -3
-7 -7 -8 -9 -9 -8 -8 -9 -9 -8 -8 -9 -8 -8 -8 -8 -7 -7 -7 -6 -7 -6 -6 -7 -6 -6 -6 -6 -6 -5 -5 -5 -6 -5 -5 -4 -4 -4 -4 -4 -3 -3 -3 -3 -3 -3 -2 -2 -2 -2 -2 -3 -2 -2
-8 -8 -9 -9 -8 -9 -8 -9 -9 -8 -8 -8 -8 -8 -8 -7 -7 -7 -7 -6 -7 -7 -7 -7 -6 -6 -6 -6 -6 -6 -6 -6 -6 -5 -5 -4 -4 -4 -4 -4 -4 -4 -4 -3 -3 -3 -3 -3 -2 -2 -2 -2 -2 -3
-9 -9 -9 -9 -9 -9 -9 -9 -10 -9 -8 -8 -8 -8 -7 -7 -7 -6 -6 -6 -6 -6 -6 -7 -6 -6 -6 -6 -6 -6 -6 -6 -6 -6 -5 -3 -4 -4 -4 -4 -4 -4 -4 -4 -4 -4 -3 -4 -3 -3 -3 -3 -3 -3
-9 -9 -9 -9 -9 -10 -9 -9 -10 -9 -9 -9 -8 -8 -7 -7 -7 -6 -7 -7 -7 -7 -7 -7 -7 -7 -6 -6 -6 -6 -7 -7 -6 -6 -4 -4 -4 -4 -4 -4 -4 -4 -4 -4 -4 -4 -4 -4 -4 -3 -4 -3 -3 -3
-10 -10 -10 -10 -10 -10 -10 -10 -11 -9 -10 -9 -8 -8 -7 -6 -7 -6 -8 -8 -8 -7 -7 -7 -7 -7 -6 -6 -7 -6 -7 -6 -5 -3 -5 -4 -4 -4 -4 -4 -4 -4 -4 -4 -3 -3 -3 -3 -3 -4 -3 -3 -3 -3
-9 -10 -10 -10 -10 -10 -10 -10 -11 -10 -10 -10 -8 -7 -7 -7 -7 -6 -7 -7 -8 -7 -7 -7 -7 -6 -7 -7 -7 -7 -5 -4 -4 -3 -3 -5 -5 -5 -5 -5 -4 -4 -4 -4 -4 -4 -3 -3 -3 -3 -3 -2 -2 -2
-10 -10 -10 -10 -10 -10 -10 -10 -11 -12 -10 -9 -8 -8 -7 -6 -6 -6 -6 -7 -8 -8 -7 -7 -7 -7 -7 -7 -6 -4 -4 -5 -4 -4 -4 -4 -5 -5 -5 -5 -5 -5 -5 -4 -4 -4 -4 -4 -4 -3 -3 -3 -3 -3
-10 -10 -10 -11 -10 -10 -10 -10 -10 -10 -10 -9 -9 -8 -8 -7 -7 -7 -6 -6 -6 -8 -8 -7 -7 -7 -6 -6 -5 -5 -6 -6 -6 -5 -5 -5 -5 -5 -5 -5 -5 -5 -5 -4 -4 -4 -4 -4 -4 -4 -4 -3 -3 -3
-10 -10 -10 -11 -11 -10 -10 -10 -10 -11 -10 -10 -9 -9 -8 -8 -8 -7 -7 -7 -7 -7 -9 -8 -7 -6 -7 -6 -6 -7 -7 -7 -7 -6 -6 -6 -6 -6 -5 -5 -5 -5 -5 -4 -4 -4 -4 -4 -4 -4 -4 -4 -4 -4
-10 -10 -10 -10 -10 -10 -10 -10 -10 -10 -10 -10 -10 -9 -9 -9 -8 -8 -8 -7 -7 -6 -5 -5 -5 -6 -6 -7 -7 -8 -8 -7 -7 -7 -6 -6 -6 -6 -5 -5 -5 -5 -5 -5 -5 -5 -4 -4 -4 -4 -4 -4 -4 -4
-11 -11 -11 -11 -10 -10 -10 -10 -10 -10 -10 -10 -10 -10 -10 -9 -9 -9 -8 -8 -7 -5 -6 -6 -7 -7 -7 -7 -7 -6 -6 -6 -6 -6 -6 -6 -6 -6 -6 -5 -5 -5 -5 -4 -4 -4 -5 -5 -5 -5 -5 -5 -5 -5
-11 -11 -11 -10 -10 -10 -10 -10 -10 -10 -10 -10 -10 -10 -10 -10 -9 -9 -9 -8 -7 -7 -7 -7 -7 -7 -6 -6 -6 -6 -6 -6 -6 -6 -7 -7 -7 -7 -7 -6 -6 -6 -6 -7 -6 -6 -6 -6 -6 -6 -6 -6 -6 -6
-11 -11 -11 -11 -10 -10 -10 -9 -10 -10 -10 -10 -10 -10 -10 -10 -10 -10 -9 -7 -7 -8 -8 -7 -7 -7 -6 -6 -6 -7 -7 -7 -7 -7 -7 -7 -7 -7 -7 -7 -7 -7 -7 -8 -8 -7 -7 -7 -7 -6 -6 -6 -6 -6
-11 -11 -10 -10 -10 -10 -10 -10 -10 -10 -10 -10 -10 -11 -10 -10 -10 -9 -8 -7 -7 -7 -7 -7 -7 -7 -7 -7 -7 -7 -7 -8 -8 -8 -8 -8 -8 -8 -8 -8 -8 -8 -8 -9 -8 -8 -8 -8 -7 -7 -7 -7 -7 -7
-12 -11 -11 -10 -10 -9 -9 -10 -10 -10 -10 -10 -10 -10 -10 -11 -10 -9 -8 -9 -8 -8 -8 -7 -7 -7 -7 -7 -7 -7 -8 -8 -8 -8 -8 -8 -9 -9 -8 -9 -9 -10 -9 -9 -9 -9 -9 -8 -8 -9 -9 -9 -9 -9
-12 -11 -10 -10 -10 -10 -9 -10 -10 -10 -10 -10 -10 -10 -10 -10 -10 -9 -9 -9 -9 -9 -9 -9 -8 -8 -8 -8 -8 -9 -9 -9 -8 -9 -9 -9 -9 -9 -9 -9 -9 -10 -10 -9 -9 -9 -9 -9 -9 -9 -10 -10 -10 -10
-11 -10 -10 -10 -11 -11 -10 -10 -10 -11 -11 -11 -10 -10 -10 -10 -10 -10 -10 -10 -10 -10 -10 -9 -9 -9 -9 -9 -9 -9 -9 -9 -9 -9 -9 -10 -10 -10 -10 -10 -10 -10 -10 -9 -9 -9 -10 -10 -10 -10 -10 -10 -11 -11
-10 -10 -11 -11 -11 -11 -11 -10 -10 -10 -10 -11 -11 -11 -11 -10 -10 -11 -11 -11 -11 -10 -10 -10 -10 -10 -10 -10 -10 -10 -10 -10 -10 -10 -10 -10 -11 -11 -11 -10 -10 -10 -10 -10 -10 -11 -10 -10 -10 -10 -11 -11 -11 -11
-11 -11 -12 -12 -12 -12 -11 -12 -11 -11 -11 -11 -11 -11 -11 -11 -10 -11 -11 -10 -10 -10 -10 -10 -10 -10 -10 -10 -10 -10 -10 -10 -10 -10 -10 -10 -11 -11 -10 -10 -10 -10 -11 -11 -11 -11 -11 -11 -11 -11 -11 -11 -12 -12
-13 -13 -13 -13 -13 -13 -13 -13 -13 -13 -12 -12 -12 -12 -11 -11 -10 -10 -10 -10 -10 -10 -9 -9 -9 -9 -9 -10 -10 -10 -11 -11 -11 -11 -11 -11 -11 -11 -11 -11 -11 -11 -11 -11 -11 -11 -12 -12 -12 -12 -12 -12 -13 -13
-14 -13 -14 -14 -13 -13 -14 -14 -14 -14 -13 -13 -12 -11 -11 -11 -10 -9 -9 -9 -9 -10 -9 -9 -9 -9 -9 -9 -10 -10 -11 -11 -11 -11 -11 -11 -11 -11 -11 -11 -11 -11 -11 -12 -12 -12 -12 -13 -13 -13 -13 -13 -14 -14
-15 -14 -14 -14 -14 -14 -14 -15 -15 -14 -14 -13 -12 -11 -11 -11 -10 -9 -9 -9 -9 -8 -8 -8 -8 -8 -9 -9 -10 -11 -11 -11 -11 -11 -11 -11 -11 -11 -11 -11 -11 -11 -12 -12 -12 -13 -13 -13 -14 -14 -13 -13 -14 -14

GFSWCAN_700_temp_057.txt.gz
Temp
-4 -4 -4 -4 -4 -4 -4 -5 -5 -5 -6 -7 -7 -8 -8 -8 -8 -8 -7 -7 -6 -6 -4 -4 -4 -5 -4 -4 -4 -4 -4 -4 -4 -5 -5 -5 -5 -4 -4 -4 -4 -4 -5 -5 -6 -5 -5 -2 -2 -2 -2 -2 -2 -1
-4 -5 -5 -4 -4 -4 -4 -5 -5 -6 -6 -7 -8 -8 -8 -8 -8 -8 -8 -8 -7 -6 -5 -5 -5 -4 -4 -5 -5 -5 -5 -5 -5 -5 -5 -5 -5 -4 -4 -4 -4 -4 -4 -4 -4 -3 -3 -3 -2 -2 -2 -2 -2 -1
-4 -5 -5 -5 -5 -4 -5 -5 -5 -6 -7 -7 -8 -8 -8 -8 -8 -8 -7 -7 -6 -6 -5 -6 -5 -6 -6 -6 -5 -5 -5 -5 -5 -5 -5 -5 -5 -4 -4 -4 -4 -4 -3 -4 -4 -3 -3 -3 -3 -2 -2 -2 -2 -1
-4 -6 -5 -5 -5 -5 -5 -5 -5 -6 -7 -8 -9 -9 -9 -9 -9 -9 -8 -9 -9 -9 -9 -7 -7 -6 -6 -6 -5 -5 -5 -5 -5 -5 -5 -5 -5 -5 -4 -4 -4 -4 -3 -3 -3 -3 -3 -3 -2 -2 -2 -2 -2 -2
-4 -4 -5 -6 -5 -5 -5 -5 -6 -6 -7 -8 -9 -9 -9 -9 -9 -9 -10 -10 -11 -11 -10 -8 -8 -6 -6 -6 -5 -5 -6 -5 -5 -5 -5 -5 -5 -5 -5 -5 -4 -3 -3 -4 -4 -4 -3 -3 -3 -2 -2 -2 -2 -1
-4 -5 -5 -5 -6 -6 -5 -6 -7 -7 -7 -8 -9 -9 -9 -9 -9 -10 -11 -11 -10 -10 -10 -7 -7 -6 -6 -5 -5 -5 -5 -5 -5 -5 -5 -5 -5 -5 -5 -5 -3 -3 -3 -4 -4 -4 -3 -3 -3 -3 -2 -2 -2 -2
-5 -6 -5 -6 -6 -6 -6 -6 -7 -7 -8 -8 -8 -8 -9 -9 -9 -11 -10 -10 -9 -8 -9 -8 -6 -6 -6 -5 -5 -5 -5 -5 -5 -5 -5 -5 -5 -5 -5 -5 -3 -3 -4 -4 -4 -4 -4 -3 -3 -3 -3 -2 -2 -2
-5 -5 -6 -6 -7 -7 -6 -7 -8 -8 -8 -9 -8 -8 -8 -8 -9 -9 -9 -8 -7 -8 -8 -7 -6 -6 -5 -5 -5 -5 -5 -5 -5 -5 -5 -5 -5 -5 -5 -3 -3 -3 -4 -4 -4 -4 -4 -4 -4 -4 -3 -3 -2 -2
-6 -6 -6 -6 -6 -6 -7 -8 -8 -8 -9 -8 -8 -8 -8 -8 -9 -8 -8 -8 -8 -8 -7 -6 -6 -5 -6 -5 -5 -5 -6 -5 -5 -5 -5 -5 -4 -5 -4 -3 -3 -3 -3 -4 -4 -4 -4 -3 -4 -4 -4 -3 -3 -2
-7 -7 -6 -6 -6 -6 -7 -8 -8 -9 -9 -9 -9 -9 -9 -8 -8 -8 -7 -8 -7 -7 -7 -6 -5 -5 -5 -5 -5 -5 -5 -5 -5 -5 -5 -5 -4 -3 -4 -4 -4 -4 -4 -4 -4 -5 -4 -4 -4 -4 -4 -4 -3 -3
-7 -7 -8 -7 -6 -7 -8 -8 -9 -9 -9 -9 -9 -9 -8 -8 -8 -8 -7 -7 -7 -7 -6 -6 -6 -5 -5 -5 -5 -5 -5 -5 -5 -5 -5 -5 -4 -3 -4 -4 -4 -4 -4 -4 -4 -4 -4 -3 -4 -4 -4 -4 -3 -3
-8 -8 -8 -8 -7 -8 -8 -8 -9 -9 -9 -9 -9 -9 -8 -8 -8 -7 -7 -7 -7 -6 -6 -6 -6 -6 -6 -5 -5 -5 -5 -5 -6 -5 -5 -4 -3 -3 -4 -4 -4 -4 -4 -3 -4 -4 -4 -4 -3 -3 -3 -3 -2 -3
-7 -8 -9 -9 -9 -9 -9 -9 -9 -10 -9 -9 -9 -8 -8 -8 -8 -8 -7 -8 -7 -7 -7 -7 -6 -6 -6 -6 -6 -6 -6 -6 -6 -6 -5 -4 -3 -4 -4 -4 -4 -4 -4 -4 -4 -4 -4 -4 -4 -3 -2 -2 -2 -2
-8 -8 -9 -9 -9 -9 -9 -9 -9 -10 -9 -9 -9 -8 -8 -7 -8 -8 -7 -7 -7 -7 -7 -7 -6 -6 -6 -6 -6 -6 -6 -6 -6 -6 -5 -4 -4 -4 -4 -4 -5 -4 -4 -4 -4 -4 -4 -4 -4 -4 -4 -4 -3 -3
-8 -9 -9 -9 -9 -10 -10 -10 -10 -11 -10 -10 -9 -8 -8 -7 -6 -7 -7 -7 -7 -7 -7 -7 -6 -6 -7 -6 -6 -6 -7 -7 -7 -6 -4 -4 -4 -4 -4 -4 -4 -4 -4 -4 -4 -5 -5 -4 -4 -4 -4 -3 -3 -3
-9 -9 -9 -10 -10 -10 -10 -10 -10 -11 -10 -10 -9 -8 -7 -7 -7 -6 -8 -8 -8 -8 -7 -7 -7 -7 -7 -6 -7 -6 -7 -6 -5 -3 -4 -5 -5 -4 -4 -4 -4 -4 -4 -4 -4 -4 -4 -4 -4 -4 -4 -4 -3 -4
-9 -9 -10 -10 -10 -11 -11 -10 -10 -12 -11 -10 -9 -8 -8 -8 -7 -6 -7 -8 -8 -8 -7 -7 -7 -6 -7 -7 -7 -7 -7 -4 -5 -4 -3 -3 -5 -5 -5 -5 -5 -5 -5 -4 -4 -4 -4 -4 -4 -4 -3 -3 -3 -3
-10 -10 -10 -11 -11 -11 -11 -11 -11 -12 -12 -10 -9 -8 -8 -8 -7 -7 -7 -8 -8 -8 -7 -7 -7 -7 -8 -7 -7 -5 -5 -6 -5 -5 -5 -5 -5 -6 -6 -5 -5 -5 -5 -5 -5 -5 -5 -4 -4 -4 -4 -3 -3 -3
-10 -11 -11 -11 -11 -11 -11 -11 -11 -10 -10 -10 -9 -9 -9 -8 -8 -7 -7 -7 -7 -8 -8 -8 -7 -7 -6 -6 -6 -6 -6 -6 -6 -6 -6 -6 -5 -5 -5 -6 -6 -6 -5 -5 -5 -4 -4 -4 -4 -4 -4 -3 -3 -3
-11 -11 -11 -11 -11 -11 -11 -10 -10 -11 -10 -10 -10 -11 -9 -9 -8 -8 -8 -7 -7 -7 -8 -7 -6 -6 -6 -6 -6 -6 -7 -7 -7 -7 -7 -7 -7 -7 -6 -6 -6 -6 -5 -5 -5 -5 -4 -4 -4 -4 -4 -4 -4 -4
-11 -11 -11 -11 -11 -11 -10 -10 -10 -11 -11 -11 -10 -10 -10 -9 -9 -9 -9 -8 -8 -7 -6 -5 -5 -6 -6 -7 -7 -8 -8 -7 -7 -7 -7 -7 -7 -7 -6 -6 -6 -6 -6 -5 -5 -5 -5 -5 -5 -4 -4 -3 -3 -4
-11 -11 -10 -10 -10 -10 -10 -10 -10 -11 -11 -11 -10 -10 -10 -10 -10 -9 -9 -9 -8 -6 -6 -7 -7 -7 -6 -7 -7 -7 -7 -7 -7 -7 -7 -7 -7 -7 -6 -6 -6 -6 -6 -6 -6 -6 -6 -5 -5 -5 -5 -5 -5 -4
-11 -10 -10 -10 -10 -10 -10 -10 -10 -10 -10 -11 -10 -10 -10 -10 -10 -10 -10 -8 -7 -8 -8 -8 -8 -7 -7 -7 -6 -7 -7 -7 -7 -7 -7 -7 -7 -7 -7 -7 -6 -6 -7 -6 -6 -6 -6 -6 -6 -6 -6 -6 -6 -6
-11 -10 -10 -9 -10 -9 -10 -10 -10 -10 -10 -10 -10 -10 -10 -10 -10 -10 -9 -9 -9 -9 -8 -8 -7 -7 -7 -7 -7 -7 -7 -7 -7 -7 -7 -7 -7 -7 -8 -7 -7 -7 -7 -7 -7 -7 -7 -7 -7 -7 -7 -7 -6 -6
-10 -10 -9 -10 -9 -9 -9 -10 -10 -10 -10 -10 -9 -10 -10 -10 -10 -10 -9 -9 -9 -8 -8 -7 -7 -7 -7 -7 -7 -7 -7 -7 -7 -7 -7 -7 -7 -8 -8 -8 -8 -8 -7 -7 -7 -8 -8 -8 -8 -8 -8 -7 -7 -7
-10 -10 -10 -9 -9 -9 -10 -10 -10 -10 -10 -10 -10 -10 -10 -10 -10 -10 -10 -10 -9 -9 -8 -8 -8 -8 -8 -8 -8 -8 -8 -7 -7 -8 -8 -8 -8 -8 -8 -8 -8 -9 -8 -8 -8 -9 -9 -9 -9 -8 -8 -8 -8 -8
-11 -10 -10 -10 -10 -10 -10 -10 -10 -10 -10 -10 -10 -10 -10 -10 -9 -10 -10 -10 -10 -10 -9 -9 -9 -9 -9 -9 -9 -8 -8 -8 -8 -8 -8 -8 -8 -8 -9 -9 -9 -9 -9 -9 -9 -9 -9 -9 -9 -9 -9 -9 -9 -9
-11 -10 -10 -10 -10 -10 -10 -10 -10 -11 -11 -10 -10 -10 -10 -10 -10 -10 -10 -10 -10 -10 -10 -10 -10 -9 -9 -9 -9 -9 -9 -9 -9 -9 -9 -9 -9 -9 -9 -9 -9 -9 -10 -10 -10 -9 -9 -9 -9 -10 -10 -10 -10 -10
-10 -10 -11 -11 -11 -11 -11 -10 -10 -10 -10 -11 -11 -10 -10 -10 -10 -10 -10 -10 -10 -10 -10 -10 -10 -10 -9 -9 -9 -10 -10 -10 -10 -10 -10 -10 -10 -11 -10 -10 -10 -10 -10 -10 -10 -10 -10 -10 -10 -10 -11 -11 -11 -11
-11 -11 -12 -12 -12 -11 -11 -12 -12 -12 -12 -12 -11 -11 -10 -10 -10 -10 -10 -10 -10 -10 -10 -10 -10 -10 -10 -10 -10 -10 -10 -10 -10 -10 -10 -10 -10 -10 -10 -10 -10 -10 -10 -10 -10 -11 -11 -11 -11 -11 -11 -11 -11 -11
-13 -13 -13 -13 -13 -13 -13 -13 -13 -13 -13 -12 -12 -12 -12 -11 -10 -10 -10 -10 -10 -10 -10 -10 -9 -9 -9 -9 -9 -9 -9 -10 -10 -10 -10 -10 -10 -10 -10 -10 -10 -10 -10 -11 -11 -11 -11 -11 -11 -12 -12 -12 -12 -13
-14 -15 -14 -14 -14 -13 -14 -14 -14 -14 -13 -13 -13 -13 -13 -13 -11 -10 -9 -9 -9 -9 -10 -9 -9 -9 -9 -9 -9 -9 -9 -9 -10 -10 -10 -10 -11 -10 -10 -10 -11 -11 -11 -11 -12 -12 -12 -12 -12 -12 -13 -13 -13 -14
-15 -15 -15 -15 -15 -15 -14 -14 -14 -14 -14 -14 -14 -14 -13 -13 -12 -10 -9 -9 -9 -9 -9 -9 -9 -9 -9 -9 -9 -9 -9 -10 -10 -10 -11 -11 -10 -10 -11 -11 -11 -11 -12 -12 -12 -12 -12 -13 -13 -13 -13 -13 -14 -14

GFSWCAN_700_temp_060.txt.gz
Temp
-1 -1 -2 -2 -3 -4 -5 -5 -5 -6 -5 -5 -5 -5 -6 -6 -7 -8 -8 -8 -8 -7 -6 -6 -5 -5 -5 -5 -4 -4 -4 -4 -4 -5 -5 -5 -5 -4 -4 -4 -4 -5 -5 -6 -6 -5 -4 -2 -2 -2 -2 -2 -2 -1
-2 -2 -2 -2 -2 -5 -4 -5 -5 -5 -5 -5 -6 -6 -7 -7 -8 -7 -8 -8 -8 -8 -7 -7 -6 -5 -5 -5 -5 -5 -4 -4 -4 -5 -5 -4 -5 -4 -4 -4 -4 -4 -4 -4 -4 -3 -3 -3 -3 -3 -2 -2 -2 -1
-1 -2 -2 -3 -4 -5 -6 -5 -5 -6 -6 -5 -6 -7 -8 -8 -9 -9 -8 -9 -8 -8 -6 -6 -5 -6 -6 -6 -6 -5 -5 -5 -5 -5 -5 -5 -5 -4 -4 -4 -4 -4 -3 -4 -3 -3 -3 -4 -3 -3 -2 -2 -2 -2
-2 -2 -2 -2 -3 -4 -5 -6 -5 -6 -6 -6 -6 -7 -8 -9 -9 -9 -9 -9 -9 -10 -9 -5 -7 -7 -6 -6 -5 -5 -5 -5 -5 -5 -5 -5 -5 -5 -4 -4 -4 -4 -3 -4 -3 -3 -3 -3 -3 -3 -3 -2 -2 -2
-2 -3 -3 -3 -4 -3 -4 -5 -6 -6 -6 -6 -7 -7 -8 -9 -9 -9 -8 -9 -10 -11 -10 -7 -9 -8 -6 -6 -6 -5 -5 -5 -5 -5 -5 -5 -5 -5 -5 -5 -4 -3 -3 -3 -4 -3 -3 -3 -3 -3 -2 -2 -2 -2
-2 -3 -3 -4 -4 -4 -5 -5 -6 -6 -7 -7 -7 -8 -8 -9 -9 -9 -9 -10 -11 -11 -11 -8 -8 -8 -8 -7 -6 -5 -5 -5 -5 -5 -5 -5 -5 -5 -5 -5 -2 -3 -3 -3 -3 -3 -4 -4 -3 -3 -3 -3 -2 -2
-2 -3 -4 -5 -5 -5 -6 -6 -5 -6 -7 -7 -8 -8 -8 -8 -9 -9 -10 -10 -11 -10 -10 -8 -7 -7 -7 -6 -6 -5 -5 -5 -5 -5 -5 -5 -5 -5 -5 -5 -3 -3 -3 -3 -4 -4 -4 -4 -4 -3 -3 -3 -2 -2
-3 -4 -5 -5 -6 -5 -7 -7 -6 -7 -7 -8 -8 -8 -8 -8 -8 -9 -10 -9 -9 -9 -10 -9 -6 -6 -6 -6 -5 -5 -5 -5 -5 -5 -5 -5 -5 -5 -5 -4 -3 -3 -3 -3 -4 -4 -4 -4 -5 -5 -4 -4 -3 -3
-2 -6 -7 -6 -6 -6 -7 -7 -7 -7 -7 -9 -8 -8 -8 -8 -9 -9 -9 -9 -9 -9 -9 -8 -6 -6 -5 -5 -5 -5 -5 -5 -5 -5 -5 -5 -5 -5 -4 -3 -4 -3 -3 -3 -4 -4 -4 -4 -4 -4 -5 -5 -4 -3
-5 -7 -7 -8 -8 -9 -8 -7 -8 -7 -8 -9 -8 -8 -9 -9 -8 -8 -8 -8 -8 -8 -8 -6 -6 -5 -5 -5 -5 -5 -5 -5 -6 -5 -5 -6 -4 -3 -4 -5 -5 -5 -4 -4 -4 -4 -4 -4 -4 -4 -4 -4 -5 -4
-7 -8 -8 -9 -9 -7 -8 -8 -8 -8 -9 -9 -8 -9 -9 -9 -8 -8 -8 -8 -8 -8 -7 -6 -6 -6 -5 -5 -5 -5 -5 -5 -5 -5 -5 -5 -3 -2 -3 -4 -5 -6 -5 -4 -4 -4 -4 -4 -4 -4 -4 -4 -4 -4
-9 -9 -8 -9 -9 -8 -8 -8 -8 -9 -9 -9 -9 -9 -9 -9 -8 -8 -8 -8 -8 -7 -7 -7 -6 -6 -6 -5 -5 -5 -5 -5 -6 -6 -5 -4 -2 -3 -3 -4 -4 -4 -4 -4 -4 -4 -4 -4 -4 -4 -3 -3 -3 -3
-9 -10 -10 -9 -8 -8 -9 -9 -9 -9 -10 -9 -10 -9 -9 -8 -8 -8 -8 -8 -7 -7 -7 -7 -6 -6 -6 -6 -6 -5 -6 -6 -6 -6 -5 -4 -3 -3 -4 -4 -4 -5 -5 -5 -5 -4 -4 -4 -4 -4 -4 -3 -3 -3
-9 -9 -9 -9 -8 -8 -9 -9 -9 -10 -10 -9 -10 -9 -8 -8 -8 -7 -7 -7 -8 -7 -7 -6 -6 -6 -6 -6 -6 -6 -6 -6 -6 -6 -5 -4 -4 -4 -4 -4 -5 -4 -5 -5 -5 -5 -5 -5 -4 -4 -4 -4 -4 -3
-8 -8 -8 -8 -9 -9 -9 -10 -10 -10 -11 -10 -10 -9 -8 -8 -7 -7 -8 -8 -8 -8 -7 -7 -7 -7 -6 -6 -6 -6 -6 -7 -7 -6 -5 -5 -4 -4 -4 -5 -4 -4 -4 -5 -4 -4 -5 -5 -5 -5 -4 -4 -4 -4
-8 -9 -9 -9 -9 -9 -10 -10 -10 -10 -11 -10 -10 -9 -8 -8 -7 -7 -8 -8 -8 -8 -7 -7 -7 -7 -7 -6 -7 -7 -7 -6 -5 -5 -4 -4 -4 -4 -5 -5 -5 -5 -5 -5 -5 -5 -5 -5 -5 -5 -4 -4 -4 -4
-9 -9 -9 -9 -9 -10 -10 -11 -11 -11 -12 -11 -10 -9 -9 -8 -8 -7 -8 -8 -8 -8 -8 -7 -7 -7 -7 -7 -7 -7 -6 -5 -5 -5 -4 -4 -6 -5 -5 -5 -5 -5 -5 -5 -5 -5 -4 -4 -4 -4 -4 -4 -4 -4
-9 -9 -9 -9 -10 -11 -11 -11 -11 -11 -11 -10 -10 -9 -9 -9 -8 -8 -8 -8 -8 -8 -7 -7 -7 -7 -7 -8 -7 -5 -5 -6 -5 -5 -5 -5 -5 -6 -7 -6 -6 -6 -5 -5 -5 -5 -5 -5 -4 -4 -4 -4 -3 -3
-10 -10 -10 -11 -11 -11 -11 -11 -11 -11 -10 -10 -11 -10 -9 -9 -9 -9 -8 -8 -9 -8 -8 -8 -8 -7 -6 -6 -6 -6 -6 -6 -6 -6 -6 -6 -6 -6 -6 -6 -6 -6 -6 -6 -6 -6 -5 -5 -5 -5 -4 -4 -4 -4
-11 -11 -11 -11 -11 -12 -11 -11 -11 -11 -10 -10 -10 -11 -11 -10 -9 -9 -8 -8 -8 -8 -9 -8 -6 -6 -6 -6 -6 -6 -6 -7 -7 -7 -7 -7 -7 -7 -7 -6 -6 -6 -6 -6 -6 -6 -5 -5 -5 -5 -5 -5 -4 -4
-11 -11 -11 -11 -11 -11 -11 -11 -11 -11 -11 -11 -10 -10 -10 -11 -10 -10 -9 -9 -9 -8 -6 -6 -6 -7 -7 -7 -7 -7 -8 -8 -8 -8 -8 -8 -7 -7 -7 -7 -7 -6 -6 -6 -6 -6 -6 -6 -5 -5 -5 -5 -5 -5
-11 -11 -11 -11 -11 -11 -11 -11 -11 -11 -11 -11 -11 -11 -11 -10 -10 -10 -10 -10 -9 -7 -7 -8 -8 -8 -7 -7 -7 -6 -6 -6 -7 -7 -8 -8 -7 -7 -7 -7 -6 -6 -6 -6 -6 -6 -6 -6 -5 -5 -5 -5 -5 -5
-11 -10 -10 -10 -10 -10 -10 -10 -10 -10 -10 -11 -11 -11 -11 -11 -10 -10 -10 -9 -9 -8 -9 -8 -8 -7 -7 -7 -6 -7 -7 -7 -7 -7 -7 -7 -7 -7 -7 -7 -7 -7 -7 -6 -7 -7 -7 -6 -6 -6 -6 -6 -6 -6
-10 -10 -10 -10 -10 -10 -10 -10 -10 -10 -10 -10 -10 -10 -10 -10 -10 -10 -10 -10 -9 -9 -9 -9 -8 -8 -8 -7 -7 -7 -7 -7 -7 -7 -7 -7 -7 -7 -7 -7 -7 -7 -7 -7 -7 -7 -7 -7 -7 -7 -7 -7 -7 -7
-10 -10 -10 -10 -9 -9 -10 -10 -10 -10 -10 -10 -10 -10 -10 -10 -11 -11 -11 -11 -11 -10 -10 -9 -9 -8 -8 -8 -8 -8 -8 -8 -8 -7 -7 -7 -7 -7 -7 -7 -7 -8 -7 -8 -8 -8 -8 -7 -7 -8 -7 -7 -7 -7
-10 -10 -10 -10 -10 -9 -9 -10 -10 -10 -10 -10 -10 -10 -10 -10 -10 -10 -10 -10 -10 -10 -10 -10 -9 -9 -9 -9 -8 -8 -8 -8 -8 -8 -8 -8 -8 -8 -8 -8 -8 -8 -8 -8 -8 -8 -8 -8 -8 -8 -8 -8 -8 -8
-10 -10 -10 -10 -10 -10 -10 -10 -10 -10 -10 -10 -10 -10 -10 -10 -10 -10 -10 -10 -10 -10 -10 -9 -9 -9 -9 -9 -9 -9 -9 -8 -8 -8 -8 -8 -8 -8 -9 -8 -8 -8 -9 -9 -9 -9 -9 -9 -9 -9 -9 -9 -9 -8
-11 -10 -10 -10 -10 -10 -10 -10 -10 -10 -10 -10 -10 -10 -10 -10 -10 -10 -10 -10 -10 -10 -10 -10 -10 -9 -9 -9 -9 -9 -9 -9 -9 -9 -9 -9 -9 -9 -9 -9 -9 -9 -9 -9 -9 -9 -10 -10 -10 -9 -9 -9 -10 -10
-10 -10 -10 -10 -11 -11 -11 -11 -11 -11 -11 -11 -11 -11 -11 -11 -11 -11 -11 -10 -10 -9 -10 -10 -9 -9 -10 -10 -10 -9 -9 -9 -9 -10 -10 -10 -10 -10 -10 -10 -10 -9 -9 -9 -10 -10 -10 -10 -10 -10 -10 -10 -10 -11
-11 -12 -12 -12 -12 -12 -12 -12 -12 -11 -11 -11 -11 -11 -10 -10 -10 -10 -10 -9 -9 -9 -9 -9 -9 -9 -9 -9 -9 -9 -9 -9 -9 -9 -9 -9 -10 -10 -10 -10 -10 -10 -10 -10 -10 -10 -10 -10 -10 -11 -11 -11 -11 -11
-13 -13 -13 -13 -13 -13 -13 -13 -13 -13 -13 -12 -12 -12 -12 -11 -10 -10 -9 -9 -9 -9 -9 -9 -9 -9 -9 -9 -9 -9 -9 -9 -9 -9 -9 -9 -10 -10 -10 -10 -10 -10 -10 -10 -10 -10 -11 -11 -11 -11 -11 -11 -12 -12
-13 -13 -13 -13 -14 -14 -15 -15 -14 -14 -14 -14 -14 -14 -14 -14 -12 -10 -9 -9 -9 -9 -10 -10 -9 -9 -9 -9 -9 -9 -9 -9 -9 -9 -9 -10 -10 -10 -10 -10 -10 -10 -10 -10 -11 -11 -11 -11 -11 -12 -12 -12 -13 -13
-13 -13 -13 -13 -13 -13 -13 -15 -15 -15 -15 -15 -15 -15 -14 -14 -13 -12 -11 -11 -10 -10 -10 -10 -10 -9 -9 -9 -9 -9 -9 -9 -9 -9 -10 -10 -10 -10 -10 -10 -11 -11 -11 -11 -11 -11 -12 -12 -12 -13 -13 -13 -13 -13

GFSWCAN_700_temp_063.txt.gz
Temp
-1 -1 -1 -1 -2 -2 -2 -2 -2 -3 -5 -5 -5 -5 -4 -5 -5 -6 -7 -8 -8 -8 -6 -6 -6 -6 -6 -5 -5 -4 -4 -4 -4 -4 -4 -4 -4 -4 -4 -3 -4 -4 -4 -4 -4 -5 -3 -2 -2 -2 -2 -2 -2 -1
-1 -1 -2 -2 -2 -2 -2 -2 -2 -2 -3 -4 -5 -5 -5 -6 -6 -6 -8 -8 -9 -9 -7 -7 -6 -6 -6 -5 -5 -5 -5 -4 -4 -5 -4 -4 -4 -4 -3 -3 -4 -4 -3 -3 -4 -3 -3 -2 -3 -2 -2 -2 -2 -2
-1 -1 -1 -2 -2 -2 -2 -3 -3 -3 -2 -3 -5 -5 -5 -6 -7 -8 -8 -8 -9 -9 -7 -7 -6 -7 -6 -6 -5 -5 -5 -5 -4 -4 -4 -4 -4 -4 -4 -4 -4 -4 -4 -4 -3 -3 -3 -3 -3 -3 -3 -2 -2 -2
-2 -2 -2 -2 -2 -2 -2 -3 -4 -3 -2 -3 -5 -5 -6 -7 -7 -8 -9 -9 -9 -10 -9 -6 -6 -7 -6 -6 -6 -5 -5 -5 -5 -5 -4 -4 -4 -4 -4 -4 -4 -3 -3 -3 -3 -3 -3 -3 -3 -3 -3 -3 -2 -2
-2 -2 -2 -2 -2 -2 -2 -3 -4 -3 -4 -5 -6 -6 -6 -7 -8 -8 -9 -9 -10 -11 -11 -7 -8 -6 -6 -6 -6 -6 -5 -5 -5 -5 -5 -4 -5 -4 -4 -5 -4 -4 -3 -4 -3 -3 -3 -4 -3 -3 -3 -2 -3 -2
-3 -2 -2 -2 -2 -2 -2 -4 -4 -4 -6 -6 -7 -7 -7 -8 -9 -9 -9 -9 -11 -12 -13 -9 -7 -7 -7 -7 -7 -6 -5 -5 -5 -5 -5 -5 -4 -5 -5 -5 -4 -2 -3 -3 -3 -3 -3 -3 -4 -4 -3 -3 -3 -2
-3 -3 -2 -2 -2 -2 -4 -4 -4 -7 -7 -7 -7 -7 -8 -8 -9 -9 -10 -11 -11 -11 -12 -10 -7 -7 -8 -9 -8 -8 -6 -5 -5 -5 -5 -5 -4 -5 -5 -5 -3 -2 -3 -3 -3 -3 -3 -3 -3 -4 -4 -4 -3 -3
-2 -2 -2 -2 -2 -3 -5 -6 -6 -7 -7 -7 -8 -8 -8 -9 -9 -8 -10 -10 -11 -11 -11 -9 -7 -7 -8 -8 -8 -7 -6 -6 -5 -5 -5 -5 -5 -5 -5 -3 -2 -3 -3 -3 -3 -4 -4 -3 -4 -4 -4 -4 -4 -3
-3 -3 -2 -2 -3 -6 -6 -6 -9 -9 -8 -8 -8 -8 -9 -9 -9 -9 -9 -10 -10 -10 -10 -9 -7 -6 -6 -6 -6 -6 -5 -5 -5 -5 -5 -5 -5 -5 -3 -3 -3 -3 -4 -4 -4 -3 -3 -3 -4 -4 -4 -5 -4 -4
-2 -2 -2 -2 -4 -5 -7 -8 -9 -10 -9 -9 -9 -9 -10 -9 -9 -9 -9 -9 -9 -8 -8 -6 -7 -6 -6 -6 -5 -6 -5 -5 -5 -5 -5 -5 -5 -4 -3 -3 -4 -4 -5 -4 -4 -4 -4 -3 -4 -4 -4 -4 -4 -4
-2 -2 -2 -4 -5 -6 -8 -9 -9 -9 -9 -9 -9 -10 -9 -9 -9 -9 -9 -9 -8 -8 -7 -6 -6 -6 -5 -6 -5 -5 -5 -5 -5 -5 -6 -5 -4 -2 -3 -3 -3 -6 -5 -6 -5 -4 -4 -4 -4 -3 -4 -4 -4 -4
-4 -4 -5 -6 -7 -8 -9 -9 -9 -9 -9 -9 -9 -11 -10 -9 -9 -9 -9 -8 -8 -7 -7 -7 -6 -6 -6 -5 -5 -5 -5 -5 -5 -6 -5 -5 -2 -3 -3 -4 -4 -5 -5 -4 -4 -4 -4 -5 -4 -4 -4 -4 -3 -3
-6 -7 -8 -8 -9 -9 -9 -9 -9 -9 -10 -10 -11 -11 -10 -9 -9 -9 -8 -8 -7 -8 -7 -7 -6 -5 -6 -6 -6 -5 -5 -6 -5 -6 -5 -4 -3 -3 -3 -5 -5 -4 -5 -5 -5 -5 -4 -4 -5 -5 -4 -5 -4 -3
-8 -8 -8 -9 -9 -10 -9 -9 -9 -10 -10 -10 -12 -10 -9 -9 -8 -7 -7 -7 -6 -6 -6 -7 -6 -6 -6 -6 -6 -6 -6 -6 -6 -6 -6 -5 -4 -4 -4 -4 -5 -5 -5 -5 -5 -5 -5 -5 -5 -5 -5 -4 -4 -4
-8 -8 -8 -9 -9 -9 -9 -9 -9 -10 -10 -11 -12 -10 -9 -8 -8 -8 -7 -7 -7 -7 -6 -7 -7 -7 -6 -6 -6 -6 -6 -7 -7 -6 -5 -5 -4 -4 -4 -4 -5 -5 -5 -5 -5 -5 -5 -5 -5 -5 -5 -5 -5 -4
-7 -8 -8 -8 -9 -9 -9 -9 -10 -10 -10 -12 -10 -9 -9 -8 -8 -8 -8 -9 -8 -8 -7 -7 -7 -7 -6 -6 -6 -7 -7 -6 -5 -5 -5 -4 -4 -4 -4 -5 -5 -5 -5 -5 -5 -5 -5 -5 -5 -5 -4 -4 -4 -4
-7 -8 -8 -9 -9 -9 -9 -9 -10 -11 -11 -13 -11 -9 -9 -8 -8 -8 -8 -8 -7 -8 -7 -7 -7 -7 -7 -7 -7 -6 -5 -5 -5 -5 -4 -4 -5 -5 -5 -5 -5 -5 -5 -5 -5 -5 -5 -5 -5 -5 -4 -4 -4 -4
-8 -8 -9 -9 -9 -9 -10 -10 -11 -11 -11 -11 -10 -9 -9 -8 -9 -8 -8 -8 -8 -8 -8 -7 -7 -7 -7 -7 -5 -5 -5 -5 -5 -5 -5 -5 -5 -5 -6 -7 -6 -6 -6 -6 -6 -6 -5 -5 -5 -5 -5 -4 -4 -4
-8 -9 -9 -10 -10 -10 -11 -11 -11 -11 -10 -10 -10 -10 -10 -9 -9 -9 -9 -9 -8 -8 -8 -8 -8 -7 -6 -6 -6 -6 -6 -6 -6 -6 -6 -6 -6 -6 -6 -6 -6 -6 -6 -6 -6 -6 -6 -5 -5 -5 -5 -5 -5 -4
-10 -10 -10 -10 -11 -11 -11 -11 -11 -11 -10 -10 -10 -10 -10 -10 -10 -10 -10 -9 -9 -9 -8 -8 -7 -7 -7 -7 -6 -6 -6 -7 -7 -7 -7 -7 -7 -7 -7 -7 -7 -6 -6 -6 -6 -6 -6 -5 -5 -5 -5 -5 -5 -4
-10 -11 -11 -11 -11 -11 -11 -11 -11 -10 -10 -11 -10 -10 -10 -10 -11 -11 -10 -9 -9 -8 -8 -7 -7 -8 -8 -8 -8 -8 -7 -7 -7 -8 -8 -8 -8 -8 -8 -7 -7 -7 -7 -7 -6 -6 -6 -6 -6 -5 -5 -5 -5 -5
-11 -11 -11 -11 -12 -12 -11 -11 -11 -11 -11 -11 -11 -11 -11 -11 -11 -11 -11 -10 -9 -8 -8 -8 -9 -9 -8 -7 -7 -7 -7 -7 -7 -7 -7 -7 -7 -8 -8 -8 -7 -7 -7 -6 -6 -6 -6 -6 -6 -6 -6 -6 -6 -6
-11 -11 -11 -11 -11 -11 -10 -11 -11 -11 -11 -11 -11 -11 -11 -11 -11 -11 -11 -10 -9 -9 -9 -9 -8 -8 -7 -7 -7 -7 -7 -7 -7 -7 -7 -7 -7 -7 -7 -7 -7 -7 -7 -7 -7 -7 -7 -7 -6 -6 -6 -6 -6 -6
-11 -11 -11 -10 -10 -10 -10 -10 -10 -10 -10 -10 -11 -11 -11 -11 -11 -11 -11 -11 -10 -10 -10 -9 -9 -8 -8 -8 -8 -8 -8 -7 -7 -7 -7 -7 -7 -7 -7 -7 -7 -7 -7 -7 -7 -7 -7 -7 -7 -7 -7 -7 -7 -7
-11 -10 -10 -10 -10 -9 -10 -10 -10 -10 -10 -10 -10 -10 -10 -11 -10 -10 -10 -10 -10 -11 -11 -10 -10 -10 -9 -9 -8 -8 -8 -8 -8 -8 -8 -8 -8 -7 -7 -7 -8 -8 -8 -8 -8 -8 -8 -8 -8 -8 -8 -8 -8 -8
-10 -10 -10 -9 -9 -9 -9 -9 -9 -9 -9 -9 -9 -10 -10 -10 -10 -10 -10 -11 -10 -10 -10 -10 -11 -11 -10 -10 -10 -10 -9 -9 -9 -9 -9 -9 -8 -8 -8 -8 -8 -8 -8 -8 -8 -8 -8 -8 -8 -8 -8 -9 -9 -9
-10 -10 -9 -9 -9 -9 -9 -10 -10 -10 -10 -10 -9 -9 -9 -9 -10 -10 -10 -10 -10 -10 -10 -10 -9 -9 -9 -9 -10 -10 -9 -9 -9 -9 -9 -9 -9 -9 -9 -9 -9 -9 -9 -9 -9 -9 -9 -9 -8 -9 -9 -9 -9 -9
-10 -9 -9 -10 -10 -10 -10 -10 -10 -10 -10 -10 -10 -10 -10 -10 -10 -10 -10 -10 -10 -10 -9 -9 -9 -9 -9 -9 -9 -9 -9 -9 -9 -9 -9 -9 -9 -9 -9 -9 -9 -9 -9 -9 -9 -9 -9 -9 -10 -10 -10 -10 -10 -10
-10 -10 -11 -11 -11 -11 -11 -11 -11 -11 -11 -11 -11 -11 -10 -10 -11 -11 -11 -10 -10 -9 -9 -10 -10 -9 -9 -9 -9 -9 -9 -9 -9 -9 -9 -9 -10 -10 -10 -10 -10 -10 -10 -10 -10 -10 -10 -10 -10 -10 -10 -10 -10 -10
-11 -11 -11 -11 -11 -11 -11 -12 -12 -12 -12 -12 -12 -11 -11 -10 -10 -10 -10 -10 -10 -10 -9 -9 -9 -9 -9 -9 -9 -9 -9 -9 -9 -9 -9 -9 -9 -10 -10 -10 -10 -10 -10 -10 -10 -10 -10 -10 -10 -10 -10 -10 -11 -11
-12 -12 -12 -12 -12 -12 -12 -12 -12 -12 -12 -12 -12 -11 -11 -11 -10 -10 -10 -10 -10 -10 -10 -10 -10 -9 -9 -8 -8 -8 -8 -9 -9 -9 -9 -9 -9 -9 -9 -10 -10 -10 -10 -10 -10 -10 -10 -10 -11 -11 -11 -11 -11 -11
-13 -13 -13 -13 -13 -13 -13 -13 -13 -13 -13 -13 -13 -13 -12 -12 -12 -11 -11 -11 -11 -11 -11 -11 -10 -10 -9 -8 -8 -8 -8 -9 -9 -9 -9 -9 -9 -9 -9 -10 -10 -10 -10 -10 -10 -11 -11 -11 -11 -11 -11 -11 -11 -12
-13 -14 -14 -14 -14 -14 -14 -14 -14 -14 -13 -13 -13 -13 -13 -13 -13 -12 -12 -13 -13 -13 -13 -12 -10 -9 -9 -8 -8 -9 -9 -9 -9 -9 -9 -9 -9 -10 -10 -10 -10 -10 -11 -11 -11 -11 -11 -11 -11 -12 -12 -13 -13 -13

GFSWCAN_700_temp_066.txt.gz
Temp
-1 -1 -0 -0 -1 -1 -1 -1 -1 -2 -2 -2 -2 -2 -3 -4 -4 -4 -5 -6 -6 -7 -5 -6 -7 -7 -6 -6 -5 -5 -4 -4 -4 -4 -4 -4 -4 -3 -3 -3 -3 -4 -4 -4 -4 -4 -4 -2 -2 -2 -2 -2 -2 -1
-1 -1 -1 -1 -1 -1 -1 -1 -2 -2 -2 -1 -2 -3 -3 -5 -5 -5 -5 -5 -7 -7 -6 -7 -7 -7 -7 -7 -6 -5 -4 -4 -4 -4 -4 -4 -4 -4 -3 -3 -3 -4 -3 -3 -3 -3 -3 -2 -2 -2 -2 -2 -2 -2
-1 -1 -1 -1 -1 -1 -1 -1 -1 -2 -3 -3 -2 -3 -3 -6 -6 -7 -6 -7 -8 -8 -7 -6 -6 -7 -8 -8 -7 -6 -5 -4 -4 -4 -4 -4 -4 -4 -4 -4 -3 -4 -4 -3 -3 -2 -3 -3 -3 -3 -3 -3 -2 -2
-2 -1 -1 -1 -1 -1 -2 -1 -2 -2 -3 -3 -3 -3 -5 -7 -7 -7 -7 -9 -9 -10 -10 -6 -7 -7 -7 -7 -8 -6 -6 -5 -5 -5 -4 -4 -4 -4 -4 -4 -4 -3 -3 -3 -3 -3 -3 -3 -3 -3 -3 -3 -3 -3
-2 -2 -2 -1 -1 -2 -1 -2 -2 -3 -4 -4 -4 -4 -6 -8 -8 -8 -8 -9 -9 -10 -10 -8 -8 -8 -7 -7 -7 -7 -6 -6 -5 -5 -5 -5 -4 -4 -4 -4 -4 -3 -3 -3 -3 -3 -3 -3 -3 -3 -3 -3 -3 -3
-2 -2 -2 -2 -2 -2 -2 -2 -2 -4 -4 -3 -4 -6 -8 -8 -8 -8 -8 -9 -9 -10 -11 -8 -6 -7 -7 -7 -7 -7 -8 -6 -6 -6 -5 -5 -4 -4 -5 -5 -4 -4 -3 -3 -3 -3 -3 -3 -3 -4 -3 -3 -3 -2
-3 -3 -3 -3 -2 -2 -2 -2 -3 -4 -4 -4 -6 -8 -8 -8 -8 -8 -10 -11 -10 -10 -12 -9 -6 -7 -7 -8 -8 -8 -9 -8 -7 -7 -5 -5 -5 -5 -5 -5 -3 -3 -3 -3 -3 -3 -3 -3 -3 -3 -4 -4 -4 -4
-3 -3 -3 -3 -2 -2 -2 -3 -4 -5 -5 -8 -9 -9 -9 -9 -9 -8 -10 -11 -11 -10 -11 -10 -7 -7 -8 -9 -10 -10 -9 -8 -8 -6 -5 -5 -5 -5 -5 -4 -3 -3 -4 -3 -3 -4 -4 -3 -3 -3 -3 -4 -4 -4
-4 -3 -3 -3 -3 -3 -3 -3 -5 -6 -8 -9 -8 -9 -9 -9 -9 -9 -9 -11 -10 -10 -10 -9 -8 -7 -8 -8 -9 -9 -8 -8 -7 -6 -5 -5 -5 -5 -4 -3 -3 -3 -3 -4 -4 -4 -3 -3 -3 -3 -3 -3 -3 -4
-4 -3 -3 -3 -3 -3 -3 -5 -6 -7 -9 -9 -9 -9 -9 -9 -9 -9 -10 -10 -10 -9 -8 -7 -7 -7 -7 -7 -7 -7 -6 -6 -6 -6 -5 -6 -5 -3 -4 -3 -3 -3 -4 -5 -5 -4 -4 -3 -3 -3 -3 -3 -4 -4
-3 -3 -3 -3 -4 -4 -5 -6 -7 -8 -8 -9 -9 -9 -9 -9 -10 -10 -10 -9 -9 -8 -7 -6 -6 -6 -6 -6 -6 -6 -5 -6 -5 -5 -5 -5 -3 -2 -3 -3 -3 -3 -3 -5 -6 -6 -5 -4 -4 -4 -4 -4 -4 -4
-3 -3 -4 -4 -4 -5 -7 -8 -11 -9 -8 -9 -9 -9 -10 -10 -10 -10 -10 -9 -8 -8 -7 -7 -6 -6 -6 -6 -5 -6 -5 -5 -5 -6 -6 -5 -3 -3 -3 -3 -4 -4 -5 -5 -5 -6 -5 -4 -4 -4 -4 -4 -4 -4
-4 -5 -4 -5 -8 -8 -8 -10 -10 -10 -10 -9 -9 -10 -10 -10 -10 -10 -9 -8 -8 -7 -7 -7 -7 -6 -6 -6 -5 -5 -5 -5 -5 -6 -5 -4 -4 -4 -3 -4 -5 -5 -5 -5 -5 -5 -5 -4 -4 -5 -5 -5 -4 -5
-5 -5 -6 -8 -8 -8 -9 -10 -9 -10 -9 -9 -10 -10 -10 -9 -9 -9 -8 -8 -7 -7 -7 -7 -7 -6 -6 -6 -6 -6 -6 -6 -6 -7 -6 -5 -5 -4 -4 -4 -5 -5 -5 -5 -5 -5 -5 -5 -5 -5 -5 -5 -5 -4
-5 -6 -7 -8 -9 -9 -9 -9 -9 -10 -10 -10 -10 -10 -10 -9 -9 -8 -8 -8 -8 -7 -7 -7 -7 -6 -6 -6 -6 -6 -6 -7 -6 -6 -6 -5 -5 -4 -4 -4 -5 -5 -5 -5 -5 -5 -5 -5 -5 -5 -5 -5 -5 -5
-6 -7 -7 -8 -8 -10 -10 -9 -10 -10 -9 -10 -10 -9 -9 -9 -8 -8 -8 -8 -8 -8 -7 -7 -7 -7 -7 -6 -6 -7 -7 -7 -6 -6 -5 -5 -4 -5 -5 -5 -5 -5 -5 -5 -5 -5 -5 -5 -5 -5 -5 -5 -5 -4
-6 -6 -7 -8 -8 -9 -9 -9 -10 -10 -10 -10 -10 -10 -10 -9 -9 -8 -8 -8 -8 -8 -8 -7 -7 -7 -7 -7 -7 -7 -6 -6 -6 -6 -5 -5 -5 -5 -5 -5 -5 -5 -5 -5 -5 -5 -5 -5 -5 -5 -5 -5 -5 -4
-7 -7 -7 -6 -7 -8 -9 -10 -10 -10 -10 -10 -10 -10 -10 -10 -9 -9 -8 -8 -8 -8 -8 -7 -7 -7 -7 -7 -6 -6 -6 -6 -6 -6 -6 -6 -5 -5 -5 -6 -6 -6 -6 -6 -6 -6 -6 -6 -6 -5 -5 -5 -5 -4
-7 -7 -7 -9 -9 -9 -10 -10 -10 -10 -10 -10 -10 -10 -10 -10 -9 -9 -9 -9 -8 -8 -8 -8 -8 -8 -7 -6 -7 -7 -6 -6 -6 -6 -6 -6 -6 -6 -6 -6 -7 -7 -7 -7 -6 -6 -6 -6 -6 -6 -5 -5 -5 -5
-9 -9 -10 -10 -10 -10 -10 -10 -10 -11 -11 -10 -10 -10 -10 -10 -10 -10 -10 -9 -9 -9 -9 -8 -8 -8 -8 -8 -7 -7 -7 -7 -7 -7 -7 -7 -7 -7 -7 -7 -7 -7 -7 -7 -7 -7 -6 -6 -6 -6 -6 -6 -5 -5
-10 -10 -10 -10 -10 -10 -11 -11 -10 -10 -11 -11 -10 -10 -10 -10 -10 -10 -10 -10 -10 -9 -9 -8 -8 -9 -9 -8 -8 -8 -8 -8 -8 -7 -7 -8 -8 -8 -8 -8 -8 -8 -8 -7 -7 -7 -7 -6 -6 -6 -6 -6 -5 -5
-10 -10 -10 -11 -11 -11 -11 -11 -11 -11 -11 -11 -10 -10 -10 -10 -10 -10 -11 -11 -10 -10 -9 -8 -9 -9 -8 -8 -8 -7 -7 -7 -7 -7 -7 -7 -7 -7 -7 -8 -8 -8 -7 -7 -7 -7 -7 -7 -7 -7 -6 -6 -6 -6
-11 -11 -11 -12 -11 -11 -10 -11 -11 -11 -11 -11 -11 -11 -11 -11 -11 -11 -11 -10 -10 -10 -10 -10 -10 -9 -8 -8 -8 -8 -8 -8 -7 -7 -7 -7 -7 -7 -7 -7 -7 -7 -7 -7 -7 -7 -7 -7 -7 -7 -7 -7 -7 -7
-11 -12 -12 -11 -11 -11 -11 -10 -10 -10 -10 -11 -11 -11 -11 -11 -11 -11 -11 -11 -11 -10 -10 -10 -10 -9 -9 -8 -8 -8 -8 -7 -7 -7 -8 -7 -7 -7 -7 -7 -7 -7 -7 -8 -8 -8 -7 -7 -7 -7 -7 -7 -7 -7
-11 -11 -11 -11 -10 -10 -10 -10 -10 -10 -10 -10 -10 -10 -10 -10 -10 -11 -11 -11 -11 -11 -11 -11 -11 -10 -10 -10 -10 -9 -9 -8 -8 -8 -9 -8 -8 -8 -8 -8 -8 -7 -7 -7 -8 -8 -8 -8 -8 -8 -8 -8 -7 -7
-11 -10 -10 -10 -10 -10 -10 -10 -9 -9 -9 -9 -9 -9 -9 -10 -10 -10 -10 -11 -11 -11 -11 -11 -11 -11 -11 -10 -10 -10 -9 -9 -9 -9 -9 -9 -9 -9 -9 -9 -9 -8 -8 -8 -8 -8 -8 -9 -8 -8 -8 -8 -8 -8
-10 -10 -9 -9 -9 -9 -9 -9 -9 -9 -9 -9 -9 -9 -9 -9 -10 -10 -10 -10 -10 -10 -10 -10 -10 -10 -10 -10 -10 -10 -10 -9 -9 -9 -9 -9 -9 -9 -9 -9 -9 -9 -9 -9 -9 -9 -9 -9 -9 -9 -9 -9 -9 -9
-10 -10 -10 -10 -10 -10 -10 -10 -10 -10 -10 -10 -10 -10 -9 -9 -9 -10 -10 -10 -10 -9 -9 -9 -10 -9 -9 -9 -9 -9 -9 -9 -9 -9 -9 -9 -9 -9 -9 -9 -9 -9 -9 -9 -9 -9 -10 -9 -9 -9 -9 -9 -10 -10
-10 -10 -10 -11 -11 -10 -10 -10 -10 -10 -11 -11 -11 -11 -11 -10 -10 -11 -11 -10 -10 -9 -9 -9 -9 -9 -9 -9 -9 -9 -9 -9 -9 -9 -9 -9 -10 -10 -10 -9 -9 -9 -10 -10 -10 -10 -10 -10 -10 -10 -10 -10 -10 -10
-11 -11 -11 -11 -11 -11 -11 -11 -11 -11 -11 -11 -11 -10 -10 -10 -10 -11 -10 -10 -10 -10 -10 -10 -10 -9 -9 -9 -8 -8 -8 -8 -8 -8 -8 -8 -9 -9 -10 -10 -10 -10 -10 -10 -10 -10 -10 -10 -10 -11 -11 -11 -11 -10
-11 -11 -11 -12 -12 -12 -12 -12 -12 -12 -11 -11 -11 -11 -10 -10 -10 -10 -10 -10 -11 -11 -11 -11 -11 -10 -10 -9 -8 -8 -8 -8 -8 -8 -8 -8 -9 -9 -9 -9 -9 -10 -10 -10 -10 -10 -10 -11 -11 -11 -11 -11 -11 -11
-12 -13 -13 -13 -13 -13 -13 -13 -13 -13 -12 -12 -12 -12 -12 -11 -11 -10 -10 -11 -11 -12 -12 -12 -11 -10 -10 -10 -9 -8 -7 -7 -8 -8 -8 -9 -9 -9 -9 -9 -9 -9 -9 -10 -10 -11 -11 -11 -11 -11 -11 -12 -12 -12
-13 -14 -14 -14 -14 -13 -13 -14 -13 -13 -12 -12 -12 -11 -11 -11 -11 -11 -11 -12 -13 -13 -13 -13 -13 -12 -11 -10 -10 -9 -9 -9 -9 -9 -9 -9 -9 -9 -9 -9 -10 -10 -10 -11 -11 -11 -11 -11 -11 -12 -12 -13 -13 -14

GFSWCAN_700_temp_072.txt.gz
Temp
1 0 0 0 -0 -1 -0 -1 -1 -1 -1 -1 -1 -2 -2 -2 -2 -2 -2 -2 -3 -3 -4 -6 -7 -7 -8 -8 -7 -7 -7 -6 -5 -5 -5 -4 -4 -4 -4 -4 -4 -4 -4 -4 -5 -5 -5 -2 -3 -2 -2 -1 -1 -1
0 0 -0 -0 -1 -0 -1 -1 -1 -1 -1 -2 -2 -2 -3 -3 -2 -2 -2 -3 -3 -4 -3 -6 -7 -7 -6 -7 -8 -8 -7 -7 -6 -5 -5 -5 -4 -4 -4 -4 -4 -4 -4 -4 -4 -3 -3 -3 -3 -2 -2 -2 -2 -2
-1 -1 -1 -1 -1 -1 -2 -2 -2 -2 -2 -2 -2 -2 -3 -3 -3 -2 -3 -4 -4 -5 -3 -4 -6 -7 -8 -8 -9 -8 -8 -7 -8 -7 -7 -4 -5 -4 -3 -3 -4 -3 -4 -4 -4 -3 -3 -3 -3 -3 -3 -3 -3 -3
-1 -1 -1 -2 -2 -2 -2 -2 -2 -2 -2 -2 -2 -3 -3 -3 -3 -3 -4 -5 -6 -8 -7 -6 -7 -8 -7 -7 -7 -8 -8 -9 -9 -9 -8 -8 -5 -4 -4 -3 -3 -3 -4 -4 -4 -3 -3 -3 -3 -3 -3 -3 -3 -3
-2 -2 -2 -2 -2 -2 -2 -2 -2 -2 -2 -2 -2 -3 -3 -3 -3 -4 -4 -6 -8 -10 -10 -7 -7 -7 -7 -7 -7 -8 -10 -9 -9 -9 -9 -8 -6 -4 -4 -4 -3 -3 -3 -4 -4 -3 -3 -3 -3 -3 -3 -3 -3 -3
-3 -2 -2 -2 -2 -2 -2 -2 -3 -3 -2 -2 -3 -3 -3 -3 -3 -5 -7 -7 -9 -10 -10 -9 -7 -7 -6 -7 -7 -8 -9 -10 -10 -9 -9 -8 -6 -6 -5 -4 -3 -3 -3 -3 -4 -4 -4 -4 -3 -4 -4 -4 -4 -4
-3 -3 -3 -3 -3 -2 -2 -2 -2 -2 -2 -3 -3 -4 -3 -3 -7 -8 -8 -9 -9 -10 -10 -9 -7 -7 -6 -7 -7 -8 -8 -9 -10 -10 -10 -8 -7 -7 -5 -4 -3 -3 -3 -3 -4 -4 -4 -4 -4 -4 -4 -4 -4 -4
-4 -4 -3 -3 -2 -2 -2 -3 -3 -3 -3 -3 -4 -3 -3 -5 -6 -7 -9 -9 -10 -10 -11 -9 -7 -7 -7 -8 -8 -9 -9 -11 -12 -12 -10 -9 -8 -7 -7 -4 -3 -3 -3 -3 -4 -4 -4 -4 -4 -4 -4 -4 -4 -4
-4 -4 -4 -3 -3 -3 -3 -4 -3 -3 -3 -4 -3 -4 -5 -6 -9 -8 -9 -9 -9 -10 -11 -10 -8 -8 -8 -8 -8 -8 -9 -11 -11 -10 -10 -9 -8 -7 -5 -4 -3 -3 -3 -4 -4 -4 -4 -4 -4 -4 -4 -4 -4 -4
-5 -5 -4 -4 -3 -4 -4 -4 -4 -4 -4 -3 -4 -4 -6 -7 -9 -9 -9 -9 -9 -11 -11 -8 -8 -8 -8 -8 -9 -8 -9 -9 -9 -9 -9 -9 -7 -4 -5 -5 -4 -4 -4 -4 -4 -4 -4 -5 -5 -5 -5 -4 -4 -4
-5 -5 -5 -5 -4 -4 -4 -4 -4 -4 -4 -4 -5 -6 -8 -9 -10 -10 -10 -9 -9 -9 -9 -8 -7 -7 -7 -7 -8 -8 -8 -7 -7 -8 -7 -6 -5 -4 -4 -5 -5 -4 -4 -3 -4 -4 -5 -5 -5 -6 -6 -5 -5 -4
-6 -6 -5 -5 -4 -5 -5 -4 -4 -5 -5 -6 -7 -8 -10 -10 -10 -10 -10 -9 -9 -9 -8 -7 -8 -7 -7 -7 -7 -7 -6 -6 -6 -6 -6 -5 -5 -5 -4 -4 -4 -4 -4 -4 -4 -4 -5 -5 -6 -6 -6 -6 -6 -5
-7 -6 -5 -5 -5 -5 -4 -4 -6 -6 -7 -8 -9 -9 -10 -10 -10 -10 -9 -8 -8 -8 -8 -8 -8 -7 -7 -7 -6 -6 -6 -6 -6 -6 -6 -6 -6 -6 -5 -4 -4 -5 -4 -4 -4 -5 -5 -6 -6 -6 -6 -5 -6 -5
-7 -6 -6 -6 -5 -5 -6 -5 -7 -8 -8 -9 -10 -11 -10 -10 -9 -8 -8 -8 -8 -9 -9 -8 -8 -8 -7 -6 -6 -6 -6 -6 -7 -6 -6 -6 -6 -6 -5 -5 -5 -5 -5 -5 -5 -5 -5 -6 -6 -6 -6 -6 -6 -6
-7 -6 -6 -5 -5 -6 -7 -7 -8 -9 -9 -10 -10 -10 -9 -9 -8 -8 -8 -9 -9 -9 -9 -8 -8 -8 -7 -7 -6 -6 -6 -6 -7 -7 -7 -6 -6 -6 -5 -5 -5 -5 -5 -5 -6 -6 -6 -6 -6 -6 -6 -6 -6 -6
-6 -5 -5 -6 -6 -7 -7 -8 -9 -9 -10 -11 -10 -9 -8 -8 -8 -8 -9 -9 -9 -9 -9 -8 -8 -7 -7 -7 -7 -7 -7 -7 -7 -7 -6 -6 -6 -6 -6 -5 -5 -5 -5 -6 -6 -6 -6 -6 -6 -6 -6 -6 -6 -6
-5 -4 -5 -7 -7 -7 -8 -9 -10 -10 -11 -11 -9 -8 -8 -8 -8 -9 -9 -9 -9 -9 -9 -9 -8 -7 -7 -7 -7 -7 -7 -7 -7 -7 -6 -6 -7 -6 -6 -6 -6 -6 -6 -6 -6 -6 -6 -6 -6 -6 -6 -6 -6 -5
-5 -5 -6 -6 -6 -7 -9 -9 -10 -10 -10 -10 -9 -9 -8 -9 -9 -9 -9 -10 -10 -10 -9 -9 -9 -8 -7 -7 -7 -7 -7 -7 -7 -7 -7 -6 -6 -6 -6 -6 -6 -6 -6 -7 -7 -7 -7 -7 -6 -6 -6 -6 -6 -5
-5 -5 -6 -6 -7 -8 -9 -10 -11 -10 -10 -10 -10 -9 -9 -9 -9 -9 -9 -10 -10 -10 -10 -9 -9 -8 -8 -7 -7 -7 -7 -7 -7 -7 -7 -7 -7 -7 -7 -6 -7 -7 -7 -8 -8 -7 -7 -7 -7 -6 -6 -6 -6 -6
-5 -7 -7 -8 -8 -10 -11 -11 -11 -11 -10 -10 -10 -10 -9 -10 -9 -9 -10 -10 -11 -10 -10 -10 -9 -9 -8 -8 -8 -8 -8 -7 -7 -7 -7 -7 -7 -7 -7 -7 -7 -8 -8 -8 -8 -8 -8 -8 -7 -7 -7 -7 -7 -7
-8 -8 -8 -8 -10 -11 -11 -11 -10 -10 -10 -10 -10 -9 -10 -9 -9 -9 -10 -10 -11 -10 -10 -9 -10 -10 -9 -8 -8 -8 -8 -8 -8 -8 -8 -7 -7 -7 -7 -8 -8 -8 -8 -8 -8 -8 -8 -8 -8 -7 -7 -7 -7 -7
-9 -9 -10 -10 -10 -11 -11 -11 -10 -10 -10 -10 -10 -10 -9 -9 -10 -10 -10 -10 -10 -9 -10 -10 -10 -10 -10 -9 -8 -8 -8 -8 -8 -8 -7 -7 -7 -7 -7 -8 -8 -8 -7 -8 -8 -8 -8 -8 -7 -7 -7 -7 -7 -7
-10 -10 -10 -10 -11 -11 -10 -10 -10 -10 -10 -10 -10 -10 -10 -10 -10 -10 -10 -10 -10 -10 -10 -10 -10 -9 -10 -10 -9 -9 -9 -8 -8 -8 -7 -7 -7 -7 -7 -7 -7 -7 -7 -7 -7 -8 -8 -8 -8 -8 -8 -8 -7 -7
-11 -11 -11 -11 -11 -11 -11 -10 -10 -10 -10 -10 -10 -10 -11 -11 -11 -11 -10 -10 -10 -11 -11 -11 -10 -10 -10 -11 -11 -10 -10 -9 -9 -8 -8 -8 -8 -8 -8 -8 -8 -8 -8 -7 -8 -8 -8 -8 -8 -8 -8 -8 -8 -8
-12 -11 -11 -11 -11 -11 -10 -10 -11 -11 -10 -10 -10 -10 -10 -10 -10 -10 -11 -11 -11 -11 -11 -11 -11 -11 -11 -12 -12 -11 -11 -10 -10 -10 -9 -9 -9 -9 -9 -9 -9 -9 -9 -9 -9 -8 -8 -8 -8 -8 -8 -8 -9 -9
-12 -12 -11 -12 -11 -11 -11 -11 -11 -10 -10 -10 -10 -10 -10 -10 -10 -10 -10 -10 -9 -10 -10 -10 -10 -10 -11 -11 -11 -11 -11 -11 -11 -10 -10 -10 -10 -10 -10 -9 -9 -9 -9 -9 -9 -9 -9 -9 -9 -9 -9 -9 -9 -9
-12 -11 -12 -11 -11 -11 -11 -10 -10 -10 -10 -9 -9 -9 -9 -9 -9 -9 -9 -9 -10 -10 -10 -10 -10 -10 -10 -10 -10 -10 -10 -9 -9 -9 -9 -9 -9 -9 -9 -9 -9 -9 -9 -9 -9 -9 -9 -9 -9 -9 -10 -10 -10 -9
-11 -11 -11 -11 -11 -11 -10 -10 -10 -10 -9 -9 -10 -10 -9 -9 -10 -10 -10 -10 -10 -10 -10 -9 -9 -10 -10 -9 -9 -9 -9 -9 -9 -8 -8 -9 -9 -9 -8 -8 -9 -9 -9 -9 -9 -9 -9 -9 -9 -10 -10 -10 -10 -10
-11 -11 -11 -11 -11 -11 -11 -10 -10 -10 -10 -10 -10 -10 -10 -10 -10 -10 -11 -11 -11 -10 -10 -10 -10 -10 -10 -9 -9 -9 -9 -8 -8 -8 -8 -8 -9 -9 -8 -8 -8 -8 -8 -8 -9 -9 -9 -9 -10 -10 -10 -10 -10 -10
-11 -11 -11 -11 -11 -10 -10 -10 -10 -10 -11 -11 -11 -11 -11 -11 -11 -11 -11 -11 -10 -10 -10 -10 -10 -10 -10 -10 -9 -9 -9 -8 -8 -8 -8 -8 -8 -8 -8 -9 -9 -8 -8 -8 -9 -9 -9 -9 -10 -10 -10 -10 -10 -10
-11 -11 -11 -11 -11 -11 -11 -11 -11 -12 -12 -12 -12 -11 -11 -11 -10 -11 -11 -11 -10 -10 -10 -10 -10 -10 -10 -10 -10 -9 -9 -10 -9 -10 -9 -9 -9 -9 -8 -8 -8 -8 -8 -9 -9 -9 -9 -10 -10 -10 -10 -10 -11 -11
-12 -12 -12 -12 -12 -12 -13 -12 -12 -12 -11 -11 -11 -11 -11 -11 -11 -11 -12 -12 -11 -11 -11 -11 -11 -11 -11 -11 -11 -11 -11 -11 -11 -11 -10 -10 -10 -10 -9 -9 -9 -9 -9 -8 -9 -9 -10 -10 -10 -10 -11 -11 -11 -11
-13 -13 -13 -13 -13 -13 -13 -13 -12 -12 -12 -11 -11 -12 -12 -13 -13 -13 -13 -13 -13 -13 -13 -13 -13 -12 -13 -13 -13 -13 -13 -12 -12 -12 -12 -12 -12 -12 -11 -10 -10 -9 -9 -9 -10 -10 -10 -10 -11 -11 -11 -11 -12 -12

GFSWCAN_700_temp_075.txt.gz
Temp
-0 -2 -0 0 -0 0 -0 -0 -1 -1 -1 -1 -1 -1 -1 -1 -1 -2 -2 -2 -2 -2 -3 -4 -6 -6 -6 -7 -8 -8 -8 -7 -7 -6 -5 -5 -5 -4 -4 -4 -3 -4 -5 -5 -5 -5 -5 -3 -3 -3 -2 -2 -2 -1
-1 -2 -0 -1 -1 -0 -1 -1 -1 -1 -1 -1 -1 -1 -1 -1 -1 -2 -2 -2 -2 -3 -3 -4 -6 -7 -8 -8 -9 -9 -9 -8 -7 -6 -6 -5 -4 -4 -4 -4 -4 -4 -4 -4 -4 -3 -3 -3 -3 -3 -3 -2 -2 -2
-3 -1 -1 -1 -1 -1 -1 -1 -1 -1 -1 -2 -2 -2 -1 -1 -1 -2 -3 -3 -3 -4 -4 -4 -6 -7 -9 -10 -10 -9 -9 -10 -9 -8 -7 -7 -6 -5 -4 -4 -3 -3 -3 -4 -4 -3 -3 -3 -3 -3 -3 -3 -3 -3
-2 -1 -1 -1 -1 -2 -1 -1 -1 -1 -2 -1 -2 -2 -2 -2 -2 -2 -3 -3 -5 -6 -8 -5 -6 -8 -7 -7 -7 -8 -8 -9 -9 -9 -9 -9 -7 -7 -5 -4 -3 -3 -3 -4 -4 -3 -3 -3 -3 -3 -3 -3 -3 -3
-2 -1 -2 -2 -1 -2 -2 -2 -2 -2 -2 -2 -2 -2 -3 -3 -2 -3 -4 -4 -7 -8 -9 -6 -6 -8 -7 -7 -8 -7 -8 -9 -10 -11 -10 -9 -7 -7 -7 -5 -4 -3 -3 -3 -2 -3 -3 -3 -3 -3 -3 -3 -3 -3
-2 -2 -2 -2 -2 -2 -2 -2 -2 -2 -2 -2 -3 -3 -3 -2 -3 -4 -5 -7 -8 -9 -9 -8 -6 -7 -7 -7 -7 -7 -8 -9 -11 -12 -11 -9 -9 -9 -8 -6 -4 -3 -3 -3 -3 -4 -4 -4 -4 -3 -3 -4 -3 -4
-2 -2 -3 -3 -3 -3 -3 -2 -2 -2 -2 -3 -3 -4 -3 -3 -4 -5 -7 -8 -10 -10 -10 -9 -7 -7 -7 -7 -8 -8 -8 -9 -10 -11 -11 -10 -10 -9 -8 -7 -5 -4 -4 -3 -3 -3 -4 -4 -4 -4 -4 -4 -4 -4
-3 -3 -3 -3 -3 -3 -3 -3 -2 -2 -2 -3 -4 -3 -3 -3 -3 -5 -8 -9 -9 -10 -10 -9 -8 -8 -7 -8 -8 -9 -9 -10 -10 -11 -11 -11 -11 -10 -9 -4 -5 -5 -5 -4 -3 -3 -3 -4 -4 -4 -4 -4 -4 -4
-4 -4 -4 -4 -4 -3 -3 -3 -2 -3 -3 -4 -4 -3 -3 -3 -4 -7 -9 -10 -10 -9 -10 -9 -9 -9 -8 -8 -9 -9 -9 -9 -10 -10 -10 -12 -11 -9 -6 -5 -5 -6 -5 -4 -4 -4 -4 -4 -4 -4 -4 -4 -4 -4
-5 -5 -4 -4 -4 -4 -4 -3 -3 -3 -4 -4 -3 -3 -4 -5 -6 -8 -10 -9 -9 -9 -9 -7 -8 -8 -8 -8 -8 -9 -9 -9 -10 -9 -10 -11 -9 -6 -6 -5 -5 -5 -5 -5 -4 -4 -4 -4 -4 -4 -4 -4 -4 -4
-6 -6 -5 -5 -5 -4 -3 -4 -4 -4 -4 -3 -3 -4 -5 -6 -8 -10 -10 -9 -9 -9 -8 -8 -8 -8 -8 -7 -8 -8 -8 -8 -8 -8 -9 -8 -7 -6 -5 -4 -5 -5 -5 -5 -5 -4 -4 -4 -4 -5 -5 -5 -5 -4
-6 -6 -6 -6 -5 -5 -5 -5 -5 -4 -4 -4 -5 -6 -7 -8 -10 -10 -10 -9 -8 -8 -8 -9 -9 -8 -8 -8 -8 -7 -7 -7 -6 -7 -8 -6 -6 -6 -6 -5 -5 -5 -5 -5 -5 -5 -4 -4 -4 -6 -6 -6 -6 -6
-8 -8 -7 -7 -7 -7 -6 -5 -5 -4 -5 -5 -7 -8 -8 -9 -10 -9 -9 -8 -8 -8 -9 -9 -9 -9 -8 -7 -7 -7 -7 -6 -6 -6 -6 -6 -6 -6 -6 -5 -5 -4 -5 -5 -5 -4 -4 -5 -5 -6 -6 -6 -7 -6
-8 -8 -7 -7 -7 -7 -6 -5 -5 -6 -7 -7 -8 -9 -9 -9 -8 -7 -7 -8 -8 -9 -9 -9 -9 -8 -8 -8 -7 -6 -6 -6 -7 -6 -7 -6 -6 -6 -6 -5 -5 -5 -5 -5 -5 -5 -5 -5 -6 -6 -6 -6 -6 -6
-8 -8 -7 -7 -7 -6 -6 -6 -6 -7 -8 -9 -9 -9 -8 -8 -8 -8 -8 -8 -9 -9 -9 -9 -8 -8 -7 -7 -7 -7 -6 -7 -7 -7 -7 -7 -6 -6 -6 -6 -6 -5 -5 -6 -6 -6 -6 -6 -6 -6 -6 -6 -6 -6
-8 -8 -7 -8 -7 -7 -7 -6 -7 -8 -9 -10 -9 -8 -7 -7 -8 -8 -8 -9 -9 -9 -9 -9 -9 -8 -8 -7 -7 -7 -7 -7 -7 -7 -7 -7 -7 -7 -6 -6 -6 -6 -6 -6 -6 -6 -6 -6 -6 -6 -6 -6 -6 -5
-8 -8 -8 -8 -8 -7 -7 -8 -9 -11 -11 -10 -8 -8 -8 -8 -8 -9 -9 -9 -10 -10 -9 -9 -8 -8 -8 -8 -7 -7 -7 -7 -7 -7 -7 -7 -7 -7 -6 -6 -6 -6 -6 -6 -6 -6 -6 -6 -6 -6 -6 -6 -6 -6
-7 -7 -7 -8 -7 -6 -8 -9 -11 -11 -11 -10 -9 -9 -8 -8 -9 -9 -10 -10 -10 -10 -10 -10 -9 -8 -8 -8 -7 -7 -7 -7 -7 -7 -7 -7 -7 -7 -7 -6 -6 -6 -6 -7 -7 -7 -7 -7 -7 -6 -6 -6 -6 -6
-7 -7 -7 -7 -7 -8 -9 -10 -10 -11 -11 -10 -9 -9 -9 -9 -9 -9 -10 -10 -10 -10 -10 -10 -9 -8 -8 -8 -8 -8 -7 -7 -7 -7 -7 -7 -7 -7 -7 -7 -7 -7 -7 -7 -7 -8 -7 -7 -7 -7 -7 -7 -7 -7
-7 -7 -7 -8 -9 -10 -10 -10 -11 -11 -10 -10 -9 -10 -9 -9 -9 -10 -10 -10 -10 -11 -11 -10 -8 -8 -9 -9 -8 -8 -8 -8 -8 -8 -7 -7 -8 -8 -8 -7 -7 -8 -8 -8 -8 -8 -7 -7 -7 -8 -8 -7 -7 -7
-7 -8 -8 -9 -10 -10 -10 -11 -11 -11 -10 -10 -9 -9 -10 -9 -9 -9 -10 -10 -11 -10 -9 -9 -9 -10 -9 -9 -8 -9 -8 -8 -8 -8 -8 -8 -8 -8 -8 -8 -8 -8 -8 -8 -8 -8 -8 -8 -8 -8 -8 -8 -7 -7
-9 -9 -10 -10 -10 -10 -10 -11 -11 -10 -10 -10 -9 -9 -9 -9 -10 -10 -10 -11 -10 -9 -9 -9 -10 -10 -10 -9 -9 -8 -9 -9 -9 -8 -8 -8 -8 -8 -8 -7 -7 -8 -8 -8 -7 -7 -7 -7 -7 -8 -8 -7 -8 -8
-10 -10 -10 -10 -10 -11 -11 -11 -11 -10 -10 -10 -10 -10 -10 -10 -10 -10 -11 -10 -9 -9 -9 -9 -10 -10 -10 -9 -9 -9 -9 -10 -9 -9 -9 -8 -8 -8 -8 -8 -8 -8 -8 -8 -8 -8 -8 -8 -8 -8 -8 -8 -8 -8
-11 -11 -10 -10 -11 -11 -11 -10 -11 -11 -10 -10 -11 -11 -11 -11 -11 -11 -10 -10 -9 -9 -10 -10 -10 -10 -10 -10 -10 -11 -11 -11 -11 -10 -9 -9 -8 -8 -8 -8 -8 -8 -8 -8 -8 -8 -8 -8 -8 -8 -8 -8 -8 -8
-12 -11 -11 -11 -11 -11 -11 -11 -10 -10 -11 -11 -11 -11 -11 -11 -11 -10 -10 -10 -10 -10 -10 -10 -10 -11 -11 -11 -11 -11 -12 -11 -11 -11 -10 -10 -10 -9 -9 -9 -9 -9 -9 -8 -9 -9 -9 -9 -9 -9 -9 -9 -9 -9
-12 -12 -11 -11 -11 -11 -11 -10 -10 -11 -11 -11 -11 -10 -10 -10 -10 -10 -10 -10 -10 -9 -9 -9 -10 -10 -10 -10 -10 -10 -10 -10 -10 -11 -11 -10 -10 -10 -10 -10 -10 -9 -9 -9 -9 -9 -9 -9 -9 -9 -9 -9 -9 -9
-12 -11 -11 -11 -11 -11 -11 -11 -11 -11 -11 -10 -10 -10 -10 -10 -9 -9 -9 -9 -9 -9 -9 -10 -10 -10 -10 -10 -10 -10 -10 -10 -9 -9 -9 -9 -9 -9 -9 -9 -9 -9 -9 -9 -9 -9 -9 -9 -9 -9 -9 -10 -10 -10
-12 -11 -11 -12 -12 -12 -11 -11 -12 -11 -10 -10 -9 -9 -9 -9 -9 -9 -9 -9 -10 -10 -10 -10 -10 -10 -11 -11 -10 -9 -9 -9 -9 -8 -8 -9 -9 -9 -9 -9 -9 -9 -8 -8 -8 -9 -9 -9 -9 -9 -9 -10 -10 -10
-11 -11 -12 -12 -12 -12 -13 -11 -10 -10 -10 -10 -9 -10 -9 -9 -10 -10 -10 -10 -10 -10 -10 -10 -10 -10 -9 -9 -9 -9 -9 -9 -8 -8 -8 -8 -8 -9 -8 -9 -8 -8 -8 -8 -8 -8 -8 -8 -8 -9 -9 -10 -10 -10
-12 -12 -12 -13 -13 -12 -11 -10 -10 -10 -10 -10 -10 -10 -10 -10 -10 -10 -10 -10 -10 -10 -10 -10 -10 -10 -9 -9 -9 -9 -9 -9 -9 -9 -9 -9 -9 -9 -9 -9 -9 -9 -9 -9 -9 -8 -8 -8 -9 -9 -9 -9 -10 -10
-12 -12 -12 -11 -11 -11 -11 -11 -11 -11 -11 -11 -11 -11 -10 -10 -9 -10 -10 -10 -10 -10 -10 -10 -10 -10 -10 -11 -11 -10 -10 -11 -10 -10 -10 -10 -10 -10 -10 -10 -10 -9 -9 -9 -9 -9 -9 -9 -9 -9 -9 -10 -10 -10
-11 -11 -11 -11 -11 -11 -12 -12 -12 -11 -11 -11 -11 -11 -11 -11 -11 -11 -11 -11 -11 -11 -11 -11 -12 -12 -12 -12 -12 -12 -12 -12 -12 -12 -11 -11 -11 -11 -11 -11 -11 -11 -10 -10 -10 -10 -9 -9 -9 -9 -10 -10 -11 -11
-12 -12 -12 -12 -12 -12 -12 -12 -12 -11 -10 -10 -11 -11 -12 -12 -12 -12 -13 -12 -12 -12 -13 -13 -13 -13 -13 -13 -13 -14 -14 -14 -14 -13 -13 -13 -13 -13 -13 -12 -12 -12 -12 -11 -11 -10 -10 -10 -10 -10 -11 -11 -11 -11

GFSWCAN_700_temp_078.txt.gz
Temp
-0 -0 -0 -0 -0 -2 -0 -0 -1 -1 -1 -1 -1 -1 -1 -1 -1 -1 -1 -2 -2 -2 -2 -3 -4 -6 -7 -8 -8 -8 -8 -7 -8 -7 -6 -6 -5 -5 -5 -4 -3 -4 -5 -5 -5 -5 -5 -3 -3 -3 -2 -3 -2 -2
0 0 -0 -0 -1 -3 -1 -1 -1 -1 -1 -1 -1 -1 -1 -1 -1 -1 -2 -2 -2 -2 -2 -4 -5 -7 -8 -8 -10 -10 -9 -10 -9 -8 -8 -7 -6 -5 -5 -4 -4 -4 -4 -3 -4 -4 -3 -3 -3 -3 -3 -3 -3 -2
1 0 -0 -1 -1 -2 -0 -1 -2 -2 -2 -2 -2 -1 -1 -1 -1 -1 -2 -3 -2 -3 -1 -4 -6 -7 -7 -8 -8 -9 -9 -10 -10 -9 -9 -9 -9 -7 -6 -5 -5 -4 -3 -4 -4 -3 -3 -3 -3 -3 -3 -3 -3 -3
0 0 -0 -1 -2 -3 -1 -2 -2 -2 -2 -2 -2 -2 -1 -2 -1 -1 -2 -3 -3 -4 -4 -3 -6 -7 -7 -7 -7 -8 -8 -8 -8 -8 -9 -10 -10 -8 -7 -5 -6 -5 -4 -3 -3 -3 -3 -3 -3 -3 -3 -3 -3 -3
-0 -0 -0 -1 -3 -2 -2 -2 -2 -2 -2 -2 -2 -2 -2 -2 -1 -1 -1 -2 -3 -5 -6 -4 -6 -7 -7 -7 -7 -7 -8 -7 -8 -8 -9 -9 -10 -10 -8 -7 -6 -5 -4 -4 -3 -3 -3 -3 -4 -3 -3 -3 -3 -3
-0 -1 -2 -2 -4 -2 -3 -3 -3 -3 -3 -2 -2 -2 -2 -2 -2 -2 -2 -3 -5 -6 -8 -7 -6 -7 -7 -7 -7 -8 -8 -8 -8 -9 -9 -11 -11 -12 -10 -8 -5 -4 -5 -4 -4 -4 -4 -4 -4 -4 -3 -3 -4 -4
-1 -2 -3 -5 -3 -2 -3 -3 -3 -3 -3 -2 -2 -2 -2 -2 -2 -3 -3 -4 -5 -8 -8 -8 -6 -7 -8 -7 -7 -8 -8 -8 -9 -9 -9 -11 -11 -10 -10 -9 -5 -5 -5 -5 -4 -4 -4 -4 -4 -4 -4 -4 -5 -4
-1 -2 -4 -5 -3 -3 -3 -3 -3 -3 -3 -3 -3 -2 -3 -3 -3 -2 -3 -5 -7 -9 -9 -8 -7 -8 -8 -7 -7 -8 -8 -9 -9 -10 -10 -11 -12 -12 -11 -6 -4 -6 -5 -4 -4 -4 -4 -4 -4 -4 -4 -4 -4 -4
-2 -3 -6 -5 -4 -4 -3 -3 -4 -3 -3 -3 -3 -3 -4 -3 -3 -3 -4 -6 -8 -9 -9 -8 -8 -8 -8 -8 -8 -7 -8 -10 -10 -10 -10 -11 -12 -11 -8 -6 -6 -5 -5 -5 -5 -4 -4 -4 -4 -4 -4 -4 -4 -4
-4 -6 -6 -4 -4 -4 -4 -4 -4 -5 -4 -3 -3 -3 -4 -3 -3 -4 -6 -7 -8 -7 -8 -8 -8 -8 -8 -8 -8 -9 -9 -9 -9 -9 -10 -10 -9 -8 -8 -7 -5 -5 -4 -5 -5 -4 -4 -4 -5 -5 -4 -4 -4 -4
-6 -5 -5 -5 -5 -4 -5 -5 -5 -5 -4 -4 -4 -4 -4 -4 -5 -6 -8 -8 -8 -8 -8 -8 -8 -8 -8 -8 -8 -9 -8 -9 -9 -8 -9 -9 -8 -7 -7 -6 -6 -5 -5 -5 -4 -5 -5 -4 -5 -5 -5 -5 -5 -5
-6 -6 -5 -5 -5 -5 -6 -6 -7 -5 -5 -5 -4 -4 -4 -5 -6 -8 -9 -8 -8 -8 -8 -8 -9 -8 -8 -8 -8 -8 -8 -8 -7 -7 -8 -7 -6 -6 -6 -6 -6 -5 -5 -5 -5 -5 -5 -5 -5 -5 -5 -5 -6 -6
-8 -7 -6 -6 -7 -7 -7 -8 -7 -6 -6 -5 -5 -5 -5 -6 -7 -8 -8 -8 -8 -8 -9 -9 -9 -9 -8 -8 -8 -8 -7 -7 -7 -7 -7 -7 -7 -7 -6 -6 -6 -5 -5 -5 -5 -5 -5 -5 -5 -5 -5 -6 -6 -7
-6 -6 -7 -8 -8 -8 -8 -8 -7 -6 -6 -5 -6 -6 -6 -6 -7 -7 -7 -8 -8 -8 -9 -9 -9 -9 -9 -8 -8 -7 -7 -7 -7 -7 -7 -7 -7 -7 -7 -6 -5 -5 -5 -5 -5 -5 -5 -5 -5 -5 -6 -6 -6 -6
-9 -8 -8 -7 -8 -8 -8 -7 -7 -6 -6 -7 -7 -6 -6 -7 -7 -7 -8 -8 -9 -9 -9 -9 -8 -9 -9 -8 -8 -7 -7 -7 -7 -7 -7 -7 -7 -7 -6 -6 -6 -6 -6 -6 -6 -6 -6 -6 -6 -6 -6 -6 -6 -6
-8 -8 -8 -8 -8 -8 -7 -7 -7 -7 -7 -8 -7 -6 -6 -7 -7 -8 -8 -8 -9 -9 -9 -9 -9 -9 -8 -8 -7 -7 -7 -7 -7 -7 -7 -7 -7 -7 -7 -6 -6 -6 -6 -6 -6 -6 -6 -6 -6 -6 -6 -6 -6 -6
-9 -8 -8 -8 -8 -8 -8 -7 -7 -8 -9 -9 -7 -6 -8 -8 -8 -8 -8 -8 -9 -9 -9 -10 -9 -9 -8 -8 -8 -7 -7 -7 -7 -7 -7 -7 -7 -7 -7 -7 -6 -6 -6 -6 -7 -7 -7 -7 -7 -7 -7 -6 -6 -6
-9 -8 -8 -8 -8 -8 -7 -8 -9 -10 -10 -8 -8 -8 -9 -9 -8 -8 -9 -9 -9 -9 -9 -10 -10 -9 -8 -8 -7 -8 -8 -7 -7 -8 -7 -7 -7 -7 -7 -7 -7 -7 -7 -7 -7 -7 -7 -7 -7 -7 -7 -7 -7 -6
-9 -10 -9 -8 -8 -8 -9 -10 -10 -11 -10 -10 -9 -9 -9 -9 -9 -9 -9 -9 -9 -9 -10 -10 -10 -9 -8 -8 -8 -8 -8 -8 -8 -8 -8 -8 -7 -7 -8 -7 -7 -7 -7 -7 -7 -8 -8 -8 -8 -7 -7 -7 -7 -7
-8 -8 -8 -8 -9 -9 -11 -11 -10 -11 -10 -10 -9 -10 -10 -9 -9 -9 -9 -9 -9 -10 -10 -10 -8 -9 -9 -9 -9 -8 -8 -8 -8 -8 -8 -8 -8 -8 -8 -8 -8 -8 -8 -8 -8 -8 -8 -8 -8 -8 -8 -8 -8 -8
-8 -9 -10 -10 -10 -10 -10 -11 -11 -10 -10 -10 -10 -10 -10 -10 -10 -10 -10 -10 -10 -10 -9 -8 -9 -10 -11 -10 -10 -9 -9 -9 -9 -8 -8 -8 -8 -8 -8 -8 -8 -8 -8 -8 -8 -8 -8 -8 -8 -8 -7 -8 -8 -8
-8 -9 -10 -10 -10 -10 -10 -10 -11 -10 -10 -10 -10 -10 -10 -9 -9 -9 -9 -9 -9 -8 -9 -9 -10 -10 -10 -10 -10 -10 -9 -9 -9 -9 -9 -8 -8 -9 -8 -8 -8 -8 -7 -8 -8 -8 -8 -8 -8 -8 -8 -8 -8 -8
-9 -10 -11 -10 -10 -10 -10 -10 -11 -10 -11 -10 -10 -10 -10 -9 -9 -9 -9 -9 -9 -9 -9 -9 -9 -9 -10 -10 -10 -10 -10 -10 -10 -10 -10 -9 -9 -9 -8 -8 -8 -8 -8 -8 -7 -8 -8 -8 -8 -8 -8 -8 -8 -8
-11 -11 -10 -10 -10 -10 -11 -10 -10 -11 -10 -10 -10 -10 -10 -10 -10 -10 -10 -9 -9 -9 -10 -10 -10 -10 -10 -10 -10 -10 -10 -10 -10 -11 -10 -10 -10 -9 -9 -9 -8 -8 -8 -8 -8 -8 -8 -8 -8 -9 -9 -9 -9 -9
-11 -11 -10 -10 -11 -11 -11 -10 -10 -10 -10 -10 -10 -10 -11 -10 -11 -11 -10 -10 -10 -9 -9 -10 -10 -10 -10 -11 -11 -11 -11 -11 -11 -11 -11 -11 -11 -11 -10 -10 -10 -9 -9 -9 -9 -9 -9 -9 -9 -9 -9 -9 -9 -9
-12 -12 -11 -12 -11 -11 -11 -11 -11 -11 -10 -10 -11 -11 -11 -11 -11 -10 -10 -10 -10 -10 -10 -10 -10 -10 -10 -10 -10 -10 -10 -10 -10 -10 -10 -10 -10 -10 -10 -10 -10 -10 -10 -10 -10 -9 -9 -9 -9 -9 -9 -9 -9 -9
-12 -12 -11 -11 -11 -11 -11 -11 -11 -11 -11 -11 -11 -11 -11 -10 -10 -9 -9 -10 -10 -10 -10 -10 -10 -10 -10 -10 -10 -10 -10 -10 -10 -9 -9 -9 -9 -9 -9 -9 -9 -9 -9 -9 -9 -9 -9 -9 -9 -9 -9 -9 -9 -9
-12 -12 -11 -11 -11 -11 -11 -12 -12 -11 -11 -11 -11 -10 -10 -9 -9 -10 -10 -9 -9 -9 -10 -10 -10 -10 -10 -10 -9 -9 -9 -9 -9 -9 -9 -9 -9 -9 -9 -9 -9 -9 -9 -9 -9 -9 -9 -8 -8 -8 -8 -9 -9 -9
-12 -11 -11 -11 -12 -12 -12 -12 -12 -11 -11 -10 -10 -10 -9 -10 -10 -10 -10 -10 -10 -10 -10 -10 -9 -9 -9 -9 -9 -9 -9 -9 -9 -8 -8 -8 -9 -10 -9 -9 -9 -9 -9 -9 -9 -9 -9 -9 -9 -9 -8 -8 -9 -9
-11 -11 -12 -12 -13 -12 -12 -12 -11 -10 -10 -10 -10 -10 -10 -10 -10 -10 -10 -10 -10 -9 -9 -9 -9 -9 -9 -10 -10 -10 -10 -10 -9 -9 -9 -9 -9 -9 -10 -10 -10 -10 -10 -10 -9 -9 -9 -9 -9 -9 -9 -9 -9 -9
-12 -12 -12 -12 -12 -12 -12 -11 -11 -11 -11 -11 -10 -10 -10 -10 -10 -10 -10 -10 -10 -10 -10 -10 -10 -10 -10 -10 -10 -10 -11 -11 -11 -11 -11 -11 -11 -11 -11 -11 -11 -11 -11 -11 -11 -10 -10 -10 -10 -10 -10 -9 -9 -9
-12 -12 -12 -12 -12 -12 -12 -12 -11 -11 -11 -11 -11 -10 -10 -10 -10 -10 -10 -11 -11 -11 -11 -11 -12 -12 -12 -12 -12 -12 -12 -12 -13 -13 -12 -12 -13 -13 -13 -13 -12 -12 -12 -12 -11 -11 -11 -11 -11 -11 -10 -10 -10 -10
-12 -12 -12 -12 -12 -12 -12 -12 -12 -11 -11 -10 -10 -10 -11 -11 -11 -11 -12 -12 -12 -12 -12 -12 -12 -12 -12 -13 -13 -13 -13 -13 -13 -14 -14 -14 -15 -15 -14 -14 -14 -13 -13 -13 -13 -12 -12 -12 -12 -11 -11 -10 -10 -11

GFSWCAN_700_temp_084.txt.gz
Temp
-0 -0 -0 0 -0 1 0 -0 0 -0 -1 -1 0 -0 -0 -1 -0 -0 -0 -0 -1 -1 -1 -1 -1 -1 -2 -4 -5 -6 -6 -7 -7 -8 -8 -7 -7 -6 -6 -6 -5 -5 -5 -5 -5 -5 -4 -3 -3 -3 -3 -3 -3 -3
-1 -0 -0 -0 -0 -0 0 0 -0 -0 -2 -1 -0 -1 -1 -1 -1 -0 -0 -1 -0 -0 -1 -1 -2 -2 -3 -4 -5 -6 -6 -6 -7 -7 -7 -7 -7 -7 -6 -6 -6 -5 -5 -5 -4 -4 -3 -3 -3 -3 -3 -3 -3 -3
-1 -0 -1 -1 -0 -0 -0 -0 -0 -0 -2 -2 -1 -1 -1 -1 -1 -1 -1 -1 -1 -0 -1 -2 -2 -2 -4 -5 -6 -6 -6 -6 -6 -7 -7 -7 -7 -7 -8 -7 -6 -6 -5 -5 -4 -3 -3 -3 -3 -3 -3 -4 -3 -3
-1 -1 -1 -1 -0 0 -0 -1 -1 -0 -0 -4 -2 -2 -2 -2 -1 -1 -1 -2 -1 -1 -2 -2 -2 -3 -5 -6 -6 -6 -6 -6 -6 -7 -7 -7 -8 -8 -7 -7 -7 -6 -6 -5 -5 -4 -4 -4 -4 -4 -4 -4 -4 -3
-1 -1 -1 -0 -0 0 -1 -0 -1 -0 -1 -5 -3 -2 -2 -2 -2 -2 -2 -2 -1 -1 -2 -2 -3 -4 -5 -6 -6 -7 -7 -7 -7 -7 -7 -8 -8 -9 -8 -9 -6 -5 -5 -6 -6 -5 -5 -4 -4 -4 -4 -4 -4 -3
-1 -2 -1 -1 -0 -1 -0 -1 -1 -1 -2 -5 -3 -3 -2 -2 -2 -2 -1 -1 -1 -2 -2 -3 -3 -5 -6 -7 -7 -7 -7 -7 -7 -8 -8 -8 -9 -10 -10 -9 -5 -7 -7 -6 -6 -5 -5 -5 -5 -4 -4 -4 -4 -4
-1 -1 -2 -1 -1 -0 -1 -1 -1 -2 -5 -4 -3 -3 -3 -3 -3 -2 -2 -2 -2 -2 -2 -3 -5 -6 -7 -7 -7 -7 -7 -7 -8 -8 -8 -8 -9 -11 -11 -9 -8 -8 -8 -8 -6 -5 -5 -5 -5 -5 -5 -4 -4 -4
-1 -1 -2 -1 -1 -1 -1 -1 -2 -3 -7 -6 -4 -3 -3 -4 -3 -2 -2 -3 -3 -3 -3 -4 -5 -6 -7 -7 -6 -6 -7 -7 -8 -8 -7 -8 -9 -10 -9 -9 -9 -8 -9 -7 -7 -6 -5 -5 -5 -5 -5 -4 -5 -5
-1 -1 -1 -1 -1 -1 -1 -2 -3 -4 -7 -5 -4 -4 -4 -4 -3 -3 -3 -3 -3 -4 -4 -5 -6 -6 -7 -7 -7 -6 -7 -8 -8 -7 -7 -8 -7 -8 -8 -9 -10 -10 -8 -8 -8 -6 -5 -5 -5 -5 -5 -5 -5 -5
-1 -1 -1 -1 -1 -1 -2 -3 -5 -7 -6 -5 -4 -4 -4 -4 -4 -4 -3 -4 -3 -4 -5 -5 -7 -7 -7 -7 -7 -7 -8 -8 -8 -7 -7 -7 -6 -7 -8 -8 -8 -9 -7 -7 -6 -6 -5 -5 -5 -5 -5 -5 -5 -5
-1 -1 -1 -1 -1 -2 -3 -4 -5 -8 -7 -5 -5 -5 -4 -5 -6 -5 -4 -4 -4 -5 -6 -6 -7 -7 -7 -7 -7 -7 -8 -8 -8 -8 -8 -8 -7 -7 -7 -7 -7 -7 -6 -6 -6 -6 -6 -5 -5 -5 -5 -5 -6 -6
-1 -1 -1 -2 -2 -3 -5 -5 -5 -7 -6 -6 -6 -5 -4 -6 -5 -4 -4 -4 -5 -5 -5 -6 -7 -7 -6 -7 -7 -8 -9 -9 -8 -8 -8 -7 -7 -7 -7 -7 -7 -7 -7 -7 -6 -6 -6 -5 -5 -5 -5 -6 -6 -6
-1 -1 -2 -2 -3 -4 -5 -7 -8 -8 -6 -6 -5 -5 -6 -6 -5 -4 -4 -4 -4 -5 -6 -7 -7 -7 -7 -7 -8 -8 -8 -8 -8 -8 -7 -7 -7 -7 -7 -7 -7 -7 -7 -6 -6 -6 -5 -5 -6 -6 -6 -6 -6 -5
-2 -2 -2 -3 -4 -5 -8 -9 -7 -7 -6 -5 -6 -7 -6 -4 -4 -3 -3 -4 -5 -6 -6 -7 -7 -7 -7 -8 -9 -9 -8 -8 -8 -7 -7 -7 -7 -7 -7 -7 -7 -7 -6 -6 -6 -5 -5 -6 -6 -6 -7 -7 -7 -6
-3 -3 -4 -5 -6 -9 -9 -8 -7 -7 -6 -6 -7 -7 -6 -4 -4 -4 -4 -5 -6 -6 -7 -7 -7 -7 -8 -9 -9 -9 -8 -7 -7 -7 -7 -7 -7 -7 -7 -7 -7 -7 -6 -6 -6 -6 -6 -7 -7 -7 -7 -7 -7 -7
-3 -4 -6 -8 -9 -9 -8 -7 -8 -7 -7 -7 -7 -5 -4 -5 -5 -5 -5 -6 -7 -7 -7 -7 -8 -8 -9 -9 -9 -8 -8 -7 -7 -7 -7 -7 -7 -7 -7 -7 -7 -7 -7 -7 -7 -7 -7 -7 -7 -7 -7 -6 -6 -6
-5 -9 -10 -10 -9 -9 -8 -8 -8 -8 -7 -8 -6 -5 -5 -5 -5 -6 -6 -7 -7 -7 -8 -8 -8 -8 -9 -9 -8 -8 -7 -7 -7 -7 -7 -7 -7 -7 -7 -7 -7 -8 -8 -8 -7 -7 -7 -7 -8 -7 -7 -7 -7 -7
-9 -10 -10 -10 -9 -8 -8 -8 -8 -8 -8 -7 -5 -5 -6 -6 -6 -6 -7 -7 -8 -8 -8 -8 -8 -8 -8 -8 -7 -7 -7 -8 -8 -8 -8 -7 -8 -7 -8 -8 -8 -8 -8 -8 -8 -8 -9 -8 -8 -8 -8 -8 -7 -7
-9 -9 -8 -8 -8 -8 -8 -8 -8 -8 -7 -6 -6 -6 -6 -7 -7 -7 -8 -8 -8 -8 -8 -8 -9 -8 -7 -7 -8 -9 -9 -9 -9 -9 -9 -8 -8 -8 -8 -8 -8 -8 -8 -8 -8 -8 -8 -9 -9 -9 -8 -8 -8 -7
-8 -8 -8 -8 -8 -8 -8 -8 -9 -8 -9 -8 -7 -7 -7 -7 -8 -8 -9 -9 -9 -9 -9 -8 -6 -7 -8 -9 -9 -9 -9 -10 -9 -9 -9 -9 -9 -9 -9 -8 -8 -8 -8 -8 -8 -8 -8 -9 -9 -8 -9 -8 -8 -7
-9 -9 -9 -8 -8 -9 -9 -9 -9 -9 -7 -8 -7 -7 -8 -8 -9 -9 -10 -10 -10 -9 -8 -7 -8 -8 -9 -9 -10 -10 -10 -10 -10 -9 -10 -10 -10 -9 -9 -9 -9 -9 -8 -9 -8 -8 -9 -9 -9 -8 -8 -8 -8 -8
-8 -9 -9 -11 -11 -11 -10 -10 -9 -9 -8 -8 -8 -9 -9 -9 -9 -9 -9 -10 -9 -8 -8 -9 -8 -8 -8 -8 -8 -9 -9 -9 -10 -10 -10 -10 -10 -10 -9 -9 -9 -9 -9 -9 -9 -8 -9 -9 -9 -9 -9 -8 -8 -8
-11 -12 -12 -11 -11 -10 -10 -10 -10 -9 -9 -9 -9 -9 -9 -9 -9 -10 -10 -9 -8 -8 -9 -8 -8 -8 -8 -9 -9 -9 -9 -10 -10 -10 -11 -10 -10 -10 -10 -10 -10 -10 -10 -10 -9 -9 -9 -9 -9 -9 -9 -9 -8 -9
-11 -11 -11 -11 -11 -11 -10 -10 -10 -10 -10 -10 -10 -10 -9 -9 -9 -9 -9 -8 -9 -8 -8 -8 -9 -9 -9 -9 -9 -10 -9 -10 -10 -10 -11 -11 -11 -11 -11 -11 -11 -10 -10 -10 -10 -10 -10 -10 -10 -10 -9 -9 -9 -9
-11 -11 -11 -11 -11 -11 -11 -10 -10 -10 -9 -10 -10 -10 -10 -10 -10 -9 -9 -9 -9 -9 -8 -8 -9 -9 -10 -10 -10 -10 -10 -11 -11 -11 -11 -11 -11 -11 -11 -10 -10 -10 -10 -10 -10 -10 -10 -10 -10 -10 -10 -10 -10 -10
-11 -11 -11 -11 -11 -11 -11 -11 -10 -10 -10 -10 -10 -10 -10 -10 -10 -10 -9 -9 -10 -9 -9 -9 -9 -9 -9 -9 -9 -9 -10 -10 -10 -10 -11 -11 -10 -10 -10 -10 -10 -10 -9 -9 -9 -9 -9 -9 -9 -9 -9 -9 -9 -9
-11 -11 -11 -11 -11 -10 -11 -10 -10 -10 -10 -11 -10 -10 -10 -11 -10 -10 -9 -10 -10 -9 -9 -10 -10 -10 -10 -10 -10 -10 -10 -11 -10 -10 -10 -10 -10 -11 -10 -10 -9 -10 -10 -9 -9 -9 -9 -9 -9 -9 -9 -9 -9 -9
-11 -11 -10 -11 -10 -11 -11 -11 -11 -11 -11 -11 -11 -11 -11 -11 -10 -10 -10 -10 -10 -10 -10 -10 -10 -10 -10 -10 -10 -10 -10 -10 -10 -10 -10 -10 -10 -10 -10 -10 -10 -9 -9 -10 -10 -10 -9 -9 -9 -9 -9 -9 -9 -9
-11 -11 -11 -11 -11 -11 -10 -11 -11 -11 -11 -11 -11 -11 -11 -11 -11 -10 -10 -10 -10 -10 -10 -10 -10 -10 -10 -10 -10 -10 -10 -10 -10 -10 -10 -10 -10 -11 -10 -10 -10 -10 -10 -10 -10 -10 -10 -10 -10 -10 -10 -10 -10 -10
-11 -11 -11 -11 -11 -11 -11 -11 -11 -11 -11 -12 -12 -12 -12 -12 -11 -11 -11 -11 -11 -11 -11 -10 -10 -10 -10 -10 -10 -10 -10 -10 -10 -10 -10 -11 -11 -11 -11 -11 -11 -11 -11 -11 -11 -11 -11 -11 -11 -11 -11 -11 -10 -10
-11 -12 -11 -11 -11 -11 -12 -12 -12 -12 -12 -12 -12 -12 -12 -11 -11 -11 -11 -11 -10 -10 -10 -10 -10 -10 -10 -10 -11 -11 -11 -12 -12 -12 -12 -12 -12 -12 -13 -13 -13 -13 -13 -13 -13 -13 -13 -13 -13 -12 -12 -12 -12 -11
-12 -12 -12 -12 -12 -12 -12 -13 -13 -12 -12 -12 -11 -11 -11 -11 -11 -11 -11 -11 -11 -11 -11 -11 -11 -11 -11 -12 -12 -12 -12 -13 -13 -13 -13 -13 -13 -13 -13 -13 -13 -14 -14 -14 -14 -14 -15 -14 -14 -14 -14 -13 -13 -12
-12 -12 -13 -13 -13 -13 -12 -12 -12 -11 -11 -11 -10 -10 -10 -10 -10 -11 -11 -11 -12 -12 -12 -12 -12 -12 -12 -12 -13 -13 -13 -13 -14 -14 -14 -14 -14 -14 -14 -14 -15 -15 -15 -15 -15 -16 -16 -16 -16 -15 -15 -14 -14 -13

GFSWCAN_700_temp_087.txt.gz
Temp
-9 -6 -3 -2 -0 0 -0 -0 -0 0 -1 0 0 0 0 0 0 0 0 0 -0 -0 -0 -1 -0 -1 -1 -2 -3 -4 -5 -5 -6 -7 -8 -8 -7 -7 -6 -6 -5 -5 -5 -5 -5 -5 -3 -3 -3 -4 -3 -3 -3 -3
-8 -5 -4 -3 -1 -2 -1 -0 -0 -0 -3 -2 -1 -0 0 -0 -0 -0 -0 -0 -0 -1 -1 -1 -1 -1 -1 -2 -3 -4 -5 -5 -5 -6 -6 -7 -8 -7 -7 -5 -5 -5 -5 -4 -4 -4 -3 -3 -3 -3 -3 -4 -4 -4
-6 -5 -4 -1 -1 -1 -1 -1 -0 -0 -0 -2 -1 -1 -0 -1 -1 -1 -1 -1 -1 -1 -1 -1 -1 -1 -2 -3 -4 -5 -5 -6 -5 -6 -6 -7 -7 -7 -7 -6 -6 -6 -5 -5 -5 -4 -4 -3 -4 -4 -4 -4 -4 -4
-5 -4 -3 -2 -1 -1 -1 -0 -0 -0 -1 -1 -4 -2 -1 -1 -1 -1 -1 -1 -1 -1 -1 -1 -1 -2 -2 -4 -5 -6 -6 -6 -6 -6 -6 -7 -7 -8 -8 -8 -7 -7 -7 -6 -5 -5 -4 -4 -4 -4 -4 -4 -4 -4
-5 -4 -5 -2 -1 -1 -1 -0 -1 -0 -0 -1 -4 -3 -2 -2 -2 -2 -1 -1 -2 -2 -2 -2 -2 -3 -4 -5 -6 -6 -6 -6 -6 -7 -7 -7 -7 -8 -8 -8 -5 -6 -7 -8 -7 -6 -5 -5 -4 -4 -4 -4 -4 -4
-4 -4 -5 -1 -1 -1 -1 -0 -0 -0 -1 -1 -1 -5 -5 -3 -2 -2 -2 -1 -2 -2 -2 -2 -2 -3 -5 -6 -6 -6 -6 -6 -6 -7 -7 -7 -8 -9 -9 -10 -6 -8 -9 -9 -8 -8 -5 -5 -5 -4 -4 -4 -4 -4
-5 -4 -4 -1 -1 -1 -1 -1 -1 -1 -1 -1 -2 -5 -4 -3 -3 -2 -2 -1 -2 -2 -2 -2 -3 -4 -5 -6 -6 -6 -6 -6 -6 -7 -7 -7 -8 -9 -10 -8 -8 -9 -9 -9 -8 -7 -6 -6 -5 -5 -5 -5 -4 -4
-4 -5 -2 -1 -1 -1 -2 -1 -1 -1 -1 -2 -3 -6 -4 -3 -3 -3 -2 -2 -2 -2 -2 -2 -4 -5 -6 -6 -6 -6 -6 -6 -6 -8 -7 -7 -9 -9 -8 -8 -9 -9 -10 -9 -9 -9 -6 -5 -5 -5 -5 -5 -5 -5
-4 -4 -2 -1 -1 -1 -2 -2 -1 -1 -1 -2 -3 -6 -4 -3 -3 -3 -3 -2 -3 -3 -3 -3 -4 -5 -6 -6 -6 -6 -6 -6 -7 -7 -7 -8 -7 -7 -8 -8 -8 -9 -10 -8 -8 -8 -7 -5 -5 -5 -5 -5 -5 -5
-4 -2 -1 -1 -1 -1 -2 -2 -1 -2 -2 -3 -7 -6 -4 -4 -4 -3 -3 -4 -4 -2 -3 -3 -4 -5 -6 -6 -6 -7 -7 -8 -9 -7 -7 -7 -6 -7 -8 -8 -8 -8 -9 -9 -7 -7 -6 -6 -5 -5 -5 -5 -5 -5
-3 -2 -1 -1 -1 -2 -2 -2 -2 -2 -3 -4 -7 -6 -4 -5 -4 -4 -5 -4 -4 -4 -4 -4 -5 -6 -6 -6 -7 -7 -7 -8 -8 -8 -8 -7 -6 -7 -7 -7 -7 -8 -7 -8 -7 -6 -6 -6 -5 -5 -5 -5 -5 -5
-2 -2 -1 -1 -2 -2 -2 -2 -2 -2 -3 -5 -7 -6 -5 -5 -6 -6 -5 -4 -4 -4 -4 -5 -6 -6 -6 -6 -7 -7 -8 -8 -8 -8 -8 -7 -6 -7 -7 -7 -7 -7 -7 -7 -7 -6 -6 -6 -5 -5 -5 -5 -5 -5
-1 -2 -2 -1 -3 -2 -3 -4 -4 -4 -6 -9 -8 -6 -6 -7 -7 -6 -4 -4 -3 -3 -4 -5 -6 -6 -6 -7 -7 -7 -8 -9 -8 -9 -7 -6 -7 -7 -7 -6 -7 -7 -7 -7 -7 -6 -6 -6 -6 -6 -5 -5 -6 -6
-2 -2 -1 -2 -3 -3 -4 -4 -5 -8 -9 -8 -8 -7 -6 -6 -6 -5 -3 -3 -3 -3 -5 -6 -6 -6 -6 -7 -7 -9 -9 -8 -8 -8 -7 -7 -7 -7 -6 -6 -7 -7 -7 -6 -7 -7 -6 -6 -6 -6 -6 -6 -7 -7
-1 -2 -2 -3 -3 -4 -5 -5 -7 -9 -9 -8 -8 -7 -6 -6 -4 -4 -4 -4 -4 -4 -5 -6 -7 -6 -6 -7 -8 -9 -9 -8 -8 -7 -7 -7 -7 -6 -6 -6 -7 -7 -7 -7 -7 -7 -6 -7 -7 -7 -7 -7 -7 -7
-2 -3 -4 -4 -4 -5 -6 -7 -10 -9 -8 -8 -7 -6 -6 -6 -5 -4 -4 -4 -5 -5 -6 -7 -7 -7 -7 -7 -8 -8 -8 -7 -7 -7 -7 -7 -7 -7 -6 -7 -7 -7 -7 -8 -7 -7 -7 -7 -7 -7 -7 -7 -7 -7
-4 -4 -5 -5 -6 -6 -9 -9 -10 -9 -8 -7 -7 -6 -7 -5 -5 -5 -5 -5 -6 -6 -7 -7 -7 -7 -7 -8 -8 -8 -7 -7 -7 -7 -7 -7 -7 -7 -7 -7 -7 -8 -8 -8 -8 -8 -7 -7 -8 -8 -8 -7 -7 -7
-4 -5 -6 -7 -7 -9 -11 -11 -9 -8 -7 -7 -7 -7 -6 -5 -5 -5 -5 -6 -7 -7 -7 -7 -7 -7 -7 -7 -6 -7 -7 -8 -8 -8 -8 -8 -8 -7 -7 -7 -7 -8 -8 -8 -8 -8 -8 -8 -9 -8 -8 -8 -8 -8
-5 -6 -8 -9 -10 -10 -9 -9 -8 -8 -7 -7 -7 -7 -6 -6 -6 -6 -7 -7 -8 -8 -8 -8 -8 -7 -7 -7 -7 -8 -8 -8 -8 -8 -9 -9 -9 -9 -8 -8 -8 -8 -8 -8 -8 -8 -8 -8 -8 -8 -9 -8 -8 -8
-7 -8 -9 -9 -9 -9 -8 -8 -8 -8 -8 -8 -8 -7 -6 -6 -7 -7 -7 -8 -8 -9 -9 -8 -6 -6 -7 -8 -8 -8 -9 -9 -8 -8 -9 -9 -9 -9 -9 -9 -9 -9 -8 -8 -8 -8 -8 -8 -8 -9 -9 -9 -8 -8
-8 -8 -8 -8 -9 -9 -8 -8 -8 -9 -8 -8 -8 -8 -7 -7 -7 -8 -8 -9 -9 -8 -7 -7 -8 -8 -9 -9 -9 -8 -8 -9 -9 -9 -9 -10 -10 -10 -10 -9 -9 -9 -9 -9 -9 -9 -9 -9 -9 -9 -9 -10 -9 -9
-9 -9 -9 -9 -8 -9 -9 -9 -9 -9 -9 -8 -8 -8 -8 -8 -8 -9 -9 -9 -8 -8 -8 -8 -8 -8 -8 -8 -8 -8 -8 -8 -9 -9 -10 -10 -10 -10 -10 -10 -10 -9 -9 -9 -9 -9 -9 -9 -9 -9 -9 -10 -9 -9
-9 -9 -9 -9 -10 -10 -10 -10 -10 -9 -9 -9 -8 -9 -9 -9 -9 -9 -9 -9 -8 -8 -8 -8 -8 -8 -8 -8 -8 -9 -9 -9 -9 -9 -10 -10 -10 -10 -10 -10 -10 -10 -10 -10 -10 -10 -10 -10 -9 -10 -10 -10 -10 -9
-9 -9 -10 -10 -11 -10 -10 -10 -9 -9 -9 -9 -9 -9 -9 -9 -9 -9 -9 -8 -9 -8 -8 -8 -8 -8 -8 -9 -9 -9 -9 -10 -10 -10 -10 -11 -11 -11 -11 -11 -11 -10 -10 -10 -10 -10 -10 -10 -10 -10 -10 -10 -10 -10
-11 -11 -11 -11 -10 -10 -10 -9 -9 -9 -9 -9 -9 -9 -9 -9 -9 -9 -9 -9 -8 -9 -8 -8 -8 -9 -9 -9 -9 -9 -9 -10 -10 -10 -10 -11 -11 -11 -11 -10 -10 -10 -10 -10 -10 -10 -10 -10 -10 -10 -10 -10 -10 -10
-11 -11 -10 -10 -10 -10 -10 -10 -9 -9 -9 -10 -10 -10 -9 -10 -10 -9 -9 -9 -9 -9 -9 -9 -9 -9 -9 -9 -10 -10 -10 -10 -10 -10 -10 -10 -11 -11 -10 -10 -10 -11 -10 -10 -10 -10 -10 -10 -10 -9 -9 -9 -9 -9
-11 -11 -10 -10 -10 -10 -10 -10 -10 -10 -10 -10 -10 -10 -10 -10 -10 -9 -9 -9 -10 -10 -9 -9 -9 -9 -10 -10 -10 -10 -10 -10 -10 -11 -11 -11 -11 -10 -10 -10 -10 -10 -10 -10 -10 -10 -9 -9 -9 -9 -9 -9 -9 -9
-11 -10 -10 -10 -10 -10 -10 -10 -10 -11 -11 -10 -10 -10 -10 -10 -10 -10 -10 -10 -10 -10 -10 -10 -10 -10 -10 -10 -10 -10 -10 -10 -10 -11 -11 -11 -11 -10 -10 -10 -10 -10 -10 -9 -9 -10 -10 -10 -10 -9 -9 -9 -9 -9
-11 -10 -10 -10 -11 -11 -11 -11 -11 -11 -11 -11 -11 -11 -11 -11 -11 -11 -10 -10 -10 -10 -10 -10 -10 -10 -10 -10 -10 -10 -10 -10 -10 -10 -11 -11 -11 -11 -11 -11 -11 -10 -10 -10 -10 -10 -10 -10 -10 -10 -10 -10 -10 -10
-11 -11 -11 -11 -11 -11 -11 -11 -11 -11 -11 -11 -11 -11 -11 -11 -11 -11 -11 -11 -10 -10 -10 -10 -10 -10 -10 -10 -10 -10 -10 -11 -11 -11 -11 -11 -12 -12 -12 -12 -11 -11 -11 -11 -11 -12 -12 -12 -12 -12 -12 -12 -12 -11
-11 -11 -11 -12 -11 -11 -11 -11 -11 -11 -11 -11 -11 -12 -12 -12 -11 -11 -11 -11 -10 -10 -10 -10 -10 -10 -10 -10 -10 -11 -12 -12 -12 -12 -12 -12 -12 -12 -12 -13 -13 -13 -13 -13 -13 -13 -13 -13 -13 -13 -13 -13 -13 -13
-12 -12 -12 -12 -12 -12 -12 -12 -12 -12 -12 -12 -12 -11 -11 -11 -11 -10 -11 -10 -10 -10 -10 -10 -10 -11 -11 -12 -12 -12 -13 -13 -12 -12 -13 -13 -13 -13 -13 -14 -14 -14 -14 -14 -14 -14 -14 -14 -14 -14 -14 -14 -14 -14
-12 -12 -12 -12 -12 -12 -12 -12 -12 -12 -12 -11 -11 -11 -11 -11 -10 -10 -10 -10 -10 -11 -11 -11 -11 -12 -12 -13 -13 -13 -13 -13 -13 -13 -13 -14 -14 -14 -14 -14 -14 -15 -15 -15 -15 -15 -15 -16 -16 -16 -15 -16 -16 -16

GFSWCAN_700_temp_090.txt.gz
Temp
-9 -8 -8 -6 -5 -4 -3 -1 -2 -1 -1 -1 -1 -3 -3 -0 0 -0 0 0 -0 0 -0 -0 -0 -0 -1 -1 -2 -3 -4 -5 -5 -5 -6 -8 -8 -7 -6 -6 -6 -6 -6 -5 -6 -5 -4 -3 -3 -3 -3 -3 -3 -3
-8 -8 -7 -7 -4 -4 -4 -1 -1 -2 -1 -0 -2 -4 -2 -0 -1 -1 -0 -0 -0 -0 -1 -1 -1 -1 -1 -1 -2 -3 -4 -5 -5 -5 -6 -6 -6 -7 -7 -6 -6 -6 -5 -5 -5 -4 -4 -4 -4 -3 -4 -4 -4 -4
-8 -8 -7 -8 -6 -5 -4 -1 -2 -2 -1 -1 -1 -3 -2 -2 -1 -1 -0 -0 -1 -1 -1 -1 -1 -1 -1 -1 -2 -4 -5 -5 -5 -6 -6 -6 -6 -6 -7 -7 -6 -6 -6 -6 -5 -5 -5 -4 -4 -4 -4 -4 -4 -4
-8 -8 -7 -7 -6 -5 -2 -4 -2 -2 -1 -2 -4 -3 -2 -2 -2 -1 -1 -1 -1 -1 -1 -1 -1 -1 -2 -2 -3 -4 -5 -6 -6 -6 -6 -6 -6 -6 -6 -7 -6 -6 -6 -6 -6 -5 -5 -5 -5 -4 -4 -4 -4 -4
-7 -7 -7 -6 -6 -4 -1 -2 -3 -2 -1 -3 -3 -4 -4 -2 -2 -1 -1 -1 -1 -1 -1 -1 -1 -2 -2 -3 -4 -5 -5 -6 -6 -6 -6 -6 -6 -6 -6 -6 -5 -6 -7 -7 -8 -8 -7 -6 -5 -5 -4 -4 -4 -4
-8 -8 -7 -5 -5 -5 -2 -2 -3 -2 -1 -2 -5 -4 -3 -3 -2 -2 -2 -2 -2 -2 -2 -2 -2 -2 -3 -4 -5 -5 -5 -6 -6 -6 -6 -6 -6 -7 -7 -6 -6 -7 -7 -8 -8 -8 -7 -7 -6 -5 -5 -5 -4 -4
-8 -8 -5 -4 -5 -4 -2 -2 -3 -2 -2 -2 -6 -5 -4 -4 -3 -3 -2 -1 -2 -2 -2 -2 -2 -3 -3 -4 -5 -6 -6 -6 -6 -6 -6 -6 -7 -7 -7 -7 -8 -8 -9 -9 -9 -9 -8 -7 -7 -6 -5 -5 -5 -5
-8 -7 -4 -4 -5 -3 -2 -2 -3 -2 -2 -3 -3 -6 -6 -6 -4 -3 -2 -2 -2 -2 -2 -2 -2 -3 -4 -5 -6 -6 -6 -6 -6 -6 -7 -7 -7 -7 -7 -7 -7 -8 -9 -9 -10 -9 -8 -7 -7 -7 -5 -5 -5 -5
-7 -5 -5 -5 -5 -3 -2 -3 -3 -3 -2 -2 -2 -2 -6 -6 -4 -3 -3 -3 -3 -3 -3 -3 -2 -3 -5 -5 -6 -6 -6 -6 -7 -7 -7 -7 -6 -6 -7 -7 -8 -8 -8 -9 -9 -9 -8 -8 -7 -6 -6 -5 -5 -5
-5 -5 -5 -4 -4 -2 -2 -3 -3 -3 -2 -2 -3 -5 -7 -5 -4 -3 -3 -4 -4 -3 -3 -3 -3 -4 -4 -5 -6 -6 -6 -7 -8 -7 -7 -6 -5 -6 -7 -8 -7 -7 -7 -8 -7 -8 -8 -8 -7 -6 -6 -5 -5 -5
-5 -4 -4 -4 -2 -1 -3 -4 -3 -3 -3 -3 -4 -4 -6 -5 -4 -5 -6 -4 -3 -3 -3 -3 -3 -4 -5 -5 -6 -6 -7 -7 -8 -8 -8 -7 -5 -6 -7 -7 -7 -7 -7 -7 -7 -8 -7 -7 -6 -6 -5 -5 -5 -5
-4 -4 -4 -2 -2 -3 -4 -4 -3 -3 -2 -3 -3 -5 -6 -5 -5 -6 -5 -4 -4 -3 -3 -4 -4 -5 -6 -6 -6 -6 -7 -8 -9 -8 -8 -7 -6 -6 -7 -7 -6 -6 -7 -6 -6 -7 -7 -6 -6 -6 -5 -5 -5 -5
-5 -4 -3 -2 -3 -4 -4 -4 -3 -3 -3 -4 -7 -8 -8 -7 -6 -5 -5 -4 -3 -3 -2 -3 -4 -5 -6 -6 -6 -6 -7 -9 -9 -9 -8 -7 -6 -6 -6 -6 -6 -6 -6 -7 -7 -7 -6 -6 -6 -6 -6 -6 -6 -6
-4 -3 -3 -3 -4 -4 -4 -4 -3 -4 -4 -5 -7 -7 -6 -6 -5 -5 -4 -3 -3 -2 -3 -4 -6 -6 -6 -6 -6 -7 -8 -9 -9 -8 -7 -6 -7 -6 -6 -6 -6 -6 -6 -6 -6 -7 -6 -6 -6 -6 -6 -6 -6 -6
-4 -4 -3 -4 -5 -4 -4 -4 -4 -5 -5 -6 -6 -6 -5 -5 -5 -5 -5 -4 -3 -3 -4 -5 -6 -6 -6 -6 -7 -9 -9 -9 -8 -7 -7 -7 -7 -6 -6 -7 -7 -6 -7 -6 -7 -7 -7 -6 -7 -7 -7 -7 -7 -7
-4 -4 -4 -5 -5 -4 -4 -5 -5 -6 -6 -6 -6 -6 -6 -6 -5 -5 -5 -4 -4 -4 -5 -6 -6 -6 -6 -6 -7 -8 -9 -8 -6 -6 -7 -7 -7 -7 -7 -7 -7 -7 -7 -7 -7 -7 -7 -8 -7 -8 -8 -8 -8 -7
-4 -5 -5 -5 -5 -5 -5 -5 -6 -7 -7 -7 -7 -6 -5 -5 -6 -5 -5 -4 -5 -5 -5 -6 -6 -6 -7 -7 -7 -8 -6 -6 -7 -7 -7 -7 -7 -8 -8 -7 -7 -7 -7 -7 -7 -7 -8 -8 -7 -8 -9 -9 -8 -8
-4 -5 -5 -5 -5 -5 -6 -7 -8 -8 -8 -7 -7 -6 -6 -6 -6 -5 -5 -5 -5 -6 -6 -6 -6 -7 -6 -6 -6 -6 -6 -7 -7 -7 -7 -8 -8 -8 -8 -8 -8 -8 -8 -8 -8 -8 -8 -8 -8 -9 -9 -9 -8 -8
-4 -5 -5 -5 -5 -6 -8 -9 -8 -8 -8 -7 -6 -6 -6 -6 -5 -6 -6 -6 -6 -7 -7 -7 -7 -6 -6 -6 -7 -7 -7 -8 -8 -8 -8 -8 -8 -8 -9 -9 -9 -8 -9 -9 -9 -8 -8 -8 -8 -8 -9 -9 -8 -8
-4 -5 -6 -7 -7 -7 -9 -9 -8 -7 -7 -7 -7 -7 -7 -7 -6 -6 -6 -7 -7 -7 -7 -7 -5 -6 -7 -8 -7 -7 -8 -8 -8 -8 -8 -9 -9 -9 -9 -9 -9 -9 -9 -9 -9 -9 -9 -9 -8 -8 -8 -9 -8 -9
-6 -7 -8 -8 -8 -7 -8 -8 -8 -8 -7 -7 -7 -7 -7 -7 -7 -7 -7 -7 -7 -6 -6 -6 -7 -8 -8 -8 -9 -9 -9 -8 -9 -9 -9 -9 -9 -9 -10 -10 -10 -10 -9 -9 -9 -9 -9 -8 -9 -8 -8 -9 -9 -9
-7 -8 -8 -8 -8 -7 -7 -8 -8 -8 -8 -7 -8 -8 -8 -8 -7 -7 -8 -7 -6 -6 -7 -7 -7 -7 -7 -7 -8 -8 -8 -9 -9 -9 -9 -9 -9 -10 -10 -10 -10 -10 -10 -10 -10 -10 -10 -9 -9 -9 -9 -9 -9 -9
-8 -8 -8 -8 -8 -8 -9 -8 -8 -8 -9 -8 -9 -9 -8 -8 -8 -8 -8 -7 -7 -7 -8 -8 -7 -7 -7 -8 -8 -8 -8 -8 -9 -9 -9 -9 -10 -10 -11 -11 -11 -11 -11 -11 -11 -10 -11 -10 -10 -10 -10 -10 -10 -10
-7 -9 -9 -9 -9 -9 -9 -9 -9 -10 -9 -9 -9 -9 -9 -9 -8 -8 -8 -7 -8 -8 -8 -8 -8 -8 -8 -8 -8 -8 -9 -9 -9 -9 -10 -10 -10 -11 -11 -11 -11 -11 -11 -11 -10 -10 -10 -10 -10 -10 -10 -10 -10 -10
-9 -9 -9 -9 -9 -9 -10 -10 -10 -9 -9 -9 -9 -9 -8 -8 -9 -9 -8 -8 -8 -8 -8 -8 -8 -8 -8 -9 -9 -9 -9 -9 -10 -10 -10 -11 -11 -11 -12 -11 -11 -11 -10 -10 -10 -10 -10 -10 -9 -10 -9 -9 -9 -10
-10 -11 -10 -10 -10 -10 -10 -10 -10 -9 -9 -9 -9 -9 -9 -9 -9 -9 -8 -8 -8 -9 -9 -9 -9 -9 -9 -9 -9 -9 -10 -10 -10 -10 -10 -10 -11 -11 -11 -11 -11 -11 -11 -10 -10 -10 -10 -9 -9 -9 -9 -9 -9 -9
-11 -11 -10 -10 -10 -10 -10 -10 -9 -9 -9 -9 -9 -9 -9 -9 -9 -9 -9 -9 -9 -9 -10 -9 -9 -9 -10 -10 -10 -10 -10 -10 -10 -10 -11 -11 -11 -11 -11 -10 -10 -10 -10 -10 -10 -10 -9 -9 -9 -9 -9 -9 -9 -9
-11 -11 -11 -11 -10 -10 -10 -9 -9 -9 -9 -9 -9 -9 -9 -9 -9 -9 -9 -9 -10 -10 -10 -10 -10 -10 -10 -10 -10 -10 -10 -10 -10 -10 -10 -11 -11 -11 -10 -10 -10 -10 -10 -10 -10 -10 -10 -10 -10 -10 -10 -10 -10 -10
-11 -11 -10 -10 -10 -10 -10 -10 -10 -10 -10 -10 -10 -10 -10 -10 -10 -10 -10 -10 -10 -10 -11 -11 -11 -11 -11 -10 -10 -10 -10 -10 -10 -10 -11 -11 -11 -10 -10 -10 -11 -11 -11 -11 -11 -11 -11 -11 -11 -11 -11 -12 -12 -12
-12 -11 -10 -10 -11 -11 -10 -10 -10 -10 -10 -10 -10 -10 -10 -10 -11 -11 -11 -11 -11 -11 -11 -11 -11 -11 -11 -10 -10 -10 -10 -10 -10 -10 -10 -10 -10 -11 -11 -11 -11 -12 -12 -12 -12 -13 -13 -13 -13 -13 -13 -13 -13 -13
-11 -11 -11 -11 -11 -11 -11 -11 -11 -11 -11 -11 -11 -11 -11 -11 -11 -11 -12 -11 -11 -11 -11 -11 -11 -11 -10 -10 -10 -11 -11 -11 -11 -11 -11 -11 -11 -11 -12 -12 -12 -12 -12 -12 -13 -13 -13 -14 -14 -14 -14 -14 -14 -14
-11 -11 -11 -11 -11 -11 -11 -11 -11 -11 -11 -11 -11 -11 -11 -11 -11 -11 -11 -11 -11 -11 -11 -10 -10 -11 -11 -11 -11 -11 -11 -11 -11 -11 -11 -11 -12 -12 -12 -13 -13 -13 -13 -14 -14 -14 -14 -14 -15 -15 -15 -15 -15 -15
-12 -12 -12 -12 -12 -11 -11 -11 -11 -11 -12 -12 -12 -11 -11 -11 -11 -10 -11 -11 -11 -11 -11 -11 -11 -12 -12 -12 -12 -12 -12 -12 -12 -12 -12 -13 -13 -13 -13 -14 -14 -14 -14 -15 -15 -15 -16 -16 -16 -16 -16 -16 -16 -16

GFSWCAN_700_temp_093.txt.gz
Temp
-9 -9 -8 -7 -7 -6 -6 -5 -2 -4 -2 -2 -2 -2 -2 -1 -1 0 -1 -1 -0 0 0 0 -0 -0 -0 -1 -1 -2 -3 -3 -4 -4 -4 -5 -6 -6 -6 -6 -6 -6 -6 -6 -7 -6 -5 -4 -4 -4 -4 -3 -3 -3
-10 -9 -8 -7 -7 -6 -7 -5 -2 -2 -2 -1 -2 -2 -3 -1 -1 -2 -1 -1 -1 -0 -0 -0 -0 -1 -1 -1 -1 -2 -3 -4 -4 -4 -4 -5 -5 -6 -6 -6 -6 -6 -6 -6 -5 -5 -5 -5 -5 -5 -4 -4 -4 -4
-10 -9 -8 -7 -6 -6 -5 -5 -3 -3 -2 -2 -3 -2 -2 -2 -2 -1 -2 -1 -1 -1 -1 -1 -1 -1 -1 -1 -2 -2 -3 -4 -5 -5 -5 -5 -6 -6 -7 -7 -6 -6 -6 -6 -5 -5 -5 -5 -5 -5 -5 -4 -4 -4
-10 -9 -8 -7 -7 -6 -6 -5 -5 -2 -2 -3 -3 -2 -3 -4 -4 -2 -1 -2 -2 -1 -1 -0 -1 -1 -1 -2 -2 -3 -3 -4 -5 -5 -5 -5 -6 -6 -6 -6 -6 -6 -6 -6 -6 -5 -5 -6 -6 -5 -5 -4 -4 -4
-10 -9 -8 -7 -7 -7 -5 -4 -3 -3 -4 -3 -3 -2 -3 -4 -4 -2 -2 -2 -2 -1 -1 -1 -2 -1 -2 -2 -3 -3 -4 -5 -5 -5 -5 -6 -5 -6 -5 -5 -5 -6 -6 -7 -7 -7 -7 -6 -7 -6 -5 -5 -4 -4
-9 -9 -8 -8 -7 -7 -5 -5 -5 -4 -4 -3 -3 -2 -5 -4 -4 -3 -3 -3 -2 -2 -1 -2 -2 -2 -2 -3 -3 -4 -5 -5 -5 -5 -5 -5 -5 -6 -5 -5 -6 -7 -7 -7 -8 -9 -9 -8 -8 -6 -6 -5 -5 -5
-9 -8 -8 -8 -7 -6 -6 -5 -4 -4 -4 -3 -4 -5 -5 -5 -4 -3 -3 -2 -2 -2 -2 -2 -2 -2 -3 -4 -4 -4 -5 -5 -5 -5 -5 -5 -5 -6 -5 -5 -7 -8 -8 -8 -9 -9 -9 -9 -9 -8 -7 -6 -5 -5
-9 -8 -8 -8 -7 -6 -6 -5 -4 -5 -4 -4 -4 -6 -6 -5 -4 -3 -3 -2 -2 -2 -2 -2 -2 -3 -4 -4 -4 -5 -5 -5 -5 -5 -5 -5 -6 -6 -5 -6 -7 -7 -8 -8 -9 -9 -10 -10 -9 -7 -6 -6 -5 -5
-9 -8 -8 -7 -6 -5 -5 -5 -5 -5 -4 -4 -3 -7 -6 -4 -4 -3 -3 -3 -2 -3 -3 -3 -2 -2 -4 -4 -5 -5 -6 -6 -6 -6 -6 -6 -6 -5 -6 -6 -6 -7 -7 -7 -8 -8 -9 -9 -8 -7 -6 -6 -5 -5
-9 -8 -8 -7 -6 -5 -5 -4 -4 -5 -4 -4 -5 -8 -6 -5 -4 -4 -4 -3 -3 -3 -3 -3 -3 -2 -3 -4 -5 -6 -6 -6 -7 -7 -6 -6 -5 -5 -6 -6 -6 -7 -7 -7 -7 -8 -8 -9 -8 -8 -7 -6 -6 -5
-8 -9 -7 -6 -5 -5 -4 -4 -4 -4 -4 -5 -5 -8 -8 -7 -7 -5 -4 -4 -4 -4 -3 -3 -4 -3 -4 -4 -5 -6 -6 -7 -8 -9 -7 -7 -5 -6 -6 -6 -6 -6 -6 -7 -7 -7 -7 -7 -7 -6 -6 -6 -6 -5
-9 -8 -7 -6 -5 -4 -4 -4 -3 -4 -4 -4 -4 -5 -6 -8 -6 -5 -6 -5 -4 -3 -3 -4 -4 -4 -4 -4 -5 -6 -7 -7 -9 -9 -8 -6 -6 -6 -6 -6 -6 -6 -6 -6 -7 -7 -7 -7 -6 -6 -6 -6 -6 -5
-9 -7 -6 -5 -4 -4 -4 -4 -4 -4 -4 -5 -6 -7 -8 -7 -6 -6 -5 -5 -3 -3 -2 -3 -4 -5 -5 -5 -6 -6 -7 -9 -9 -9 -7 -5 -6 -6 -6 -6 -6 -6 -6 -6 -7 -7 -7 -6 -6 -6 -5 -5 -6 -6
-8 -6 -5 -5 -4 -4 -5 -5 -5 -5 -5 -5 -5 -6 -6 -5 -5 -4 -3 -3 -2 -2 -2 -4 -4 -4 -5 -6 -6 -6 -8 -9 -10 -9 -6 -6 -6 -6 -6 -6 -6 -6 -6 -6 -6 -7 -7 -7 -7 -6 -6 -6 -6 -6
-6 -5 -6 -5 -4 -5 -5 -5 -5 -5 -5 -5 -5 -4 -4 -4 -4 -4 -4 -4 -3 -2 -3 -4 -5 -4 -5 -5 -6 -7 -9 -9 -8 -6 -6 -6 -7 -7 -7 -7 -7 -6 -6 -6 -6 -7 -7 -7 -7 -7 -7 -6 -6 -7
-6 -6 -6 -5 -5 -5 -5 -6 -5 -5 -5 -5 -4 -4 -4 -4 -3 -3 -4 -4 -3 -3 -4 -5 -5 -5 -5 -5 -6 -9 -9 -7 -6 -6 -7 -7 -7 -7 -7 -7 -7 -7 -6 -7 -7 -7 -7 -7 -8 -8 -8 -8 -8 -8
-7 -6 -6 -6 -6 -6 -6 -6 -6 -6 -5 -5 -5 -4 -4 -4 -4 -4 -5 -4 -4 -4 -4 -5 -5 -5 -5 -6 -6 -6 -5 -6 -6 -6 -7 -7 -7 -7 -7 -7 -7 -7 -7 -7 -7 -8 -8 -8 -9 -8 -8 -9 -9 -8
-7 -6 -5 -6 -6 -6 -6 -6 -7 -6 -6 -5 -5 -4 -4 -4 -5 -5 -4 -5 -5 -5 -5 -5 -5 -5 -5 -5 -5 -5 -6 -6 -6 -7 -7 -8 -8 -8 -8 -8 -8 -9 -8 -8 -8 -8 -9 -9 -9 -9 -9 -9 -9 -9
-5 -5 -5 -6 -6 -6 -7 -7 -7 -7 -7 -6 -5 -5 -5 -5 -5 -6 -5 -5 -5 -6 -6 -6 -6 -5 -5 -5 -6 -6 -7 -7 -7 -7 -7 -8 -8 -8 -8 -8 -9 -9 -9 -9 -9 -9 -9 -9 -9 -9 -9 -9 -9 -9
-5 -5 -6 -6 -7 -7 -8 -8 -7 -7 -7 -6 -6 -5 -6 -6 -6 -6 -6 -6 -6 -6 -6 -6 -5 -6 -6 -6 -7 -7 -7 -7 -7 -8 -8 -8 -8 -8 -8 -9 -9 -9 -10 -10 -9 -9 -9 -9 -9 -9 -9 -9 -9 -9
-6 -7 -7 -7 -7 -7 -7 -8 -7 -7 -7 -6 -6 -6 -6 -7 -6 -6 -6 -7 -7 -6 -5 -5 -6 -7 -7 -7 -8 -7 -7 -7 -8 -8 -8 -8 -9 -9 -9 -10 -10 -10 -10 -10 -10 -10 -10 -10 -10 -10 -9 -9 -9 -10
-6 -7 -7 -8 -7 -7 -8 -8 -7 -6 -6 -6 -7 -7 -7 -7 -7 -7 -7 -7 -6 -5 -6 -7 -7 -7 -7 -7 -7 -7 -8 -8 -8 -8 -8 -8 -8 -9 -9 -10 -11 -11 -11 -11 -11 -11 -11 -11 -10 -10 -10 -10 -10 -10
-7 -8 -8 -8 -7 -7 -8 -7 -7 -6 -7 -7 -7 -7 -8 -8 -8 -8 -8 -7 -6 -7 -7 -6 -7 -7 -7 -8 -8 -8 -8 -8 -8 -8 -8 -9 -9 -9 -10 -11 -11 -11 -11 -11 -11 -11 -11 -11 -11 -11 -11 -11 -11 -10
-8 -9 -8 -8 -7 -7 -8 -7 -7 -7 -7 -7 -8 -9 -8 -8 -8 -8 -7 -6 -7 -7 -7 -7 -7 -8 -8 -7 -7 -7 -7 -8 -8 -8 -9 -9 -10 -10 -10 -11 -11 -12 -12 -11 -11 -11 -11 -10 -10 -10 -10 -10 -10 -10
-8 -8 -8 -8 -8 -7 -8 -8 -8 -8 -8 -8 -8 -9 -9 -9 -8 -8 -7 -7 -7 -7 -7 -8 -8 -8 -8 -8 -8 -8 -8 -8 -9 -9 -9 -9 -10 -11 -11 -11 -11 -11 -11 -11 -10 -10 -10 -10 -10 -10 -9 -9 -9 -9
-8 -9 -9 -9 -8 -8 -8 -9 -8 -8 -8 -9 -9 -9 -9 -8 -8 -8 -7 -7 -8 -8 -8 -8 -8 -8 -8 -9 -9 -9 -9 -9 -9 -9 -10 -10 -10 -10 -11 -11 -11 -11 -10 -10 -10 -10 -10 -10 -10 -10 -9 -9 -9 -9
-9 -10 -9 -9 -9 -8 -8 -9 -9 -9 -9 -9 -9 -9 -9 -8 -8 -8 -8 -8 -9 -9 -9 -9 -9 -9 -9 -9 -9 -9 -10 -10 -10 -10 -10 -10 -10 -11 -11 -11 -11 -10 -10 -10 -10 -10 -10 -10 -10 -10 -10 -10 -10 -9
-10 -9 -10 -9 -9 -9 -9 -9 -10 -10 -9 -9 -8 -9 -9 -9 -8 -8 -9 -9 -9 -9 -10 -10 -10 -10 -10 -10 -10 -10 -10 -10 -10 -10 -10 -10 -10 -10 -11 -10 -10 -10 -10 -10 -10 -10 -10 -10 -10 -10 -11 -11 -11 -11
-10 -10 -10 -10 -10 -10 -10 -10 -10 -9 -9 -9 -9 -9 -9 -9 -9 -9 -10 -10 -10 -10 -10 -10 -11 -10 -10 -10 -10 -10 -10 -10 -10 -10 -10 -11 -11 -11 -11 -10 -10 -10 -11 -11 -11 -11 -12 -12 -12 -12 -12 -12 -12 -12
-11 -11 -11 -11 -11 -10 -10 -9 -9 -9 -9 -9 -10 -10 -10 -10 -10 -10 -10 -10 -10 -11 -11 -11 -11 -11 -11 -11 -10 -10 -10 -10 -10 -11 -11 -11 -11 -11 -11 -11 -12 -12 -12 -12 -12 -13 -13 -13 -13 -13 -13 -13 -13 -13
-11 -11 -11 -10 -10 -10 -10 -10 -10 -10 -10 -10 -10 -10 -10 -10 -10 -11 -11 -11 -11 -11 -11 -11 -11 -11 -11 -10 -10 -10 -10 -11 -11 -11 -11 -11 -12 -12 -12 -13 -13 -13 -13 -13 -13 -14 -14 -14 -14 -14 -14 -14 -14 -14
-12 -11 -11 -11 -11 -11 -11 -11 -11 -11 -11 -11 -11 -11 -11 -11 -11 -11 -11 -11 -11 -11 -11 -11 -10 -10 -10 -10 -10 -11 -11 -11 -12 -12 -12 -12 -13 -13 -13 -13 -14 -14 -14 -14 -14 -15 -15 -15 -15 -15 -15 -15 -15 -15
-12 -12 -11 -11 -11 -11 -11 -11 -11 -11 -11 -11 -11 -11 -11 -11 -11 -11 -11 -11 -11 -11 -11 -10 -10 -10 -11 -11 -12 -12 -12 -12 -13 -13 -13 -13 -13 -13 -13 -14 -14 -14 -15 -15 -15 -16 -16 -16 -16 -16 -16 -17 -17 -17

GFSWCAN_700_temp_096.txt.gz
Temp
-9 -9 -9 -9 -7 -6 -6 -6 -5 -3 -5 -3 -3 -3 -2 -2 -2 -3 -2 -1 -1 -1 -0 0 0 -0 -0 -0 -1 -1 -2 -2 -3 -4 -4 -4 -5 -5 -6 -7 -6 -6 -6 -7 -7 -7 -6 -4 -4 -4 -5 -5 -4 -4
-9 -9 -9 -9 -7 -6 -6 -6 -5 -4 -3 -3 -3 -2 -2 -3 -3 -3 -2 -0 -1 -1 -1 -1 -0 -0 -1 -1 -1 -1 -2 -3 -3 -4 -4 -4 -4 -5 -5 -6 -6 -6 -6 -6 -6 -6 -5 -5 -5 -5 -5 -4 -5 -4
-9 -9 -9 -9 -7 -6 -6 -6 -4 -3 -3 -3 -3 -2 -3 -2 -3 -3 -2 -1 -0 -1 -1 -1 -0 -0 -1 -1 -1 -2 -2 -3 -4 -4 -4 -4 -5 -5 -5 -5 -5 -6 -6 -6 -6 -6 -5 -5 -6 -5 -5 -5 -5 -4
-9 -9 -8 -9 -7 -7 -6 -5 -5 -3 -4 -3 -3 -2 -3 -3 -3 -2 -2 -2 -2 -2 -2 -1 -1 -1 -1 -1 -1 -2 -3 -3 -4 -5 -5 -5 -5 -5 -5 -5 -5 -5 -6 -6 -6 -6 -6 -6 -6 -6 -6 -5 -5 -5
-9 -8 -9 -9 -7 -7 -6 -5 -4 -5 -3 -3 -3 -3 -4 -4 -3 -2 -3 -2 -2 -2 -2 -2 -1 -1 -1 -1 -2 -2 -3 -4 -5 -5 -5 -5 -5 -5 -5 -5 -4 -5 -6 -6 -7 -7 -7 -8 -8 -8 -8 -6 -5 -5
-8 -8 -9 -8 -8 -8 -6 -5 -5 -5 -3 -3 -3 -3 -3 -4 -4 -4 -4 -4 -3 -3 -3 -2 -2 -2 -2 -2 -2 -3 -3 -4 -5 -5 -5 -5 -5 -5 -5 -4 -5 -5 -6 -7 -7 -8 -8 -8 -9 -9 -8 -7 -6 -6
-9 -9 -9 -8 -9 -8 -7 -5 -6 -4 -4 -4 -3 -4 -3 -5 -4 -5 -5 -4 -3 -3 -3 -3 -2 -2 -2 -2 -3 -3 -4 -4 -5 -5 -5 -5 -5 -5 -5 -4 -5 -6 -7 -8 -8 -8 -8 -9 -10 -9 -8 -7 -6 -5
-10 -9 -9 -8 -8 -7 -6 -6 -7 -4 -4 -4 -4 -4 -3 -4 -6 -5 -5 -3 -3 -3 -3 -3 -2 -3 -3 -3 -3 -4 -4 -4 -4 -5 -5 -5 -5 -5 -4 -4 -5 -6 -6 -6 -6 -7 -8 -9 -10 -10 -9 -8 -6 -6
-10 -9 -8 -8 -8 -7 -6 -6 -5 -5 -5 -5 -5 -5 -5 -6 -5 -5 -4 -3 -3 -3 -3 -3 -2 -2 -3 -3 -4 -4 -5 -5 -5 -5 -5 -5 -5 -4 -4 -5 -5 -6 -5 -6 -6 -7 -8 -8 -9 -9 -8 -7 -7 -6
-10 -9 -8 -9 -7 -7 -6 -5 -6 -5 -5 -5 -5 -5 -6 -7 -5 -5 -5 -4 -3 -3 -3 -3 -2 -2 -3 -3 -4 -5 -5 -5 -6 -5 -5 -6 -4 -5 -5 -5 -5 -5 -5 -6 -6 -7 -8 -8 -9 -8 -7 -6 -6 -6
-9 -9 -8 -8 -8 -7 -6 -5 -5 -5 -6 -5 -5 -6 -8 -8 -6 -6 -4 -4 -4 -3 -3 -3 -3 -3 -3 -4 -4 -5 -5 -5 -6 -7 -6 -5 -4 -5 -5 -5 -5 -5 -5 -6 -6 -7 -7 -7 -8 -7 -7 -6 -6 -6
-9 -9 -9 -8 -7 -7 -5 -6 -5 -5 -5 -5 -5 -6 -7 -7 -6 -5 -5 -4 -4 -3 -3 -3 -3 -4 -3 -4 -4 -5 -5 -6 -7 -8 -7 -5 -5 -5 -5 -5 -5 -5 -5 -5 -6 -6 -7 -7 -7 -6 -6 -6 -6 -6
-10 -9 -9 -8 -7 -7 -5 -6 -5 -5 -5 -6 -7 -9 -8 -7 -6 -6 -5 -5 -4 -4 -3 -2 -4 -5 -5 -5 -5 -5 -6 -7 -7 -8 -6 -5 -5 -5 -6 -6 -5 -5 -5 -5 -6 -6 -6 -6 -7 -7 -7 -6 -7 -6
-9 -8 -7 -7 -6 -5 -5 -5 -5 -5 -5 -6 -6 -7 -6 -5 -5 -5 -4 -3 -2 -2 -2 -3 -5 -6 -5 -5 -5 -5 -7 -7 -10 -9 -4 -4 -5 -6 -6 -6 -6 -6 -6 -6 -6 -6 -6 -6 -7 -7 -7 -7 -7 -7
-8 -8 -8 -7 -6 -6 -6 -6 -6 -5 -6 -5 -5 -4 -4 -3 -3 -3 -3 -3 -3 -2 -2 -4 -6 -4 -4 -5 -5 -6 -8 -8 -7 -4 -4 -5 -6 -6 -6 -7 -6 -7 -7 -6 -6 -6 -6 -7 -7 -7 -7 -7 -7 -7
-9 -8 -8 -7 -6 -6 -6 -7 -6 -6 -6 -5 -5 -3 -2 -2 -2 -3 -4 -4 -3 -2 -4 -5 -5 -5 -4 -4 -5 -5 -6 -4 -4 -4 -4 -5 -6 -7 -7 -7 -7 -7 -7 -7 -7 -7 -7 -7 -7 -8 -8 -8 -8 -9
-8 -7 -7 -6 -7 -7 -7 -7 -6 -6 -5 -5 -4 -2 -2 -2 -2 -2 -3 -4 -4 -3 -4 -5 -4 -4 -4 -4 -5 -4 -3 -3 -4 -5 -5 -6 -7 -7 -7 -7 -7 -7 -7 -8 -8 -8 -8 -8 -8 -8 -9 -9 -9 -9
-8 -7 -6 -6 -7 -7 -7 -7 -7 -6 -6 -5 -4 -3 -3 -3 -3 -3 -4 -5 -4 -4 -5 -4 -4 -4 -3 -4 -3 -3 -3 -4 -5 -5 -6 -7 -7 -7 -7 -8 -8 -8 -8 -8 -9 -9 -9 -9 -9 -9 -9 -9 -9 -9
-7 -6 -7 -7 -7 -7 -8 -7 -6 -6 -5 -4 -4 -4 -3 -4 -4 -4 -5 -5 -5 -5 -5 -5 -4 -4 -4 -4 -4 -4 -5 -5 -6 -6 -7 -7 -8 -8 -8 -8 -8 -8 -8 -8 -9 -9 -9 -9 -9 -9 -9 -9 -9 -9
-6 -7 -7 -7 -7 -8 -7 -7 -7 -6 -6 -5 -4 -4 -4 -4 -5 -5 -7 -6 -6 -6 -6 -6 -5 -5 -5 -5 -5 -5 -5 -6 -6 -7 -7 -8 -8 -8 -9 -9 -9 -9 -9 -9 -9 -10 -10 -10 -9 -9 -9 -9 -9 -9
-7 -7 -7 -7 -8 -7 -8 -8 -7 -6 -6 -5 -5 -5 -5 -5 -6 -6 -7 -6 -7 -6 -6 -5 -6 -6 -5 -5 -5 -6 -6 -6 -7 -7 -8 -8 -8 -9 -9 -9 -9 -9 -10 -10 -10 -10 -10 -10 -10 -10 -10 -10 -10 -10
-7 -7 -7 -8 -8 -7 -8 -7 -7 -7 -6 -5 -6 -5 -6 -6 -6 -7 -7 -6 -6 -5 -5 -6 -6 -6 -6 -5 -5 -6 -7 -7 -7 -8 -8 -8 -8 -9 -9 -9 -10 -10 -10 -11 -11 -11 -11 -11 -11 -11 -11 -11 -11 -11
-7 -8 -8 -8 -8 -7 -8 -7 -7 -6 -6 -6 -6 -7 -7 -7 -7 -7 -7 -6 -6 -6 -6 -6 -6 -6 -6 -6 -7 -7 -7 -8 -8 -8 -8 -8 -8 -9 -9 -10 -10 -10 -11 -11 -11 -11 -11 -11 -11 -11 -11 -10 -10 -10
-8 -9 -8 -8 -7 -7 -7 -7 -6 -6 -6 -7 -7 -7 -7 -7 -7 -8 -8 -6 -6 -6 -6 -6 -6 -6 -6 -7 -7 -8 -8 -8 -8 -8 -8 -8 -9 -9 -10 -10 -10 -11 -11 -11 -12 -11 -11 -11 -10 -10 -10 -10 -10 -10
-8 -8 -8 -8 -8 -7 -7 -7 -7 -7 -6 -7 -7 -8 -8 -9 -8 -8 -7 -6 -6 -6 -6 -6 -6 -7 -7 -8 -8 -7 -8 -8 -8 -8 -9 -9 -9 -10 -10 -10 -11 -11 -11 -11 -11 -11 -11 -10 -10 -10 -10 -10 -10 -10
-8 -9 -8 -8 -8 -7 -7 -7 -7 -7 -7 -7 -8 -8 -8 -8 -8 -8 -7 -7 -7 -7 -7 -7 -7 -8 -8 -8 -8 -8 -8 -9 -9 -9 -9 -9 -9 -10 -10 -10 -10 -10 -11 -11 -10 -10 -10 -10 -10 -10 -10 -10 -10 -10
-8 -8 -8 -7 -7 -7 -7 -7 -7 -7 -8 -8 -8 -8 -8 -8 -8 -7 -7 -7 -7 -7 -8 -8 -8 -8 -8 -9 -9 -9 -9 -9 -9 -9 -10 -10 -10 -10 -10 -10 -10 -10 -10 -10 -10 -10 -10 -10 -10 -10 -11 -11 -11 -11
-9 -8 -9 -8 -8 -8 -8 -8 -8 -8 -9 -8 -8 -9 -8 -8 -7 -7 -7 -8 -8 -8 -8 -9 -9 -9 -9 -10 -10 -10 -10 -10 -10 -10 -10 -10 -10 -10 -10 -10 -10 -10 -10 -11 -11 -11 -11 -11 -11 -11 -11 -11 -12 -12
-9 -9 -9 -9 -9 -9 -9 -9 -8 -8 -9 -9 -8 -8 -8 -8 -8 -8 -8 -8 -9 -9 -9 -10 -10 -10 -10 -10 -10 -10 -10 -10 -10 -10 -10 -10 -10 -10 -11 -10 -10 -11 -11 -11 -11 -12 -12 -12 -12 -12 -12 -12 -12 -13
-10 -9 -9 -9 -10 -10 -9 -9 -10 -10 -10 -10 -9 -9 -9 -9 -9 -9 -9 -9 -10 -10 -10 -10 -10 -10 -11 -11 -11 -11 -10 -10 -10 -10 -10 -10 -11 -11 -11 -11 -12 -12 -12 -12 -12 -13 -13 -13 -13 -14 -14 -14 -14 -14
-10 -10 -10 -10 -11 -10 -10 -10 -10 -10 -9 -9 -9 -10 -10 -10 -10 -10 -10 -10 -10 -10 -11 -11 -11 -11 -11 -11 -11 -10 -10 -10 -10 -11 -11 -11 -11 -12 -12 -12 -13 -13 -13 -13 -14 -14 -14 -14 -15 -15 -15 -15 -15 -15
-11 -11 -11 -11 -11 -11 -10 -10 -10 -10 -10 -10 -10 -10 -10 -10 -10 -10 -10 -10 -11 -11 -11 -11 -11 -11 -11 -10 -10 -10 -10 -11 -11 -11 -12 -12 -13 -13 -13 -13 -13 -14 -14 -14 -15 -15 -15 -15 -16 -16 -16 -16 -17 -17
-11 -11 -11 -11 -11 -11 -11 -11 -11 -11 -11 -11 -11 -11 -11 -11 -11 -10 -11 -11 -11 -11 -11 -11 -11 -10 -10 -11 -11 -11 -12 -12 -12 -12 -13 -13 -13 -13 -13 -14 -14 -14 -15 -15 -15 -16 -16 -16 -17 -17 -17 -17 -17 -17

GFSWCAN_700_temp_099.txt.gz
Temp
-6 -7 -7 -8 -8 -8 -7 -7 -7 -6 -6 -5 -4 -4 -4 -4 -4 -4 -3 -3 -2 -1 -1 -0 -0 -0 -0 -0 -0 -1 -1 -2 -2 -3 -4 -4 -4 -5 -5 -6 -6 -6 -7 -8 -7 -8 -7 -5 -4 -5 -4 -5 -5 -5
-6 -6 -6 -7 -8 -8 -7 -7 -6 -6 -5 -4 -4 -4 -3 -4 -4 -4 -3 -3 -2 -2 -1 -1 -1 -0 -0 -0 -1 -1 -1 -2 -2 -3 -4 -4 -4 -4 -5 -5 -6 -6 -6 -6 -6 -5 -5 -5 -5 -5 -5 -5 -5 -4
-6 -6 -6 -7 -8 -8 -7 -7 -6 -5 -4 -4 -3 -3 -3 -3 -3 -3 -3 -2 -3 -2 -2 -2 -1 -1 -1 -1 -1 -1 -1 -2 -2 -3 -4 -4 -4 -4 -5 -5 -5 -6 -6 -6 -6 -5 -5 -5 -5 -5 -5 -5 -5 -5
-7 -6 -6 -6 -8 -8 -7 -7 -6 -5 -4 -2 -3 -4 -3 -4 -3 -3 -2 -3 -4 -2 -2 -1 -1 -1 -1 -1 -1 -1 -2 -2 -2 -4 -4 -5 -5 -5 -4 -4 -4 -5 -5 -5 -5 -6 -6 -6 -7 -7 -6 -6 -6 -6
-8 -6 -5 -6 -8 -8 -7 -7 -5 -4 -3 -2 -3 -3 -4 -4 -4 -4 -2 -3 -4 -2 -2 -2 -2 -1 -1 -1 -1 -1 -2 -2 -3 -4 -4 -5 -5 -5 -4 -5 -3 -4 -4 -5 -5 -6 -6 -7 -8 -8 -8 -8 -7 -6
-9 -9 -10 -10 -9 -9 -7 -7 -5 -4 -5 -5 -4 -3 -4 -4 -4 -4 -4 -4 -4 -2 -2 -2 -2 -2 -2 -2 -2 -2 -2 -3 -3 -4 -4 -5 -4 -5 -5 -4 -4 -4 -5 -5 -6 -6 -6 -7 -8 -8 -9 -9 -8 -7
-9 -10 -10 -10 -10 -9 -8 -7 -6 -5 -5 -6 -4 -3 -4 -5 -4 -4 -4 -4 -5 -3 -3 -3 -3 -2 -2 -2 -2 -2 -3 -3 -4 -4 -4 -4 -5 -5 -4 -4 -4 -4 -5 -6 -6 -6 -6 -7 -7 -9 -9 -9 -8 -8
-8 -9 -10 -10 -10 -9 -9 -7 -5 -6 -6 -6 -5 -4 -4 -4 -4 -6 -5 -4 -5 -5 -3 -3 -2 -2 -2 -2 -3 -3 -4 -3 -3 -4 -4 -4 -5 -4 -4 -3 -4 -4 -5 -6 -6 -6 -6 -7 -8 -9 -10 -10 -9 -7
-8 -9 -10 -10 -9 -9 -9 -7 -6 -5 -6 -6 -5 -4 -5 -5 -6 -7 -6 -6 -5 -5 -4 -4 -3 -2 -2 -2 -3 -4 -4 -4 -4 -4 -5 -5 -5 -4 -3 -4 -4 -4 -5 -5 -5 -6 -6 -7 -8 -8 -9 -9 -8 -7
-9 -10 -10 -10 -9 -8 -7 -6 -6 -5 -6 -5 -4 -5 -6 -5 -6 -7 -7 -6 -5 -6 -4 -4 -3 -2 -2 -2 -3 -4 -4 -4 -5 -5 -5 -5 -3 -3 -4 -4 -4 -5 -5 -5 -5 -6 -6 -7 -7 -7 -7 -7 -6 -6
-9 -10 -10 -9 -9 -7 -7 -7 -6 -6 -5 -5 -5 -6 -6 -6 -6 -7 -7 -6 -5 -5 -4 -4 -3 -3 -3 -3 -4 -4 -4 -4 -4 -6 -6 -4 -2 -3 -4 -4 -5 -5 -5 -5 -5 -6 -6 -7 -7 -6 -7 -6 -6 -6
-10 -10 -9 -8 -8 -8 -8 -7 -6 -5 -5 -4 -5 -5 -6 -7 -8 -8 -6 -5 -4 -4 -3 -3 -3 -3 -3 -3 -4 -4 -4 -4 -5 -6 -5 -3 -2 -3 -4 -4 -5 -5 -5 -5 -5 -5 -6 -6 -6 -6 -6 -6 -6 -6
-10 -9 -9 -10 -8 -8 -8 -7 -6 -7 -6 -6 -6 -6 -7 -7 -7 -6 -5 -5 -4 -4 -3 -2 -3 -4 -4 -4 -4 -4 -4 -6 -6 -6 -4 -2 -3 -3 -4 -5 -5 -5 -5 -5 -5 -5 -5 -6 -6 -6 -6 -6 -7 -7
-9 -9 -9 -10 -8 -7 -7 -7 -7 -6 -6 -6 -6 -7 -6 -5 -6 -6 -5 -4 -3 -2 -2 -3 -3 -5 -5 -5 -4 -4 -5 -6 -7 -8 -2 -2 -3 -4 -5 -5 -5 -6 -6 -6 -6 -6 -6 -6 -6 -6 -7 -7 -7 -7
-9 -9 -9 -8 -8 -7 -7 -7 -7 -6 -6 -6 -5 -5 -4 -3 -3 -4 -4 -4 -2 -2 -2 -3 -5 -5 -5 -5 -4 -4 -6 -7 -6 -2 -2 -3 -4 -5 -5 -6 -6 -6 -6 -6 -6 -6 -6 -6 -6 -7 -7 -7 -7 -7
-9 -10 -9 -9 -8 -7 -7 -7 -6 -6 -6 -5 -5 -4 -2 -2 -3 -4 -3 -4 -3 -2 -3 -5 -6 -5 -4 -4 -4 -4 -5 -3 -2 -2 -3 -4 -5 -5 -6 -6 -6 -6 -6 -6 -7 -7 -7 -7 -7 -8 -8 -8 -8 -9
-9 -9 -9 -9 -8 -8 -7 -7 -7 -6 -6 -5 -4 -3 -3 -2 -3 -3 -3 -3 -3 -3 -3 -5 -4 -3 -3 -3 -4 -3 -2 -2 -2 -3 -4 -4 -5 -6 -6 -6 -7 -7 -7 -7 -7 -8 -8 -8 -8 -8 -8 -8 -9 -9
-9 -8 -8 -8 -8 -8 -7 -7 -7 -6 -6 -5 -4 -3 -3 -2 -3 -3 -4 -4 -3 -3 -4 -4 -3 -3 -3 -3 -2 -2 -2 -2 -3 -4 -4 -5 -6 -6 -7 -7 -7 -7 -7 -8 -8 -8 -9 -9 -9 -9 -9 -9 -9 -9
-8 -9 -8 -7 -7 -8 -8 -8 -7 -6 -5 -5 -4 -4 -4 -3 -4 -4 -4 -4 -4 -4 -5 -4 -3 -3 -3 -3 -2 -3 -3 -4 -4 -5 -5 -6 -6 -7 -7 -7 -8 -8 -8 -8 -8 -9 -9 -9 -9 -9 -9 -9 -9 -9
-9 -8 -9 -7 -7 -8 -8 -7 -7 -6 -5 -5 -4 -4 -4 -4 -4 -4 -5 -5 -4 -5 -6 -5 -4 -4 -4 -4 -4 -4 -4 -5 -5 -5 -6 -6 -7 -7 -8 -8 -8 -8 -8 -9 -9 -9 -10 -10 -10 -10 -10 -10 -10 -10
-9 -8 -8 -8 -8 -8 -7 -7 -6 -5 -5 -5 -5 -4 -5 -5 -4 -5 -5 -6 -6 -6 -5 -5 -5 -5 -5 -4 -4 -4 -5 -5 -5 -6 -6 -7 -7 -8 -8 -8 -8 -9 -9 -10 -10 -10 -11 -11 -11 -11 -11 -11 -11 -11
-9 -9 -8 -9 -8 -8 -7 -7 -6 -6 -6 -5 -5 -5 -5 -5 -5 -5 -6 -6 -6 -5 -5 -5 -5 -5 -5 -5 -5 -5 -5 -5 -6 -6 -7 -7 -7 -8 -8 -8 -9 -9 -10 -10 -11 -11 -11 -11 -11 -11 -11 -11 -11 -11
-9 -9 -9 -8 -8 -8 -8 -7 -6 -6 -6 -6 -5 -6 -6 -5 -6 -6 -6 -6 -5 -5 -5 -5 -6 -6 -5 -5 -5 -5 -6 -6 -6 -7 -7 -7 -8 -8 -8 -8 -9 -9 -10 -10 -11 -11 -12 -11 -11 -11 -11 -11 -11 -11
-8 -9 -8 -8 -8 -7 -7 -7 -6 -6 -6 -6 -6 -6 -6 -6 -6 -6 -6 -4 -5 -5 -6 -6 -6 -5 -5 -5 -6 -6 -6 -7 -7 -7 -7 -8 -8 -8 -8 -9 -9 -10 -10 -11 -11 -11 -11 -11 -11 -11 -11 -10 -10 -10
-9 -9 -8 -8 -8 -7 -7 -7 -7 -6 -6 -6 -6 -6 -6 -6 -7 -6 -5 -4 -5 -6 -5 -6 -6 -6 -6 -6 -6 -7 -7 -7 -7 -7 -8 -8 -8 -8 -9 -9 -9 -10 -10 -10 -10 -11 -11 -11 -11 -11 -11 -10 -10 -10
-8 -8 -8 -8 -8 -7 -7 -7 -7 -6 -6 -6 -7 -7 -7 -7 -7 -6 -5 -5 -6 -6 -6 -6 -6 -6 -6 -7 -7 -7 -8 -8 -8 -8 -8 -9 -9 -9 -9 -9 -10 -10 -10 -10 -11 -11 -11 -11 -11 -10 -10 -10 -10 -10
-8 -9 -8 -8 -8 -8 -7 -7 -7 -7 -7 -7 -6 -6 -7 -7 -7 -6 -5 -6 -6 -6 -6 -6 -7 -7 -7 -8 -8 -8 -8 -9 -9 -9 -9 -9 -9 -10 -10 -10 -10 -10 -10 -10 -11 -11 -11 -11 -11 -11 -11 -11 -11 -11
-8 -8 -8 -8 -8 -8 -7 -7 -7 -7 -7 -7 -7 -7 -7 -7 -7 -6 -6 -6 -6 -7 -7 -7 -8 -8 -8 -8 -9 -9 -9 -9 -10 -10 -10 -10 -10 -10 -10 -10 -10 -10 -10 -11 -11 -11 -11 -11 -11 -12 -12 -12 -13 -13
-9 -8 -8 -9 -8 -8 -8 -8 -7 -7 -7 -7 -7 -7 -7 -7 -7 -7 -7 -7 -7 -7 -8 -8 -8 -9 -9 -9 -10 -10 -10 -10 -10 -10 -10 -10 -10 -10 -10 -10 -10 -10 -11 -11 -12 -12 -12 -13 -13 -13 -13 -13 -13 -14
-9 -9 -9 -9 -9 -9 -9 -8 -8 -8 -8 -8 -8 -9 -8 -8 -8 -8 -8 -8 -8 -9 -9 -9 -9 -10 -10 -10 -10 -10 -10 -10 -10 -10 -10 -10 -10 -11 -11 -11 -11 -12 -12 -13 -13 -13 -14 -14 -14 -14 -14 -14 -15 -15
-9 -9 -9 -9 -9 -9 -9 -9 -9 -9 -9 -10 -10 -9 -9 -9 -9 -9 -9 -9 -9 -10 -10 -10 -10 -10 -10 -10 -11 -10 -10 -10 -10 -10 -10 -11 -11 -11 -12 -12 -13 -13 -13 -14 -14 -14 -14 -15 -15 -15 -16 -16 -16 -16
-10 -10 -10 -10 -10 -10 -10 -10 -10 -10 -10 -10 -10 -10 -9 -9 -10 -10 -10 -10 -10 -10 -10 -10 -11 -11 -11 -11 -10 -10 -10 -10 -10 -11 -11 -11 -12 -12 -13 -13 -13 -13 -14 -14 -14 -15 -15 -16 -16 -16 -16 -16 -17 -17
-11 -11 -11 -11 -11 -11 -11 -11 -11 -11 -10 -10 -10 -10 -10 -10 -10 -10 -10 -10 -10 -10 -11 -11 -11 -11 -10 -10 -10 -10 -11 -11 -11 -12 -12 -12 -12 -13 -13 -13 -13 -14 -14 -15 -15 -16 -16 -16 -16 -16 -16 -16 -17 -17

GFSWCAN_700_temp_102.txt.gz
Temp
-5 -4 -5 -6 -6 -6 -6 -6 -6 -7 -6 -5 -5 -5 -5 -4 -4 -4 -5 -4 -3 -2 -1 -1 -1 -0 -1 -1 -1 -1 -1 -2 -2 -3 -3 -3 -4 -5 -5 -5 -5 -6 -7 -8 -8 -8 -7 -5 -5 -5 -5 -5 -5 -5
-4 -4 -5 -5 -6 -6 -6 -6 -6 -6 -6 -4 -4 -5 -5 -4 -4 -4 -4 -3 -3 -2 -1 -1 -1 -1 -1 -1 -1 -1 -1 -1 -1 -2 -3 -3 -3 -4 -4 -5 -5 -5 -5 -6 -6 -5 -5 -4 -5 -5 -5 -5 -6 -5
-4 -4 -4 -5 -5 -5 -6 -5 -6 -6 -5 -4 -4 -5 -4 -4 -4 -4 -4 -3 -3 -3 -2 -2 -1 -1 -1 -1 -1 -1 -1 -1 -2 -3 -3 -4 -4 -4 -4 -4 -4 -5 -5 -5 -5 -5 -5 -6 -6 -6 -6 -6 -6 -6
-5 -4 -4 -4 -5 -5 -6 -6 -6 -6 -6 -4 -5 -4 -4 -4 -4 -4 -4 -4 -4 -4 -4 -3 -2 -1 -1 -1 -1 -1 -1 -1 -2 -3 -4 -4 -4 -4 -4 -4 -4 -4 -5 -5 -5 -5 -5 -6 -6 -7 -7 -7 -7 -7
-6 -5 -5 -5 -5 -5 -5 -6 -6 -6 -6 -4 -4 -4 -4 -4 -4 -4 -4 -4 -4 -4 -3 -3 -2 -1 -1 -1 -1 -1 -1 -1 -2 -3 -3 -4 -4 -5 -4 -4 -3 -3 -4 -4 -5 -5 -6 -6 -7 -8 -7 -8 -9 -8
-7 -7 -6 -6 -7 -8 -7 -6 -6 -6 -6 -4 -4 -4 -4 -4 -4 -4 -5 -4 -4 -4 -3 -2 -2 -2 -1 -1 -1 -2 -2 -2 -3 -3 -4 -4 -4 -5 -4 -4 -3 -3 -4 -4 -5 -5 -5 -6 -6 -6 -7 -7 -9 -9
-8 -8 -7 -8 -10 -11 -10 -7 -7 -6 -6 -6 -4 -3 -4 -4 -4 -4 -5 -4 -4 -4 -3 -3 -2 -2 -2 -1 -2 -2 -2 -3 -3 -4 -3 -4 -4 -5 -4 -3 -3 -3 -3 -4 -4 -4 -5 -6 -6 -7 -8 -9 -10 -9
-7 -8 -7 -8 -10 -10 -10 -9 -7 -7 -7 -6 -6 -5 -5 -4 -5 -5 -5 -4 -5 -4 -5 -4 -3 -2 -2 -2 -2 -2 -3 -3 -3 -4 -3 -4 -4 -4 -3 -2 -3 -3 -3 -4 -4 -4 -5 -6 -6 -7 -8 -9 -9 -9
-7 -9 -9 -9 -10 -10 -10 -9 -7 -7 -6 -5 -6 -5 -4 -5 -5 -5 -6 -5 -5 -5 -6 -5 -4 -2 -2 -2 -2 -3 -3 -3 -4 -4 -4 -4 -4 -3 -2 -3 -3 -3 -4 -4 -4 -4 -5 -6 -6 -7 -7 -7 -7 -7
-8 -9 -10 -9 -9 -10 -10 -9 -8 -7 -6 -6 -5 -5 -6 -5 -5 -6 -7 -7 -6 -6 -6 -5 -4 -3 -3 -2 -3 -3 -3 -3 -4 -4 -4 -4 -1 -2 -2 -3 -3 -4 -4 -4 -4 -4 -5 -5 -6 -6 -6 -6 -6 -6
-8 -9 -9 -9 -9 -10 -9 -8 -8 -8 -5 -5 -6 -6 -6 -6 -6 -7 -7 -7 -7 -6 -6 -5 -5 -3 -3 -3 -3 -3 -3 -3 -4 -4 -4 -3 -0 -0 -2 -3 -4 -4 -4 -4 -5 -4 -4 -5 -6 -6 -6 -6 -6 -6
-9 -9 -9 -10 -10 -10 -8 -7 -8 -6 -6 -5 -5 -5 -7 -7 -7 -7 -7 -7 -7 -6 -5 -4 -4 -4 -3 -3 -3 -3 -3 -3 -4 -5 -4 -2 0 -0 -2 -3 -4 -4 -5 -5 -5 -5 -5 -5 -5 -6 -6 -6 -6 -5
-9 -9 -10 -10 -10 -9 -7 -6 -6 -6 -6 -6 -6 -8 -7 -7 -7 -7 -7 -7 -5 -5 -4 -3 -3 -4 -4 -4 -4 -3 -3 -4 -4 -4 -2 -0 -0 -1 -2 -3 -4 -4 -5 -5 -5 -5 -5 -5 -5 -6 -6 -6 -6 -6
-9 -10 -10 -9 -9 -8 -8 -8 -6 -6 -6 -6 -6 -5 -5 -5 -5 -5 -5 -4 -4 -3 -3 -3 -2 -4 -4 -4 -4 -3 -4 -4 -4 -4 -0 0 -1 -2 -3 -4 -4 -5 -5 -5 -5 -5 -6 -6 -6 -6 -6 -7 -7 -7
-10 -10 -9 -9 -9 -9 -8 -7 -7 -6 -6 -6 -5 -4 -4 -4 -4 -3 -3 -4 -3 -3 -2 -3 -3 -3 -4 -4 -4 -3 -4 -4 -3 -1 -1 -0 -1 -2 -4 -4 -5 -5 -5 -5 -5 -6 -6 -6 -6 -7 -7 -7 -7 -7
-11 -9 -9 -9 -9 -8 -8 -7 -7 -7 -6 -5 -5 -4 -3 -3 -3 -4 -4 -4 -4 -3 -3 -3 -5 -5 -5 -4 -4 -3 -4 -2 -1 -0 -1 -1 -2 -3 -4 -5 -5 -5 -5 -6 -6 -6 -7 -7 -7 -7 -8 -8 -8 -8
-10 -9 -9 -9 -9 -9 -8 -7 -7 -7 -6 -5 -4 -4 -3 -2 -2 -3 -3 -4 -4 -3 -2 -3 -4 -4 -4 -3 -4 -3 -2 -1 -1 -1 -1 -2 -3 -4 -5 -5 -5 -6 -6 -6 -7 -7 -7 -7 -8 -8 -8 -9 -9 -9
-10 -9 -8 -8 -9 -9 -8 -8 -7 -6 -6 -5 -4 -3 -3 -3 -3 -3 -4 -5 -5 -4 -3 -3 -3 -3 -2 -3 -2 -1 -1 -1 -2 -2 -2 -3 -4 -5 -5 -6 -6 -6 -7 -7 -7 -7 -8 -8 -8 -8 -9 -9 -9 -10
-10 -9 -9 -8 -8 -9 -8 -8 -7 -6 -6 -5 -3 -3 -4 -3 -3 -5 -5 -5 -5 -4 -4 -3 -2 -2 -2 -2 -1 -1 -2 -2 -3 -3 -3 -4 -5 -5 -6 -6 -7 -7 -7 -7 -8 -8 -8 -8 -8 -9 -9 -10 -10 -10
-9 -9 -9 -9 -9 -8 -8 -7 -7 -6 -5 -4 -5 -4 -4 -4 -4 -5 -6 -5 -5 -5 -5 -4 -3 -3 -3 -2 -2 -2 -3 -3 -4 -4 -5 -5 -6 -6 -6 -7 -7 -8 -8 -8 -8 -8 -9 -9 -9 -10 -10 -10 -11 -11
-9 -9 -9 -9 -9 -8 -8 -8 -7 -6 -5 -5 -5 -5 -5 -5 -5 -5 -5 -6 -6 -5 -5 -4 -4 -3 -3 -3 -3 -4 -4 -4 -4 -5 -5 -5 -6 -7 -7 -7 -8 -8 -8 -8 -9 -9 -9 -10 -11 -11 -11 -11 -11 -11
-9 -8 -9 -9 -9 -8 -7 -7 -6 -6 -6 -5 -5 -5 -5 -5 -5 -5 -5 -6 -5 -5 -5 -5 -4 -4 -4 -4 -4 -4 -5 -5 -5 -5 -6 -6 -7 -7 -7 -8 -8 -8 -8 -9 -9 -9 -10 -11 -11 -11 -11 -11 -11 -11
-9 -9 -9 -9 -8 -8 -8 -7 -7 -6 -6 -6 -6 -6 -6 -6 -6 -6 -7 -5 -5 -5 -5 -5 -5 -5 -5 -5 -4 -5 -5 -5 -5 -6 -6 -7 -7 -7 -8 -8 -8 -8 -8 -9 -9 -10 -10 -11 -11 -11 -11 -11 -11 -11
-9 -10 -9 -9 -8 -8 -7 -7 -7 -6 -6 -6 -6 -6 -6 -6 -6 -6 -5 -4 -5 -5 -5 -5 -5 -5 -5 -5 -5 -5 -5 -6 -6 -6 -6 -7 -7 -7 -7 -8 -8 -8 -9 -9 -10 -10 -10 -11 -11 -11 -11 -11 -11 -11
-10 -9 -8 -8 -8 -8 -7 -7 -7 -6 -6 -6 -6 -7 -6 -6 -6 -6 -5 -5 -5 -5 -5 -5 -5 -5 -5 -5 -6 -6 -6 -6 -6 -7 -7 -7 -7 -8 -8 -8 -8 -9 -9 -9 -10 -10 -10 -11 -11 -11 -11 -11 -11 -11
-9 -9 -8 -8 -7 -7 -7 -7 -7 -6 -6 -6 -7 -7 -6 -6 -6 -6 -5 -5 -5 -5 -5 -5 -5 -6 -6 -6 -6 -6 -6 -6 -7 -7 -7 -8 -8 -8 -9 -9 -9 -9 -10 -10 -10 -10 -10 -11 -11 -11 -12 -12 -12 -11
-9 -8 -8 -8 -7 -7 -7 -7 -7 -7 -7 -6 -6 -6 -6 -6 -6 -5 -5 -4 -5 -5 -5 -5 -6 -6 -6 -6 -6 -7 -7 -7 -8 -8 -9 -9 -9 -9 -9 -10 -10 -10 -10 -10 -10 -10 -11 -11 -12 -12 -12 -12 -13 -13
-8 -8 -8 -8 -7 -8 -8 -8 -7 -7 -7 -7 -7 -6 -6 -6 -5 -5 -5 -5 -5 -5 -6 -6 -6 -7 -7 -7 -7 -8 -8 -9 -9 -9 -9 -9 -9 -10 -10 -10 -10 -10 -10 -10 -11 -11 -12 -12 -12 -13 -13 -13 -14 -14
-8 -8 -8 -8 -8 -8 -8 -8 -8 -7 -7 -7 -7 -7 -7 -6 -6 -6 -5 -6 -6 -6 -7 -7 -7 -7 -7 -8 -8 -9 -9 -9 -10 -10 -10 -10 -10 -10 -10 -10 -10 -10 -11 -11 -12 -12 -13 -13 -13 -13 -14 -14 -14 -15
-9 -9 -8 -8 -8 -8 -8 -7 -7 -7 -7 -7 -7 -7 -7 -7 -7 -7 -6 -7 -7 -7 -7 -7 -8 -8 -9 -9 -9 -10 -10 -10 -10 -10 -10 -10 -10 -10 -10 -10 -10 -11 -11 -12 -13 -13 -13 -14 -14 -15 -15 -15 -16 -16
-9 -9 -9 -8 -8 -8 -8 -8 -8 -8 -8 -8 -8 -8 -8 -8 -8 -7 -7 -7 -8 -8 -8 -9 -9 -9 -10 -10 -10 -10 -10 -10 -10 -10 -10 -10 -10 -10 -11 -11 -11 -12 -12 -13 -13 -14 -14 -15 -15 -16 -16 -16 -16 -16
-9 -9 -9 -9 -9 -9 -9 -9 -9 -9 -9 -9 -9 -9 -10 -9 -8 -8 -8 -8 -9 -9 -9 -10 -10 -10 -10 -10 -10 -10 -10 -10 -10 -10 -10 -10 -11 -11 -11 -11 -12 -12 -13 -13 -14 -14 -15 -15 -15 -16 -16 -16 -16 -16
-10 -10 -10 -10 -10 -10 -10 -10 -10 -10 -10 -10 -10 -10 -10 -10 -9 -9 -9 -10 -10 -10 -10 -10 -10 -10 -10 -10 -10 -10 -10 -10 -10 -10 -11 -11 -11 -12 -12 -12 -12 -13 -13 -14 -14 -15 -15 -15 -16 -16 -16 -16 -16 -17

GFSWCAN_700_temp_105.txt.gz
Temp
-3 -3 -3 -4 -4 -3 -4 -5 -4 -5 -5 -4 -5 -5 -5 -4 -4 -4 -4 -5 -5 -4 -3 -2 -1 -1 -1 -1 -1 -1 -2 -2 -2 -3 -3 -3 -3 -4 -4 -4 -4 -5 -5 -5 -7 -8 -6 -5 -5 -5 -5 -6 -5 -5
-3 -3 -3 -4 -3 -3 -3 -4 -3 -4 -4 -3 -4 -5 -5 -5 -5 -5 -5 -5 -5 -4 -3 -2 -2 -1 -1 -1 -1 -1 -1 -2 -2 -2 -2 -3 -3 -3 -4 -4 -4 -4 -4 -4 -4 -4 -4 -5 -5 -5 -6 -6 -6 -6
-3 -3 -3 -3 -3 -3 -3 -4 -4 -4 -4 -3 -4 -5 -5 -5 -5 -5 -5 -4 -4 -4 -3 -2 -2 -2 -1 -1 -1 -1 -2 -2 -2 -2 -2 -3 -4 -4 -4 -4 -4 -4 -4 -4 -4 -4 -5 -5 -5 -6 -6 -6 -6 -6
-3 -3 -3 -3 -3 -4 -3 -3 -3 -4 -4 -3 -3 -4 -5 -5 -5 -5 -5 -4 -4 -4 -3 -2 -2 -1 -1 -1 -1 -1 -2 -2 -2 -2 -2 -3 -4 -4 -4 -3 -4 -4 -4 -4 -3 -4 -5 -5 -6 -6 -6 -7 -8 -8
-2 -3 -2 -3 -4 -4 -3 -3 -4 -4 -4 -4 -4 -4 -5 -5 -5 -5 -5 -4 -4 -4 -4 -3 -2 -2 -2 -2 -1 -1 -2 -2 -2 -2 -2 -3 -3 -4 -4 -4 -2 -3 -3 -3 -3 -4 -5 -5 -6 -6 -6 -7 -7 -8
-3 -3 -3 -3 -4 -4 -3 -2 -4 -4 -4 -4 -5 -5 -5 -5 -5 -5 -5 -4 -5 -5 -4 -3 -3 -2 -2 -2 -1 -2 -2 -2 -2 -3 -2 -3 -3 -4 -4 -3 -2 -2 -3 -3 -4 -4 -4 -5 -5 -5 -6 -7 -8 -9
-3 -3 -4 -4 -5 -5 -5 -5 -6 -5 -5 -5 -6 -5 -5 -5 -5 -5 -5 -4 -5 -5 -5 -4 -3 -2 -2 -2 -2 -2 -2 -2 -3 -3 -2 -3 -3 -4 -4 -2 -2 -3 -3 -3 -3 -4 -4 -4 -5 -5 -6 -7 -8 -9
-3 -4 -4 -5 -6 -6 -6 -8 -8 -7 -6 -5 -6 -5 -5 -5 -5 -5 -5 -4 -4 -5 -4 -4 -3 -3 -2 -2 -2 -2 -2 -2 -2 -3 -2 -3 -3 -3 -2 -1 -1 -2 -3 -3 -3 -3 -4 -4 -5 -5 -6 -6 -8 -8
-4 -4 -5 -6 -6 -7 -8 -10 -9 -8 -7 -6 -6 -6 -5 -6 -6 -5 -5 -5 -5 -5 -4 -4 -3 -3 -2 -3 -2 -2 -2 -2 -3 -2 -2 -3 -2 -1 -0 -1 -2 -2 -3 -3 -3 -3 -4 -4 -5 -5 -5 -5 -6 -6
-4 -5 -6 -6 -8 -9 -9 -10 -10 -9 -8 -7 -7 -6 -6 -6 -6 -5 -5 -5 -8 -6 -4 -4 -4 -4 -3 -2 -3 -3 -2 -3 -3 -3 -2 -2 1 0 -0 -1 -2 -2 -3 -3 -4 -4 -4 -4 -4 -5 -5 -5 -5 -6
-5 -5 -6 -7 -9 -9 -9 -10 -10 -10 -9 -7 -8 -6 -6 -6 -6 -6 -6 -6 -7 -7 -6 -5 -5 -4 -4 -3 -3 -3 -3 -2 -3 -3 -3 -2 2 2 1 -0 -1 -2 -3 -4 -4 -4 -4 -4 -4 -5 -5 -5 -5 -5
-6 -6 -6 -7 -9 -9 -9 -10 -10 -10 -8 -7 -8 -7 -6 -6 -7 -7 -7 -6 -6 -6 -6 -5 -5 -5 -4 -4 -4 -3 -3 -3 -3 -4 -3 -1 2 1 1 0 -1 -3 -3 -4 -4 -4 -4 -5 -5 -5 -5 -5 -5 -5
-7 -7 -8 -9 -9 -9 -10 -10 -10 -10 -7 -8 -7 -7 -7 -7 -6 -6 -7 -7 -5 -5 -4 -3 -2 -5 -5 -4 -4 -3 -3 -3 -4 -3 -1 1 2 2 1 -0 -2 -3 -4 -4 -4 -4 -4 -5 -5 -5 -5 -5 -5 -6
-8 -8 -8 -9 -9 -10 -10 -10 -10 -10 -9 -7 -7 -7 -6 -5 -5 -5 -4 -4 -3 -2 -2 -2 -3 -4 -5 -5 -4 -3 -3 -4 -3 -3 0 1 1 1 -0 -1 -3 -3 -4 -4 -4 -4 -5 -5 -5 -6 -6 -6 -6 -6
-10 -10 -10 -10 -10 -10 -10 -10 -9 -9 -7 -6 -6 -4 -4 -4 -4 -3 -2 -3 -3 -2 -2 -2 -4 -4 -5 -4 -4 -4 -3 -3 -3 -0 0 0 0 -0 -1 -2 -3 -4 -4 -4 -4 -5 -5 -5 -6 -6 -6 -7 -7 -7
-10 -10 -10 -10 -10 -10 -11 -10 -9 -7 -6 -5 -4 -3 -3 -4 -2 -2 -2 -2 -4 -3 -3 -3 -5 -5 -5 -4 -4 -4 -4 -1 0 1 1 0 -0 -1 -2 -3 -4 -4 -4 -4 -5 -5 -6 -6 -6 -6 -7 -7 -8 -8
-10 -11 -10 -10 -9 -10 -10 -9 -8 -7 -6 -5 -5 -4 -4 -2 -1 -1 -2 -2 -4 -3 -2 -4 -4 -3 -3 -3 -4 -3 -2 -0 0 0 0 -0 -1 -2 -3 -4 -4 -4 -5 -5 -5 -6 -6 -7 -7 -7 -7 -8 -8 -9
-10 -10 -9 -9 -9 -9 -8 -8 -7 -6 -6 -5 -4 -4 -4 -3 -3 -3 -3 -4 -4 -4 -3 -3 -3 -3 -2 -3 -2 -1 -0 -1 -1 -0 -1 -1 -2 -3 -4 -4 -5 -5 -5 -6 -6 -6 -7 -7 -7 -8 -8 -8 -9 -9
-10 -10 -9 -9 -8 -8 -8 -7 -7 -6 -6 -5 -4 -4 -4 -4 -3 -4 -4 -4 -4 -4 -4 -4 -3 -2 -1 -1 -0 -0 -1 -1 -1 -1 -2 -2 -3 -3 -4 -5 -5 -6 -6 -7 -7 -7 -7 -8 -8 -9 -9 -9 -10 -10
-10 -10 -9 -9 -9 -9 -8 -8 -7 -6 -6 -5 -5 -4 -4 -4 -4 -5 -5 -5 -5 -5 -5 -4 -3 -2 -2 -1 -1 -1 -1 -1 -2 -2 -2 -3 -4 -4 -5 -5 -6 -6 -7 -7 -7 -8 -8 -8 -9 -9 -10 -10 -10 -10
-9 -9 -9 -9 -9 -8 -8 -7 -7 -7 -5 -5 -5 -4 -5 -5 -5 -5 -6 -6 -6 -6 -5 -5 -4 -3 -2 -2 -2 -2 -2 -3 -3 -3 -4 -4 -4 -5 -5 -6 -6 -7 -7 -8 -8 -8 -8 -9 -9 -10 -10 -10 -11 -11
-10 -10 -9 -9 -9 -8 -8 -7 -7 -7 -6 -5 -6 -6 -6 -6 -6 -6 -6 -6 -6 -6 -6 -5 -4 -3 -3 -3 -3 -3 -3 -4 -4 -4 -4 -4 -5 -5 -6 -6 -7 -7 -8 -8 -8 -8 -9 -9 -10 -10 -10 -11 -11 -11
-9 -9 -9 -9 -8 -8 -8 -7 -7 -6 -6 -6 -6 -6 -6 -6 -6 -5 -6 -5 -5 -6 -7 -7 -6 -5 -4 -4 -4 -4 -4 -4 -4 -4 -5 -5 -5 -6 -6 -7 -7 -8 -8 -8 -8 -9 -9 -9 -10 -10 -11 -11 -12 -12
-9 -10 -9 -9 -9 -8 -8 -8 -7 -7 -7 -7 -7 -6 -6 -5 -6 -6 -5 -4 -5 -5 -6 -7 -6 -6 -5 -5 -5 -5 -5 -5 -5 -5 -5 -6 -6 -6 -7 -7 -7 -8 -8 -8 -8 -9 -9 -9 -10 -10 -10 -11 -11 -11
-9 -9 -9 -8 -8 -7 -8 -7 -7 -6 -6 -7 -7 -6 -6 -6 -6 -5 -5 -5 -5 -5 -5 -6 -6 -6 -6 -6 -6 -6 -6 -6 -6 -6 -6 -6 -7 -7 -7 -8 -8 -8 -9 -9 -9 -9 -10 -10 -10 -11 -11 -11 -11 -12
-9 -9 -8 -8 -7 -8 -7 -7 -7 -7 -7 -7 -7 -6 -6 -6 -6 -5 -4 -5 -4 -4 -4 -4 -4 -5 -5 -5 -6 -6 -6 -6 -6 -6 -7 -7 -7 -8 -8 -8 -9 -9 -9 -9 -10 -10 -10 -10 -10 -11 -11 -12 -12 -12
-9 -9 -8 -8 -8 -7 -7 -7 -7 -7 -7 -7 -7 -6 -6 -6 -6 -5 -4 -4 -5 -5 -5 -5 -5 -6 -6 -6 -6 -6 -7 -7 -7 -7 -8 -8 -8 -8 -9 -9 -9 -9 -10 -10 -10 -10 -10 -11 -11 -12 -12 -13 -13 -13
-9 -9 -8 -8 -7 -7 -6 -6 -6 -7 -7 -7 -7 -6 -6 -6 -6 -5 -5 -5 -5 -5 -5 -5 -5 -5 -6 -6 -6 -7 -7 -7 -8 -8 -9 -9 -9 -9 -9 -9 -10 -10 -10 -10 -10 -10 -11 -12 -12 -12 -13 -14 -14 -14
-8 -9 -8 -8 -8 -8 -8 -8 -8 -7 -7 -7 -7 -7 -6 -6 -6 -6 -6 -6 -6 -5 -6 -6 -6 -6 -7 -7 -7 -7 -8 -9 -9 -9 -9 -9 -9 -9 -9 -10 -10 -10 -10 -10 -11 -11 -12 -12 -13 -13 -14 -14 -15 -15
-9 -8 -8 -8 -8 -8 -8 -8 -8 -8 -8 -8 -7 -7 -7 -7 -6 -6 -6 -6 -6 -7 -7 -7 -7 -7 -8 -8 -8 -9 -9 -9 -9 -9 -9 -9 -9 -10 -10 -10 -10 -10 -11 -11 -11 -12 -12 -13 -14 -14 -14 -15 -15 -15
-8 -8 -8 -8 -8 -8 -8 -8 -8 -8 -8 -8 -8 -7 -7 -8 -7 -7 -7 -6 -6 -7 -7 -7 -7 -8 -8 -9 -9 -9 -9 -10 -10 -10 -10 -10 -10 -10 -10 -10 -10 -11 -11 -12 -12 -12 -13 -14 -15 -14 -15 -15 -15 -15
-9 -9 -9 -9 -9 -8 -8 -8 -8 -8 -8 -8 -8 -8 -8 -8 -8 -8 -8 -7 -8 -8 -8 -8 -9 -9 -9 -10 -10 -10 -10 -10 -10 -10 -10 -10 -10 -10 -10 -11 -11 -11 -12 -12 -13 -13 -14 -14 -15 -15 -15 -15 -15 -16
-10 -9 -9 -9 -9 -9 -9 -9 -9 -9 -9 -9 -9 -9 -9 -9 -9 -9 -9 -9 -9 -9 -9 -9 -9 -10 -10 -10 -10 -10 -10 -10 -10 -10 -10 -10 -10 -11 -11 -11 -12 -12 -12 -13 -13 -14 -14 -15 -15 -15 -15 -15 -16 -16

GFSWCAN_700_temp_108.txt.gz
Temp
-1 -2 -2 -2 -2 -2 -3 -4 -3 -4 -3 -4 -4 -3 -3 -3 -3 -3 -4 -4 -4 -4 -3 -3 -2 -2 -1 -1 -2 -2 -2 -2 -2 -3 -3 -3 -3 -3 -3 -3 -3 -4 -4 -4 -5 -6 -4 -4 -4 -5 -5 -5 -5 -5
-2 -2 -2 -2 -2 -2 -2 -4 -3 -3 -2 -4 -4 -3 -3 -4 -3 -3 -4 -4 -5 -4 -3 -2 -2 -2 -2 -2 -2 -2 -2 -2 -2 -2 -2 -3 -3 -3 -3 -4 -3 -4 -3 -3 -3 -3 -4 -4 -4 -5 -5 -5 -5 -6
-1 -2 -2 -2 -2 -2 -2 -3 -3 -3 -2 -3 -4 -4 -4 -3 -3 -3 -4 -4 -4 -4 -3 -2 -2 -2 -1 -2 -2 -2 -2 -2 -2 -2 -2 -3 -3 -3 -3 -3 -3 -3 -3 -3 -3 -3 -3 -4 -4 -4 -5 -5 -6 -6
-2 -2 -2 -2 -2 -2 -2 -2 -3 -3 -3 -3 -4 -3 -4 -3 -3 -4 -4 -5 -4 -4 -3 -2 -2 -2 -2 -2 -1 -1 -2 -2 -2 -2 -2 -3 -3 -3 -3 -3 -3 -3 -3 -2 -2 -3 -3 -4 -4 -4 -5 -5 -6 -7
-2 -2 -2 -2 -2 -2 -2 -2 -3 -3 -3 -4 -4 -4 -4 -4 -5 -5 -6 -4 -4 -3 -4 -3 -2 -2 -2 -2 -1 -1 -2 -2 -2 -2 -2 -3 -3 -3 -3 -4 -2 -2 -2 -2 -3 -3 -3 -4 -3 -4 -5 -5 -6 -6
-2 -2 -2 -2 -2 -2 -2 -3 -2 -3 -3 -4 -4 -4 -4 -4 -5 -6 -6 -6 -4 -4 -4 -3 -2 -2 -2 -2 -2 -2 -2 -2 -2 -2 -2 -2 -2 -3 -3 -2 -1 -1 -1 -2 -3 -3 -3 -3 -4 -4 -5 -5 -5 -6
-3 -2 -2 -2 -2 -2 -2 -3 -2 -3 -4 -4 -5 -5 -5 -4 -5 -5 -6 -5 -4 -4 -4 -4 -3 -3 -3 -2 -2 -2 -2 -2 -2 -2 -2 -3 -3 -4 -3 -1 -0 -2 -2 -2 -3 -3 -3 -3 -3 -4 -4 -5 -5 -6
-2 -2 -3 -3 -3 -3 -3 -4 -4 -3 -5 -4 -5 -6 -6 -6 -5 -5 -5 -5 -5 -4 -5 -5 -3 -3 -2 -2 -2 -2 -2 -2 -2 -2 -2 -2 -3 -3 -1 1 1 -0 -1 -2 -3 -3 -3 -3 -4 -4 -4 -4 -5 -6
-3 -3 -3 -3 -3 -3 -4 -5 -5 -5 -7 -6 -7 -7 -6 -6 -5 -5 -5 -5 -5 -6 -6 -5 -4 -4 -3 -2 -3 -3 -3 -2 -2 -2 -3 -3 -3 -1 1 1 0 -0 -1 -2 -3 -3 -3 -3 -4 -4 -4 -4 -4 -4
-3 -3 -4 -4 -4 -4 -5 -6 -6 -6 -8 -8 -9 -7 -7 -6 -6 -6 -5 -6 -6 -6 -5 -5 -5 -4 -3 -2 -2 -3 -3 -2 -3 -2 -3 -3 0 1 1 1 0 -0 -1 -2 -2 -3 -3 -4 -3 -4 -4 -4 -4 -4
-3 -4 -4 -4 -5 -6 -6 -7 -8 -9 -10 -10 -10 -8 -8 -7 -7 -6 -6 -6 -7 -7 -7 -6 -5 -4 -3 -3 -3 -3 -3 -3 -3 -3 -3 -2 1 3 3 2 0 -0 -1 -2 -2 -3 -3 -4 -4 -4 -4 -4 -5 -4
-4 -4 -4 -5 -6 -6 -7 -9 -9 -9 -10 -10 -9 -8 -8 -8 -7 -7 -7 -6 -6 -5 -5 -5 -5 -4 -4 -3 -3 -3 -3 -3 -3 -4 -3 -1 3 2 2 2 1 -0 -1 -2 -3 -3 -3 -4 -4 -4 -4 -5 -5 -5
-4 -5 -6 -6 -6 -6 -8 -9 -9 -10 -10 -10 -11 -9 -8 -7 -7 -7 -6 -5 -5 -5 -3 -3 -4 -5 -5 -4 -4 -4 -3 -3 -3 -3 -1 1 2 2 2 2 1 -0 -1 -2 -3 -3 -3 -4 -4 -4 -5 -5 -5 -5
-5 -6 -7 -7 -6 -7 -9 -9 -9 -10 -10 -11 -9 -9 -8 -7 -6 -4 -5 -4 -5 -2 -2 -3 -3 -4 -5 -5 -5 -5 -4 -3 -3 -3 -0 2 2 2 1 1 -0 -1 -2 -3 -3 -3 -3 -4 -4 -4 -5 -5 -6 -6
-7 -8 -7 -7 -8 -8 -9 -9 -9 -10 -10 -10 -8 -8 -6 -5 -4 -4 -4 -4 -3 -3 -2 -2 -5 -4 -5 -6 -6 -4 -3 -3 -2 -0 1 1 1 1 1 0 -1 -2 -2 -3 -3 -3 -4 -4 -5 -5 -6 -6 -7 -7
-9 -10 -9 -8 -9 -9 -9 -9 -10 -10 -11 -8 -7 -7 -5 -4 -4 -4 -2 -3 -3 -2 -2 -3 -5 -6 -5 -5 -4 -4 -3 -2 0 2 2 2 1 1 0 -0 -1 -2 -3 -4 -4 -4 -4 -5 -5 -6 -6 -7 -7 -8
-10 -10 -10 -10 -9 -9 -10 -10 -10 -10 -10 -8 -6 -5 -4 -4 -3 -2 -2 -1 -3 -3 -3 -3 -3 -4 -4 -5 -4 -3 -3 -1 1 1 1 2 1 1 -0 -1 -2 -3 -4 -4 -4 -4 -5 -5 -6 -6 -7 -7 -8 -8
-10 -10 -10 -10 -10 -10 -10 -10 -10 -10 -9 -8 -6 -5 -4 -4 -3 -3 -2 -4 -4 -4 -3 -3 -3 -3 -2 -2 -1 -0 0 -0 0 1 1 1 0 -0 -2 -3 -3 -4 -4 -4 -5 -5 -5 -6 -6 -7 -8 -8 -8 -8
-10 -10 -10 -10 -10 -10 -10 -10 -10 -9 -7 -7 -5 -4 -5 -3 -2 -4 -4 -4 -5 -4 -4 -3 -3 -2 -2 -0 0 1 -0 -1 -0 0 -0 -1 -1 -2 -3 -3 -4 -4 -5 -5 -5 -6 -6 -7 -7 -8 -8 -8 -9 -9
-10 -10 -10 -10 -10 -10 -9 -9 -8 -8 -7 -6 -5 -3 -5 -5 -4 -4 -4 -4 -5 -4 -4 -4 -3 -2 -2 -1 -1 0 -0 -1 -1 -1 -1 -1 -2 -3 -3 -4 -4 -5 -5 -6 -6 -7 -7 -7 -8 -8 -8 -9 -9 -9
-11 -10 -10 -10 -10 -9 -8 -8 -8 -7 -6 -5 -4 -4 -5 -5 -5 -5 -5 -5 -5 -5 -5 -4 -4 -3 -2 -2 -1 -1 -0 -1 -1 -2 -3 -3 -3 -3 -4 -4 -5 -5 -6 -6 -7 -7 -7 -8 -8 -8 -9 -9 -10 -10
-10 -10 -10 -10 -9 -8 -8 -8 -7 -7 -6 -5 -5 -5 -5 -5 -6 -6 -6 -6 -5 -5 -5 -5 -5 -4 -3 -3 -2 -2 -2 -2 -2 -3 -3 -4 -4 -5 -5 -5 -5 -6 -6 -7 -7 -7 -7 -8 -8 -8 -9 -9 -10 -11
-10 -10 -10 -9 -9 -9 -8 -7 -6 -7 -7 -7 -6 -6 -6 -6 -6 -6 -7 -6 -6 -6 -6 -6 -6 -5 -4 -3 -3 -3 -3 -3 -3 -4 -4 -4 -5 -5 -5 -6 -6 -7 -7 -7 -7 -8 -8 -8 -8 -9 -9 -10 -10 -10
-10 -10 -9 -9 -8 -8 -8 -8 -7 -7 -7 -7 -7 -7 -7 -6 -6 -7 -7 -5 -5 -6 -6 -7 -6 -5 -4 -4 -4 -4 -4 -4 -4 -5 -5 -5 -5 -5 -6 -6 -7 -7 -7 -7 -8 -8 -8 -9 -9 -9 -10 -10 -10 -11
-10 -10 -9 -9 -9 -8 -8 -8 -7 -7 -7 -7 -7 -7 -7 -7 -7 -6 -5 -5 -5 -5 -6 -6 -7 -7 -7 -7 -6 -5 -5 -5 -5 -5 -5 -5 -5 -6 -6 -7 -7 -7 -8 -8 -8 -9 -9 -9 -10 -10 -10 -10 -11 -11
-9 -9 -9 -9 -8 -7 -7 -7 -7 -7 -7 -7 -8 -7 -7 -6 -6 -6 -5 -5 -4 -4 -4 -4 -5 -6 -7 -8 -7 -6 -6 -6 -6 -6 -6 -6 -6 -6 -7 -7 -8 -8 -8 -9 -9 -9 -10 -10 -10 -10 -11 -11 -12 -12
-9 -9 -8 -8 -8 -7 -7 -6 -7 -7 -7 -7 -7 -7 -7 -6 -6 -5 -4 -4 -4 -4 -4 -5 -5 -6 -7 -8 -8 -7 -7 -7 -6 -6 -6 -6 -7 -7 -8 -8 -9 -9 -9 -9 -9 -10 -10 -10 -10 -11 -11 -12 -12 -13
-9 -8 -8 -7 -7 -7 -7 -7 -7 -7 -7 -7 -7 -7 -6 -6 -5 -4 -4 -4 -4 -4 -4 -5 -5 -7 -8 -8 -8 -7 -7 -7 -7 -7 -7 -8 -8 -8 -9 -9 -9 -9 -9 -10 -9 -10 -10 -11 -11 -12 -12 -13 -13 -14
-8 -8 -8 -8 -7 -7 -7 -7 -7 -7 -7 -7 -7 -7 -6 -6 -5 -5 -5 -5 -5 -5 -5 -5 -6 -6 -7 -7 -7 -7 -7 -7 -8 -8 -8 -8 -9 -9 -9 -9 -9 -9 -9 -9 -10 -10 -11 -11 -12 -12 -13 -14 -14 -14
-9 -8 -9 -8 -8 -8 -7 -7 -7 -7 -7 -7 -7 -7 -6 -7 -6 -6 -6 -6 -6 -6 -6 -7 -7 -8 -7 -7 -7 -7 -7 -8 -8 -9 -9 -9 -9 -9 -9 -9 -9 -9 -10 -10 -10 -11 -11 -12 -12 -13 -14 -14 -14 -14
-9 -8 -9 -8 -8 -8 -8 -8 -8 -8 -8 -8 -8 -8 -7 -7 -7 -6 -6 -6 -7 -8 -8 -8 -8 -8 -8 -7 -7 -8 -8 -9 -9 -9 -9 -9 -10 -10 -10 -10 -10 -10 -10 -11 -11 -11 -12 -12 -13 -14 -14 -14 -14 -15
-9 -9 -9 -8 -8 -8 -8 -8 -8 -8 -8 -8 -8 -8 -7 -7 -7 -7 -7 -7 -8 -8 -9 -9 -8 -8 -8 -8 -8 -9 -9 -10 -10 -10 -10 -10 -10 -10 -10 -10 -10 -11 -11 -11 -12 -12 -12 -13 -14 -14 -14 -14 -15 -15
-9 -9 -9 -9 -9 -9 -9 -9 -9 -8 -8 -8 -8 -8 -8 -8 -8 -8 -9 -9 -9 -9 -10 -10 -9 -9 -9 -9 -10 -10 -10 -10 -10 -10 -10 -10 -10 -10 -10 -11 -11 -11 -12 -12 -12 -12 -13 -14 -14 -14 -14 -15 -15 -16

GFSWCAN_700_temp_111.txt.gz
Temp
-0 -0 -0 -1 -1 -1 -2 -3 -3 -3 -3 -2 -2 -2 -3 -3 -3 -2 -3 -3 -3 -3 -3 -3 -2 -2 -2 -1 -2 -1 -1 -1 -2 -2 -3 -3 -4 -4 -3 -3 -3 -3 -4 -4 -5 -5 -3 -2 -3 -4 -4 -4 -5 -4
-1 -0 -0 -1 -1 -1 -2 -3 -2 -2 -3 -3 -2 -2 -3 -3 -3 -3 -2 -3 -3 -4 -3 -2 -2 -2 -2 -1 -2 -1 -2 -2 -2 -2 -2 -3 -3 -3 -3 -3 -2 -3 -3 -4 -3 -3 -3 -3 -3 -3 -4 -4 -5 -5
-1 -1 -0 -1 -1 -1 -1 -2 -2 -2 -2 -3 -3 -2 -2 -3 -3 -3 -3 -3 -3 -3 -3 -2 -2 -2 -1 -1 -1 -1 -1 -2 -2 -2 -2 -3 -3 -3 -4 -4 -3 -2 -2 -3 -2 -2 -2 -3 -3 -3 -4 -4 -5 -5
-1 -1 -0 -1 -1 -1 -1 -2 -2 -2 -2 -2 -3 -3 -3 -3 -3 -3 -4 -4 -4 -4 -4 -3 -2 -1 -1 -1 -1 -1 -1 -2 -2 -2 -2 -2 -3 -3 -3 -3 -3 -3 -2 -2 -1 -2 -3 -3 -3 -3 -3 -4 -4 -4
-1 -1 -1 -1 -1 -2 -2 -2 -3 -2 -2 -3 -3 -4 -3 -3 -3 -3 -4 -5 -4 -5 -4 -3 -2 -1 -1 -1 -1 -2 -2 -2 -2 -2 -2 -2 -2 -3 -2 -3 -0 -0 -1 -1 -2 -2 -2 -2 -3 -3 -3 -3 -3 -4
-1 -2 -1 -2 -2 -3 -2 -2 -2 -2 -3 -3 -3 -4 -3 -3 -4 -4 -5 -5 -5 -5 -6 -4 -2 -2 -1 -1 -2 -2 -2 -2 -2 -2 -2 -2 -2 -3 -3 -2 1 0 0 -0 -0 -2 -2 -2 -3 -3 -3 -3 -3 -4
-1 -2 -2 -2 -2 -3 -3 -3 -3 -3 -3 -3 -4 -4 -4 -4 -5 -5 -5 -5 -5 -6 -6 -5 -4 -2 -2 -2 -2 -2 -2 -2 -2 -2 -2 -2 -1 -3 -3 -1 1 0 -1 -1 -1 -2 -2 -2 -2 -2 -3 -3 -3 -3
-2 -2 -2 -2 -3 -3 -3 -3 -4 -3 -3 -4 -5 -5 -5 -5 -6 -6 -6 -5 -6 -6 -7 -6 -4 -3 -2 -2 -2 -2 -2 -2 -2 -2 -2 -2 -2 -2 -2 2 2 2 1 -1 -1 -1 -2 -2 -2 -3 -3 -3 -3 -3
-2 -2 -2 -3 -3 -4 -3 -3 -4 -4 -5 -5 -6 -6 -7 -7 -7 -6 -6 -6 -5 -5 -7 -7 -4 -3 -3 -2 -2 -2 -2 -3 -3 -3 -2 -2 -2 -1 1 2 1 1 1 -1 -1 -1 -2 -2 -2 -3 -3 -3 -3 -3
-3 -3 -2 -3 -4 -4 -4 -4 -4 -5 -6 -7 -9 -10 -9 -7 -7 -6 -6 -6 -5 -5 -7 -6 -5 -4 -3 -2 -2 -3 -3 -3 -3 -2 -2 -2 1 2 1 1 1 1 1 0 -0 -1 -2 -2 -2 -2 -3 -3 -3 -4
-4 -4 -4 -4 -5 -5 -4 -4 -5 -7 -8 -9 -10 -10 -10 -8 -8 -7 -6 -6 -6 -6 -5 -6 -6 -5 -4 -3 -3 -3 -3 -3 -3 -3 -3 -2 2 3 3 3 2 0 0 0 -1 -1 -2 -2 -2 -3 -3 -3 -4 -4
-4 -4 -3 -4 -5 -5 -5 -5 -6 -7 -8 -9 -10 -10 -10 -11 -9 -8 -7 -7 -5 -5 -5 -4 -5 -5 -4 -4 -3 -3 -3 -3 -3 -4 -4 -2 3 3 3 3 3 1 0 -0 -1 -1 -2 -2 -2 -2 -3 -4 -4 -4
-4 -4 -4 -4 -6 -5 -5 -6 -8 -9 -10 -10 -10 -10 -10 -9 -8 -8 -7 -7 -6 -5 -4 -4 -4 -6 -5 -5 -4 -4 -3 -3 -3 -3 -2 -0 1 2 2 3 2 1 0 -0 -1 -1 -2 -2 -2 -3 -3 -4 -4 -5
-5 -5 -5 -5 -6 -7 -7 -8 -9 -10 -10 -10 -10 -10 -10 -9 -8 -7 -6 -6 -4 -5 -4 -4 -4 -5 -5 -5 -4 -4 -4 -4 -4 -3 -1 1 2 2 2 2 2 1 -0 -1 -1 -2 -2 -2 -3 -3 -4 -4 -5 -5
-5 -5 -5 -5 -5 -6 -8 -8 -9 -10 -9 -9 -10 -10 -9 -9 -8 -7 -6 -6 -4 -4 -5 -3 -5 -5 -5 -5 -5 -5 -4 -4 -3 -1 1 1 1 1 1 1 1 1 -1 -1 -2 -2 -2 -3 -3 -4 -4 -5 -5 -6
-5 -6 -4 -5 -6 -7 -8 -9 -9 -9 -9 -9 -10 -9 -9 -9 -7 -7 -5 -6 -5 -5 -4 -3 -7 -6 -5 -5 -5 -5 -4 -3 -1 1 2 2 2 1 1 1 0 -0 -1 -2 -2 -3 -3 -3 -4 -4 -5 -6 -6 -7
-6 -5 -6 -7 -7 -7 -8 -9 -9 -10 -10 -9 -10 -9 -8 -8 -7 -6 -6 -5 -4 -5 -3 -4 -6 -6 -4 -5 -5 -4 -4 -1 0 1 1 2 2 2 1 1 -0 -1 -2 -2 -3 -3 -3 -4 -4 -5 -6 -6 -7 -7
-6 -8 -8 -8 -8 -9 -9 -9 -9 -9 -10 -10 -9 -8 -7 -8 -7 -6 -6 -5 -4 -5 -4 -5 -4 -4 -3 -4 -3 1 2 -0 -0 1 1 2 2 2 0 -0 -1 -2 -3 -3 -4 -4 -5 -5 -5 -6 -6 -6 -7 -8
-9 -9 -9 -10 -9 -9 -9 -10 -10 -9 -9 -9 -8 -8 -7 -8 -6 -5 -5 -6 -6 -5 -6 -5 -4 -3 -2 -1 -0 0 1 -0 -1 -0 1 1 1 1 -0 -1 -2 -3 -3 -4 -4 -5 -5 -5 -6 -6 -7 -7 -7 -8
-10 -10 -10 -9 -9 -10 -10 -10 -10 -10 -9 -8 -9 -8 -9 -7 -5 -6 -7 -6 -6 -6 -7 -6 -4 -3 -2 -2 -1 0 1 0 -2 -1 -0 0 0 -0 -1 -2 -3 -3 -4 -4 -5 -5 -6 -6 -6 -7 -7 -8 -8 -8
-10 -10 -10 -9 -10 -10 -10 -10 -10 -9 -8 -9 -9 -9 -9 -8 -6 -6 -7 -6 -6 -7 -7 -6 -4 -3 -2 -2 -2 -1 0 0 -1 -1 -1 -0 -1 -2 -2 -3 -3 -4 -4 -5 -5 -6 -6 -7 -7 -7 -8 -8 -8 -9
-9 -10 -10 -10 -10 -10 -9 -8 -9 -9 -9 -9 -8 -9 -9 -8 -6 -7 -6 -5 -6 -7 -7 -7 -6 -4 -3 -3 -2 -2 -1 -1 -1 -2 -2 -3 -3 -3 -3 -4 -4 -4 -5 -6 -6 -6 -7 -7 -7 -7 -8 -8 -9 -9
-9 -10 -10 -10 -10 -10 -9 -9 -9 -8 -8 -8 -10 -9 -9 -8 -8 -8 -7 -6 -5 -6 -7 -7 -7 -6 -4 -3 -3 -2 -1 -1 -2 -2 -2 -3 -3 -4 -4 -4 -5 -5 -6 -6 -7 -7 -7 -7 -8 -8 -9 -9 -9 -10
-10 -10 -10 -10 -10 -9 -10 -9 -9 -9 -9 -9 -9 -8 -7 -6 -6 -6 -6 -5 -6 -6 -7 -8 -7 -6 -5 -5 -4 -3 -3 -3 -3 -3 -4 -4 -4 -5 -5 -5 -5 -6 -6 -7 -7 -7 -8 -8 -8 -9 -9 -10 -10 -10
-10 -10 -10 -10 -10 -9 -9 -8 -8 -8 -8 -8 -8 -8 -7 -7 -6 -6 -4 -4 -5 -5 -6 -7 -8 -7 -6 -6 -5 -4 -4 -4 -4 -4 -5 -5 -5 -5 -5 -6 -6 -7 -7 -7 -8 -8 -8 -9 -9 -9 -9 -10 -10 -11
-10 -10 -9 -9 -9 -9 -8 -8 -7 -7 -7 -7 -7 -7 -7 -7 -6 -6 -4 -4 -5 -5 -5 -6 -7 -7 -6 -6 -5 -5 -5 -6 -5 -5 -5 -5 -6 -6 -6 -6 -7 -7 -8 -8 -8 -9 -9 -9 -9 -9 -10 -10 -11 -11
-9 -9 -9 -9 -8 -7 -7 -7 -6 -6 -7 -7 -7 -7 -7 -7 -6 -5 -4 -5 -5 -5 -5 -6 -7 -9 -8 -8 -8 -8 -9 -8 -8 -7 -6 -6 -6 -6 -6 -7 -8 -8 -8 -9 -9 -9 -9 -9 -9 -10 -10 -11 -11 -12
-9 -9 -8 -7 -7 -6 -7 -7 -7 -6 -6 -6 -7 -6 -7 -6 -5 -5 -5 -5 -5 -5 -5 -5 -6 -7 -8 -8 -8 -10 -10 -9 -9 -8 -7 -7 -7 -7 -7 -8 -8 -9 -9 -9 -9 -9 -9 -9 -10 -10 -11 -11 -12 -13
-9 -9 -9 -7 -7 -8 -7 -7 -6 -6 -6 -6 -6 -6 -6 -5 -5 -5 -5 -5 -5 -5 -5 -5 -5 -6 -7 -8 -9 -9 -9 -9 -9 -7 -7 -7 -7 -8 -8 -9 -9 -9 -9 -9 -9 -9 -9 -10 -10 -11 -11 -12 -13 -13
-9 -8 -8 -8 -8 -8 -8 -7 -7 -7 -7 -6 -6 -7 -7 -6 -6 -5 -5 -5 -5 -5 -5 -5 -6 -6 -7 -7 -8 -8 -9 -8 -8 -7 -8 -8 -8 -9 -9 -9 -9 -9 -9 -9 -9 -10 -10 -11 -11 -11 -12 -13 -13 -13
-9 -9 -8 -9 -9 -8 -8 -8 -7 -7 -7 -7 -7 -7 -7 -6 -6 -6 -5 -6 -6 -6 -6 -6 -7 -7 -8 -8 -9 -9 -8 -8 -8 -8 -8 -9 -9 -9 -9 -9 -9 -9 -9 -9 -10 -10 -11 -11 -11 -12 -13 -13 -14 -14
-9 -10 -9 -8 -9 -9 -8 -8 -8 -8 -8 -8 -8 -8 -7 -7 -7 -7 -7 -7 -7 -7 -7 -7 -8 -9 -10 -10 -10 -9 -10 -9 -9 -9 -9 -9 -10 -10 -9 -9 -9 -9 -10 -10 -11 -11 -11 -12 -12 -13 -13 -14 -15 -15
-9 -9 -9 -9 -9 -9 -8 -8 -8 -8 -8 -8 -8 -8 -8 -7 -7 -7 -8 -9 -8 -8 -9 -9 -9 -10 -10 -10 -10 -10 -10 -9 -9 -10 -10 -10 -10 -10 -9 -9 -10 -10 -10 -11 -11 -11 -12 -12 -13 -13 -14 -15 -15 -16

GFSWCAN_700_temp_114.txt.gz
Temp
1 1 0 -1 -0 -0 -1 -2 -2 -3 -1 -0 -2 -1 -2 -2 -2 -3 -3 -3 -3 -3 -3 -3 -2 -2 -2 -1 -1 -1 -1 -1 -1 -1 -2 -2 -3 -3 -3 -3 -3 -3 -3 -3 -5 -5 -5 -2 -2 -3 -3 -3 -3 -4
1 1 1 -0 -0 0 -1 -1 -2 -2 -2 -1 -1 -2 -2 -3 -2 -2 -2 -4 -4 -4 -3 -3 -2 -2 -1 -1 -1 -1 -1 -1 -1 -1 -2 -2 -2 -2 -2 -3 -2 -3 -2 -3 -3 -2 -1 -2 -2 -3 -3 -4 -3 -5
1 0 0 0 -0 -0 -1 -1 -2 -2 -2 -2 -1 -1 -2 -2 -3 -2 -2 -3 -3 -3 -3 -3 -3 -2 -2 -1 -1 -1 -1 -1 -1 -2 -2 -2 -2 -2 -3 -3 -2 -2 -2 -3 -2 -1 -1 -2 -2 -2 -2 -3 -3 -4
1 0 -0 0 -0 -1 -0 -1 -2 -2 -2 -2 -1 -1 -2 -2 -3 -3 -3 -3 -3 -3 -4 -3 -3 -3 -2 -1 -1 -1 -1 -1 -1 -2 -2 -2 -2 -2 -2 -2 -2 -2 -2 -1 -1 -1 -1 -2 -2 -2 -2 -3 -3 -3
1 1 -0 -0 -0 -0 -1 -1 -2 -2 -2 -2 -2 -1 -2 -3 -3 -3 -3 -4 -4 -4 -4 -3 -3 -3 -2 -2 -1 -1 -1 -1 -1 -2 -2 -2 -2 -2 -2 -2 0 0 0 0 -0 -0 -1 -1 -2 -2 -2 -2 -2 -3
1 1 0 -1 -1 -1 -1 -1 -1 -2 -3 -3 -3 -2 -2 -3 -4 -4 -4 -4 -5 -5 -6 -5 -3 -4 -3 -2 -2 -1 -1 -2 -2 -2 -2 -2 -1 -2 -2 -1 2 1 1 0 1 0 -1 -1 -2 -2 -2 -2 -2 -3
1 0 -0 -1 -1 -1 -2 -2 -2 -3 -3 -3 -4 -3 -3 -3 -4 -5 -6 -5 -4 -5 -7 -7 -5 -2 -3 -3 -2 -2 -2 -2 -2 -2 -2 -2 -2 -2 -2 0 2 1 1 0 0 -0 -0 -1 -1 -2 -2 -2 -2 -2
0 0 -0 -1 -1 -2 -2 -3 -3 -3 -4 -4 -4 -4 -4 -4 -4 -5 -7 -7 -5 -6 -6 -6 -6 -3 -3 -3 -2 -2 -2 -2 -2 -2 -2 -2 -2 -2 -1 3 2 2 2 2 1 0 -0 -1 -1 -1 -1 -1 -2 -2
0 0 -0 -1 -1 -2 -2 -3 -3 -4 -4 -4 -5 -6 -5 -5 -4 -4 -6 -7 -6 -6 -6 -6 -6 -5 -3 -3 -3 -3 -3 -3 -3 -2 -2 -2 -2 -1 2 2 1 1 2 2 2 1 -0 -1 -1 -1 -1 -2 -2 -2
-0 -0 -1 -2 -2 -3 -3 -4 -4 -5 -5 -6 -7 -7 -7 -5 -5 -5 -7 -7 -7 -6 -6 -6 -5 -5 -4 -3 -3 -4 -4 -3 -3 -2 -2 -2 1 3 3 2 1 1 1 1 1 1 0 -1 -1 -1 -1 -2 -2 -2
-1 -1 -1 -2 -2 -3 -4 -4 -5 -5 -7 -8 -7 -7 -8 -8 -6 -8 -9 -8 -7 -6 -6 -6 -5 -5 -5 -5 -4 -4 -3 -3 -3 -2 -3 -2 2 5 3 2 3 3 2 1 1 1 1 -0 -1 -1 -1 -2 -2 -3
-1 -1 -2 -2 -3 -3 -4 -5 -5 -5 -6 -7 -7 -8 -10 -11 -9 -9 -9 -8 -7 -6 -6 -5 -5 -5 -5 -5 -5 -4 -4 -3 -2 -4 -4 -2 2 3 3 3 3 3 3 1 1 0 0 -0 -1 -1 -1 -2 -2 -3
-1 -2 -2 -3 -3 -4 -5 -5 -5 -8 -9 -9 -10 -10 -10 -10 -10 -10 -9 -7 -7 -6 -6 -5 -5 -5 -6 -5 -5 -5 -5 -3 -4 -4 -3 -1 1 2 3 2 2 3 3 2 1 0 -0 -0 -1 -1 -1 -2 -2 -3
-2 -2 -3 -3 -4 -5 -5 -5 -7 -9 -10 -10 -10 -10 -10 -9 -10 -8 -8 -7 -6 -6 -6 -4 -5 -5 -6 -6 -5 -6 -5 -5 -4 -4 -2 0 1 2 2 2 2 3 3 1 0 -0 -0 -1 -1 -1 -2 -2 -3 -3
-3 -3 -4 -4 -5 -5 -5 -6 -9 -10 -10 -10 -10 -10 -10 -8 -8 -8 -8 -8 -7 -7 -6 -6 -6 -6 -6 -6 -6 -7 -6 -4 -4 -3 -2 1 2 1 1 1 2 2 2 1 -0 -1 -1 -1 -1 -2 -2 -3 -3 -4
-4 -4 -5 -5 -5 -5 -6 -9 -10 -10 -10 -10 -10 -9 -9 -9 -9 -9 -8 -7 -7 -7 -7 -6 -6 -7 -7 -7 -6 -6 -4 -4 -3 -1 1 2 2 1 1 0 0 1 1 -0 -1 -1 -2 -2 -2 -2 -3 -3 -4 -4
-5 -5 -4 -5 -6 -7 -9 -10 -10 -10 -10 -10 -10 -9 -9 -9 -9 -8 -8 -8 -7 -7 -7 -7 -7 -6 -6 -7 -6 -5 -4 -4 -2 0 1 2 3 2 1 1 1 1 0 -1 -1 -2 -2 -2 -2 -3 -3 -4 -4 -5
-5 -5 -5 -6 -7 -9 -10 -10 -10 -9 -9 -9 -10 -10 -9 -9 -9 -8 -8 -8 -7 -8 -7 -7 -6 -6 -5 -4 -4 -4 -3 -3 -2 -1 -1 0 1 1 2 1 1 -0 -1 -2 -2 -2 -3 -3 -3 -3 -4 -5 -5 -6
-5 -5 -6 -8 -9 -9 -9 -10 -9 -9 -9 -9 -9 -10 -9 -9 -9 -8 -8 -7 -7 -7 -8 -7 -7 -7 -5 -4 -3 -3 -1 -1 -0 -1 -1 -1 0 1 1 1 -0 -1 -1 -2 -3 -3 -3 -3 -4 -4 -5 -6 -6 -6
-6 -8 -9 -9 -9 -10 -9 -9 -9 -9 -9 -9 -9 -9 -10 -9 -8 -8 -8 -8 -8 -8 -8 -7 -7 -6 -5 -5 -4 -3 -2 -1 -1 -1 -1 -2 -2 -0 0 -0 -1 -2 -2 -3 -3 -3 -4 -4 -5 -5 -6 -6 -6 -7
-9 -9 -10 -10 -10 -9 -9 -9 -9 -9 -9 -9 -9 -9 -9 -9 -8 -8 -9 -9 -8 -8 -8 -7 -7 -7 -5 -4 -4 -3 -3 -2 -2 -1 -1 -2 -1 -1 -0 -1 -2 -3 -3 -3 -4 -4 -5 -5 -5 -6 -6 -7 -7 -7
-10 -10 -10 -10 -9 -9 -9 -10 -9 -9 -9 -9 -9 -9 -9 -9 -9 -8 -8 -8 -8 -8 -7 -7 -8 -7 -6 -6 -4 -3 -3 -2 -1 -1 -1 -2 -2 -1 -1 -2 -3 -3 -4 -4 -5 -5 -6 -6 -6 -6 -7 -7 -8 -8
-10 -10 -10 -9 -10 -10 -9 -9 -9 -9 -9 -9 -9 -9 -8 -8 -8 -8 -9 -8 -8 -7 -7 -8 -8 -7 -6 -7 -6 -4 -4 -5 -4 -2 -2 -2 -3 -3 -4 -4 -4 -4 -5 -5 -5 -6 -6 -7 -7 -7 -7 -8 -8 -9
-10 -10 -10 -9 -10 -10 -10 -10 -9 -8 -9 -9 -9 -9 -8 -9 -9 -9 -9 -8 -7 -7 -7 -7 -7 -7 -7 -7 -7 -6 -4 -5 -5 -3 -3 -4 -4 -4 -5 -5 -5 -5 -5 -6 -6 -6 -7 -7 -7 -8 -8 -8 -9 -9
-10 -10 -10 -10 -10 -9 -10 -9 -9 -9 -10 -9 -8 -9 -9 -9 -9 -9 -9 -7 -7 -8 -7 -6 -6 -6 -6 -6 -6 -7 -6 -4 -4 -4 -3 -3 -4 -5 -5 -5 -5 -6 -6 -6 -7 -7 -7 -8 -8 -8 -9 -9 -9 -10
-10 -10 -10 -10 -9 -9 -9 -9 -8 -8 -9 -9 -9 -9 -9 -8 -9 -9 -8 -7 -6 -6 -6 -6 -5 -6 -6 -6 -7 -8 -7 -6 -5 -5 -5 -5 -5 -6 -6 -6 -6 -6 -7 -7 -7 -8 -8 -8 -8 -9 -9 -9 -10 -10
-10 -10 -10 -9 -9 -9 -8 -9 -9 -8 -9 -8 -8 -7 -7 -8 -7 -7 -5 -4 -4 -4 -5 -5 -5 -6 -6 -7 -8 -7 -8 -8 -6 -6 -6 -8 -9 -8 -7 -6 -7 -7 -7 -8 -8 -8 -9 -9 -9 -9 -9 -10 -10 -10
-10 -9 -9 -8 -8 -8 -8 -9 -9 -8 -8 -7 -7 -7 -6 -6 -5 -5 -5 -5 -4 -4 -4 -5 -6 -7 -8 -9 -8 -8 -8 -7 -7 -8 -8 -8 -10 -8 -7 -7 -8 -8 -8 -8 -8 -9 -9 -9 -9 -9 -10 -10 -10 -11
-9 -9 -9 -9 -9 -9 -8 -8 -7 -7 -7 -7 -7 -6 -6 -6 -6 -6 -5 -5 -5 -5 -5 -6 -7 -8 -9 -10 -9 -8 -9 -9 -9 -9 -8 -10 -10 -9 -9 -8 -8 -8 -8 -9 -9 -9 -9 -9 -9 -10 -10 -10 -11 -11
-9 -8 -9 -9 -9 -9 -8 -7 -7 -6 -6 -7 -7 -6 -6 -6 -6 -5 -6 -6 -5 -5 -5 -6 -7 -8 -9 -10 -10 -10 -9 -9 -9 -9 -9 -10 -10 -10 -9 -9 -9 -9 -9 -9 -9 -9 -9 -9 -10 -10 -11 -11 -11 -12
-10 -8 -9 -9 -9 -9 -8 -8 -8 -7 -7 -7 -7 -7 -6 -6 -6 -7 -6 -5 -5 -5 -5 -6 -7 -8 -9 -9 -9 -9 -9 -9 -9 -10 -10 -10 -11 -10 -9 -9 -9 -9 -9 -9 -9 -9 -10 -10 -10 -11 -11 -12 -12 -13
-9 -9 -9 -9 -9 -9 -9 -8 -8 -8 -7 -7 -7 -7 -7 -7 -7 -7 -7 -6 -5 -5 -6 -6 -7 -8 -9 -9 -9 -9 -10 -10 -10 -11 -11 -11 -10 -9 -9 -9 -9 -9 -9 -9 -9 -10 -10 -11 -11 -11 -12 -12 -13 -13
-9 -8 -8 -9 -8 -8 -9 -9 -8 -8 -8 -8 -8 -8 -7 -7 -8 -7 -7 -7 -7 -6 -7 -7 -8 -9 -9 -9 -10 -10 -11 -11 -11 -11 -11 -10 -10 -10 -10 -9 -9 -9 -9 -10 -10 -10 -11 -11 -12 -12 -12 -13 -13 -14

GFSWCAN_700_temp_117.txt.gz
Temp
1 1 1 1 0 1 1 -0 -1 -1 0 -0 -1 -0 -1 -1 -1 -1 -2 -1 -2 -3 -2 -2 -2 -3 -2 -2 -1 -1 -1 -1 -1 -1 -1 -2 -2 -2 -2 -2 -2 -3 -2 -2 -4 -5 -3 -1 -2 -2 -2 -2 -3 -3
1 1 1 1 1 1 1 -0 -1 -1 -1 -0 -1 -1 -0 -1 -1 -1 -2 -1 -1 -2 -2 -3 -3 -2 -2 -2 -1 -1 -1 -1 -1 -1 -1 -1 -1 -2 -2 -2 -1 -2 -1 -2 -2 0 -0 -1 -1 -1 -2 -2 -2 -3
2 1 1 1 1 0 1 0 -0 -1 -1 -1 -0 -1 -1 -1 -1 -1 -2 -2 -2 -1 -2 -2 -3 -3 -2 -2 -2 -2 -2 -2 -2 -1 -2 -2 -1 -1 -2 -1 -1 -1 -2 -2 -1 0 0 -1 -0 -1 -1 -2 -2 -2
2 2 1 1 1 1 0 1 -0 -1 -1 -2 -1 -1 -1 -1 -1 -1 -2 -2 -2 -2 -2 -2 -2 -3 -3 -3 -2 -2 -2 -2 -2 -2 -2 -2 -2 -1 -1 -2 -1 -1 -1 -1 0 1 0 -0 -0 -1 -1 -1 -2 -2
2 1 1 1 1 1 -0 0 -1 -2 -2 -2 -2 -2 -1 -1 -1 -2 -2 -3 -2 -2 -2 -2 -2 -2 -3 -3 -3 -2 -2 -2 -2 -2 -2 -2 -2 -2 -1 -1 1 1 1 0 1 1 1 1 -0 -0 -1 -1 -2 -2
2 1 1 1 0 0 -0 -1 -1 -2 -2 -2 -3 -3 -2 -2 -2 -2 -2 -3 -3 -3 -3 -3 -2 -2 -2 -3 -3 -3 -2 -2 -2 -2 -2 -2 -1 -2 -2 -1 2 2 1 0 0 0 1 0 0 -0 -1 -1 -1 -1
2 1 0 1 0 -0 -1 -1 -2 -2 -3 -3 -3 -3 -3 -3 -3 -4 -4 -3 -4 -4 -5 -5 -3 -1 -2 -3 -3 -3 -3 -2 -3 -3 -2 -2 -2 -2 -2 -0 3 1 1 1 1 1 1 1 -0 -1 -1 -1 -1 -1
2 1 1 0 0 -0 -1 -2 -2 -2 -3 -3 -3 -4 -4 -4 -3 -2 -5 -5 -6 -6 -7 -7 -5 -4 -2 -2 -2 -2 -3 -2 -2 -3 -3 -2 -3 -2 -2 3 2 2 1 2 2 2 1 0 -0 -0 -1 -1 -1 -1
-1 1 1 0 0 -1 -1 -2 -2 -3 -3 -3 -4 -4 -5 -5 -4 -3 -4 -6 -7 -7 -7 -7 -6 -5 -3 -3 -3 -3 -3 -3 -3 -3 -2 -3 -3 -2 2 2 1 1 2 2 1 2 2 1 0 -0 -0 -0 -0 -1
-1 -1 -0 0 -0 -1 -2 -2 -2 -3 -3 -4 -4 -5 -6 -4 -4 -5 -7 -8 -8 -7 -7 -7 -7 -6 -5 -4 -4 -3 -3 -3 -4 -3 -3 -2 -2 1 1 2 2 1 2 2 1 2 2 2 1 0 -0 -0 -0 -1
-1 -1 -1 -1 -1 -1 -2 -3 -3 -3 -4 -5 -5 -5 -6 -6 -7 -6 -7 -9 -8 -8 -8 -7 -7 -7 -6 -5 -5 -4 -4 -4 -4 -3 -4 -3 -2 2 2 2 2 3 3 3 2 1 1 1 1 0 -0 -1 -1 -1
-2 -1 -1 -1 -1 -2 -3 -3 -3 -4 -4 -4 -5 -5 -7 -9 -9 -8 -8 -8 -7 -7 -6 -6 -6 -6 -6 -6 -6 -5 -5 -5 -4 -4 -4 -3 -2 1 2 2 2 3 3 3 2 1 1 1 0 -0 -1 -1 -1 -1
-2 -2 -2 -1 -1 -2 -3 -3 -4 -4 -5 -6 -7 -8 -9 -10 -10 -9 -9 -8 -7 -6 -6 -5 -4 -4 -6 -7 -7 -6 -5 -5 -5 -5 -4 -3 -2 -1 1 2 2 2 2 3 3 1 1 1 0 -0 -1 -1 -1 -2
-2 -2 -2 -2 -2 -3 -4 -5 -6 -5 -6 -7 -8 -10 -9 -9 -7 -5 -5 -4 -3 -4 -3 -5 -5 -5 -6 -7 -7 -6 -5 -5 -5 -4 -3 -3 -2 -0 1 1 1 1 2 3 3 1 0 0 -0 -1 -1 -2 -2 -2
-2 -2 -3 -3 -3 -3 -4 -5 -6 -6 -6 -8 -8 -8 -7 -5 -5 -5 -6 -6 -6 -5 -6 -6 -6 -6 -7 -7 -7 -6 -5 -6 -4 -3 -3 -1 -0 0 2 0 -1 0 1 2 2 1 0 -0 -1 -1 -2 -2 -2 -3
-3 -3 -4 -4 -4 -4 -5 -6 -6 -6 -7 -8 -7 -6 -4 -5 -7 -7 -6 -6 -6 -6 -7 -7 -7 -7 -7 -6 -7 -6 -5 -4 -3 -3 -2 -1 0 1 1 1 -0 -1 -0 1 1 0 -1 -1 -2 -2 -2 -3 -3 -3
-4 -5 -5 -5 -5 -5 -6 -7 -7 -9 -10 -9 -7 -6 -7 -7 -6 -5 -6 -7 -7 -7 -7 -8 -7 -6 -7 -7 -6 -6 -5 -4 -4 -3 -2 0 0 0 -0 -1 -0 -0 -1 -1 -0 -1 -2 -2 -2 -2 -3 -3 -3 -4
-5 -4 -5 -5 -6 -6 -7 -8 -9 -10 -9 -8 -7 -7 -8 -7 -7 -8 -8 -8 -8 -8 -7 -7 -7 -7 -7 -7 -6 -5 -5 -4 -4 -4 -3 -2 -1 -1 -1 -1 -2 -0 -1 -1 -1 -2 -3 -3 -3 -3 -3 -4 -4 -4
-5 -5 -6 -6 -6 -8 -9 -10 -9 -10 -9 -8 -9 -8 -8 -8 -8 -9 -9 -9 -8 -8 -8 -8 -8 -8 -8 -7 -7 -6 -6 -5 -5 -4 -4 -3 -2 -3 -2 -2 -2 -1 -1 -2 -3 -3 -3 -4 -4 -4 -4 -4 -5 -5
-6 -6 -6 -7 -7 -8 -10 -10 -10 -10 -9 -8 -8 -9 -9 -9 -9 -9 -9 -9 -9 -9 -9 -9 -9 -8 -7 -7 -7 -7 -6 -6 -5 -4 -4 -3 -3 -4 -4 -4 -2 -2 -2 -3 -4 -4 -4 -4 -4 -4 -4 -5 -5 -6
-7 -7 -7 -8 -9 -9 -9 -9 -10 -10 -10 -9 -9 -9 -9 -9 -9 -9 -9 -9 -10 -9 -9 -9 -8 -7 -7 -7 -8 -8 -7 -6 -7 -5 -4 -3 -3 -4 -4 -5 -5 -3 -3 -3 -4 -5 -5 -5 -5 -5 -5 -5 -6 -6
-8 -8 -9 -9 -10 -10 -9 -9 -9 -9 -9 -10 -10 -9 -9 -9 -8 -8 -9 -10 -10 -9 -8 -8 -7 -8 -8 -8 -8 -8 -8 -7 -6 -6 -5 -5 -4 -3 -4 -5 -4 -3 -4 -5 -5 -6 -5 -5 -5 -5 -6 -6 -6 -7
-8 -9 -10 -10 -10 -10 -9 -9 -9 -9 -9 -9 -9 -10 -10 -9 -9 -9 -10 -10 -8 -8 -8 -8 -8 -8 -8 -8 -7 -7 -8 -8 -7 -6 -5 -4 -4 -3 -5 -5 -5 -4 -5 -5 -5 -6 -6 -6 -6 -6 -7 -7 -7 -7
-9 -10 -10 -9 -9 -9 -10 -10 -10 -10 -9 -9 -9 -10 -10 -10 -10 -10 -9 -8 -7 -8 -7 -7 -8 -8 -8 -7 -7 -8 -8 -8 -8 -7 -6 -5 -5 -5 -6 -5 -5 -6 -6 -6 -6 -6 -6 -6 -6 -7 -7 -7 -8 -8
-10 -10 -9 -9 -9 -10 -10 -10 -10 -10 -9 -10 -9 -10 -9 -9 -9 -9 -8 -6 -6 -7 -7 -7 -7 -7 -7 -6 -8 -8 -8 -7 -8 -7 -6 -6 -6 -6 -5 -6 -6 -6 -6 -6 -6 -6 -6 -6 -7 -7 -8 -8 -8 -8
-10 -10 -9 -10 -10 -10 -10 -10 -10 -9 -9 -9 -9 -9 -9 -10 -10 -9 -6 -6 -6 -6 -6 -6 -6 -6 -6 -6 -7 -8 -8 -7 -7 -7 -7 -7 -5 -7 -6 -6 -6 -6 -6 -7 -7 -8 -8 -7 -7 -8 -8 -8 -8 -9
-10 -10 -10 -10 -10 -9 -9 -9 -9 -9 -8 -8 -8 -9 -9 -9 -8 -7 -5 -6 -6 -5 -5 -6 -6 -5 -6 -6 -7 -9 -9 -7 -8 -7 -6 -6 -6 -7 -7 -8 -8 -9 -9 -9 -9 -9 -8 -8 -8 -8 -8 -9 -9 -9
-10 -9 -9 -9 -9 -9 -9 -8 -8 -8 -8 -8 -8 -8 -8 -7 -6 -5 -5 -5 -5 -5 -4 -5 -6 -6 -6 -7 -8 -9 -8 -7 -8 -8 -8 -8 -7 -8 -9 -9 -9 -10 -10 -10 -9 -8 -8 -8 -8 -8 -9 -9 -10 -10
-10 -9 -10 -10 -9 -9 -9 -8 -8 -8 -7 -7 -7 -7 -8 -7 -6 -6 -6 -6 -6 -6 -5 -5 -5 -6 -7 -8 -9 -8 -8 -8 -9 -8 -8 -8 -9 -9 -9 -9 -10 -10 -10 -9 -8 -9 -9 -9 -9 -9 -9 -10 -10 -10
-10 -9 -9 -9 -9 -8 -8 -7 -7 -7 -8 -8 -8 -7 -7 -7 -7 -6 -6 -6 -6 -6 -6 -6 -7 -8 -8 -9 -9 -9 -9 -9 -9 -10 -9 -9 -9 -9 -9 -10 -10 -10 -9 -9 -9 -9 -9 -9 -9 -9 -10 -10 -11 -11
-9 -9 -9 -8 -8 -8 -9 -9 -8 -8 -8 -8 -7 -7 -7 -7 -7 -6 -6 -6 -6 -7 -6 -6 -7 -8 -9 -9 -9 -9 -9 -10 -11 -10 -10 -10 -9 -10 -10 -11 -10 -9 -9 -9 -9 -9 -9 -9 -10 -10 -10 -11 -11 -11
-10 -10 -10 -9 -8 -9 -9 -9 -8 -8 -8 -8 -8 -7 -7 -7 -7 -7 -6 -6 -7 -7 -6 -7 -7 -9 -9 -9 -10 -10 -10 -10 -10 -10 -10 -10 -9 -10 -11 -11 -10 -10 -9 -9 -9 -9 -10 -10 -10 -11 -11 -11 -11 -12
-10 -10 -10 -9 -8 -9 -10 -9 -8 -8 -8 -8 -8 -8 -8 -8 -8 -7 -6 -6 -7 -7 -7 -7 -8 -10 -10 -10 -10 -10 -10 -10 -10 -10 -10 -10 -11 -11 -10 -10 -10 -10 -10 -10 -10 -10 -10 -11 -11 -11 -11 -12 -12 -13

GFSWCAN_700_temp_123.txt.gz
Temp
2 2 3 3 2 2 2 1 1 1 1 1 1 1 1 2 1 1 1 -0 -0 -0 -0 0 -0 -1 -1 -1 -1 -1 -1 -0 -1 -1 -1 -1 -1 -1 -1 -0 -1 -1 -1 -1 -1 -2 -1 1 1 0 0 0 -0 -1
3 2 2 3 2 1 2 2 1 1 1 1 1 0 1 1 1 1 1 0 -0 -0 0 0 -0 -1 -1 -1 -2 -1 -1 -1 -1 -1 -1 -1 -1 -1 -1 -1 -0 -0 -0 -1 -0 2 1 1 1 0 1 1 0 -0
2 3 1 2 2 2 1 2 2 1 1 1 1 0 0 1 1 -0 0 0 -0 -0 0 -0 1 -1 -1 -1 -1 -2 -1 -2 -2 -2 -2 -2 -2 -2 -2 -1 -0 -0 -0 -0 -0 1 1 1 1 1 1 1 1 1
1 2 2 1 1 1 2 2 2 2 1 1 1 -0 -0 -0 0 -1 -1 -0 -0 -1 -1 0 -0 -0 -1 -1 -1 -2 -2 -2 -2 -2 -2 -2 -2 -2 -2 -2 -1 -1 -0 0 1 1 0 1 1 1 2 2 1 1
0 1 1 1 1 1 1 2 1 1 1 1 1 -0 -1 -1 -1 -1 -2 -2 -1 -0 -1 -0 -1 -1 -1 -1 -1 -2 -2 -2 -2 -2 -2 -2 -2 -2 -2 -2 -0 1 1 0 1 1 0 1 1 1 1 2 1 2
-2 -1 -1 -1 -0 -0 -0 1 1 1 1 1 1 -1 -2 -2 -2 -2 -1 -2 -2 -1 -2 -1 -0 -1 -1 -2 -2 -2 -3 -3 -2 -2 -2 -2 -2 -2 -3 -2 1 1 2 1 1 1 1 2 2 1 1 1 1 1
-3 -2 -2 -2 -2 -1 -0 -0 -0 0 0 -0 -0 -2 -3 -3 -3 -3 -3 -2 -1 -3 -4 -5 -2 0 -1 -1 -2 -2 -3 -3 -3 -3 -2 -2 -2 -2 -2 -0 3 2 1 2 1 1 1 1 1 2 2 2 1 1
-6 -5 -3 -4 -3 -2 -1 -1 -1 -0 -1 -1 -2 -3 -4 -4 -4 -4 -4 -4 -4 -4 -5 -6 -5 -2 -0 -1 -1 -2 -3 -3 -4 -4 -3 -2 -2 -2 -2 1 4 4 2 2 2 1 1 1 1 1 1 2 1 1
-6 -6 -5 -5 -4 -3 -2 -1 -1 -1 -1 -2 -3 -4 -5 -5 -5 -4 -5 -5 -6 -6 -7 -7 -6 -4 -2 -1 -2 -3 -3 -4 -4 -4 -2 -4 -3 -2 3 3 4 4 2 1 1 -0 1 3 2 1 1 1 2 1
-7 -6 -7 -6 -6 -4 -3 -2 -2 -2 -3 -4 -5 -5 -5 -5 -5 -5 -6 -7 -8 -8 -8 -6 -7 -6 -4 -3 -3 -4 -5 -4 -4 -3 -3 -3 1 2 1 2 2 3 2 1 1 3 2 2 2 2 1 -0 1 1
-7 -7 -6 -6 -5 -6 -4 -3 -3 -3 -3 -4 -5 -5 -5 -5 -6 -7 -7 -7 -7 -7 -6 -6 -7 -8 -6 -5 -4 -4 -5 -5 -5 -3 -4 -3 -1 1 2 3 3 1 1 2 1 1 1 1 1 2 1 0 1 1
-9 -8 -7 -6 -5 -5 -5 -4 -4 -3 -3 -4 -5 -6 -6 -7 -8 -8 -8 -7 -6 -6 -5 -5 -5 -4 -7 -6 -7 -7 -6 -6 -5 -5 -6 -3 -0 -1 1 2 3 2 1 0 1 1 1 2 2 1 1 1 0 1
-10 -9 -8 -9 -8 -6 -6 -6 -3 -4 -3 -4 -6 -7 -7 -8 -8 -7 -8 -7 -6 -4 -4 -4 -2 -4 -7 -7 -7 -7 -6 -6 -6 -6 -4 -2 -1 -0 1 1 0 1 0 -0 -0 -0 0 1 2 2 2 1 0 0
-10 -9 -8 -9 -7 -7 -6 -5 -4 -5 -4 -4 -7 -8 -8 -8 -6 -3 -1 -3 -3 -3 -3 -3 -2 -4 -6 -7 -7 -7 -7 -7 -6 -6 -3 -1 -1 1 2 2 1 -2 -1 -1 -1 -1 0 0 1 1 1 0 -0 -0
-10 -10 -10 -8 -7 -6 -5 -6 -5 -5 -5 -6 -7 -7 -7 -5 -4 -3 -3 -4 -3 -4 -3 -3 -4 -5 -7 -7 -7 -7 -7 -6 -6 -4 -1 -2 -1 -1 -0 0 -1 -1 -2 -2 -2 -2 -1 -1 -0 -0 -0 -1 -1 -1
-11 -10 -9 -8 -7 -7 -5 -5 -5 -5 -5 -6 -7 -7 -5 -5 -4 -4 -3 -3 -5 -5 -5 -6 -7 -7 -7 -7 -7 -6 -7 -6 -3 -2 -2 -2 -2 -1 -1 -1 -2 -2 -3 -3 -3 -2 -2 -1 -1 -1 -1 -2 -2 -2
-11 -9 -8 -8 -7 -6 -5 -5 -6 -6 -7 -7 -7 -6 -4 -3 -3 -4 -5 -4 -4 -6 -5 -6 -7 -6 -7 -7 -6 -6 -4 -2 -2 -2 -3 -2 -2 -2 -2 -2 -2 -3 -3 -3 -3 -3 -2 -3 -2 -2 -2 -2 -3 -3
-10 -9 -8 -8 -7 -7 -6 -6 -6 -8 -7 -7 -7 -5 -4 -4 -3 -4 -5 -5 -6 -6 -6 -6 -6 -6 -6 -5 -4 -2 -1 -2 -3 -3 -3 -3 -3 -3 -4 -3 -2 -3 -4 -4 -4 -4 -3 -3 -3 -2 -4 -4 -4 -4
-10 -9 -8 -7 -6 -6 -6 -7 -8 -8 -7 -7 -6 -5 -5 -5 -5 -5 -5 -6 -6 -6 -6 -6 -7 -5 -5 -4 -3 -3 -3 -4 -4 -5 -5 -5 -5 -5 -5 -5 -4 -4 -4 -5 -5 -5 -5 -4 -4 -4 -5 -4 -4 -5
-10 -8 -8 -7 -7 -6 -7 -8 -8 -8 -7 -7 -6 -6 -6 -5 -7 -7 -6 -6 -6 -6 -8 -7 -4 -3 -3 -3 -4 -4 -4 -5 -6 -6 -6 -7 -6 -7 -7 -7 -6 -6 -6 -6 -6 -5 -5 -5 -5 -5 -5 -5 -5 -5
-9 -8 -7 -7 -7 -7 -8 -8 -9 -8 -8 -7 -6 -6 -6 -7 -7 -7 -7 -7 -8 -7 -6 -4 -4 -4 -3 -4 -5 -5 -6 -7 -7 -7 -7 -8 -8 -8 -8 -8 -8 -8 -7 -6 -6 -6 -6 -6 -7 -6 -6 -6 -6 -5
-9 -8 -7 -7 -7 -8 -8 -9 -8 -8 -8 -7 -8 -8 -8 -8 -8 -8 -7 -8 -7 -5 -5 -5 -4 -4 -4 -5 -6 -6 -7 -8 -8 -8 -8 -8 -9 -9 -8 -8 -8 -8 -8 -7 -6 -6 -7 -6 -8 -7 -7 -7 -6 -6
-9 -8 -7 -8 -8 -9 -9 -8 -8 -8 -9 -9 -8 -8 -9 -9 -8 -8 -9 -8 -6 -5 -5 -4 -5 -5 -6 -6 -7 -7 -7 -7 -8 -8 -8 -9 -8 -8 -8 -8 -8 -8 -8 -8 -7 -7 -7 -8 -9 -8 -7 -7 -7 -7
-9 -8 -9 -9 -8 -8 -10 -10 -9 -9 -9 -9 -9 -9 -9 -9 -8 -9 -8 -6 -5 -5 -6 -5 -6 -6 -7 -7 -7 -6 -7 -7 -7 -8 -8 -8 -8 -8 -8 -8 -9 -8 -8 -8 -7 -7 -8 -9 -9 -8 -8 -8 -8 -8
-8 -9 -9 -9 -9 -9 -10 -10 -10 -9 -9 -9 -9 -10 -9 -9 -9 -9 -8 -6 -6 -5 -5 -6 -7 -7 -7 -6 -6 -7 -7 -7 -7 -7 -7 -8 -8 -8 -8 -9 -8 -8 -8 -8 -8 -8 -9 -9 -9 -9 -9 -9 -8 -9
-9 -10 -9 -9 -9 -9 -9 -10 -10 -9 -9 -9 -9 -9 -9 -9 -8 -8 -7 -5 -5 -6 -6 -6 -6 -6 -6 -6 -6 -6 -6 -7 -7 -7 -7 -8 -8 -8 -9 -9 -8 -9 -8 -8 -8 -8 -9 -9 -9 -9 -9 -9 -9 -9
-9 -9 -9 -9 -9 -9 -9 -9 -9 -9 -9 -9 -8 -8 -9 -8 -8 -8 -6 -5 -6 -6 -6 -6 -6 -7 -6 -6 -6 -6 -6 -6 -6 -6 -7 -7 -7 -8 -8 -9 -9 -9 -8 -8 -9 -9 -10 -9 -9 -10 -10 -9 -10 -11
-9 -9 -9 -8 -9 -9 -9 -9 -9 -9 -9 -9 -8 -8 -8 -8 -8 -6 -6 -6 -6 -6 -7 -6 -6 -6 -6 -5 -5 -6 -5 -6 -6 -7 -6 -7 -8 -8 -9 -8 -9 -8 -9 -9 -10 -11 -11 -11 -11 -10 -10 -11 -10 -10
-9 -8 -9 -9 -8 -9 -9 -9 -9 -9 -8 -7 -7 -7 -7 -7 -7 -7 -6 -7 -7 -7 -7 -6 -6 -6 -6 -6 -6 -5 -6 -6 -6 -7 -7 -7 -8 -8 -8 -8 -8 -9 -9 -9 -10 -11 -10 -10 -10 -10 -11 -10 -10 -10
-9 -8 -9 -9 -9 -9 -9 -9 -8 -8 -8 -8 -8 -8 -8 -7 -7 -8 -8 -7 -6 -6 -6 -6 -6 -6 -6 -6 -5 -5 -6 -6 -7 -7 -8 -8 -7 -8 -8 -8 -9 -9 -9 -10 -10 -10 -10 -10 -10 -11 -10 -10 -10 -10
-9 -9 -9 -9 -9 -9 -9 -9 -9 -9 -8 -8 -8 -8 -8 -8 -8 -8 -7 -7 -7 -7 -7 -6 -6 -6 -6 -6 -5 -6 -7 -8 -8 -8 -8 -8 -9 -9 -9 -9 -9 -9 -9 -10 -10 -10 -11 -12 -10 -10 -10 -10 -10 -11
-10 -10 -10 -9 -9 -9 -10 -9 -9 -9 -8 -8 -8 -8 -8 -8 -8 -7 -7 -7 -7 -7 -7 -7 -6 -6 -6 -6 -7 -8 -9 -9 -9 -9 -8 -8 -8 -9 -9 -9 -9 -9 -10 -10 -10 -11 -11 -10 -10 -10 -10 -11 -11 -11
-10 -10 -10 -10 -9 -9 -9 -10 -10 -9 -9 -9 -9 -9 -9 -8 -8 -7 -7 -7 -7 -7 -7 -7 -7 -7 -7 -8 -9 -9 -9 -9 -9 -9 -9 -9 -9 -9 -9 -9 -10 -10 -10 -10 -11 -11 -10 -10 -10 -10 -11 -11 -11 -11

GFSWCAN_700_temp_126.txt.gz
Temp
2 3 2 2 2 2 2 2 2 2 1 1 1 1 1 0 0 0 0 1 -0 0 0 -0 -0 -0 -0 -0 -1 -1 -1 -0 -0 -1 -1 -1 -1 -1 -1 -0 -0 -0 0 0 -1 -1 -0 1 1 0 1 0 -0 -0
2 2 2 1 1 1 2 2 1 2 1 2 1 1 1 1 0 -0 -0 -0 0 0 1 0 0 -0 -0 -1 -1 -1 -1 -1 -1 -1 -1 -1 -1 -1 -1 -1 0 0 1 0 0 2 1 1 1 1 1 1 1 0
2 2 2 2 0 1 1 1 1 1 1 1 1 1 1 1 0 -0 -0 -1 -1 -0 0 1 1 -1 -1 -1 -1 -1 -1 -2 -2 -1 -2 -2 -2 -2 -1 -1 -0 0 0 -0 0 2 1 1 1 1 1 1 1 2
-1 0 1 -0 -0 0 0 1 0 1 1 1 1 1 1 1 0 -1 -1 -2 -1 -1 -1 1 1 0 -0 -0 -1 -1 -2 -2 -2 -3 -2 -2 -2 -2 -2 -1 -1 -0 -1 0 1 3 1 1 1 1 1 1 1 2
0 -0 -1 -1 -1 -0 0 -0 -0 -0 0 0 0 1 1 0 -1 -1 -2 -2 -2 -2 -1 0 0 -0 0 -0 0 -1 -2 -2 -2 -3 -3 -3 -3 -3 -2 -2 -1 2 2 1 2 3 1 2 1 2 2 1 1 2
-2 -1 0 0 -1 -2 -0 -1 -1 -1 -1 -0 -0 -0 -0 -1 -2 -3 -2 -2 -2 -3 -4 -3 -1 0 -0 -0 -1 -0 -2 -2 -2 -3 -3 -3 -2 -3 -4 -2 2 4 3 3 3 2 1 1 2 2 2 2 2 2
-4 -4 -3 -1 -1 -3 -2 -2 -2 -2 -2 -1 -1 -1 -1 -2 -3 -3 -3 -3 -3 -3 -3 -5 -4 -1 -1 0 1 -1 -2 -3 -2 -3 -3 -3 -3 -4 -4 -0 5 3 3 3 2 2 2 2 2 1 2 1 2 2
-5 -5 -4 -4 -4 -5 -4 -3 -4 -3 -3 -2 -2 -2 -3 -3 -5 -4 -4 -4 -5 -5 -4 -5 -5 -4 -1 0 -0 -1 -3 -4 -3 -3 -4 -3 -3 -3 -3 5 5 4 3 3 3 2 1 1 2 2 1 1 1 1
-6 -6 -6 -5 -5 -6 -7 -6 -5 -4 -3 -2 -2 -3 -5 -6 -5 -5 -5 -5 -5 -5 -5 -5 -5 -5 -3 -1 -2 -2 -3 -3 -4 -3 -3 -4 -3 -3 5 4 3 3 3 2 1 0 1 1 2 2 1 1 1 1
-8 -7 -7 -6 -6 -6 -6 -6 -6 -4 -4 -3 -4 -4 -5 -5 -5 -6 -6 -7 -7 -6 -5 -4 -6 -5 -4 -3 -3 -4 -5 -4 -4 -3 -4 -3 0 1 3 2 3 3 3 2 3 2 1 1 1 1 1 1 0 1
-9 -8 -8 -8 -7 -7 -6 -6 -7 -6 -5 -5 -5 -4 -5 -5 -6 -7 -7 -7 -8 -6 -5 -5 -4 -5 -6 -5 -6 -6 -6 -6 -5 -4 -5 -4 1 3 2 2 2 2 3 3 2 1 1 1 0 0 1 1 1 1
-12 -11 -10 -9 -9 -8 -7 -7 -7 -7 -6 -6 -5 -5 -6 -6 -8 -8 -8 -7 -6 -6 -4 -3 -4 -4 -7 -7 -6 -6 -7 -7 -6 -6 -7 -3 1 2 2 1 1 2 2 2 1 1 0 0 0 0 1 1 1 1
-12 -12 -12 -11 -11 -10 -9 -9 -9 -8 -7 -6 -5 -6 -8 -8 -8 -8 -7 -5 -5 -4 -3 -3 -5 -4 -6 -6 -7 -7 -7 -7 -7 -6 -4 -0 1 1 1 0 1 1 0 1 1 1 1 0 -0 -0 0 1 1 0
-12 -12 -12 -12 -12 -11 -10 -10 -10 -9 -8 -7 -7 -7 -8 -9 -8 -4 -1 -1 -1 -2 -4 -5 -3 -4 -6 -7 -7 -7 -7 -7 -7 -6 -2 2 1 -0 0 1 1 1 1 -1 -1 -1 -1 -0 0 0 0 0 1 -0
-13 -13 -12 -12 -12 -11 -11 -10 -9 -9 -8 -8 -7 -7 -8 -6 -5 -2 -2 -3 -3 -3 -4 -5 -5 -5 -6 -7 -7 -7 -7 -7 -4 -1 2 1 1 1 0 -0 0 0 -1 -2 -2 -2 -2 -1 -1 -0 -0 -0 -0 -1
-13 -13 -13 -12 -12 -11 -11 -11 -9 -10 -8 -8 -7 -7 -7 -5 -5 -4 -2 -2 -3 -4 -5 -5 -6 -6 -7 -6 -7 -6 -6 -3 -0 -0 1 0 -0 -0 -1 -1 -1 -1 -2 -2 -2 -2 -2 -2 -1 -1 -1 -1 -1 -1
-13 -13 -13 -12 -12 -11 -12 -11 -9 -9 -9 -8 -7 -7 -6 -4 -3 -2 -1 -2 -3 -5 -5 -5 -6 -6 -6 -6 -6 -4 -2 -0 -0 -0 -1 -1 -1 -1 -2 -1 -2 -2 -3 -3 -2 -2 -2 -2 -2 -2 -1 -2 -2 -2
-13 -13 -13 -12 -12 -12 -12 -11 -10 -9 -8 -8 -7 -6 -5 -5 -4 -4 -4 -3 -5 -4 -5 -6 -6 -6 -6 -5 -2 -2 -1 -0 -1 -2 -2 -2 -2 -3 -2 -2 -2 -2 -2 -3 -3 -2 -3 -3 -3 -3 -2 -2 -2 -3
-13 -13 -12 -12 -12 -12 -12 -11 -10 -8 -8 -7 -7 -7 -6 -5 -4 -5 -4 -4 -5 -5 -5 -6 -7 -5 -3 -3 -2 -3 -2 -1 -3 -3 -3 -3 -3 -4 -4 -4 -4 -4 -4 -4 -5 -4 -4 -5 -5 -4 -3 -3 -3 -3
-13 -13 -13 -13 -13 -12 -12 -11 -10 -9 -8 -7 -7 -7 -6 -5 -5 -5 -5 -6 -6 -7 -8 -7 -4 -3 -3 -3 -3 -2 -3 -3 -4 -3 -4 -4 -5 -5 -5 -5 -5 -6 -6 -6 -6 -6 -6 -6 -6 -5 -5 -4 -4 -4
-13 -13 -13 -13 -13 -13 -12 -11 -10 -9 -7 -7 -7 -7 -7 -7 -7 -7 -6 -6 -7 -7 -6 -3 -3 -4 -4 -4 -4 -3 -4 -4 -4 -5 -5 -6 -7 -7 -7 -7 -7 -8 -8 -8 -8 -8 -8 -7 -7 -6 -6 -6 -6 -6
-13 -13 -13 -13 -12 -12 -11 -10 -9 -8 -8 -7 -7 -7 -8 -8 -7 -7 -7 -7 -7 -5 -4 -4 -4 -4 -4 -4 -3 -4 -4 -5 -5 -6 -7 -7 -7 -8 -8 -8 -8 -8 -8 -8 -8 -8 -7 -8 -7 -7 -6 -7 -8 -7
-13 -13 -12 -11 -11 -10 -9 -9 -9 -9 -8 -8 -8 -8 -8 -8 -8 -8 -8 -7 -6 -5 -5 -5 -5 -5 -5 -5 -5 -5 -6 -6 -7 -7 -7 -7 -7 -8 -8 -8 -8 -8 -8 -8 -8 -8 -8 -8 -8 -8 -8 -7 -8 -8
-13 -13 -13 -12 -10 -10 -10 -10 -9 -9 -9 -9 -9 -8 -9 -8 -8 -8 -7 -6 -5 -5 -5 -5 -5 -6 -6 -6 -6 -6 -6 -7 -6 -6 -7 -7 -8 -7 -8 -8 -8 -8 -8 -8 -8 -8 -8 -8 -8 -8 -8 -9 -9 -9
-13 -12 -12 -10 -10 -10 -10 -10 -9 -9 -9 -10 -9 -9 -9 -9 -8 -8 -7 -6 -5 -5 -5 -5 -6 -7 -7 -7 -6 -6 -7 -6 -6 -7 -7 -7 -7 -7 -7 -8 -8 -8 -8 -8 -8 -8 -8 -8 -9 -9 -10 -10 -10 -10
-12 -11 -10 -9 -9 -9 -9 -10 -9 -9 -9 -10 -9 -9 -9 -9 -8 -8 -8 -6 -5 -5 -5 -6 -6 -7 -7 -7 -6 -6 -6 -6 -7 -7 -6 -6 -6 -7 -7 -7 -8 -8 -8 -8 -8 -8 -8 -9 -10 -10 -10 -10 -11 -10
-9 -9 -10 -9 -9 -9 -9 -9 -9 -9 -9 -9 -9 -9 -9 -9 -8 -8 -7 -6 -6 -6 -7 -6 -6 -6 -6 -6 -6 -6 -6 -6 -6 -5 -6 -6 -6 -7 -7 -7 -7 -8 -8 -8 -8 -9 -9 -9 -10 -10 -10 -11 -11 -10
-9 -9 -9 -9 -9 -9 -9 -9 -10 -9 -9 -9 -8 -9 -9 -8 -7 -7 -6 -6 -6 -7 -7 -7 -7 -6 -6 -6 -6 -5 -5 -5 -6 -6 -6 -6 -6 -6 -7 -7 -7 -7 -7 -8 -8 -9 -9 -10 -10 -10 -11 -11 -11 -10
-9 -9 -9 -9 -9 -9 -9 -9 -9 -8 -8 -8 -8 -8 -8 -7 -7 -8 -8 -8 -7 -7 -7 -7 -7 -6 -6 -6 -5 -5 -5 -5 -5 -5 -5 -5 -6 -7 -8 -8 -7 -8 -8 -8 -9 -10 -10 -11 -11 -11 -11 -11 -10 -10
-9 -9 -9 -10 -10 -9 -9 -8 -8 -8 -8 -8 -9 -9 -8 -8 -8 -8 -8 -8 -8 -7 -6 -6 -6 -6 -5 -5 -5 -5 -6 -5 -5 -5 -5 -6 -6 -7 -8 -8 -8 -8 -8 -9 -9 -10 -10 -11 -10 -10 -10 -10 -11 -11
-9 -9 -9 -9 -10 -9 -8 -8 -8 -9 -9 -9 -9 -9 -9 -8 -8 -8 -8 -8 -8 -7 -6 -6 -6 -6 -6 -5 -5 -6 -6 -5 -5 -6 -7 -7 -8 -8 -8 -8 -8 -8 -9 -9 -10 -10 -10 -10 -10 -11 -11 -11 -10 -10
-10 -10 -9 -9 -9 -9 -9 -9 -9 -9 -9 -9 -9 -9 -9 -9 -8 -8 -8 -8 -8 -7 -7 -6 -6 -6 -6 -6 -5 -5 -6 -6 -6 -8 -8 -8 -9 -9 -8 -8 -8 -9 -10 -9 -10 -10 -10 -10 -11 -11 -11 -10 -10 -11
-9 -9 -9 -9 -9 -9 -9 -9 -9 -9 -10 -9 -9 -9 -9 -9 -8 -8 -7 -7 -8 -7 -7 -7 -7 -7 -7 -6 -6 -6 -7 -8 -8 -8 -9 -9 -9 -8 -8 -9 -10 -9 -10 -10 -10 -10 -11 -11 -12 -11 -10 -11 -11 -11

GFSWCAN_700_temp_129.txt.gz
Temp
-1 -1 -1 -1 -0 -0 1 0 1 2 1 2 1 1 1 1 1 1 1 1 0 1 1 1 0 -1 -0 -0 -0 -1 -1 -0 -1 -1 -1 -0 -0 -0 0 0 0 0 0 1 -0 -1 -0 2 2 1 2 2 1 1
-2 -2 -2 -2 -1 -1 -1 -1 -0 -0 1 1 1 1 1 1 1 1 0 -0 0 1 1 1 1 1 0 -0 -1 -1 -1 -1 -1 -1 -1 -1 -1 -1 -1 -1 0 -0 2 2 1 3 3 2 2 2 2 2 2 2
-3 -2 -2 -2 -2 -2 -2 -2 -2 -1 -1 0 0 1 1 0 0 0 1 1 0 -0 1 2 2 0 0 -1 -1 -1 -1 -1 -2 -2 -2 -3 -3 -2 -2 -1 -0 0 0 -0 0 4 3 2 2 2 1 2 2 2
-3 -3 -3 -2 -2 -2 -2 -2 -2 -2 -2 -1 -1 -0 -0 -0 -0 -0 -0 -1 -1 -1 -1 1 2 1 0 0 0 -0 -1 -2 -2 -2 -3 -3 -3 -2 -2 -1 -0 0 -0 -0 2 4 2 2 2 1 1 1 1 1
-3 -3 -3 -3 -2 -2 -2 -2 -2 -2 -2 -1 -1 -1 -1 -1 -1 -1 -2 -2 -3 -2 -1 0 1 1 1 0 -0 -1 -1 -2 -2 -3 -3 -3 -3 -3 -3 -3 2 3 3 1 2 3 2 2 2 1 2 2 1 1
-4 -4 -4 -4 -3 -2 -2 -3 -2 -2 -2 -2 -2 -2 -2 -2 -2 -3 -3 -2 -2 -3 -4 -3 -1 -0 -0 -0 0 0 -0 -1 -3 -2 -3 -4 -3 -4 -4 -3 6 5 4 3 3 2 1 2 2 1 1 1 1 2
-6 -6 -5 -5 -5 -4 -4 -4 -4 -5 -5 -3 -4 -3 -2 -2 -3 -3 -3 -2 -3 -4 -4 -4 -3 -2 -1 -1 -1 -1 -1 -1 -3 -3 -3 -3 -3 -5 -4 -0 7 5 4 4 2 1 2 2 3 1 1 1 0 1
-7 -7 -6 -6 -6 -5 -5 -5 -5 -6 -5 -4 -5 -3 -2 -3 -4 -4 -4 -4 -5 -5 -4 -4 -4 -4 -4 -1 0 -1 -3 -3 -3 -3 -3 -2 -3 -4 -2 8 7 5 3 3 3 2 2 1 2 2 2 2 1 1
-7 -7 -7 -7 -6 -6 -6 -6 -6 -6 -7 -6 -5 -4 -3 -5 -5 -4 -4 -5 -5 -6 -6 -5 -4 -5 -4 -3 -1 -1 -2 -3 -4 -4 -3 -4 -3 -2 5 5 4 4 2 3 3 2 3 2 1 2 2 1 1 1
-9 -8 -7 -7 -7 -7 -7 -7 -7 -7 -7 -6 -6 -5 -5 -5 -4 -5 -5 -6 -7 -7 -6 -5 -5 -6 -6 -4 -3 -4 -5 -5 -5 -4 -4 -3 1 4 4 5 3 3 2 2 3 4 3 3 3 1 2 1 1 1
-10 -10 -9 -8 -8 -8 -8 -8 -8 -9 -8 -8 -7 -6 -6 -5 -5 -5 -7 -8 -8 -7 -4 -3 -5 -6 -6 -6 -5 -5 -6 -6 -5 -4 -4 -3 3 6 4 3 3 3 2 2 2 2 2 2 2 1 1 1 1 1
-12 -12 -12 -11 -11 -11 -10 -10 -10 -10 -10 -9 -9 -8 -8 -7 -7 -7 -8 -8 -6 -5 -5 -4 -3 -3 -6 -7 -6 -6 -6 -6 -5 -5 -5 -2 3 3 3 3 2 2 2 2 2 2 1 0 -0 0 0 0 0 1
-13 -12 -12 -12 -12 -12 -12 -12 -12 -12 -11 -10 -10 -8 -8 -9 -8 -9 -9 -7 -6 -3 -1 -1 -4 -5 -7 -7 -7 -7 -6 -6 -7 -6 -3 1 2 1 2 2 1 1 1 1 0 0 1 1 -0 0 0 0 0 0
-13 -13 -13 -12 -12 -12 -13 -13 -12 -12 -12 -11 -10 -9 -9 -9 -8 -8 -5 -2 -1 -1 -0 -2 -4 -6 -8 -8 -7 -7 -7 -7 -7 -6 -1 1 2 3 2 1 1 1 1 1 1 0 -0 0 0 0 -1 -1 -1 -0
-13 -13 -13 -13 -13 -13 -13 -13 -12 -12 -12 -12 -11 -9 -9 -8 -8 -5 -4 -4 -3 -2 -2 -4 -6 -7 -7 -7 -7 -7 -7 -7 -5 -2 -1 0 1 1 1 1 1 1 1 0 0 0 -1 -2 -2 -2 -2 -1 -1 -1
-13 -13 -13 -13 -13 -13 -13 -13 -13 -13 -13 -12 -11 -10 -8 -7 -7 -6 -6 -4 -4 -4 -6 -6 -7 -7 -7 -6 -7 -7 -7 -2 -0 -0 -0 0 -1 0 0 -0 -0 -0 -0 -0 -0 -1 -2 -2 -2 -2 -2 -2 -2 -2
-14 -13 -13 -13 -13 -13 -13 -14 -13 -13 -13 -12 -11 -10 -9 -10 -8 -8 -7 -6 -6 -6 -7 -6 -7 -6 -6 -7 -6 -4 -2 0 -1 -1 -1 -0 -2 -1 -1 -1 -1 -1 -1 -1 -2 -2 -2 -2 -2 -2 -2 -3 -2 -2
-14 -13 -13 -14 -14 -14 -13 -14 -14 -13 -13 -12 -12 -10 -10 -9 -8 -7 -7 -6 -7 -7 -7 -6 -6 -6 -6 -6 -3 -1 -1 -2 -2 -2 -2 -3 -3 -2 -2 -2 -2 -2 -2 -2 -2 -3 -2 -3 -3 -2 -2 -3 -4 -3
-14 -14 -14 -14 -14 -14 -14 -14 -13 -13 -12 -11 -11 -10 -10 -9 -8 -8 -7 -7 -7 -6 -6 -6 -8 -7 -6 -3 -1 -2 -2 -2 -2 -3 -4 -4 -4 -4 -4 -4 -3 -3 -3 -3 -4 -4 -4 -4 -4 -4 -4 -4 -5 -5
-14 -14 -14 -14 -14 -14 -14 -14 -13 -13 -12 -11 -11 -10 -10 -9 -8 -7 -7 -7 -7 -7 -8 -8 -7 -4 -3 -2 -3 -3 -3 -3 -5 -4 -4 -4 -4 -4 -4 -4 -5 -5 -5 -5 -5 -5 -5 -5 -6 -6 -6 -6 -6 -6
-15 -14 -14 -14 -14 -14 -14 -14 -13 -13 -12 -11 -11 -10 -10 -9 -9 -7 -7 -7 -8 -8 -7 -5 -3 -3 -4 -4 -4 -4 -5 -5 -5 -5 -5 -5 -6 -6 -5 -5 -6 -6 -6 -6 -6 -6 -6 -6 -7 -7 -7 -7 -7 -7
-14 -14 -15 -14 -15 -14 -14 -13 -13 -12 -12 -11 -11 -10 -10 -9 -8 -7 -7 -8 -7 -6 -4 -4 -4 -4 -4 -4 -5 -5 -6 -6 -6 -6 -6 -6 -6 -6 -6 -6 -7 -7 -7 -7 -7 -7 -7 -7 -7 -7 -7 -7 -7 -8
-15 -15 -15 -14 -14 -14 -13 -13 -12 -12 -12 -12 -11 -11 -9 -9 -8 -8 -8 -7 -6 -5 -5 -5 -5 -5 -5 -6 -6 -7 -6 -6 -6 -6 -6 -6 -7 -7 -7 -8 -8 -8 -7 -7 -7 -7 -7 -7 -7 -8 -8 -8 -8 -8
-15 -15 -15 -15 -14 -13 -12 -12 -12 -12 -11 -11 -10 -9 -9 -9 -9 -9 -8 -6 -5 -5 -5 -5 -6 -6 -7 -7 -6 -6 -6 -7 -7 -7 -7 -7 -7 -7 -7 -8 -8 -7 -7 -7 -6 -6 -6 -7 -7 -8 -8 -8 -9 -8
-15 -15 -14 -13 -13 -13 -12 -12 -12 -11 -11 -10 -10 -10 -9 -9 -9 -9 -8 -6 -6 -5 -5 -6 -6 -7 -7 -7 -7 -7 -7 -7 -7 -7 -7 -7 -8 -8 -7 -7 -7 -7 -7 -7 -6 -6 -7 -8 -8 -8 -8 -9 -9 -9
-15 -14 -13 -12 -12 -13 -12 -12 -11 -11 -11 -10 -10 -9 -9 -9 -9 -9 -8 -6 -6 -6 -6 -7 -6 -6 -6 -6 -6 -6 -7 -7 -7 -8 -7 -7 -7 -7 -7 -7 -7 -7 -7 -6 -6 -7 -7 -8 -8 -8 -9 -9 -10 -10
-14 -13 -12 -12 -11 -11 -11 -11 -11 -11 -10 -10 -10 -9 -9 -9 -9 -8 -7 -6 -7 -7 -7 -6 -6 -6 -6 -6 -7 -7 -7 -7 -7 -7 -6 -6 -6 -6 -5 -6 -6 -6 -7 -7 -7 -7 -7 -8 -9 -9 -9 -10 -11 -11
-13 -12 -12 -11 -11 -11 -10 -10 -10 -10 -9 -9 -9 -9 -9 -8 -8 -7 -7 -7 -7 -7 -7 -7 -8 -7 -7 -7 -6 -6 -6 -6 -6 -5 -5 -6 -6 -6 -6 -6 -6 -7 -6 -7 -7 -8 -8 -8 -8 -9 -10 -11 -11 -11
-13 -12 -12 -12 -11 -10 -10 -10 -9 -9 -9 -9 -9 -9 -8 -8 -7 -8 -8 -8 -7 -7 -7 -7 -7 -7 -7 -6 -6 -6 -6 -6 -6 -6 -6 -5 -5 -6 -6 -6 -6 -6 -7 -8 -8 -8 -8 -9 -9 -10 -11 -11 -11 -11
-12 -11 -12 -11 -11 -10 -10 -10 -9 -9 -9 -9 -9 -9 -9 -8 -8 -8 -8 -8 -8 -8 -8 -7 -7 -7 -7 -7 -6 -6 -6 -6 -6 -6 -5 -5 -6 -6 -5 -5 -6 -6 -8 -9 -8 -8 -8 -9 -10 -10 -10 -10 -11 -11
-12 -11 -10 -11 -11 -10 -10 -9 -9 -9 -9 -9 -9 -9 -9 -9 -9 -9 -9 -9 -8 -8 -8 -7 -7 -6 -6 -6 -6 -6 -5 -5 -5 -6 -6 -6 -6 -6 -7 -7 -7 -8 -9 -9 -9 -9 -9 -10 -10 -10 -10 -11 -11 -11
-10 -11 -11 -10 -10 -10 -10 -10 -10 -9 -9 -9 -9 -9 -10 -10 -9 -9 -9 -8 -8 -8 -8 -7 -7 -7 -6 -6 -5 -5 -5 -6 -6 -6 -6 -6 -7 -7 -8 -8 -8 -8 -8 -8 -9 -10 -10 -10 -10 -10 -11 -11 -11 -12
-10 -10 -10 -10 -10 -10 -10 -10 -10 -10 -10 -10 -10 -10 -10 -9 -9 -8 -8 -8 -8 -8 -8 -7 -7 -7 -6 -6 -6 -6 -6 -6 -6 -6 -7 -7 -8 -9 -9 -8 -9 -8 -9 -10 -10 -10 -10 -11 -11 -11 -11 -12 -12 -11

GFSWCAN_700_temp_132.txt.gz
Temp
1 0 -0 -1 -2 -2 -1 -1 -1 -1 -1 -1 -1 -1 -0 -0 1 0 0 1 0 1 1 1 1 2 1 0 -0 -0 -1 0 -0 -1 -1 -0 -0 0 0 1 1 0 0 0 -0 -2 1 3 3 2 2 2 2 2
0 1 0 -1 -1 -3 -2 -2 -1 -1 -2 -2 -2 -2 -1 -1 -1 -0 0 0 0 0 0 1 1 1 0 0 -0 -1 -1 -1 -1 -1 -1 -1 -1 -1 -0 -1 0 -1 1 2 2 3 3 3 3 2 2 2 1 1
-2 -2 0 0 -2 -2 -2 -2 -2 -2 -2 -2 -2 -3 -2 -1 -1 -1 -1 -1 -1 -1 -0 0 1 0 1 0 -1 -1 -0 -1 -1 -2 -3 -3 -3 -2 -2 -1 0 -0 0 -0 1 4 3 2 2 2 1 1 1 1
-5 -5 -5 -3 -2 -3 -3 -3 -3 -2 -3 -3 -2 -2 -2 -2 -1 -2 -1 -1 -2 -3 -2 -1 -0 -0 0 -0 -0 -0 -1 -1 -1 -2 -2 -3 -4 -3 -2 -1 -1 -1 -1 0 -0 4 3 3 2 2 1 1 1 1
-5 -4 -5 -5 -5 -5 -5 -4 -4 -3 -3 -3 -3 -2 -3 -3 -3 -2 -2 -2 -2 -3 -3 -2 -1 -1 0 -1 -1 -1 -1 -2 -2 -2 -2 -2 -2 -3 -2 -2 2 2 3 2 2 3 1 2 2 1 1 1 1 1
-6 -6 -5 -6 -6 -6 -5 -5 -5 -5 -4 -5 -5 -5 -4 -4 -4 -3 -3 -2 -3 -3 -4 -3 -2 -1 -2 -2 -2 -1 -2 -2 -2 -2 -2 -2 -2 -3 -3 -2 4 4 4 3 4 3 1 2 2 2 1 1 1 0
-7 -7 -7 -7 -6 -6 -6 -7 -6 -6 -6 -5 -5 -5 -6 -6 -4 -4 -4 -3 -3 -4 -4 -5 -5 -3 -2 -2 -3 -2 -2 -3 -3 -5 -3 -2 -2 -3 -3 0 5 5 4 4 3 3 3 2 2 1 2 2 2 1
-8 -8 -8 -8 -8 -7 -7 -7 -7 -7 -7 -6 -6 -6 -5 -6 -6 -5 -4 -4 -5 -4 -4 -5 -4 -3 -4 -3 -1 -2 -4 -4 -5 -5 -4 -3 -3 -4 -2 7 7 5 4 4 4 3 2 2 2 2 2 2 2 1
-9 -9 -8 -8 -8 -8 -8 -8 -8 -8 -7 -7 -6 -7 -6 -6 -6 -4 -4 -5 -5 -5 -5 -5 -2 -3 -3 -4 -4 -3 -3 -5 -5 -4 -3 -5 -3 -3 6 6 5 4 3 3 3 4 4 4 3 3 2 2 2 2
-10 -10 -9 -9 -9 -9 -9 -9 -9 -9 -9 -9 -8 -7 -7 -7 -6 -6 -5 -7 -7 -6 -6 -5 -4 -4 -3 -4 -4 -4 -5 -5 -6 -4 -4 -4 1 3 4 4 4 3 3 3 5 4 3 3 3 2 2 3 3 2
-12 -11 -11 -10 -11 -11 -11 -11 -10 -10 -9 -10 -10 -8 -8 -8 -7 -7 -6 -8 -8 -7 -6 -3 -3 -6 -6 -6 -6 -6 -6 -6 -6 -4 -5 -4 1 2 3 3 3 3 2 3 3 3 2 2 2 2 3 3 3 3
-13 -13 -13 -12 -12 -12 -12 -12 -12 -11 -11 -11 -11 -10 -10 -10 -9 -8 -8 -8 -9 -7 -5 -3 -3 -3 -5 -6 -7 -6 -6 -6 -5 -5 -6 -4 1 1 2 3 2 2 2 2 2 2 1 2 2 2 1 1 0 1
-13 -13 -13 -13 -13 -13 -12 -12 -13 -13 -13 -12 -12 -12 -11 -9 -9 -9 -8 -8 -8 -6 -3 -2 -3 -5 -7 -8 -8 -7 -7 -6 -7 -7 -5 0 0 1 1 1 3 3 2 2 1 1 1 0 0 0 -0 -0 -0 -0
-13 -13 -13 -13 -13 -13 -12 -12 -13 -13 -13 -13 -13 -12 -12 -10 -9 -8 -7 -6 -5 -4 -4 -4 -4 -5 -7 -7 -7 -7 -7 -7 -7 -5 -2 3 2 1 1 2 2 2 2 2 2 1 1 0 -0 -1 -1 -1 -1 -1
-14 -13 -13 -13 -13 -13 -13 -13 -13 -13 -13 -14 -13 -12 -11 -10 -9 -8 -7 -7 -6 -6 -5 -5 -7 -8 -7 -7 -8 -7 -8 -7 -5 -2 2 2 1 1 1 1 2 1 1 1 1 1 0 -0 -1 -1 -2 -2 -2 -2
-14 -14 -14 -13 -13 -13 -13 -13 -13 -13 -13 -14 -14 -12 -11 -11 -10 -9 -8 -8 -8 -8 -8 -8 -8 -8 -8 -7 -7 -8 -7 -5 -2 -1 -0 -0 0 1 0 -0 -0 -0 -0 -0 -0 -0 -1 -2 -2 -2 -3 -3 -3 -2
-14 -14 -13 -13 -13 -13 -13 -13 -13 -13 -13 -14 -13 -12 -12 -12 -11 -10 -10 -9 -9 -9 -9 -8 -8 -7 -7 -7 -7 -7 -5 -2 -0 -0 -1 -1 -1 -1 -1 -1 -2 -2 -1 -1 -1 -1 -2 -2 -3 -3 -3 -3 -3 -3
-14 -14 -14 -14 -14 -14 -14 -13 -13 -13 -13 -13 -12 -11 -12 -12 -12 -11 -10 -10 -11 -11 -11 -9 -8 -7 -7 -7 -6 -3 -3 -2 -1 -2 -3 -3 -3 -3 -3 -3 -3 -3 -3 -3 -2 -2 -3 -3 -3 -4 -3 -3 -3 -3
-14 -14 -14 -14 -14 -14 -14 -14 -14 -14 -13 -13 -12 -12 -11 -12 -11 -11 -11 -11 -11 -10 -10 -9 -9 -8 -8 -7 -5 -4 -4 -3 -3 -3 -4 -5 -5 -5 -5 -5 -5 -5 -4 -4 -4 -3 -3 -4 -4 -4 -4 -5 -5 -5
-14 -14 -14 -14 -14 -14 -14 -14 -14 -14 -13 -12 -12 -12 -12 -12 -11 -11 -11 -10 -10 -11 -10 -10 -9 -8 -7 -6 -5 -4 -4 -4 -5 -5 -5 -5 -5 -5 -5 -5 -5 -6 -6 -5 -5 -4 -4 -5 -5 -5 -6 -6 -6 -6
-15 -14 -14 -14 -14 -14 -14 -14 -14 -14 -13 -13 -12 -12 -12 -12 -12 -11 -11 -10 -12 -10 -10 -10 -8 -7 -5 -5 -6 -7 -7 -6 -5 -5 -6 -6 -6 -5 -5 -5 -6 -7 -6 -6 -6 -6 -5 -6 -6 -6 -7 -7 -7 -7
-14 -15 -15 -15 -14 -14 -14 -14 -14 -13 -13 -13 -13 -13 -13 -12 -12 -11 -11 -12 -11 -11 -9 -7 -6 -6 -6 -6 -6 -6 -6 -7 -7 -7 -6 -6 -6 -6 -6 -6 -6 -6 -7 -7 -6 -6 -6 -6 -6 -7 -7 -7 -7 -7
-15 -15 -15 -15 -14 -15 -15 -14 -14 -14 -14 -13 -13 -13 -13 -12 -11 -11 -12 -10 -9 -8 -8 -7 -7 -6 -6 -7 -7 -7 -7 -7 -7 -7 -7 -7 -7 -6 -6 -6 -7 -7 -7 -7 -7 -7 -7 -7 -7 -7 -7 -7 -8 -7
-15 -15 -15 -14 -14 -14 -14 -14 -14 -14 -13 -13 -13 -13 -12 -12 -11 -11 -11 -9 -8 -8 -8 -7 -7 -6 -6 -6 -5 -6 -6 -7 -7 -7 -7 -7 -7 -7 -7 -7 -7 -8 -7 -7 -7 -7 -7 -7 -7 -7 -7 -7 -8 -8
-15 -15 -15 -14 -15 -15 -15 -14 -14 -14 -13 -13 -13 -13 -12 -12 -11 -11 -10 -9 -8 -8 -7 -7 -7 -6 -6 -6 -6 -6 -7 -7 -7 -7 -7 -7 -7 -7 -7 -7 -7 -8 -8 -7 -7 -8 -7 -7 -7 -7 -7 -8 -8 -9
-16 -15 -15 -14 -14 -14 -14 -14 -13 -12 -12 -12 -12 -12 -12 -11 -11 -10 -9 -8 -8 -8 -8 -8 -8 -8 -7 -7 -7 -7 -6 -7 -7 -7 -7 -7 -7 -8 -7 -7 -7 -7 -7 -7 -7 -7 -7 -8 -8 -7 -8 -8 -8 -8
-15 -15 -14 -14 -14 -14 -14 -13 -12 -13 -13 -13 -12 -12 -11 -11 -10 -10 -9 -9 -9 -9 -8 -9 -8 -8 -8 -8 -7 -8 -8 -8 -8 -7 -8 -7 -7 -7 -7 -6 -7 -7 -7 -7 -7 -7 -7 -7 -7 -8 -8 -8 -9 -9
-15 -14 -14 -14 -14 -14 -14 -13 -13 -12 -12 -12 -12 -11 -11 -10 -10 -9 -9 -9 -9 -8 -8 -8 -8 -8 -7 -6 -7 -7 -7 -7 -7 -7 -7 -7 -7 -7 -7 -7 -6 -7 -7 -7 -7 -7 -7 -7 -8 -8 -8 -9 -9 -9
-15 -14 -14 -14 -14 -14 -13 -13 -12 -12 -12 -11 -11 -11 -10 -10 -10 -10 -9 -9 -9 -9 -9 -8 -8 -8 -8 -7 -7 -7 -7 -7 -6 -6 -6 -6 -6 -6 -7 -7 -7 -7 -7 -7 -7 -7 -7 -8 -8 -8 -8 -9 -9 -10
-14 -13 -13 -13 -13 -13 -12 -13 -12 -12 -12 -11 -11 -10 -10 -9 -9 -9 -9 -9 -9 -9 -9 -8 -7 -7 -7 -7 -7 -6 -6 -6 -6 -6 -7 -7 -7 -7 -6 -6 -6 -6 -6 -6 -7 -7 -7 -8 -8 -8 -8 -9 -10 -10
-13 -13 -13 -13 -12 -12 -12 -12 -12 -12 -11 -10 -10 -10 -10 -9 -9 -9 -9 -9 -9 -9 -8 -8 -7 -7 -7 -7 -7 -7 -7 -6 -6 -6 -6 -6 -6 -6 -6 -6 -6 -6 -7 -7 -7 -8 -8 -9 -9 -9 -9 -10 -10 -11
-13 -12 -12 -12 -12 -13 -13 -12 -12 -11 -10 -10 -10 -10 -10 -10 -9 -10 -9 -9 -9 -9 -9 -8 -8 -7 -7 -7 -7 -7 -6 -6 -6 -6 -6 -6 -6 -6 -6 -6 -6 -7 -7 -8 -8 -9 -9 -9 -9 -10 -10 -11 -11 -11
-13 -13 -12 -12 -12 -12 -11 -11 -11 -10 -10 -10 -10 -10 -9 -10 -9 -9 -9 -9 -9 -10 -9 -8 -8 -8 -8 -7 -7 -7 -7 -7 -6 -6 -6 -6 -6 -7 -7 -7 -8 -8 -8 -9 -9 -9 -9 -10 -10 -10 -11 -11 -11 -12